Index of /pub/wikimedia/images/wikipedia/commons/archive/b/bb/

NameLast ModifiedSizeType
Parent Directory/ -  Directory
20060121075609!Flag_of_North_Carolina.svg/2008-Sep-05 04:41:46-  Directory
20041227140126!Guerrier_de_Vachères_(profil).png2004-Dec-27 13:21:32306.5Kimage/png
20050123193032!Mo,42.jpg2004-Nov-23 17:38:2361.8Kimage/jpeg
20050206105847!Provincia_de_Tierra_del_Fuego,_Antártida_e_Islas_del_Atlántico_Sur,_Argentina.png2004-Dec-24 11:52:299.1Kimage/png
20050320151849!Ukraine_Oblast_Riwne_Rajon_blank.png2005-Mar-20 15:01:03204.8Kimage/png
20050331192420!Ukraine_Oblast_Riwne_Rajon_blank.png2005-Mar-20 15:18:3123.3Kimage/png
20050412175856!Leyes_sobre_la_homosexualidad_01.PNG2005-Mar-11 17:27:0851.3Kimage/png
20050501052637!Leyes_sobre_la_homosexualidad_01.PNG2005-Apr-12 17:58:4651.3Kimage/png
20050501143908!RiceAmbMrsKellyLittleLeagueCut_600.jpg2005-May-01 14:33:1931.7Kimage/jpeg
20050501162936!Airplane_pushing_vehicle.jpg2005-May-01 16:17:491.1Mimage/jpeg
20050507100157!Artemisia_vulgaris0.jpg2004-Oct-28 10:32:0194.6Kimage/jpeg
20050511132923!Turkey_flag_300.png2004-Dec-19 13:12:351.3Kimage/png
20050511134505!Turkey_flag_300.png2005-May-11 13:29:2113.3Kimage/png
20050513204606!Corkcitycouncil.png2005-May-13 20:34:49124.4Kimage/png
20050516193615!Polygala_major1.jpg2004-Oct-27 11:06:4772.4Kimage/jpeg
20050518224338!Danger.png2005-May-18 22:43:281.5Kimage/png
20050523104904!Sable_bull.jpg2005-May-16 15:31:11478.2Kimage/jpeg
20050524102139!Trelleborg_Municipality.png2005-May-23 19:45:597.2Kimage/png
20050528161447!Vagur,_Faroe_Islands,_in_the_winter,_sunlight_on_slope.JPG2005-Feb-18 20:27:35204.7Kimage/jpeg
20050603170635!Tank_Schema2.png2005-Jun-02 15:47:27327.0Kimage/png
20050610085853!Corkcitycouncil.png2005-May-13 20:45:52128.0Kimage/png
20050617131723!Seven_Star_Park.jpg2005-Jun-17 13:14:22301.7Kimage/jpeg
20050617141519!Noia_64_mimetypes_unknown2.png2005-Jun-17 14:13:366.5Kimage/png
20050625211751!Trophy.jpg2007-Jun-16 22:50:382.5Kimage/jpeg
20050625211835!Trophy.jpg2007-Jun-16 22:50:384.9Kimage/jpeg
20050629130224!Diospyros_kaki.jpg2005-Jun-29 12:54:4057.2Kimage/jpeg
20050629140647!Mazowsze.png2005-Jun-29 13:05:08883.0Kimage/png
20050629162814!Mazowsze.png2005-Jun-29 14:06:03886.8Kimage/png
20050630093846!Mazowsze.png2005-Jun-29 16:28:10716.4Kimage/png
20050630110436!Mazowsze.png2005-Jun-30 09:38:10910.1Kimage/png
20050718164242!Einhausen-2005-07-16.jpg2005-Jul-18 16:36:09656.4Kimage/jpeg
20050720173132!Guêpe_maçonne.jpg2005-Jul-20 17:27:4020.0Kimage/jpeg
20050726124744!Wfm_john_lewis_glasgow.jpg2005-Jul-26 12:37:10873.8Kimage/jpeg
20050728122241!Lidköping_City_Arms.png2005-Jul-28 12:18:204.4Kimage/png
20050731201402!DCongoEquator.png2005-Jul-31 20:13:2515.7Kimage/png
20050816141947!Horloge-republicaine1.jpg2005-Aug-16 14:12:456.5Kimage/jpeg
20050820200319!Sigebert_Ier.jpg2005-Apr-09 13:33:43134.0Kimage/jpeg
20050823091856!Casas_da_Praça_da_Oliveira.jpg2005-Aug-23 09:00:28151.9Kimage/jpeg
20050823214211!P_philosophy.png2005-Aug-23 21:38:032.6Kimage/png
20050823214758!P_philosophy.png2005-Aug-23 21:42:082.9Kimage/png
20050823215921!P_philosophy.png2005-Aug-23 21:47:352.5Kimage/png
20050825105627!Myrskypojatlogo.jpg2005-Aug-25 10:55:1912.1Kimage/jpeg
20050828132039!Leyes_sobre_la_homosexualidad_01.PNG2005-May-01 05:26:3553.8Kimage/png
20050906214723!Nd-TableImage.png2004-Dec-23 12:08:597.2Kimage/png
20050920101934!U2_in_the_heart.jpg2005-Sep-20 00:34:52761.2Kimage/jpeg
20050920102113!LocationNepal.png2004-Dec-21 05:50:545.9Kimage/png
20050925143115!Charles_IX_of_Sweden.jpg2005-Sep-13 01:27:5246.2Kimage/jpeg
20050925143203!Charles_IX_of_Sweden.jpg2005-Sep-25 14:31:1033.9Kimage/jpeg
20050925143325!Charles_IX_of_Sweden.jpg2005-Sep-25 14:32:0033.9Kimage/jpeg
20050926113959!Otterndorf_kirche_01.jpg2005-Sep-26 11:37:50438.4Kimage/jpeg
20050928082422!Loch_Lomond.jpg2005-Sep-27 04:56:2768.3Kimage/jpeg
20050930215652!Wubbo_Ockels.jpg2005-Sep-18 20:21:2117.6Kimage/jpeg
20051004132546!Dalston_kingsland.jpg2005-Oct-04 13:24:54122.2Kimage/jpeg
20051008222525!Lüneburg_(um_1895).jpg2005-Oct-08 14:44:18227.0Kimage/jpeg
20051010152824!Carl_Spitzweg_036.jpg2005-May-21 06:24:00321.7Kimage/jpeg
20051012212225!Forggensee.jpg2005-May-10 11:34:5731.5Kimage/jpeg
20051013015327!Forggensee.jpg2005-Oct-12 21:22:041.0Mimage/jpeg
20051016071721!Leyes_sobre_la_homosexualidad_01.PNG2005-Aug-28 13:20:2544.0Kimage/png
20051016224509!Rabbit_proof_fence_Western_australia.jpg2005-Oct-10 01:06:1714.2Kimage/jpeg
20051017092902!Kobe_Port_Tower.jpg2005-Aug-01 14:32:09325.8Kimage/jpeg
20051017210527!Betula_platyphylla_01-10-2005_14.55.52.JPG2005-Oct-07 18:11:071.2Mimage/jpeg
20051023040815!Fair_use_icon_-_Book.png2005-Sep-02 14:44:4244.2Kimage/png
20051023233740!Image-Geheimes_Staatsarchiv_Preussischer_Kulturbesitz_in_Berlin.jpg2005-Sep-08 12:03:1389.7Kimage/jpeg
20051023234233!Image-Geheimes_Staatsarchiv_Preussischer_Kulturbesitz_in_Berlin.jpg2005-Oct-23 23:37:3583.9Kimage/jpeg
20051024151736!Micene_Porta_dei_leoni.jpg2005-Oct-24 15:14:56413.9Kimage/jpeg
20051027223025!Ilya_Efimovich_Repin_(1844-1930)_-_Portrait_of_Leo_Tolstoy_(1887).jpg2005-Mar-18 00:10:1817.9Kimage/jpeg
20051028143306!München-Sendling_Schmied-von-Kochel-Denkmal_Lindwurmstrasse_20051028.JPG2005-Oct-28 14:27:595.1Mimage/jpeg
20051029102749!Novelty_Replica_05-09-17_86.jpeg2005-Oct-29 10:25:52591.3Kimage/jpeg
20051103164159!Map_cz_Blatná_kroton.svg2005-Oct-31 14:19:05116.8Kapplication/octet-stream
20051103170324!Map_cz_Brno_kroton.svg2005-Oct-31 14:28:13116.8Kapplication/octet-stream
20051107162815!Map_cz_Blatná_kroton.svg2005-Nov-03 16:41:26116.0Kapplication/octet-stream
20051107163609!Map_cz_Brno_kroton.svg2005-Nov-03 17:03:18116.3Kapplication/octet-stream
20051109154746!Rogue_River_Oregon_USA.jpg2008-Jul-14 02:42:15982.0Kimage/jpeg
20051110160340!Obelisque_concorde_jms.jpg2005-Nov-10 15:16:431.0Mimage/jpeg
20051110161637!Obelisque_concorde_jms.jpg2005-Nov-10 16:03:401.0Mimage/jpeg
20051110162244!Obelisque_concorde_jms.jpg2005-Nov-10 16:16:36291.7Kimage/jpeg
20051115110648!Flag_of_Scotland_(traditional).svg2005-Oct-30 18:21:011.1Kapplication/octet-stream
20051123232840!Royal_Navy_commissioning_pennant.png2005-Nov-23 23:17:271.2Kimage/png
20051124111617!STS-92_crew.jpg2005-Oct-21 10:10:56298.1Kimage/jpeg
20051130234041!Elberfeld-West.png2005-Nov-30 23:30:417.5Kimage/png
20051208012847!Japan_prov_map_izumi.png2005-Feb-09 15:56:276.4Kimage/png
20051208162032!Leyes_sobre_la_homosexualidad_01.PNG2005-Oct-16 07:16:36109.5Kimage/png
20051220012444!STS-114_crew.jpg2005-Jul-31 13:02:43177.8Kimage/jpeg
20051221032842!City.of.london.st.pauls.arp.500pix.jpg2005-Nov-03 12:56:2941.4Kimage/jpeg
20051221224426!Karl_X_Gustav_autograph.png2005-Jun-27 18:44:552.0Kimage/png
20051224052501!Scoliopteryx_libatrix1.jpg2005-Jul-09 15:38:3740.9Kimage/jpeg
20051225210448!Wappen_Landkreis_Potsdam-Mittelmark.png2005-Aug-22 00:59:339.9Kimage/png
20060103034618!Tempête_Catégorie_4.png2005-Dec-11 19:49:203.3Kimage/png
20060105223141!Espresso.jpg2005-Feb-11 03:02:129.8Kimage/jpeg
20060105223151!Espresso.jpg2006-Jan-05 22:31:4115.7Kimage/jpeg
20060108143119!Grottenbahn-Linz-porter.jpg2005-Sep-08 09:45:282.0Mimage/jpeg
20060113111141!JR-Shikoku-AsahiStation.JPG2006-Jan-13 10:43:32199.9Kimage/jpeg
20060113111458!JR-Shikoku-AsahiStation.JPG2006-Jan-13 11:11:3047.3Kimage/jpeg
20060114015852!Camaleño.jpg2006-Jan-04 23:19:28119.6Kimage/jpeg
20060117121335!MoleD'Escale.JPG2006-Jan-17 12:00:25199.8Kimage/jpeg
20060117124517!MoleD'Escale.JPG2006-Jan-17 12:11:02190.2Kimage/jpeg
20060120074523!JavaScript_AlertBox.jpg2006-Jan-06 14:57:457.2Kimage/jpeg
20060120074846!Brosen_durres_panview.jpg2005-Sep-20 09:32:56104.9Kimage/jpeg
20060202141613!Densya_de_GO!_controller_type2_JPN.jpg2006-Feb-02 14:15:46675.8Kimage/jpeg
20060206144359!Wikistress3D_1_v3-2.png2006-Feb-06 14:36:4375.2Kimage/png
20060207184226!Sehnentrapezformel.svg2006-Feb-07 18:40:192.8Kapplication/octet-stream
20060209234715!Vietnam_Ho_Chi_Minh_Mausoleum.jpg2006-Feb-09 23:08:07501.7Kimage/jpeg
20060211170953!Agora_Universidad_Politecnica_de_Valencia.JPG2006-Feb-11 16:33:50323.9Kimage/jpeg
20060211230910!Flag_of_the_Red_Crystal.svg2006-Jan-29 11:34:532.3Kapplication/octet-stream
20060212015546!Flag_of_the_Red_Crystal.svg2006-Feb-11 23:09:100.9Kapplication/octet-stream
20060215202428!Armillaria_mellea_apple_tree.jpg2006-Feb-15 19:25:08112.8Kimage/jpeg
20060216195210!Comte_04.jpg2006-Feb-16 19:45:1419.9Kimage/jpeg
20060216195446!Comte_04.jpg2006-Feb-16 19:52:0519.9Kimage/jpeg
20060217194753!Flag_of_the_Red_Crystal.svg2006-Feb-12 01:55:461.0Kapplication/octet-stream
20060219141502!PC-FX.jpg2005-Mar-18 13:06:4611.6Kimage/jpeg
20060228102410!Darcs-ag-patchA.png2006-Feb-28 10:22:3016.9Kimage/png
20060228103215!Darcs-ag-patchA.png2006-Feb-28 10:24:0617.4Kimage/png
20060228205758!Flag_of_Uzbek_SSR.svg2006-Feb-26 18:25:284.4Kapplication/octet-stream
20060303084054!Australian_State_Route_6.svg2006-Feb-26 03:32:464.3Kapplication/octet-stream
20060303110807!Darcs-ag-patchA.png2006-Feb-28 10:32:1017.4Kimage/png
20060305160713!Bandera_de_la_Primera_República_Española.gif2005-Jul-11 13:56:053.3Kimage/gif
20060306224206!Madrid-metro-map_1994.png2006-Mar-06 15:05:2373.1Kimage/png
20060307133601!Madrid-metro-map_1994.png2006-Mar-06 22:42:0273.1Kimage/png
20060308140636!Landkreis_Hofheim_in_Unterfranken.png2006-Mar-06 08:45:0723.6Kimage/png
20060308171316!Katowice_Flaga.svg2006-Mar-08 17:03:2639.2Kapplication/octet-stream
20060308194158!Blank_Go_board.png2005-Feb-19 06:34:4637.2Kimage/png
20060308195122!Uncompahgre_National_Forest_location_in_Colorado.png2005-Aug-08 02:45:55651.3Kimage/png
20060309133020!Sokolnikov.jpg2006-Feb-18 08:38:5015.6Kimage/jpeg
20060309202215!Vietnam_Ho_Chi_Minh_Mausoleum.jpg2006-Feb-09 23:45:04622.8Kimage/jpeg
20060315101903!Euonymus_hamiltonianus_Bra16.png2006-Mar-13 11:13:10185.5Kimage/png
20060316112106!Bergamo_Città_alta.jpg2005-Oct-25 10:35:54174.5Kimage/jpeg
20060317223504!Chlorsaeure.png2006-Mar-17 22:29:067.9Kimage/png
20060317223746!Chlorsaeure.png2006-Mar-17 22:34:558.1Kimage/png
20060318155228!Madrid-metro-map_1994.png2006-Mar-07 13:35:5773.2Kimage/png
20060322132517!Pantani.JPG2006-Mar-22 13:22:372.5Mimage/jpeg
20060323125045!Rembrandt_Harmensz._van_Rijn_014.jpg2005-May-21 03:08:51151.8Kimage/jpeg
20060324110049!Sigurdr.png2006-Mar-23 21:38:5479.5Kimage/png
20060326104329!Darcs-ag-patchA.png2006-Mar-03 11:08:0518.5Kimage/png
20060326213619!CourtsOxford20060325_KaihsuTai.jpg2006-Mar-26 21:35:067.3Kimage/jpeg
20060327070011!MH-60L_Black_Hawk.jpg2006-Mar-15 20:08:1916.9Kimage/jpeg
20060402121945!Japan_prov_map_izumi.png2005-Dec-08 01:28:306.3Kimage/png
20060403204625!S4021096.JPG2006-Mar-16 22:56:07143.0Kimage/jpeg
20060406073454!Big_brother_countries.PNG2006-Apr-06 06:51:4347.5Kimage/png
20060406080225!Big_brother_countries.PNG2006-Apr-06 07:34:5047.8Kimage/png
20060406081654!Big_brother_countries.PNG2006-Apr-06 08:02:2247.8Kimage/png
20060407152904!Magenta.jpg2006-Apr-07 15:27:2199.4Kimage/jpeg
20060408155247!DtOrdensMünster_HN04.JPG2006-Jan-28 20:12:48855.6Kimage/jpeg
20060412164903!Elżbieta_Radziszewska.jpg2005-Sep-03 12:23:235.4Kimage/jpeg
20060413105705!Wiesław_Woda.jpg2006-Jan-11 18:43:548.0Kimage/jpeg
20060413190533!Anbangbang_Billabong_Australia.jpg2006-Apr-13 19:00:451.5Mimage/jpeg
20060414061308!Nuvola_apps_kmahjong.png2005-Sep-11 16:31:599.8Kimage/png
20060420053806!Lasalle_County_Route_29_IL.svg2006-Apr-04 05:02:0317.1Kapplication/octet-stream
20060421185735!375px-Threephase-transformer218p.jpg2005-Mar-26 00:27:5635.2Kimage/jpeg
20060421193035!375px-Threephase-transformer218p.jpg2006-Apr-21 18:57:3297.0Kimage/jpeg
20060423140701!Eastbound_approaching_Hart_Bridge.jpg2005-Jan-09 16:19:37261.4Kimage/jpeg
20060429134955!Japan_prov_map_izumi.png2006-Apr-02 12:19:4539.4Kimage/png
20060430195615!Tatry_pov_kat.png2006-Apr-30 19:43:58111.7Kimage/png
20060501072457!Tatry_pov_kat.png2006-Apr-30 19:56:05113.2Kimage/png
20060503221323!Sindarin-Beleriand.png2006-Apr-08 15:58:2852.0Kimage/png
20060503221446!Sindarin-Beleriand.png2006-May-03 22:13:1610.7Kimage/png
20060504170821!Kyoto-Chuo-Shinkin-Bank-01.jpg2006-Mar-11 14:52:25425.7Kimage/jpeg
20060504193255!Ruetschenhausen_Fronleichnahmsaltar1.jpg2009-Aug-25 05:48:22494.7Kimage/jpeg
20060507120934!BBC_expenditure_percentage_Redvers.png2006-Apr-30 14:58:5444.9Kimage/png
20060509093123!West-side-ship.jpg2006-May-09 09:25:071.8Mimage/jpeg
20060509105735!BBC_expenditure_percentage_Redvers.png2006-May-07 12:09:2951.6Kimage/png
20060509105855!BBC_expenditure_percentage_Redvers.png2006-May-09 10:57:3145.2Kimage/png
20060519194548!InnenstadtKitzbühel.jpg2006-Mar-28 08:35:23131.7Kimage/jpeg
20060522072213!Obelisque_concorde_jms.jpg2005-Nov-10 16:22:45154.4Kimage/jpeg
20060522074424!Obelisque_concorde_jms.jpg2006-May-22 07:22:13277.6Kimage/jpeg
20060522155358!Acer_platanoides_seeds.jpg2006-May-22 15:52:32410.4Kimage/jpeg
20060525164611!Hazard_E.svg2006-May-25 15:48:3413.7Kapplication/octet-stream
20060529084332!Magenta.jpg2006-Apr-07 15:29:0099.4Kimage/jpeg
20060529234343!Kolumbianischer_Präsident_Alvaro_Uribe_2004.jpg2006-May-21 10:55:481.1Mimage/jpeg
20060530183953!Hugo_Martina_1856_0201.png2006-Mar-29 20:32:4023.8Kimage/png
20060530184301!Hugo_Martina_1856_0248.png2006-Mar-29 20:45:4422.0Kimage/png
20060530190051!Hugo_Martina_1856_0137.png2006-Mar-29 20:29:2224.1Kimage/png
20060530190225!Hugo_Martina_1856_0162.png2006-Mar-29 20:30:3023.2Kimage/png
20060530192401!Hugo_Martina_1856_0709.png2006-Mar-29 21:16:1224.3Kimage/png
20060530192635!Hugo_Martina_1856_0747.png2006-Mar-29 21:18:1042.8Kimage/png
20060602124029!Kyoto-Chuo-Shinkin-Bank-01.jpg2006-May-04 17:08:031.8Mimage/jpeg
20060602163832!Anichkov_fontanka.jpg2006-Jun-02 16:25:4727.8Kimage/jpeg
20060603112541!M-553.svg2006-Jun-03 10:38:392.9Kapplication/octet-stream
20060603171852!Dosenstecher.jpg2006-Jun-03 17:17:44237.9Kimage/jpeg
20060604181756!CampCeltiquePanorama.jpg2006-Jun-04 15:25:491.2Mimage/jpeg
20060604182559!CampCeltiquePanorama.jpg2006-Jun-04 18:17:56850.9Kimage/jpeg
20060605192903!Georgia_72.svg2006-Apr-16 15:44:239.0Kapplication/octet-stream
20060610200345!FrontageStonEaston.jpg2006-Jun-10 19:51:031.9Mimage/jpeg
20060612012725!CC_SomeRightsReserved.png2005-Aug-29 11:45:584.0Kimage/png
20060612012805!CC_SomeRightsReserved.png2006-Jun-12 01:27:123.2Kimage/png
20060612012827!CC_SomeRightsReserved.png2006-Jun-12 01:28:033.2Kimage/png
20060612012844!CC_SomeRightsReserved.png2006-Jun-12 01:28:253.2Kimage/png
20060612012944!CC_SomeRightsReserved.png2006-Jun-12 01:28:443.2Kimage/png
20060612013047!CC_SomeRightsReserved.png2006-Jun-12 01:29:443.2Kimage/png
20060612013137!CC_SomeRightsReserved.png2006-Jun-12 01:30:473.2Kimage/png
20060612013232!CC_SomeRightsReserved.png2006-Jun-12 01:31:373.2Kimage/png
20060612013324!CC_SomeRightsReserved.png2006-Jun-12 01:32:323.2Kimage/png
20060612013403!CC_SomeRightsReserved.png2006-Jun-12 01:33:243.2Kimage/png
20060612013411!CC_SomeRightsReserved.png2006-Jun-12 01:34:033.2Kimage/png
20060612013517!CC_SomeRightsReserved.png2006-Jun-12 01:34:123.2Kimage/png
20060612013540!CC_SomeRightsReserved.png2006-Jun-12 01:35:173.2Kimage/png
20060612015334!CC_SomeRightsReserved.png2006-Jun-12 01:35:363.2Kimage/png
20060613214056!Anchomanes_giganteus1.jpg2004-Oct-27 07:18:2127.4Kimage/jpeg
20060613224916!CC_SomeRightsReserved.png2006-Jun-12 01:53:333.2Kimage/png
20060616083113!CC_SomeRightsReserved.png2006-Jun-13 22:49:153.2Kimage/png
20060616140205!Battleship_Yamato_sinking.jpg2005-Jan-18 20:45:3711.9Kimage/jpeg
20060617022038!CC_SomeRightsReserved.png2006-Jun-16 08:31:133.2Kimage/png
20060617022741!CC_SomeRightsReserved.png2006-Jun-17 02:20:343.2Kimage/png
20060617025421!CC_SomeRightsReserved.png2006-Jun-17 02:27:393.2Kimage/png
20060617032248!CC_SomeRightsReserved.png2006-Jun-17 02:54:213.2Kimage/png
20060617032312!CC_SomeRightsReserved.png2006-Jun-17 03:22:463.2Kimage/png
20060617033007!CC_SomeRightsReserved.png2006-Jun-17 03:23:123.2Kimage/png
20060617033251!CC_SomeRightsReserved.png2006-Jun-17 03:30:003.2Kimage/png
20060617033329!CC_SomeRightsReserved.png2006-Jun-17 03:32:493.2Kimage/png
20060617033557!CC_SomeRightsReserved.png2006-Jun-17 03:33:293.2Kimage/png
20060617033740!CC_SomeRightsReserved.png2006-Jun-17 03:35:573.2Kimage/png
20060617033745!CC_SomeRightsReserved.png2006-Jun-17 03:37:403.2Kimage/png
20060617044454!CC_SomeRightsReserved.png2006-Jun-17 03:37:443.2Kimage/png
20060617050230!CC_SomeRightsReserved.png2006-Jun-17 03:46:273.2Kimage/png
20060617125751!Old_Japan_Iki.svg2006-Jun-17 11:18:1375.3Kapplication/octet-stream
20060622004348!Kamp_zew_prez_RP_2006_Tusk_Kacz.svg2006-Jun-22 00:07:0530.2Kapplication/octet-stream
20060622004547!Kamp_zew_prez_RP_2006_Tusk_Kacz.svg2006-Jun-22 00:43:4561.7Kapplication/octet-stream
20060622005421!Kamp_zew_prez_RP_2006_Tusk_Kacz.svg2006-Jun-22 00:45:4452.8Kapplication/octet-stream
20060622010712!Kamp_zew_prez_RP_2006_Tusk_Kacz.svg2006-Jun-22 00:54:1752.6Kapplication/octet-stream
20060623145650!Coat_of_arms_of_NVA_(East_Germany).svg2006-Jun-23 14:42:52122.7Kapplication/octet-stream
20060623225004!Hypatia_(Charles_William_Mitchell).jpg2005-Aug-18 08:16:27220.0Kimage/jpeg
20060624210634!U-Netz_Frankfurt.png2006-Jun-24 21:04:55319.9Kimage/png
20060624212417!U-Netz_Frankfurt.png2006-Jun-24 21:06:31317.1Kimage/png
20060624220242!U-Netz_Frankfurt.png2006-Jun-24 21:24:14140.8Kimage/png
20060624223127!U-Netz_Frankfurt.png2006-Jun-24 22:02:36140.9Kimage/png
20060625133123!Db-155201-01.jpg2006-Feb-04 15:06:08180.7Kimage/jpeg
20060625152804!Iran_bastan_-_12.jpg2006-Jun-07 21:06:291.2Mimage/jpeg
20060625204221!Carte-ile-de-houat.gif2006-Jun-25 16:32:0028.7Kimage/gif
20060626120725!LocationMorocco.png2004-Dec-12 22:01:545.4Kimage/png
20060628000616!Coat_of_arms_of_North_Rhine-Westfalia.svg2006-May-25 18:29:49109.6Kapplication/octet-stream
20060702142339!Heilbronn_Lerchenbergtunnel_20060630.jpg2006-Jul-02 14:10:00259.9Kimage/jpeg
20060702202714!U-Netz_Frankfurt.png2006-Jun-24 22:23:00141.1Kimage/png
20060706170311!都道府県道.svg2006-Jul-06 16:31:330.5Kapplication/octet-stream
20060707123205!Podarcis_bocagei_facing.jpg2006-Jul-07 12:30:02590.6Kimage/jpeg
20060707203704!Georgia_221.svg2006-Apr-16 19:13:459.9Kapplication/octet-stream
20060708115201!U-Netz_Frankfurt.png2006-Jul-02 20:27:12137.7Kimage/png
20060708144409!U-Netz_Frankfurt.png2006-Jul-08 11:51:57137.4Kimage/png
20060710163140!LocationMorocco.png2006-Jun-26 12:07:255.0Kimage/png
20060712042509!Cyclopentanophenantren.png2006-May-30 17:38:213.6Kimage/png
20060713101554!Felix_2001_track.png2005-Dec-25 00:48:4643.4Kimage/png
20060713134504!Dolly_1996_track.png2005-Dec-29 02:58:15499.9Kimage/png
20060713135945!Rim_biegen.jpg2006-Jul-12 08:56:58580.6Kimage/jpeg
20060713161924!Katrina_1981_track.png2006-Jan-24 04:06:18340.3Kimage/png
20060713190400!Friedrich_Wilhelm_Bessel.jpeg2005-Jul-17 13:51:44140.2Kimage/jpeg
20060713204917!Gerda_1961_track.png2006-Feb-02 01:28:57454.8Kimage/png
20060713231837!Dolly_1953_track.png2006-Feb-02 00:11:34242.2Kimage/png
20060714125058!Greg_1999_track.png2006-Feb-02 19:22:17411.1Kimage/png
20060714165401!Bud_1988_track.png2006-Jun-07 03:41:06329.3Kimage/png
20060716152657!U-Netz_Frankfurt.png2006-Jul-08 14:44:07137.6Kimage/png
20060721163017!NL-A6.png2006-Jul-19 18:09:3712.2Kimage/png
20060721163103!NL-A6.png2006-Jul-21 16:30:1512.0Kimage/png
20060726193141!SPQRomani.svg2006-Jul-26 19:26:2548.8Kapplication/octet-stream
20060728142905!Zusatzzeichen_1026-30.svg2006-Jul-27 01:03:541.9Kapplication/octet-stream
20060729064240!Anders_Zorn_-_Självporträtt_i_rött_(1915).jpg2006-Jan-11 16:24:3127.5Kimage/jpeg
20060730202307!CC_SomeRightsReserved.png2006-Jun-17 05:02:293.2Kimage/png
20060731201816!Krafft-Ebing.jpg2005-Sep-06 18:53:58162.0Kimage/jpeg
20060801151438!Acer_platanoides_seeds.jpg2006-May-22 15:53:40410.4Kimage/jpeg
20060802165238!Naphthalene.svg2006-Jul-30 10:23:502.2Kapplication/octet-stream
20060805012427!Bandeira_da_Paraíba.svg2006-Feb-15 02:28:201.3Kapplication/octet-stream
20060809160810!STS-86_patch.jpg2006-Aug-09 15:56:332.7Mimage/jpeg
20060809232620!Zusatzzeichen_1026-30.svg2006-Jul-28 14:29:053.1Kapplication/octet-stream
20060810223409!Hazard_E.svg2006-May-25 16:46:078.6Kapplication/octet-stream
20060813075536!Sa_fruitfly4.jpg2006-Aug-13 07:53:41558.1Kimage/jpeg
20060813170112!Caminho_da_Bahia_GIF.gif2006-Aug-10 00:35:22101.7Kimage/gif
20060819184538!Microlith_in_hand.jpg2006-Aug-09 18:25:4516.5Kimage/jpeg
20060820013210!Seward_Docks.jpg2005-Sep-02 00:11:02227.0Kimage/jpeg
20060823153321!TS-N-18.png2006-Aug-21 17:36:1833.2Kimage/png
20060823225241!Bergamo_Città_alta.jpg2006-Mar-16 11:21:02321.9Kimage/jpeg
20060824100335!Młyny_Werbyckij.JPG2006-Jun-30 22:52:35697.1Kimage/jpeg
20060827121838!Coat_of_arms_of_North_Rhine-Westfalia.svg2006-Jun-28 00:06:1341.0Kapplication/octet-stream
20060829160108!Nwmsu-university.jpg2006-Aug-29 16:00:39285.1Kimage/jpeg
20060902130704!Deutschland_Besatzungszonen_1945.png2006-Jan-01 10:07:0058.0Kimage/png
20060904201616!Expedition_14.jpg2006-Aug-04 04:45:1962.4Kimage/jpeg
20060906080005!Orleans_Parish_Louisiana.png2005-Dec-06 15:48:2545.5Kimage/png
20060906080023!Orleans_Parish_Louisiana.png2006-Sep-06 08:00:0512.2Kimage/png
20060907105019!TS-N-18.png2006-Aug-23 15:33:2121.9Kimage/png
20060910172144!Flag_of_Scotland_(traditional).svg2005-Nov-15 11:06:481.0Kapplication/octet-stream
20060911160940!Russia-CIA_WFB_Map--Tunguska.png2005-May-21 15:35:5228.9Kimage/png
20060916075424!Hessen_ERB.png2006-Sep-16 07:01:28131.1Kimage/png
20060916172252!STS-1_Approach.jpg2005-Aug-12 18:02:38916.9Kimage/jpeg
20060921191118!Hessen_ERB.png2006-Sep-16 07:54:22131.1Kimage/png
20060921191412!Hessen_HR.png2006-Sep-16 07:57:28130.9Kimage/png
20060921194924!Hessen_ERB.png2006-Sep-21 19:11:14101.5Kimage/png
20060921195154!Hessen_HR.png2006-Sep-21 19:14:1098.0Kimage/png
20060923123207!CC_SomeRightsReserved.png2006-Jul-30 20:22:582.4Kimage/png
20060923184549!Groen_busksommerfugl.jpg2006-Mar-21 20:49:2432.1Kimage/jpeg
20060923185822!Groen_busksommerfugl.jpg2006-Sep-23 18:45:45442.4Kimage/jpeg
20060925105337!CC_SomeRightsReserved.png2006-Sep-23 12:32:073.2Kimage/png
20060925231138!TahitianLocationMap.jpg2006-Sep-25 23:02:59909.3Kimage/jpeg
20060926210823!TahitianLocationMap.jpg2006-Sep-25 23:11:31912.8Kimage/jpeg
20060928215745!Salix-cinerea-leaves.JPG2006-Apr-10 17:34:21130.9Kimage/jpeg
20060930131115!Germinal_epithelium_testicle.svg2006-Sep-30 13:09:5637.7Kapplication/octet-stream
20060930131438!Germinal_epithelium_testicle.svg2006-Sep-30 13:11:1537.7Kapplication/octet-stream
20061006111604!BayaWeaverDisplay.jpg2006-Oct-06 11:11:292.0Mimage/jpeg
20061006171941!Reinsbuettel-Wappen.png2006-Apr-29 22:01:56488.0Kimage/png
20061006173136!Arnold_Schwarzenegger_2004-01-30.jpg2006-Oct-06 17:27:2313.9Kimage/jpeg
20061006214838!Coat_of_arms_of_North_Rhine-Westfalia.svg2006-Aug-27 12:18:3647.7Kapplication/octet-stream
20061011080147!CPDN-Client.png2006-Sep-26 17:20:02226.7Kimage/png
20061011090731!Karte_Gemeinde_Trubschachen.png2005-Jul-29 16:54:32194.1Kimage/png
20061014204356!Location_of_the_city_of_Huaraz_in_Peru.png2006-May-29 22:15:0015.8Kimage/png
20061015192721!Location_of_the_city_of_Huaraz_in_Peru.png2006-Oct-14 20:43:2916.2Kimage/png
20061016153231!Coat_of_arms_of_North_Rhine-Westfalia.svg2006-Oct-06 21:48:36137.9Kapplication/octet-stream
20061017220131!Coat_of_arms_useldange_luxbrg.png2006-Oct-08 13:54:44208.7Kimage/png
20061018180348!2006-09-19_Berlin_Bellevue.jpg2006-Oct-18 16:25:262.4Mimage/jpeg
20061019191108!Schreitbagger_Esch.jpg2006-Oct-19 18:58:0796.7Kimage/jpeg
20061020202309!Radius_post.jpg2005-Mar-15 00:49:59122.8Kimage/jpeg
20061021201220!Acid2_reference.png2006-Sep-20 07:45:162.2Kimage/png
20061021223104!Gisele_Bundchen4.jpg2006-Jul-02 20:26:46524.0Kimage/jpeg
20061022123324!Madrid-MetroLigero.png2006-Oct-22 12:11:5620.1Kimage/png
20061022124653!Madrid-MetroLigero.png2006-Oct-22 12:32:4720.7Kimage/png
20061027063315!Asterias_rubens.jpg2005-Oct-11 09:11:0593.3Kimage/jpeg
20061029154338!Dorset_cursus_soilmarks_on_bottlebush_down.jpg2006-Oct-29 15:42:13287.2Kimage/jpeg
20061104180045!Georgia_state_route_22_map.png2006-Nov-04 03:33:08148.4Kimage/png
20061106085204!Santiago_de_Chile_L4.svg2005-Sep-28 18:54:570.6Kapplication/octet-stream
20061106162542!Lockheed_ER-2.jpg2006-Aug-27 15:39:103.2Mimage/jpeg
20061110162632!A300a.jpg2006-Nov-10 16:24:3047.7Kimage/jpeg
20061111185741!Spider.cooktown.australia.1.jpg2006-Nov-10 22:44:3361.1Kimage/jpeg
20061114131036!Darcs-ag-patchA.png2006-Mar-26 10:43:2420.3Kimage/png
20061114234603!Anime_eye.svg2006-Nov-14 21:13:4310.7Kapplication/octet-stream
20061114234945!Anime_eye.svg2006-Nov-14 23:44:1610.9Kapplication/octet-stream
20061115154723!Bis(trimethylsilyl)mercury.png2006-Nov-15 11:24:543.7Kimage/png
20061115161010!Bis(trimethylsilyl)mercury.png2006-Nov-15 15:45:496.8Kimage/png
20061115192646!Karte_Lage_Kanton_Tessin.png2005-Jun-19 08:48:12451.8Kimage/png
20061117112230!ANSI_size_illustration2.svg2006-Nov-17 11:20:2214.3Kapplication/octet-stream
20061117135535!Néolithique_0008.jpg2006-Feb-26 14:31:391.0Mimage/jpeg
20061118204207!Esperance_location_map_in_Western_Australia.PNG2005-Dec-17 01:39:4499.0Kimage/png
20061118223619!SD_102.svg2006-Oct-05 21:47:00198.0Kapplication/octet-stream
20061120143821!Sandefjord_komm.png2005-Mar-07 17:56:556.2Kimage/png
20061120144244!Sandefjord_komm.png2006-Nov-20 14:36:3245.9Kimage/png
20061120145031!Sandefjord_komm.png2006-Nov-20 14:40:5545.9Kimage/png
20061121164134!Alternative_Energies.jpg2006-Nov-15 19:29:03872.7Kimage/jpeg
20061122141831!1978sapporo.jpg2006-Sep-15 08:07:5113.4Kimage/jpeg
20061123063424!P53.png2006-Oct-05 15:48:43242.8Kimage/png
20061126122813!Flag_of_Rotuma_(1987-1988).svg2006-Nov-10 10:45:081.9Kapplication/octet-stream
20061126223451!Glucolat.PNG2006-Sep-16 11:48:091.9Kimage/png
20061127131011!Quarry_Bay_MTR_Station,_Hong_Kong.jpg2013-Jan-03 23:51:3153.5Kimage/jpeg
20061128105514!Wappen_Langenbeutingen.png2006-Oct-14 17:39:0413.4Kimage/png
20061129205120!Arms_Aguilar.svg2006-Nov-29 20:45:05251.0Kapplication/octet-stream
20061130142400!Ambloplites_rupestris1.jpg2005-Aug-22 10:07:48649.5Kimage/jpeg
20061201154625!JRW-KurashikiStation-1A.jpg2006-Jun-01 13:26:5345.7Kimage/jpeg
20061204104243!Linearitaet_des_Missionsverlaufs_von_KKND_2_im_Vergleich_zu_anderen_Spielen.gif2006-Nov-30 13:53:37113.7Kimage/gif
20061204104522!Linearitaet_des_Missionsverlaufs_von_KKND_2_im_Vergleich_zu_anderen_Spielen.gif2006-Dec-04 10:40:09146.2Kimage/gif
20061205085556!Slide_Lake_Bridger_Wilderness.jpg2006-Jan-05 21:03:5266.6Kimage/jpeg
20061205171356!Linearitaet_des_Missionsverlaufs_von_KKND_2_im_Vergleich_zu_anderen_Spielen.gif2006-Dec-04 10:42:16150.9Kimage/gif
20061205172037!Linearitaet_des_Missionsverlaufs_von_KKND_2_im_Vergleich_zu_anderen_Spielen.gif2006-Dec-05 17:11:28159.2Kimage/gif
20061205172253!Linearitaet_des_Missionsverlaufs_von_KKND_2_im_Vergleich_zu_anderen_Spielen.gif2006-Dec-05 17:18:11158.9Kimage/gif
20061205195117!Linearitaet_des_Missionsverlaufs_von_KKND_2_im_Vergleich_zu_anderen_Spielen.gif2006-Dec-05 17:20:27159.2Kimage/gif
20061205195555!Linearitaet_des_Missionsverlaufs_von_KKND_2_im_Vergleich_zu_anderen_Spielen.gif2006-Dec-05 19:48:13159.0Kimage/gif
20061207122156!Yakovlev_Kabuki1.jpg2006-Dec-07 12:19:0752.2Kimage/jpeg
20061207180721!Chance_Vought_F4U_vr.jpg2006-Jul-04 17:55:19104.0Kimage/jpeg
20061207215922!Karabela.svg2006-Feb-17 11:47:0435.1Kapplication/octet-stream
20061207231438!Wikiwiki.jpg2006-Apr-24 20:53:2895.9Kimage/jpeg
20061209102633!Emerald_Dove.JPG2006-Dec-09 10:18:0154.2Kimage/jpeg
20061211175336!Tailess_Whip_scorpion.JPG2006-Dec-11 17:47:5518.1Kimage/jpeg
20061211215049!Anders_Zorn_-_Kvinna_som_klär_sig_(1893).jpg2006-Jan-11 16:32:32122.9Kimage/jpeg
20061213080746!Pha_That_Luang_Vientiane_Laos.jpg2006-Dec-12 05:45:35196.3Kimage/jpeg
20061214122418!Blason_Andrésy01.svg2006-Dec-14 12:04:3087.1Kapplication/octet-stream
20061214211112!Jamaica_Road,_London.jpg2012-Nov-24 01:40:21187.1Kimage/jpeg
20061215181424!Quarry_Bay_MTR_Station,_Hong_Kong.jpg2013-Jan-03 23:51:31151.2Kimage/jpeg
20061216194851!Japanese_National_Route_Sign_0172.svg2006-Dec-13 19:50:089.3Kapplication/octet-stream
20061216200231!Japanese_National_Route_Sign_0435.svg2006-Dec-13 19:56:249.3Kapplication/octet-stream
20061217005722!Big_brother_countries.PNG2006-Apr-06 08:16:5147.9Kimage/png
20061217010424!Big_brother_countries.PNG2006-Dec-17 00:57:1547.7Kimage/png
20061219122726!Blason_Guitrancourt01.svg2006-Dec-18 19:46:1465.3Kapplication/octet-stream
20061219122943!Blason_Guitrancourt01.svg2006-Dec-19 12:27:1264.9Kapplication/octet-stream
20061219155203!GL671.mid2006-Dec-19 15:14:133.3Kapplication/octet-stream
20061219155547!Atlas_D_with_Mercury-Atlas_5_(Nov._29_1961).jpg2006-Dec-19 14:16:5025.7Kimage/jpeg
20061220153539!SD_102.svg2006-Nov-18 22:34:34204.4Kapplication/octet-stream
20061220160241!Dr_David_S_C_Chu.jpg2005-Mar-20 20:33:1914.1Kimage/jpeg
20061220214100!Hazard_E.svg2006-Aug-10 22:33:5426.9Kapplication/octet-stream
20061221225245!Blason_ville_fr_Thoiry_Yvelines.svg2006-Dec-20 18:09:14119.1Kapplication/octet-stream
20061224100526!NIKAIA-seguraneVLGE.jpg2006-Dec-23 11:12:5971.7Kimage/jpeg
20061229091833!Spider_Crabs_Fighting.JPG2006-Dec-29 09:15:34583.8Kimage/jpeg
20061231044106!JR-Shikoku-AsahiStation.JPG2006-Jan-13 11:14:58199.9Kimage/jpeg
20061231194009!Bandeira_da_Paraíba.svg2006-Aug-05 01:24:270.9Kapplication/octet-stream
20061231194827!Bandeira_da_Paraíba.svg2006-Dec-31 19:39:245.3Kapplication/octet-stream
20070101201644!Nice-port-Garibaldi-PalaisAvigdorBlason.jpg2007-Jan-01 20:12:51271.9Kimage/jpeg
20070101224247!US_and_USSR_nuclear_stockpiles.svg2007-Jan-01 18:08:2538.9Kapplication/octet-stream
20070102205718!Divali_offerings.jpg2005-Oct-17 08:51:4895.7Kimage/jpeg
20070102211230!Dungeness_garden.jpg2006-Aug-07 19:14:23204.3Kimage/jpeg
20070103000406!Headphones_Sony_super-light.jpg2005-Sep-29 22:05:48388.8Kimage/jpeg
20070103183133!Cholesteatom_CT_serie_1.jpg2006-Dec-22 17:31:2079.4Kimage/jpeg
20070104134927!Pancake_with_tomato_goats_cheese_and_onion.jpg2006-Mar-04 20:46:42291.8Kimage/jpeg
20070105110412!Roma-fosseardeatine.jpg2005-Nov-24 14:54:13281.3Kimage/jpeg
20070105110835!Roma-largoargentina20.jpg2005-Nov-24 11:53:03694.5Kimage/jpeg
20070105120951!Salir_e_S._Martinho_do_Porto_(Portugal)6.jpg2006-Jan-01 17:10:12783.5Kimage/jpeg
20070105125640!Siena-strada06.jpg2006-May-22 14:57:44436.3Kimage/jpeg
20070105163108!Vista_do_Miradouro_de_Sta._Justa_-_Lisboa_(Portugal)2.jpg2006-Jan-08 22:18:54613.8Kimage/jpeg
20070105170508!Warder_in_RD.png2006-Dec-31 14:26:2315.1Kimage/png
20070106013542!SD_102.svg2006-Dec-20 15:35:25204.1Kapplication/octet-stream
20070108024404!MT-sec-223.svg2007-Jan-07 23:58:0513.2Kapplication/octet-stream
20070108173931!Estonia_municipalities.png2006-Dec-20 15:43:1340.8Kimage/png
20070109175430!Nicolasaguilar.jpg2007-Jan-09 17:50:195.8Kimage/jpeg
20070112004124!ObererTeichJapGartenKL_sx.jpg2007-Jan-12 00:23:45515.9Kimage/jpeg
20070112010302!ObererTeichJapGartenKL_sx.jpg2007-Jan-12 00:40:05536.1Kimage/jpeg
20070116222150!Chloroacetic-acid-3D-vdW.png2007-Jan-16 22:20:08143.9Kimage/png
20070119232418!GW-Bush-in-uniform.jpg2005-Aug-14 12:16:2185.7Kimage/jpeg
20070120202948!SSangyong_Rextron_silver_v.jpg2006-May-14 18:11:32106.7Kimage/jpeg
20070121142843!BureNavala.jpg2007-Jan-21 12:17:17721.4Kimage/jpeg
20070121205445!Real_grounds_1000.svg2007-Jan-18 12:47:4429.6Kapplication/octet-stream
20070123180701!Gray303.png2005-Mar-19 18:31:05102.2Kimage/png
20070123211535!Cross_coupled_LC_oscillator.svg2007-Jan-23 21:09:1220.2Kapplication/octet-stream
20070123213056!Gray1034.png2006-Feb-11 04:24:07126.6Kimage/png
20070123222703!Crystal_Clear_app_home.png2006-Mar-28 01:43:3310.3Kimage/png
20070123231101!Crystal_Clear_app_khelpcenter.png2006-Mar-28 01:45:2715.1Kimage/png
20070124084026!Inclinaison.png2006-Dec-20 14:14:290.4Kimage/png
20070124153948!Troglitazone.png2006-Jun-21 15:15:283.4Kimage/png
20070126181836!Cross_coupled_LC_oscillator.svg2007-Jan-23 21:13:4820.2Kapplication/octet-stream
20070129111051!CERN-aerial.jpg2006-Nov-02 20:44:57144.0Kimage/jpeg
20070130230257!Naphthalene.svg2006-Aug-02 16:52:362.2Kapplication/octet-stream
20070131000504!Elaeagnus-commutata-total.JPG2005-Nov-23 14:24:4753.2Kimage/jpeg
20070203093735!Yacht_shroud_1.svg2007-Feb-03 09:19:335.1Kapplication/octet-stream
20070203170403!Pipeline_OpenGL_(en).png2007-Feb-03 13:01:0927.2Kimage/png
20070204152759!Leyes_sobre_la_homosexualidad_01.PNG2005-Dec-08 16:20:26105.7Kimage/png
20070207071838!Pomorskie_pomeranian_voivodeship.png2006-Dec-30 22:46:0497.9Kimage/png
20070208064503!Centre_Way_view_to_Mouquet_Farm_(AWM_EZ0100).jpg2007-Feb-08 06:40:08471.1Kimage/jpeg
20070208200016!Bruneck_von_Süden.jpg2007-Feb-08 19:52:052.1Mimage/jpeg
20070210183912!DD-GläserneManufaktur.JPG2007-Jan-02 23:16:57777.7Kimage/jpeg
20070210192157!Yacht_shroud_1.svg2007-Feb-03 09:35:265.0Kapplication/octet-stream
20070213120941!Vestmannaeyjar.JPG2007-Feb-13 12:06:3575.2Kimage/jpeg
20070215141439!0_Andorra_parishes_blank.svg2007-Feb-15 14:00:3111.0Kapplication/octet-stream
20070216185602!En-us-solemn.ogg2007-Feb-15 08:15:4512.5Kapplication/ogg
20070219003206!Sigurdr.png2006-Mar-24 10:59:5979.4Kimage/png
20070219020724!Circ9pnt2.svg2007-Feb-19 00:56:4723.0Kapplication/octet-stream
20070224222617!Leyes_sobre_la_homosexualidad_01.PNG2007-Feb-04 15:25:32524.0Kimage/png
20070225195555!L._Ron_Hubbard_Life_&_Death.jpg2007-Feb-20 21:06:0594.1Kimage/jpeg
20070225221853!Pipeline_OpenGL_(en).png2007-Feb-03 17:01:5026.7Kimage/png
20070226135918!Kampong_Java_Tunnel.JPG2006-Nov-11 16:59:36680.3Kimage/jpeg
20070302144355!Waremme_Liège_Belgium_Map.png2005-Apr-04 21:42:115.3Kimage/png
20070302152029!Greece2world.png2007-Mar-02 15:10:2794.7Kimage/png
20070302152212!Greece2world.png2007-Mar-02 15:17:0498.0Kimage/png
20070303104527!IBRA_6.1_Pine_Creek.png2007-Feb-07 00:43:3476.2Kimage/png
20070305031210!West_plate_South_Dakota.svg2006-Aug-17 06:42:187.5Kapplication/octet-stream
20070305180405!Via_Cimarosa,_Firenze_5.JPG2007-Mar-05 17:41:081.5Mimage/jpeg
20070309005510!AjedrezOnline.jpg2007-Mar-09 00:48:3963.7Kimage/jpeg
20070311191155!Gemeinden_im_Bezirk_Dornbirn.svg2007-Mar-11 18:54:18574.3Kapplication/octet-stream
20070311234253!Hell-Born_-_Baal_Ravenlock_02.JPG2006-Dec-03 22:40:321.3Mimage/jpeg
20070312110837!Gemeinden_im_Bezirk_Dornbirn.svg2007-Mar-11 19:08:05574.5Kapplication/octet-stream
20070312175625!Map_of_Florida_highlighting_Pinellas_Park.svg2007-Mar-12 17:54:351.2Mapplication/octet-stream
20070313182551!Earth-crust-cutaway-latviski.png2007-Mar-13 18:21:1344.7Kimage/png
20070315075454!Cyclone_Indlala_14_March_2007_0600Z.jpg2007-Mar-15 07:36:02158.9Kimage/jpeg
20070316184338!CFL-grow-light-dual-spectrum.jpg2007-Mar-16 18:37:03684.6Kimage/jpeg
20070318172949!Mitracephala.humboldti.jpg2006-Apr-30 22:40:2369.5Kimage/jpeg
20070321141352!Skoczylas-Demonstracja_uliczna.jpg2007-Mar-18 19:52:1070.8Kimage/jpeg
20070321212045!Wappen_Biberach_an_der_Riss.png2006-May-20 12:52:26122.7Kimage/png
20070322122107!Regione_Abruzzo.svg2007-Mar-22 12:09:58808.5Kapplication/octet-stream
20070322144340!Bahía_Algeciras.jpg2007-Mar-22 14:36:13732.9Kimage/jpeg
20070322163129!Regione_Abruzzo.svg2007-Mar-22 12:19:20808.3Kapplication/octet-stream
20070323171349!Frankfurt_Am_Main-Roemer-Wanebachhoefchen-1900.jpg2007-Mar-05 19:11:47347.7Kimage/jpeg
20070324234829!Hendriksholm.jpg2007-Jan-05 15:49:1012.6Kimage/jpeg
20070327000138!USS_Dale_(DD-290).jpg2005-Jun-21 02:26:1077.7Kimage/jpeg
20070327065019!Hydrous_piceus_underside.jpg2007-Mar-26 07:52:301.1Mimage/jpeg
20070327120845!SN1_reaction_mechanism.png2006-Feb-12 02:32:2714.5Kimage/png
20070329215622!Mont_ventoux.jpg2007-Mar-29 21:31:4417.4Kimage/jpeg
20070330162213!7-segment_abce.svg2006-Feb-17 00:32:250.9Kapplication/octet-stream
20070331040121!WxWidgets.svg2007-Mar-21 23:09:4212.7Kapplication/octet-stream
20070401230317!Strive.svg2007-Apr-01 23:01:560.8Kapplication/octet-stream
20070401232743!BMW_Z4_silver_side.jpg2006-Mar-28 14:34:35364.5Kimage/jpeg
20070403000305!Boron-trifluoride-3D-vdW.png2006-Jul-21 22:04:56295.5Kimage/png
20070403115214!Falasha_gondar_injera_2006.jpg2006-Nov-03 20:13:45469.1Kimage/jpeg
20070404082939!Deccan-devanagari.png2007-Apr-04 04:56:183.5Kimage/png
20070404095855!Angle_parking_lot_diagram.PNG2006-Sep-16 22:14:0914.6Kimage/png
20070404110238!CottusGobioSpreadingFins.JPG2007-Apr-04 10:34:361.3Mimage/jpeg
20070404181814!Coat_of_arms_of_North_Rhine-Westfalia.svg2006-Oct-16 15:32:08140.4Kapplication/octet-stream
20070404184217!CottusGobioSpreadingFins.JPG2007-Apr-04 11:01:34976.3Kimage/jpeg
20070405105118!Lage_des_Kreises_Plön_in_Deutschland.png2006-Mar-03 09:21:184.3Kimage/png
20070405183800!Hotel_Imbert.jpg2006-Mar-10 12:35:5885.7Kimage/jpeg
20070405191419!Kris_display.jpg2006-Nov-20 12:39:51136.0Kimage/jpeg
20070405195007!Hotel_Imbert.jpg2007-Apr-05 18:36:589.3Kimage/jpeg
20070405202623!Regione_Abruzzo.svg2007-Mar-22 16:30:54827.8Kapplication/octet-stream
20070406121201!20060416-Salvatorpassage.jpg2006-Apr-19 20:21:44423.5Kimage/jpeg
20070406192715!Merops_hirundineus.jpg2007-Mar-12 03:00:38282.7Kimage/jpeg
20070409201840!Rapperswil_-_Altstadt_Hintergasse.JPG2007-Apr-09 20:15:03352.0Kimage/jpeg
20070409211440!8th_Royal_Scots_advancing_28-06-1944.jpg2006-Jul-13 17:30:4628.4Kimage/jpeg
20070409230224!MooneyFace.png2007-Apr-09 22:43:2513.2Kimage/png
20070409231442!MooneyFace.png2007-Apr-09 23:00:5413.0Kimage/png
20070409233334!MooneyFace.png2007-Apr-09 23:13:2713.1Kimage/png
20070411114136!Saltstraumen_kirke.jpg2006-Mar-18 18:38:35744.4Kimage/jpeg
20070411181547!CoventrySouthConstituency.svg2006-Oct-29 23:54:3815.9Kapplication/octet-stream
20070412003907!Rapperswil_-_Altstadt_Hintergasse.JPG2007-Apr-09 20:17:10352.0Kimage/jpeg
20070412110446!Deccan-devanagari.png2007-Apr-04 08:28:343.9Kimage/png
20070413120213!Lake_Calhoun-Minneapolis-2006-10-14-.jpg2007-Apr-09 22:26:49350.6Kimage/jpeg
20070414123602!Marché_couvert_Cambrai.JPG2007-Apr-14 12:24:561.1Mimage/jpeg
20070414215541!Acid2_reference.png2006-Oct-21 20:11:441.2Kimage/png
20070415101724!Maultierwagen_E.jpg2007-Jan-01 02:59:03649.3Kimage/jpeg
20070415144055!Deccan-devanagari.png2007-Apr-12 11:03:2311.9Kimage/png
20070417184702!USS_Wyoming_Monitor10_Nh43870.jpg2006-Jun-14 07:35:0953.4Kimage/jpeg
20070418164422!Linreg.svg2007-Apr-18 13:46:5729.7Kapplication/octet-stream
20070418212028!Wuerzburger_altstadt.jpg2007-Apr-17 18:56:16232.5Kimage/jpeg
20070419132444!Seealso.png2005-Aug-04 13:37:470.5Kimage/png
20070419132743!Seealso.png2007-Apr-19 13:23:080.4Kimage/png
20070420084228!Deccan-devanagari.png2007-Apr-15 14:39:2511.9Kimage/png
20070421064446!Benthamidia_florida7.jpg2006-May-05 08:20:47132.2Kimage/jpeg
20070422173252!070422_Stausee_Oberilzmühle.jpg2007-Apr-22 16:56:122.4Mimage/jpeg
20070423044258!Flag_of_North_Carolina.svg2006-Jan-21 07:56:0935.8Kapplication/octet-stream
20070423045025!Flag_of_North_Carolina.svg2007-Apr-23 04:41:1230.2Kapplication/octet-stream
20070423063402!French_presidential_elections_2007_Paris_Place_dItalie_12_candidates.jpg2007-Apr-15 10:07:152.1Mimage/jpeg
20070423063918!French_presidential_elections_2007_Paris_Place_dItalie_12_candidates.jpg2007-Apr-23 06:31:542.1Mimage/jpeg
20070423224544!Frydendal_Kirke_ved_Mørkøv.jpg2007-Apr-18 14:01:371.0Mimage/jpeg
20070423232516!Hillerød_Kirke.jpg2007-Apr-18 14:19:231.5Mimage/jpeg
20070424055003!Deccan-devanagari.png2007-Apr-20 08:40:449.9Kimage/png
20070424123300!Edite-esta-pagina.jpg2006-Jan-30 21:08:0113.8Kimage/jpeg
20070424144934!Japanese_House_of_Councillors_election,_1968_en.svg2007-Apr-21 06:51:556.4Kapplication/octet-stream
20070425092246!Nitrobenzene-3D-vdW.png2006-Aug-06 15:14:09134.7Kimage/png
20070427211313!Kit_body_ArlequinesJalisco.png2007-Apr-27 21:09:280.2Kimage/png
20070427211809!Kit_body_ArlequinesJalisco.png2007-Apr-27 21:11:130.2Kimage/png
20070428213553!Wikistress1_fa.png2007-Apr-28 01:50:3963.0Kimage/png
20070429065726!Talk_face.svg2006-Apr-15 05:14:3564.4Kapplication/octet-stream
20070429070609!Talk_face.svg2007-Apr-29 06:55:187.9Kapplication/octet-stream
20070430153118!Michigan_C-65_Antrim_County.svg2006-Aug-27 21:02:0715.6Kapplication/octet-stream
20070430153539!Michigan_F-21_Presque_Isle_County.svg2006-Aug-27 21:02:3723.1Kapplication/octet-stream
20070501220830!Dam_icon.svg2007-May-01 16:42:373.1Kapplication/octet-stream
20070501232550!Dam_icon.svg2007-May-01 22:06:114.0Kapplication/octet-stream
20070502002940!DairyCattle.jpg2007-Feb-04 10:20:19268.8Kimage/jpeg
20070505100222!Altlandsberg_in_MOL.png2007-Apr-23 18:42:065.2Kimage/png
20070505184950!USS_Benham_(DD-49).jpg2007-Apr-23 20:50:54119.2Kimage/jpeg
20070505221804!1986.png2007-Feb-04 10:39:2514.5Kimage/png
20070505225629!1986.png2007-May-05 22:15:4412.9Kimage/png
20070506123950!Weigela_hortensis3.jpg2006-Nov-11 09:53:33478.8Kimage/jpeg
20070508132327!De_Kafka_Schloß_193.jpg2007-May-08 12:33:28110.6Kimage/jpeg
20070509133229!Wuerzburger_altstadt.jpg2007-Apr-18 21:18:49429.8Kimage/jpeg
20070510162556!Evolución_demográfica_de_Noreña.PNG2007-May-10 14:32:0335.7Kimage/png
20070511164221!Anime_eye.svg2006-Nov-14 23:48:0610.8Kapplication/octet-stream
20070511164237!Anime_eye.svg2007-May-11 16:39:4810.7Kapplication/octet-stream
20070512094700!Авария001.jpg2007-May-12 08:19:22136.3Kimage/jpeg
20070513071735!En-us-arguments.ogg2007-May-13 07:07:4413.4Kapplication/ogg
20070514023359!XS_Eleven_Special_1981.JPG2007-May-14 02:07:16919.4Kimage/jpeg
20070514201033!Ayamonte_boats.jpg2007-May-08 19:16:052.3Mimage/jpeg
20070515110549!Dolceacqua18_-_Vicoli_del_paese.jpg2007-May-14 21:44:022.0Mimage/jpeg
20070515185608!Dierks_5.jpg2007-May-15 18:52:28183.3Kimage/jpeg
20070516085433!I-21.svg2006-Apr-05 02:08:5610.5Kapplication/octet-stream
20070519003923!Solskjaer_cropped.jpg2007-May-19 00:30:20112.8Kimage/jpeg
20070520053737!I-484.svg2006-Apr-05 07:13:5010.9Kapplication/octet-stream
20070520055537!Philadelphia_quakers_jersey.jpg2006-Nov-21 19:42:20692.6Kimage/jpeg
20070520055705!I-540.svg2006-Apr-05 05:33:1012.0Kapplication/octet-stream
20070520095655!Carnival_in_Rio_de_Janeiro.jpg2007-May-18 20:12:45774.8Kimage/jpeg
20070520181630!Euphorbia_cyparissias.jpg2007-Feb-14 05:50:1160.4Kimage/jpeg
20070520201847!Euphorbia_cyparissias.jpg2007-May-20 18:13:001.8Mimage/jpeg
20070520203803!Euphorbia_cyparissias.jpg2007-May-20 20:15:491.9Mimage/jpeg
20070520224439!Euphorbia_cyparissias.jpg2007-May-20 20:35:021.9Mimage/jpeg
20070523075124!ISG.JPG2006-Jun-19 12:41:51169.8Kimage/jpeg
20070523080404!ISG.JPG2007-May-23 07:48:1198.6Kimage/jpeg
20070525094631!Fender_Mustang_puzzle.jpg2007-May-24 14:22:30141.0Kimage/jpeg
20070528093134!Blason_Champdivers.svg2007-May-28 09:26:58157.3Kapplication/octet-stream
20070528144751!LocationNicaragua.svg2006-Dec-10 01:50:492.7Mapplication/octet-stream
20070530094639!Mastodon_live_2007.jpg2007-May-29 19:07:08104.6Kimage/jpeg
20070530095420!Tanzanian_High_Commission_in_London.jpg2007-May-29 11:40:00155.5Kimage/jpeg
20070530114718!Blason_Champdivers.svg2007-May-28 09:28:15157.3Kapplication/octet-stream
20070531073546!Cidade_Líder.png2007-May-31 02:23:2184.6Kimage/png
20070531130148!Moers_Altes_Brauhaus.JPG2007-May-31 12:55:34689.0Kimage/jpeg
20070603095053!Soul_Food_Dinner.jpg2007-Jun-03 00:38:4418.3Kimage/jpeg
20070603132410!Chartres.jpg2005-Nov-12 18:26:36310.3Kimage/jpeg
20070603214055!Chartres.jpg2007-Jun-03 13:20:39133.7Kimage/jpeg
20070604003409!Control_description.svg2007-Jun-04 00:27:1312.0Kapplication/octet-stream
20070604005458!Control_description.svg2007-Jun-04 00:30:3712.0Kapplication/octet-stream
20070604005611!Control_description.svg2007-Jun-04 00:51:2511.2Kapplication/octet-stream
20070604005749!Control_description.svg2007-Jun-04 00:52:3911.2Kapplication/octet-stream
20070604145249!Evolución_demográfica_de_Noreña.PNG2007-May-10 16:23:2236.2Kimage/png
20070605095714!Czubik_a1.jpg2006-Aug-28 16:23:07168.4Kimage/jpeg
20070605110952!Hualañe.svg2007-Jun-05 11:00:4719.8Kapplication/octet-stream
20070605174255!Melins-stenografi-konsonantsammansattningar.svg2007-Jan-30 21:13:4516.8Kapplication/octet-stream
20070606083447!Sint-Salvatorskathedraal_Inside_2_(Brugge).jpg2007-Jun-05 21:21:351.9Mimage/jpeg
20070606145129!Wikiproyecto_León.png2007-Jun-06 14:46:2936.3Kimage/png
20070606215208!Neunkirchen-odw-kathkircheweb.jpg2007-Jun-05 22:43:0152.0Kimage/jpeg
20070607085426!Clara_1749_Oudry.jpg2006-Aug-07 17:10:5215.2Kimage/jpeg
20070608100135!High_Tea_table.jpg2007-Jun-07 12:35:01498.8Kimage/jpeg
20070608221334!Callistemon_speciosus1.jpg2006-Jun-10 13:07:18284.1Kimage/jpeg
20070610140726!Halle_Saale_Giebichenstein_um_1900.jpg2005-Mar-23 15:52:32101.7Kimage/jpeg
20070611002422!Fernsehturm_schnaitsee_nacht_beleuchtet.jpg2007-Mar-31 21:40:22102.4Kimage/jpeg
20070611173401!Carabinieri-OW-4.svg2007-Jun-11 11:30:5491.2Kapplication/octet-stream
20070611225652!UK-Motorway-M898.svg2007-May-07 12:00:1611.3Kapplication/octet-stream
20070612042233!Mount_Washington_Oregon.jpg2006-Aug-27 13:49:5169.8Kimage/jpeg
20070613095609!Grilled_eggplant_appetizer.jpg2007-Jun-13 06:49:59554.3Kimage/jpeg
20070613203212!Gitaar.jpg2007-May-31 17:53:25735.8Kimage/jpeg
20070617145909!Thalidomide-structures.png2006-Sep-26 18:22:29139.6Kimage/png
20070617155955!Non-local-train-stops_of_Kintetsu.svg2007-Jun-17 13:08:58230.5Kapplication/octet-stream
20070617161832!Non-local-train-stops_of_Kintetsu.svg2007-Jun-17 15:55:45210.0Kapplication/octet-stream
20070617172851!5_Wroclaw_027.jpg2006-Dec-28 00:54:18138.8Kimage/jpeg
20070618135028!Felugara.jpg2005-Jun-24 03:39:5065.1Kimage/jpeg
20070621161821!Loc-lowfly.svg2007-Jun-21 08:11:1119.4Kapplication/octet-stream
20070621174452!Guisser.gif2011-Jul-15 20:21:1921.1Kimage/gif
20070622002003!Panda_Bear,_the_musician.jpg2007-Jun-20 09:20:43670.6Kimage/jpeg
20070622002257!Panda_Bear,_the_musician.jpg2007-Jun-22 00:15:461.2Mimage/jpeg
20070623105539!TCP-Chiusura-a-4-vie.png2007-Jun-21 12:36:4158.0Kimage/png
20070623111208!AFB-Aomori.JPG2007-Jun-02 23:09:34293.8Kimage/jpeg
20070623111508!ATV-Aomori.JPG2007-Jun-02 11:02:26338.8Kimage/jpeg
20070624094556!Svg_Vyškov_město.svg2007-Jun-24 09:36:3047.6Kapplication/octet-stream
20070624162105!Non-local-train-stops_of_Kintetsu.svg2007-Jun-17 16:14:22210.4Kapplication/octet-stream
20070625015306!SPI_8-bit_circular_transfer.svg2007-Jun-25 01:48:0822.4Kapplication/octet-stream
20070625061437!Catedral_Metropolitana_(Cuiaba).jpg2007-Jun-07 03:29:591.0Mimage/jpeg
20070625061551!Catedral_Metropolitana_(Cuiaba).jpg2007-Jun-25 06:10:111.0Mimage/jpeg
20070626202652!Enzmann_506_cockpit.jpg2007-Jun-26 20:20:47733.8Kimage/jpeg
20070629113323!Ilya_Efimovich_Repin_(1844-1930)_-_Portrait_of_Leo_Tolstoy_(1887).jpg2005-Oct-27 22:30:1754.2Kimage/jpeg
20070630153224!Sa_idli_stand.jpg2007-Jun-30 15:21:44988.9Kimage/jpeg
20070630153742!Sa_idli_stand.jpg2007-Jun-30 15:26:40995.2Kimage/jpeg
20070705100937!186210611_05504103e6.jpg2007-Jun-30 13:48:48100.5Kimage/jpeg
20070705105129!HighSchoolMusical_parade.jpg2007-Jun-25 13:23:00167.9Kimage/jpeg
20070705131901!L11_M.png2007-Jul-02 13:52:1059.2Kimage/png
20070706083519!Zolotie_vorota._Central_hall._Mosaic2.jpg2007-Jul-06 08:26:431.4Mimage/jpeg
20070706124417!L11_M.png2007-Jul-05 13:14:0763.0Kimage/png
20070713165855!Svenska_Dagbladet_first_issue.jpg2006-Mar-30 08:48:5795.2Kimage/jpeg
20070713215627!Rudi-Carrell-Denkmal.jpg2007-Jul-13 21:38:521.1Mimage/jpeg
20070714002216!Manif_cpe46.jpg2006-Mar-21 18:12:253.9Mimage/jpeg
20070714094343!Rudi-Carrell-Denkmal.jpg2007-Jul-13 21:51:03849.4Kimage/jpeg
20070715051742!Terracotta_warriors_pit1.jpg2007-Jul-15 03:43:444.0Mimage/jpeg
20070716082035!F_bih02.png2006-Dec-28 15:46:41130.3Kimage/png
20070716181826!Wawoz_w_Skalach_20060812_1310.jpg2006-Aug-15 19:09:331.8Mimage/jpeg
20070717155358!Karte_Gemeinde_Les_Genevez_2007.png2007-May-06 07:18:35294.4Kimage/png
20070721025550!PA-77.svg2006-Jul-27 22:54:222.9Kapplication/octet-stream
20070721151034!Clais_fhearniag.jpg2007-Jul-21 14:18:1969.0Kimage/jpeg
20070722200912!Kladogramm_Farne+Schachtelhalme.svg2007-Jul-22 20:00:527.9Kapplication/octet-stream
20070723083614!SantAgneseAgone-Cupola02-SteO153.JPG2007-Jul-23 07:56:10500.9Kimage/jpeg
20070725140438!Retrofocus.svg2007-Jul-25 13:29:286.9Kapplication/octet-stream
20070725140714!Retrofocus.svg2007-Jul-25 13:58:567.1Kapplication/octet-stream
20070725152618!Museo_di_san_matteo,_architrave_di_pozzo_da_piazza_gambacorti,_inizio_XIV_secolo,_01.JPG2007-Jul-25 15:14:45972.6Kimage/jpeg
20070726105525!HitachinakaportIC-photo.jpg2007-Jul-26 09:46:4648.9Kimage/jpeg
20070727063537!GemBOY_live_20030435.jpg2007-Jul-04 20:10:57456.8Kimage/jpeg
20070727090217!Cafe_Rudigerhof.jpg2007-Jul-27 08:48:44453.2Kimage/jpeg
20070727135733!Alioramus_BW.jpg2012-May-16 12:41:5628.2Kimage/jpeg
20070728114850!Simboloateo_concirculo.svg2007-Mar-09 19:07:591.6Kapplication/octet-stream
20070729152300!Flag_of_United_Kingdom_of_England_and_Northern_Ireland.svg2007-Jul-29 15:12:473.2Kapplication/octet-stream
20070729162035!Wappen_Ehrsten.jpg2006-Sep-24 19:02:568.3Kimage/jpeg
20070729223322!Hawaii_turtle_2.JPG2007-Jul-29 22:29:311.6Mimage/jpeg
20070729224104!Hawaii_turtle_2.JPG2007-Jul-29 22:28:071.6Mimage/jpeg
20070730122249!Bielefeld_Klinikum_Mitte.jpg2007-Jul-30 12:07:48879.3Kimage/jpeg
20070730203604!Sargent,_John_SInger_(1856-1925)_-_Self-Portrait_1907_b.jpg2006-Mar-14 12:10:28110.8Kimage/jpeg
20070801004920!113Kraków.JPG2007-Aug-01 00:40:111.0Mimage/jpeg
20070802061906!Alioramus_BW.jpg2012-May-16 12:41:5628.2Kimage/jpeg
20070802125511!Late_Spring_Danba,Sichuan,China.jpg2007-Aug-02 12:43:30145.6Kimage/jpeg
20070802154707!Neti_pot.jpg2007-Mar-13 18:33:3722.2Kimage/jpeg
20070803143402!Norges_gamle_Love_indtil_1387_Bd._1_132.jpg2007-Aug-03 13:55:223.8Mimage/jpeg
20070804095234!LightningHopkins.jpg2007-Aug-04 08:09:24149.7Kimage/jpeg
20070804213620!Xsampa-m.png2005-Nov-16 01:57:070.6Kimage/png
20070805132156!Pillnitz-pan2.jpg2007-Aug-05 11:57:182.4Mimage/jpeg
20070807094929!Gjensidige_Tjuvholmen.jpg2007-Apr-03 08:15:03428.4Kimage/jpeg
20070807221507!Funny_Apartment_in_moncton_23.jpg2007-Jul-03 03:02:55803.9Kimage/jpeg
20070808095531!Warrnambool_lighthouse.jpg2007-Aug-07 17:47:0137.4Kimage/jpeg
20070808171448!Riverside_County_California_Incorporated_and_Unincorporated_areas_Lake_Elsinore_Highlighted.svg2007-Jul-30 16:02:03265.8Kapplication/octet-stream
20070808171833!Riverside_County_California_Incorporated_and_Unincorporated_areas_Riverside_Highlighted.svg2007-Jul-30 16:05:45265.8Kapplication/octet-stream
20070809024309!Rynearson_Stadium.JPG2007-May-06 16:14:3750.3Kimage/jpeg
20070809084433!Bruno_Gollnisch_481263330_c4143d255c_o.jpg2007-May-09 10:54:59363.9Kimage/jpeg
20070809121258!MaralargoLoC.jpg2007-Aug-09 11:45:4228.9Kimage/jpeg
20070809182527!ㅗ_(o)_stroke_order.png2007-May-22 22:35:581.6Kimage/png
20070809223146!Photoofficiellejuillet2007.JPG2007-Aug-09 22:17:521.8Mimage/jpeg
20070810084802!Photoofficiellejuillet2007.JPG2007-Aug-09 22:25:261.8Mimage/jpeg
20070811173723!Bandeira_da_Paraíba.svg2006-Dec-31 19:47:405.3Kapplication/octet-stream
20070813191431!Pillnitz-pan2.jpg2007-Aug-05 13:15:251.8Mimage/jpeg
20070815210533!Pillnitz-pan2.jpg2007-Aug-13 19:07:472.1Mimage/jpeg
20070816205208!5000_won_serieV_obverse.jpeg2006-Dec-16 19:56:0418.8Kimage/jpeg
20070817112329!Amphora_(PSF).png2007-Aug-16 15:33:23133.8Kimage/png
20070820102729!Rhizocarpon_subgeminatum.jpg2007-Aug-20 10:17:57116.1Kimage/jpeg
20070820102912!Rhizocarpon_subgeminatum.jpg2007-Aug-20 10:20:42255.6Kimage/jpeg
20070821022141!Jay_Street-Borough_Hall.jpg2006-Sep-02 01:44:16246.8Kimage/jpeg
20070821194523!Wollstonecraftlettersmap.png2007-Aug-21 19:30:37147.0Kimage/png
20070823112539!Thomas_Edison,_1878.jpg2005-May-05 07:52:4981.7Kimage/jpeg
20070823132601!Wollstonecraftlettersmap.png2007-Aug-21 19:38:30147.1Kimage/png
20070824071422!Weston-super-Mare_tidal_range.jpg2007-Aug-23 12:30:26169.6Kimage/jpeg
20070824163003!WheelnutindicatorsElephant.svg2007-Aug-19 14:27:2438.7Kapplication/octet-stream
20070827063638!Double-tenth-symbol.svg2007-Aug-27 06:24:383.3Kapplication/octet-stream
20070828184857!Linha_5_-_Lilás.PNG2007-Aug-15 02:10:3122.9Kimage/png
20070829005013!2007_Lexus_RX_400h_Bamboo_Pearl.jpg2007-Aug-29 00:41:06231.7Kimage/jpeg
20070829005310!2007_Lexus_RX_400h_Bamboo_Pearl.jpg2007-Aug-29 00:43:03235.6Kimage/jpeg
20070829010611!2007_Lexus_RX_400h_Bamboo_Pearl.jpg2007-Aug-29 00:45:59235.7Kimage/jpeg
20070829185250!Linha_5_-_Lilás.PNG2007-Aug-28 18:41:4924.1Kimage/png
20070830042356!En-us-laboured.ogg2007-Jul-24 18:18:5714.9Kapplication/ogg
20070831112658!Ban-etsu_Expwy_Route_Sign.svg2007-Aug-28 09:06:4941.1Kapplication/octet-stream
20070831152052!The_birthplace_Lepikon_Torppa_of_the_finnish_president_Urho_Kekkonen.jpg2007-Aug-31 15:10:151.5Mimage/jpeg
20070901110630!Fahrrad-Notbereifungen.JPG2007-Aug-28 07:02:25956.2Kimage/jpeg
20070901215002!Auksa_altorius_latin.jpg2007-Sep-01 04:11:46187.9Kimage/jpeg
20070902034951!Ban-etsu_Expwy_Route_Sign.svg2007-Aug-31 11:19:4237.6Kapplication/octet-stream
20070902100929!North_Reading_ma_highlight.png2005-Aug-29 00:42:2839.6Kimage/png
20070902101345!Orange_ma_highlight.png2005-Aug-29 00:09:4739.6Kimage/png
20070902183522!Dimos_Sivritou.png2007-Jul-11 11:22:0017.1Kimage/png
20070902225442!Śrem_-_odlewnik3.jpg2007-May-18 12:49:4146.9Kimage/jpeg
20070903135824!Location_of_Gangca_within_Qinghai_(China).png2007-Sep-03 10:47:3288.8Kimage/png
20070903151606!Sundering_of_the_Elves_short.svg2007-Sep-03 12:44:0826.4Kapplication/octet-stream
20070904165425!EgliseStMartinPalaiseau.JPG2007-Sep-04 16:46:56395.5Kimage/jpeg
20070905145035!Miami-Dade_County_Florida_Incorporated_and_Unincorporated_areas_Virginia_Gardens_Highlighted.svg2007-Sep-04 22:52:43208.0Kapplication/octet-stream
20070905235650!Flag_of_Totma_(Vologda_oblast).gif2007-Sep-05 23:30:582.6Kimage/gif
20070906000521!Flag_of_Totma_(Vologda_oblast).gif2007-Sep-05 23:49:211.5Kimage/gif
20070906001916!Flag_of_Totma_(Vologda_oblast).gif2007-Sep-05 23:57:458.7Kimage/gif
20070906002337!Flag_of_Totma_(Vologda_oblast).gif2007-Sep-06 00:11:452.0Kimage/gif
20070906180136!Karte_Gemeinde_Les_Genevez_2007.png2007-Jul-17 15:48:36294.8Kimage/png
20070906225921!StadtWappenGeretsried.png2006-Aug-22 14:55:599.6Kimage/png
20070907044637!IMG_0922_-_Obertraun-Dachstein_-_Eisriesenhöhle.JPG2007-Sep-07 03:14:171.9Mimage/jpeg
20070908081109!Evoia_municipalities.svg2007-Sep-08 08:02:5839.2Kapplication/octet-stream
20070910100158!Lackawanna_State_Forest.jpg2007-Sep-04 01:20:02151.9Kimage/jpeg
20070911051127!Edit-copy_purple.svg2007-Sep-11 04:56:1912.5Kapplication/octet-stream
20070911051618!Edit-copy_purple.svg2007-Sep-11 05:03:4115.2Kapplication/octet-stream
20070911052408!Edit-copy_purple.svg2007-Sep-11 05:08:3215.2Kapplication/octet-stream
20070911053048!Edit-copy_purple.svg2007-Sep-11 05:16:2215.2Kapplication/octet-stream
20070911210219!Blason_Pamiers_09.svg2007-Jul-26 18:52:501.0Mapplication/octet-stream
20070911212023!Aziz.Agha.4.JPG2007-Sep-11 19:26:51435.8Kimage/jpeg
20070911212233!Aziz.Agha.4.JPG2007-Sep-11 21:12:17435.8Kimage/jpeg
20070912084846!Aziz.Agha.4.JPG2007-Sep-11 21:14:46435.8Kimage/jpeg
20070914152651!Evangelische_Kirche_Sindlingen_Süd.jpg2007-Feb-03 13:34:20998.8Kimage/jpeg
20070914173714!Larrybird.jpg2007-Sep-14 17:28:53214.5Kimage/jpeg
20070916135458!Església_de_Sant_Vicenç_de_Torelló_-_001.jpg2007-Sep-16 13:34:501.4Mimage/jpeg
20070917044626!Fiery_skipper2.jpg2007-Sep-17 04:34:151.7Mimage/jpeg
20070917045912!Fiery_skipper2.jpg2007-Sep-17 04:38:131.7Mimage/jpeg
20070917153559!Butterflyr.JPG2007-Sep-17 09:09:185.0Mimage/jpeg
20070917153958!Butterflyr.JPG2007-Sep-17 15:27:491.4Mimage/jpeg
20070919084921!Flag_of_Eueriio.svg2007-Sep-15 17:23:0452.8Kapplication/octet-stream
20070919223449!Flag_of_Eueriio.svg2007-Sep-19 08:41:1851.5Kapplication/octet-stream
20070919223618!Flag_of_Eueriio.svg2007-Sep-19 22:34:4951.7Kapplication/octet-stream
20070921165908!Neue_Alm_Schema.svg2007-Sep-21 16:57:0122.8Kapplication/octet-stream
20070921170054!Neue_Alm_Schema.svg2007-Sep-21 16:59:0819.6Kapplication/octet-stream
20070922174336!Inquisitie-Hendrick_Goltzius.jpg2007-Sep-22 17:31:061.0Mimage/jpeg
20070923040702!CaluromysLanatusMAD.png2007-Sep-22 05:19:1560.0Kimage/png
20070923092634!Chuncheonstation.jpg2007-Sep-22 23:05:29140.0Kimage/jpeg
20070923200505!Baviaan1.JPG2007-Sep-23 19:46:383.4Mimage/jpeg
20070924064744!Damrosch.jpg2007-Sep-23 21:21:4978.1Kimage/jpeg
20070926110008!RMS_Berengaria.jpg2007-Sep-26 10:58:4929.8Kimage/jpeg
20070926195014!Goudurix.JPG2007-Jul-22 13:06:212.3Mimage/jpeg
20070926201217!Goudurix.JPG2007-Sep-26 19:49:49909.2Kimage/jpeg
20070926201435!Goudurix.JPG2007-Sep-26 20:12:02983.0Kimage/jpeg
20070926213615!HertainLocation.svg2007-Sep-21 21:44:33261.6Kapplication/octet-stream
20070929122012!Honda_Prelude_front_20070928.jpg2007-Sep-28 17:36:12372.3Kimage/jpeg
20070930170330!Datsun_pikap.jpg2007-Sep-04 22:08:1235.1Kimage/jpeg
20070930194039!The_Portrait_of_Empress_XiaoHe.JPG2007-Aug-07 05:27:0546.0Kimage/jpeg
20070930213631!ZST_Bratislava_Petrzalka_5.jpg2007-Sep-30 21:35:562.7Mimage/jpeg
20071001103639!Max_Delbruck.jpg2007-Sep-19 22:18:2530.5Kimage/jpeg
20071001123809!CIMA_mg_8334.jpg2007-Oct-01 10:09:465.0Mimage/jpeg
20071001214522!Blagoevo-4.jpg2007-Oct-01 07:45:45249.3Kimage/jpeg
20071002120620!Konstantin_Muraviev.jpg2007-Jan-31 16:25:0464.9Kimage/jpeg
20071003150624!Brusselantoniuskerk.jpg2007-Mar-10 19:17:3858.3Kimage/jpeg
20071003174428!Caber_(PSF).jpg2007-Aug-15 14:12:02116.2Kimage/jpeg
20071004164727!Colores_Heráldica.svg2007-Oct-03 15:21:14209.5Kapplication/octet-stream
20071005095339!Ed_van_Thijn_bij_LUX_Voor.jpg2007-Oct-05 09:45:3639.2Kimage/jpeg
20071005100045!Ed_van_Thijn_bij_LUX_Voor.jpg2007-Oct-05 09:53:3637.0Kimage/jpeg
20071006205705!Honda_Civic_rear_20070520.jpg2007-May-20 16:03:460.9Mimage/jpeg
20071008153030!Flag_of_Samogitia.png2007-Oct-08 15:30:0837.8Kimage/png
20071009184009!Hyles_euphorbiae_01.jpg2007-Oct-09 18:31:490.9Mimage/jpeg
20071010045317!Harbor_Tidal_Pool_(Matinicus_Island,_ME).jpg2007-Oct-09 22:04:25721.4Kimage/jpeg
20071010120400!KM90.jpg2007-May-19 02:10:4197.0Kimage/jpeg
20071010153421!Perseo010.jpg2007-Oct-10 15:33:4682.4Kimage/jpeg
20071010165636!2375_-_Milano_-_Sant'Antonio_Abate_-_Ludovico_Carracci,_L'adorazione_dei_pastori,_1611-12_-_Foto_Giovanni_Dall'Orto_20-May-2007.jpg2007-Oct-10 16:55:311.9Mimage/jpeg
20071014144722!Price_of_market_balance.svg2007-Feb-09 16:49:3212.9Kapplication/octet-stream
20071015000038!HMS_Repulse_(1919)_profile_drawing.png2006-Aug-15 15:37:1945.3Kimage/png
20071015102624!Vostok-2_mission_patch.jpg2007-Oct-15 10:07:13101.5Kimage/jpeg
20071016064021!Paglagivsi_ukpiegvik.jpg2007-Oct-16 06:20:552.1Mimage/jpeg
20071016064544!Paglagivsi_ukpiegvik.jpg2007-Oct-16 06:39:58159.5Kimage/jpeg
20071017141230!Umm-al-qaiwain-flag.png2007-Oct-16 14:39:048.6Kimage/png
20071017141412!TARDIS-trans.png2007-Aug-06 15:11:492.5Mimage/png
20071017141919!Umm-al-qaiwain-flag.png2007-Oct-17 14:12:2417.5Kimage/png
20071019002842!Brasero.jpg2007-Oct-18 19:14:46676.9Kimage/jpeg
20071019225352!Plant_physiology.png2007-Oct-19 22:42:3053.3Kimage/png
20071020225139!KSensors_0.7.3.png2007-Oct-20 22:50:255.5Kimage/png
20071021181016!130-мм_зенитная_пушка_КС-30_(2).jpg2007-Oct-21 18:08:034.5Mimage/jpeg
20071022151813!Linha_5_-_Lilás.PNG2007-Aug-29 18:45:3924.1Kimage/png
20071023222303!Dibugago.jpg2007-Oct-23 22:22:139.2Kimage/jpeg
20071024230420!Braque_d_Auvergne.jpg2007-Oct-16 16:19:32145.6Kimage/jpeg
20071026180358!Monmouth_County_New_Jersey_Incorporated_and_Unincorporated_areas_Spring_Lake_Heights_Highlighted.svg2007-Oct-25 20:02:55110.0Kapplication/octet-stream
20071026213850!Albacete_El_Ballestero_Mapa_municipal.png2006-Nov-04 23:14:4973.7Kimage/png
20071029075744!186101.jpg2007-Jun-07 09:30:1759.8Kimage/jpeg
20071029221109!Volker_Schloendorff.jpg2007-Oct-29 22:09:45283.2Kimage/jpeg
20071031113014!BMW_E64_M6_Convertible.JPG2007-Oct-31 09:58:48779.3Kimage/jpeg
20071031165944!Darknet_Hollywoods_War_Against_the_Digital_Generation_(24480394).jpg2007-Oct-31 16:58:43918.2Kimage/jpeg
20071031170223!Darknet_Hollywoods_War_Against_the_Digital_Generation_(24480394).jpg2007-Oct-31 16:59:44918.2Kimage/jpeg
20071031175352!Scheelite2_sur_mica_(Chine).jpg2007-Oct-31 17:51:204.3Mimage/jpeg
20071101075338!Albert_Forslund_-_Sveriges_styresmän.jpg2007-Apr-23 21:26:1928.0Kimage/jpeg
20071102213427!EPPINGEN_ELSENZ_nieder.svg2007-Sep-20 19:43:5414.4Kapplication/octet-stream
20071102214104!MALCHOW_nieder.svg2007-Sep-25 20:30:2713.9Kapplication/octet-stream
20071103000129!Cartella_arancione_2_rev.jpg2007-Nov-02 23:39:170.9Kimage/jpeg
20071103153701!Bergenhusen_Wappen.svg2007-Nov-03 15:32:3268.6Kapplication/octet-stream
20071103174009!8213_Brewery_in_Abbaye_Notre-Dame_de_Saint-Remy_Rochefort_2007_Luca_Galuzzi.jpg2007-Nov-02 15:21:481.7Mimage/jpeg
20071103190729!Sprachenkarte_Deutschland1880.png2007-Nov-03 18:01:39408.5Kimage/png
20071105155859!Macaroni_(js)1.jpg2007-Nov-05 15:58:07113.0Kimage/jpeg
20071106014839!Sv-sund.ogg2007-Nov-06 00:38:2915.9Kapplication/ogg
20071106182810!Cs-horko.ogg2007-Nov-06 18:26:3813.4Kapplication/ogg
20071106182837!Cs-podlý.ogg2007-Nov-06 18:27:0815.0Kapplication/ogg
20071106231329!HimnodeChileold.ogg2005-Feb-20 04:29:223.5Mapplication/ogg
20071106231538!Blanche_Lincoln_official_portrait.jpg2006-Jul-16 16:57:5614.7Kimage/jpeg
20071107062536!LokomotiveGroednerbahn.JPG2007-Oct-27 18:09:542.3Mimage/jpeg
20071107125818!Location_Austria-Hungary.png2007-Jul-31 00:41:021.3Mimage/png
20071107175548!Cs-dar.ogg2007-Nov-06 11:00:5414.4Kapplication/ogg
20071107192846!Bevolkingspiramide_-_Gemeente_Maasdonk_(2007).png2007-Oct-10 21:31:177.3Kimage/png
20071107193335!Bevolkingspiramide_-_Gemeente_Someren_(2007).png2007-Oct-10 21:34:297.3Kimage/png
20071107193501!Bevolkingspiramide_-_Gemeente_Velsen_(2007).png2007-Oct-10 21:35:297.3Kimage/png
20071108164431!Elsterwerda_in_EE.png2007-May-22 07:28:314.6Kimage/png
20071108172750!Japanese_Type_90_Tank_-_2.jpg2007-Oct-17 14:38:371.2Mimage/jpeg
20071111123800!LocationMorocco.png2006-Jul-10 16:31:405.0Kimage/png
20071111225931!L._Ron_Hubbard_Life_&_Death.jpg2007-Feb-25 19:52:37548.9Kimage/jpeg
20071111230703!L._Ron_Hubbard_Life_&_Death.jpg2007-Nov-11 22:59:3294.1Kimage/jpeg
20071111231824!L._Ron_Hubbard_Life_&_Death.jpg2007-Nov-11 23:07:0334.7Kimage/jpeg
20071111232649!L._Ron_Hubbard_Life_&_Death.jpg2007-Nov-11 23:18:2494.1Kimage/jpeg
20071111233515!BBC_expenditure_percentage_Redvers.png2006-May-09 10:58:5244.9Kimage/png
20071111233547!L._Ron_Hubbard_Life_&_Death.jpg2007-Nov-11 23:26:4934.7Kimage/jpeg
20071113224249!Kiwi_fruit_homegrown.jpg2007-Nov-13 22:41:35922.5Kimage/jpeg
20071114003551!Calamaro_lengua_popular.jpg2007-Nov-13 23:48:2319.4Kimage/jpeg
20071114145233!Pedrayes_2.jpg2007-Nov-14 14:51:32307.2Kimage/jpeg
20071114223107!Canon_155mm_TRF1_fh000019.jpg2006-Jan-07 00:54:24243.6Kimage/jpeg
20071114232300!George_Romney_-_Lady_Hamilton_(as_Miranda).jpg2007-Nov-14 20:01:1845.8Kimage/jpeg
20071116135346!Pyhäntä.sijainti.suomi.2007.svg2007-Nov-15 13:59:54265.4Kapplication/octet-stream
20071117191645!Jospeh_Henry_(1879).jpg2006-Oct-14 10:33:0036.5Kimage/jpeg
20071118122520!Bnf119.jpg2006-Oct-04 16:37:5290.8Kimage/jpeg
20071118184917!Mosaic_museum_Istanbul_2007_020.jpg2007-Aug-13 10:50:53903.3Kimage/jpeg
20071119143052!Seealso.png2007-Apr-19 13:25:580.3Kimage/png
20071119181347!Lincoln_second.jpg2007-Nov-19 18:09:5664.9Kimage/jpeg
20071121151235!BMW_E64_M6_Convertible.JPG2007-Oct-31 11:30:14869.9Kimage/jpeg
20071122045534!Vinzelberg_in_SDL.png2006-May-20 19:37:1919.3Kimage/png
20071122054928!Pumpgine.jpg2007-Nov-22 05:46:2564.9Kimage/jpeg
20071122220227!Linkrassegnaok.jpg2007-Nov-22 22:01:1424.9Kimage/jpeg
20071123101200!В_костюме_скомороха.jpg2006-Dec-12 13:32:3932.9Kimage/jpeg
20071123122445!Pyhäntä.sijainti.suomi.2007.svg2007-Nov-16 13:53:46264.8Kapplication/octet-stream
20071123150117!Bitacoras.2.0.png2007-Nov-23 14:53:53113.5Kimage/png
20071123154038!Race_horse-François_Roux_mg_0604.jpg2007-Nov-23 15:35:05361.9Kimage/jpeg
20071123163430!A-18Spain.png2006-Nov-29 09:30:4138.0Kimage/png
20071124184151!Secondary_Tennessee_19.svg2007-Jun-09 17:16:125.2Kapplication/octet-stream
20071125045342!Knot-crossing-minus.png2005-Feb-14 23:53:321.4Kimage/png
20071125064420!Windrose.svg2007-Jun-22 14:23:4817.4Kapplication/octet-stream
20071125103802!Mikroskop_Strahlengang.svg2007-Nov-25 10:22:15383.8Kapplication/octet-stream
20071125150844!Cannabutter.jpg2007-Sep-18 20:40:411.4Mimage/jpeg
20071128154832!Cannabutter.jpg2007-Nov-25 15:08:451.4Mimage/jpeg
20071128224128!Hypatia_(Charles_William_Mitchell).jpg2006-Jun-23 22:49:56220.0Kimage/jpeg
20071130112009!Model_2000-Second_of_Odakyu_Electric_Railway.JPG2007-Mar-14 11:54:55118.2Kimage/jpeg
20071130173256!Rios_de_Cali.png2007-Nov-30 04:57:3274.6Kimage/png
20071201124609!De_Alemannia_XXIII_052.jpg2007-Jul-28 20:12:14528.9Kimage/jpeg
20071201124953!De_Alemannia_XXIII_069.jpg2007-Jul-28 20:16:13556.2Kimage/jpeg
20071201132613!Folsom_6.jpg2007-Dec-01 13:22:04470.0Kimage/jpeg
20071204062600!Cherry_Stella444.jpg2007-Dec-03 06:36:21315.1Kimage/jpeg
20071204110320!Cherry_Stella444.jpg2007-Dec-04 06:26:00300.2Kimage/jpeg
20071204141643!LocationMorocco.png2007-Nov-11 12:37:575.0Kimage/png
20071204175852!Retinoblastoma3.svg2007-Dec-04 17:19:30456.7Kapplication/octet-stream
20071205040856!Hard_water_and_drop.jpg2007-Dec-05 04:04:47640.3Kimage/jpeg
20071205083241!Chiesa_Thurn.JPG2007-Dec-03 09:30:272.4Mimage/jpeg
20071205083505!Chiesa_Thurn.JPG2007-Dec-05 08:32:322.4Mimage/jpeg
20071205085508!Chiesa_Thurn.JPG2007-Dec-05 08:35:052.4Mimage/jpeg
20071205141736!Východoslovenská_nízina.png2007-Nov-16 21:31:0062.8Kimage/png
20071205160425!Retinoblastoma3.svg2007-Dec-04 17:58:48454.3Kapplication/octet-stream
20071206185740!LocationMorocco.png2007-Dec-04 14:16:435.0Kimage/png
20071206203645!Mindestlohn_und_Erwerbslosenquote.png2007-Dec-05 21:22:2769.1Kimage/png
20071207135218!Zbroja_1514.JPG2006-Dec-31 14:14:55626.4Kimage/jpeg
20071208153057!Alex_K_Pavlo_Polubotok.svg2007-May-26 06:50:3141.6Kapplication/octet-stream
20071208222325!Karlsplatz_station_Vienna_June_2006_501.jpg2006-Oct-20 18:36:40976.5Kimage/jpeg
20071209020040!GuentherZ_2007-02-17_0012_Wien03_Kirche_zum_Heiligen_Erloeser.jpg2007-Feb-17 15:56:2526.9Kimage/jpeg
20071209032258!2005_Toyota_Hi-Lux-Surf_02.jpg2007-Jun-05 12:38:25481.2Kimage/jpeg
20071209035744!Am_Hof_Vienna_June_2006_127.jpg2006-Sep-03 17:47:38860.6Kimage/jpeg
20071209221429!Music_2a2.svg2007-Dec-09 22:01:131.6Kapplication/octet-stream
20071209221614!Music_2pa2.svg2007-Dec-09 22:02:031.6Kapplication/octet-stream
20071209222330!Music_8pa2.svg2007-Dec-09 22:04:481.9Kapplication/octet-stream
20071210110109!Music_2a2.svg2007-Dec-09 22:14:271.6Kapplication/octet-stream
20071210110336!Music_2pa2.svg2007-Dec-09 22:16:131.6Kapplication/octet-stream
20071210111155!Music_8pa2.svg2007-Dec-09 22:23:291.9Kapplication/octet-stream
20071211004751!Sava_Hentia_-_Fata_cu_porumbei.jpg2007-Dec-11 00:46:2759.4Kimage/jpeg
20071211042034!Wikipedia_DC_meetup_3_barnstar.JPG2007-Dec-10 07:05:19737.2Kimage/jpeg
20071211154143!Batumi.jpg2007-Jul-26 18:58:5497.3Kimage/jpeg
20071211154556!Batumi.jpg2007-Dec-11 15:41:1885.9Kimage/jpeg
20071211154831!Batumi.jpg2007-Dec-11 15:45:5697.3Kimage/jpeg
20071213181651!Ottonianum_von_St._Martin_14-09-2003.JPG2006-Jun-06 11:42:53236.9Kimage/jpeg
20071215124652!WV-ExoInduction02-2.svg2007-Dec-09 14:40:2848.5Kapplication/octet-stream
20071215235418!Braunschweig_Weihnachtsmarkt.jpg2007-Dec-15 21:20:170.9Mimage/jpeg
20071216080118!Curb_roof_(PSF).png2007-Nov-26 15:09:0332.0Kimage/png
20071216113522!NL-A6.png2006-Jul-21 16:30:5912.0Kimage/png
20071217001738!Bridge_types.svg2007-Dec-16 23:57:0613.2Kapplication/octet-stream
20071218174838!Aggiebonfire2005.jpg2007-Feb-23 07:18:5434.3Kimage/jpeg
20071218175834!Oceanic_basin_nl.svg2007-Dec-18 17:55:1231.4Kapplication/octet-stream
20071219022911!Pigeondance.ogg2007-Dec-19 02:15:56525.9Kapplication/ogg
20071219135634!SphericalImage.svg2007-Dec-19 13:32:58241.5Kapplication/octet-stream
20071219140136!SphericalImage.svg2007-Dec-19 13:56:317.8Kapplication/octet-stream
20071219140523!SphericalImage.svg2007-Dec-19 14:01:339.9Kapplication/octet-stream
20071219141104!SphericalImage.svg2007-Dec-19 14:05:1660.7Kapplication/octet-stream
20071219163631!SphericalImage.svg2007-Dec-19 14:11:019.9Kapplication/octet-stream
20071219164341!SphericalImage.svg2007-Dec-19 16:36:28113.0Kapplication/octet-stream
20071219204124!Nissan_Patrol.jpg2007-Nov-16 20:57:58548.3Kimage/jpeg
20071219211141!MP4_22_.JPG2007-Dec-19 20:12:442.9Mimage/jpeg
20071220002152!SphericalImage.svg2007-Dec-19 16:43:38114.7Kapplication/octet-stream
20071220002949!SphericalImage.svg2007-Dec-20 00:21:4910.1Kapplication/octet-stream
20071220165725!Taillé_aux_grebons_0563.jpg2007-Dec-17 18:41:291.9Mimage/jpeg
20071222071545!Helen_Keller.jpg2006-Jun-20 09:31:2128.3Kimage/jpeg
20071224004539!Lincoln_second.jpg2007-Nov-19 18:13:4554.4Kimage/jpeg
20071224120349!Karte_Bezirk_Aigle_2008.png2006-Oct-31 19:02:22279.9Kimage/png
20071224120523!Karte_Bezirk_Aigle_2008.png2007-Dec-24 12:03:49279.9Kimage/png
20071226122931!Music_2a2.svg2007-Dec-10 11:00:401.6Kapplication/octet-stream
20071226123136!Music_2pa2.svg2007-Dec-10 11:03:341.6Kapplication/octet-stream
20071226124005!Music_8pa2.svg2007-Dec-10 11:11:511.9Kapplication/octet-stream
20071226151857!Comètes_fraise_lavande.jpg2007-Dec-26 14:37:49875.1Kimage/jpeg
20071230092322!Työlaitos_ilmajoki.PNG2007-Sep-15 08:51:3934.9Kimage/png
20071230154633!Demografía_Hospitalet_(España).PNG2006-Aug-14 02:40:1833.1Kimage/png
20080103084403!Map_of_Korean_dialects.png2007-Dec-29 05:36:112.5Kimage/png
20080103095431!Map_en.gif2006-Jan-04 15:45:3424.9Kimage/gif
20080104201847!SonyDSLRAlpha100_VL.jpg2008-Jan-04 17:43:24512.1Kimage/jpeg
20080105060429!Map_of_Korean_dialects.png2008-Jan-03 08:43:402.5Kimage/png
20080105062437!Map_of_Korean_dialects.png2008-Jan-05 06:04:292.4Kimage/png
20080105152629!Oleviste_kirik_2007-3.jpg2008-Jan-05 09:24:01192.4Kimage/jpeg
20080108193724!Blue_Subaru_Impreza_WRX_-_003.jpg2008-Jan-07 02:06:241.6Mimage/jpeg
20080109215305!WOSM-WAGGGS-Africa_Region.svg2008-Jan-09 19:50:491.9Mapplication/octet-stream
20080110204441!Kikujiro_Ishii.jpg2006-May-26 17:52:0538.1Kimage/jpeg
20080111205425!Seedorf_BE-coat_of_arms.svg2007-Jan-12 15:16:5917.2Kapplication/octet-stream
20080114105930!Orlowo_007.JPG2008-Jan-14 10:45:512.2Mimage/jpeg
20080114211321!Lisboa_-_Freguesias.png2011-Nov-03 15:54:36230.0Kimage/png
20080114211936!National_Museum_KL_2008_(103).JPG2008-Jan-08 23:41:19111.1Kimage/jpeg
20080116000802!Hermann_Hupfeld_(1796-1866).jpg2008-Jan-16 00:03:06397.8Kimage/jpeg
20080116172418!737insig.png2006-Mar-09 17:42:1312.0Kimage/png
20080116193656!Marcos_Carámbula.jpg2008-Jan-15 17:05:4520.0Kimage/jpeg
20080117145337!Academy_Street,_Poughkeepsie,_NY.jpg2008-Jan-17 14:46:372.6Mimage/jpeg
20080117193522!Wappen_Landkreis_Potsdam-Mittelmark.png2005-Dec-25 21:04:489.7Kimage/png
20080118203252!Härlen4.jpg2008-Jan-14 02:24:05664.6Kimage/jpeg
20080119125930!Staatliche_Feuerwehrschule_Geretsried-Einsatzfahrzeug.JPG2007-Aug-14 15:55:411.0Mimage/jpeg
20080120173152!Vanausuliste_surnuaed.jpg2008-Jan-20 17:11:44630.1Kimage/jpeg
20080123215046!Copa_Airlines_Boeing_737-300.jpg2011-Jun-16 14:43:18158.6Kimage/jpeg
20080124191842!SPQRomani.svg2006-Jul-26 19:31:4158.5Kapplication/octet-stream
20080125230706!Devonianfishes_ntm_1905_smit_1929.gif2006-Nov-08 11:16:25185.1Kimage/gif
20080127043221!Ziem_-_O_Canal_Grande_em_Veneza.jpg2008-Jan-05 22:31:1332.7Kimage/jpeg
20080127051150!BanjoPendulum.png2008-Jan-26 21:24:064.8Kimage/png
20080127052641!BanjoPendulum.png2008-Jan-27 05:11:415.2Kimage/png
20080127215118!Conformal_map.svg2008-Jan-23 03:36:4934.4Kapplication/octet-stream
20080129014422!螺烷烃.png2008-Jan-28 08:42:5111.7Kimage/png
20080129140714!ISS_insignia.svg2008-Jan-29 14:06:35131.6Kapplication/octet-stream
20080129200205!Chem_F_kilo1.svg2008-Jan-27 15:36:027.1Kapplication/octet-stream
20080131171232!Upper_galil.svg2008-Jan-31 17:02:5971.4Kapplication/octet-stream
20080131193238!Upper_galil.svg2008-Jan-31 17:12:2571.4Kapplication/octet-stream
20080201043141!WOSM-WAGGGS-Africa_Region.svg2008-Jan-09 21:53:061.9Mapplication/octet-stream
20080201043435!WOSM-WAGGGS-Africa_Region.svg2008-Feb-01 04:31:311.9Mapplication/octet-stream
20080201112356!Orthoceras_sp.4_-_Fosil.JPG2007-Apr-11 17:39:41553.7Kimage/jpeg
20080201140129!Vikings_exploration_and_territories-en.svg2008-Feb-01 13:32:51358.0Kapplication/octet-stream
20080201164710!LocationMorocco.png2007-Dec-06 18:57:374.9Kimage/png
20080201164750!LocationMorocco.png2008-Feb-01 16:47:105.0Kimage/png
20080202022615!Palacio_Arzobispal_de_Lima.JPG2007-Aug-02 19:51:052.3Mimage/jpeg
20080203131642!Mainstreet_Vulcan.JPG2008-Feb-03 12:59:532.3Mimage/jpeg
20080203184816!Chem_F_kilo1.svg2008-Jan-29 20:02:0213.6Kapplication/octet-stream
20080203185135!CoconutCrab_distribution_map.svg2008-Feb-03 11:04:331.6Mapplication/octet-stream
20080204232719!Gatto_Piccolo_3.jpg2008-Feb-04 23:24:56499.3Kimage/jpeg
20080208125402!Iceland_fishing_grounds.svg2007-Jul-09 21:48:111.8Mapplication/octet-stream
20080208130133!Iceland_fishing_grounds.svg2008-Feb-08 12:53:58394.1Kapplication/octet-stream
20080208201056!SIMG0165.JPG2008-Feb-08 18:24:38815.5Kimage/jpeg
20080208215842!SALZHEMMENDORF_nieder.svg2007-Sep-18 21:17:4014.4Kapplication/octet-stream
20080210135729!Minoan_lines.JPG2005-Dec-25 17:38:47187.7Kimage/jpeg
20080210202112!BREITINGEN_nieder.svg2007-Sep-20 19:42:3513.7Kapplication/octet-stream
20080210202244!ENGEN_HEGAU_nieder.svg2007-Sep-20 19:43:4714.6Kapplication/octet-stream
20080210202253!EPPINGEN_ELSENZ_nieder.svg2007-Nov-02 21:34:2614.4Kapplication/octet-stream
20080210203122!RUDERSBERG_nieder.svg2007-Sep-20 19:50:1613.7Kapplication/octet-stream
20080210214426!EILSLEBEN_nieder.svg2007-Sep-25 19:49:3613.9Kapplication/octet-stream
20080210220731!FLOH_nieder.svg2007-Sep-25 20:11:5214.6Kapplication/octet-stream
20080210221225!NEUSTADT_ARENNSTEIG_nieder.svg2007-Sep-25 20:15:0813.9Kapplication/octet-stream
20080211192707!ELTVILLE_STEINBERG_nieder.svg2007-Sep-22 20:39:3913.9Kapplication/octet-stream
20080211194421!KLEIN_PLASTEN_nieder.svg2007-Sep-25 20:29:5213.9Kapplication/octet-stream
20080211194513!MALCHOW_nieder.svg2007-Nov-02 21:41:0213.9Kapplication/octet-stream
20080211200159!BERLIN_MITTE_nieder.svg2007-Sep-25 18:37:0014.1Kapplication/octet-stream
20080211202615!L4gris.PNG2008-Feb-11 20:17:240.5Kimage/png
20080211215757!KIRCHHUNDEM_RHWESERTURM_nieder.svg2007-Sep-22 19:48:4013.9Kapplication/octet-stream
20080211220720!TOENISVORST_nieder.svg2007-Sep-22 19:52:2214.4Kapplication/octet-stream
20080211221459!EPPINGEN_ELSENZ_nieder.svg2008-Feb-10 20:22:5220.6Kapplication/octet-stream
20080211222048!MALCHOW_nieder.svg2008-Feb-11 19:45:1320.6Kapplication/octet-stream
20080211230221!Edit_frequency_for_svwiki.svg2008-Feb-10 17:24:4418.8Kapplication/octet-stream
20080212181316!Sargon_de_Acad.svg2007-Jun-07 20:09:37245.3Kapplication/octet-stream
20080213085019!Palmerston_Aerial.jpg2007-Jun-24 08:17:11119.7Kimage/jpeg
20080213154610!QSicon_new.svg2008-Feb-12 14:51:349.0Kapplication/octet-stream
20080213183343!Sargon_de_Acad.svg2008-Feb-12 18:13:13246.2Kapplication/octet-stream
20080215201034!Kolumbianischer_Präsident_Alvaro_Uribe_2004.jpg2006-May-29 23:43:41812.9Kimage/jpeg
20080216090423!Betrachterbild.jpg2008-Feb-15 16:55:58979.7Kimage/jpeg
20080217162958!Caspar_David_Friedrich_026.jpg2005-May-19 11:15:21281.1Kimage/jpeg
20080218171536!Hazard_E.svg2006-Dec-20 21:40:4326.9Kapplication/octet-stream
20080219163506!Princial_flag_of_United_Principalities_of_Romania_(reconstituted).png2008-Feb-14 02:10:53128.5Kimage/png
20080219213759!Léonard_de_Vinci2.ogg2008-Feb-15 20:39:4910.0Mapplication/ogg
20080220082036!Austria_States_Cities.png2008-Feb-19 17:12:26219.5Kimage/png
20080220203254!Chitosan_Synthese.svg2008-Feb-10 20:03:33109.9Kapplication/octet-stream
20080222152630!Hazard_E.svg2008-Feb-18 17:15:3322.8Kapplication/octet-stream
20080224090956!Ernst,_Klaus_(1954).jpg2008-Feb-24 09:06:091.6Mimage/jpeg
20080227204438!Tobus_S-E400_cubic_CNG-nonstep.jpg2008-Feb-17 14:45:39154.9Kimage/jpeg
20080229204833!Kutais,_Country_house.jpg2008-Jan-06 02:26:1846.4Kimage/jpeg
20080301140014!Cirque_gavarnie_hiver.jpg2008-Mar-01 09:56:42112.1Kimage/jpeg
20080301163655!Cirque_gavarnie_hiver.jpg2008-Mar-01 14:00:14105.4Kimage/jpeg
20080301163714!Cirque_gavarnie_hiver.jpg2008-Mar-01 16:36:48112.1Kimage/jpeg
20080301163730!Cirque_gavarnie_hiver.jpg2008-Mar-01 16:37:14105.4Kimage/jpeg
20080301183158!Flag_of_the_Red_Crystal.svg2006-Feb-17 19:47:540.3Kapplication/octet-stream
20080304125546!Asakayama-inari3.jpg2008-Mar-04 12:55:032.9Mimage/jpeg
20080304151954!Rufo_OK2.jpg2008-Mar-04 15:12:59229.0Kimage/jpeg
20080304153051!Rufo_OK2.jpg2008-Mar-04 15:19:55229.0Kimage/jpeg
20080305100242!Wappen_von_Cadolzburg.png2006-Feb-06 15:32:2632.2Kimage/png
20080306185431!Tres_Zapotes_site_plan.svg2008-Mar-06 18:38:16194.4Kapplication/octet-stream
20080306232232!Tres_Zapotes_site_plan.svg2008-Mar-06 18:54:31194.5Kapplication/octet-stream
20080307000907!Lithuanian_COA.jpg2008-Feb-01 03:26:54584.5Kimage/jpeg
20080307120101!Kauhavankirkko.jpg2008-Mar-05 16:23:05774.8Kimage/jpeg
20080307133418!Tres_Zapotes_site_plan.svg2008-Mar-06 23:22:32197.8Kapplication/octet-stream
20080307133803!Tres_Zapotes_site_plan.svg2008-Mar-07 13:34:18183.6Kapplication/octet-stream
20080308141928!PH_locator_map_dinagat_islands_libjo.svg2008-Mar-08 14:16:1585.7Kapplication/octet-stream
20080308223459!GuadAirAttackAug8.jpg2006-Jul-25 15:16:0896.2Kimage/jpeg
20080308233747!USS_Alabama_(BB_8)_Underway_at_low_speed.jpg2007-May-28 20:33:00104.3Kimage/jpeg
20080310023648!Sede_Macarena.JPG2007-Jul-10 02:05:05852.6Kimage/jpeg
20080310192227!Maison_Communale_d'Athus.jpg2008-Mar-10 16:47:43105.6Kimage/jpeg
20080311151258!Featured_Star_Japan.svg2008-Mar-11 10:48:3131.0Kapplication/octet-stream
20080311185107!Lotaryński_krzyż.svg2008-Mar-11 18:48:591.5Kapplication/octet-stream
20080312095618!Helenium_amarum3.jpg2008-Mar-12 08:55:58125.4Kimage/jpeg
20080312172146!Kozijn_aanzicht_001.svg2008-Mar-12 16:08:2450.8Kapplication/octet-stream
20080312214332!Bergenhusen_Wappen.svg2007-Nov-03 15:36:5568.9Kapplication/octet-stream
20080312215555!Bergenhusen_Wappen.svg2008-Mar-12 21:43:2723.6Kapplication/octet-stream
20080313050203!Osnat_elkabir3.JPG2008-Mar-13 05:00:421.6Mimage/jpeg
20080313091013!Kozijn_aanzicht_001.svg2008-Mar-12 17:21:4650.4Kapplication/octet-stream
20080313214447!Edit_frequency_for_svwiki.svg2008-Feb-11 23:02:1460.7Kapplication/octet-stream
20080314001901!Francisco_de_Goya_y_Lucientes_100.jpg2008-Mar-12 23:39:5930.6Kimage/jpeg
20080314002156!Francisco_de_Goya_y_Lucientes_100.jpg2008-Mar-14 00:18:58141.3Kimage/jpeg
20080314203946!Flag_of_Vallegrande_Province.svg2008-Mar-14 14:31:222.6Kapplication/octet-stream
20080314204723!Flag_of_Vallegrande_Province.svg2008-Mar-14 20:39:432.8Kapplication/octet-stream
20080316123534!Featured_Star_Japan.svg2008-Mar-11 15:12:5231.0Kapplication/octet-stream
20080317143943!Kozijn_aanzicht_001.svg2008-Mar-13 09:10:137.1Kapplication/octet-stream
20080319093821!BambergApocalypseFolio055rNew_Jerusalem.JPG2006-Mar-07 22:08:47215.9Kimage/jpeg
20080321034357!Superkavitation_schema.svg2008-Mar-21 03:43:007.8Kapplication/octet-stream
20080321035058!Superkavitation_schema.svg2008-Mar-21 03:43:525.9Kapplication/octet-stream
20080321035239!Superkavitation_schema.svg2008-Mar-21 03:50:555.7Kapplication/octet-stream
20080321113834!PelleCarlberg!.jpg2008-Mar-02 10:17:09241.6Kimage/jpeg
20080323143005!Wappen_von_Kitzingen.png2006-Oct-15 14:06:4776.7Kimage/png
20080323171304!Cardinalis_cardinalis.JPG2008-Feb-06 22:41:153.6Mimage/jpeg
20080324094845!Menantol2.jpg2006-Sep-12 06:22:51148.8Kimage/jpeg
20080324121554!Rotterdam_veerhaven2.jpg2007-Nov-12 19:16:20385.2Kimage/jpeg
20080324134007!Estonia_municipalities.png2007-Jan-08 17:38:2955.6Kimage/png
20080324141033!Flag_of_Vallegrande_Province.svg2008-Mar-14 20:47:182.8Kapplication/octet-stream
20080325130036!Human_skeleton_front_pl.svg2008-Mar-25 12:29:521.1Mapplication/octet-stream
20080325141508!TurnixSuscitatorTaigoor.jpg2008-Mar-23 16:47:57245.5Kimage/jpeg
20080328003330!Komárom_Katolikus_temető1.JPG2007-May-12 21:41:48678.9Kimage/jpeg
20080329093023!Salle-ope-Drachenbronn.jpg2007-Mar-24 20:05:3242.4Kimage/jpeg
20080329100603!Bergenhusen_Wappen.svg2008-Mar-12 21:55:5323.4Kapplication/octet-stream
20080329180426!Wappen_von_Cadolzburg.png2008-Mar-05 10:02:388.0Kimage/png
20080329192430!PadreManyanetPortrait.jpg2008-Mar-27 15:00:357.0Kimage/jpeg
20080331044639!Easternnewtrangemap.svg2007-Oct-06 14:19:35436.5Kapplication/octet-stream
20080331212630!Altlandsberg_in_MOL.png2007-May-05 10:00:015.1Kimage/png
20080403143201!Instrumental_Temperature_Record.svg2008-Apr-03 14:26:3994.4Kapplication/octet-stream
20080405111641!Γειτονιά_Γέρακα_Αττικής.jpg2007-Nov-17 19:20:45190.2Kimage/jpeg
20080405144516!Αγορά_Παλλήνης_Αττικής.jpg2007-Dec-26 04:33:40212.3Kimage/jpeg
20080406000610!Society_Finches.JPG2008-Apr-06 00:05:3665.5Kimage/jpeg
20080406011121!Linear_least_squares_geometric_interpretation.png2008-Apr-05 23:28:3277.9Kimage/png
20080406085440!Human_skeleton_front_pl.svg2008-Mar-25 13:00:051.1Mapplication/octet-stream
20080406215530!Williamdaniels_bonniebartlett_(cropped).jpg2008-Apr-06 21:51:08184.7Kimage/jpeg
20080407073549!Elevator_(Madrid_Metro).svg2008-Apr-07 07:33:580.9Kapplication/octet-stream
20080407232816!Vestal,_collier,_Brooklyn_Navy_Yard.jpg2008-Apr-05 20:17:19112.8Kimage/jpeg
20080408141123!1000_DM_Serie4_Rueckseite.jpg2008-Apr-01 21:47:258.3Kimage/jpeg
20080408193303!WTM_tony_0037.jpg2008-Apr-08 05:48:275.2Mimage/jpeg
20080408201051!Dvořáček_Karel.jpg2007-Dec-31 10:40:52497.9Kimage/jpeg
20080409222450!Unitarity_triangle.svg2008-Apr-09 22:22:4314.1Kapplication/octet-stream
20080410115800!Unitarity_triangle.svg2008-Apr-09 22:24:4216.4Kapplication/octet-stream
20080410230956!Escudo_de_la_provincia_de_Ciudad_Real.svg2008-Apr-10 23:06:042.3Mapplication/octet-stream
20080411180902!Linha_5_-_Lilás.PNG2007-Oct-22 15:18:1423.1Kimage/png
20080413190106!Leon_Russell.jpg2008-Apr-09 22:38:39457.5Kimage/jpeg
20080414012122!James_van_Fleet.jpg2008-Apr-14 01:20:3822.0Kimage/jpeg
20080414212045!PeppersSuprise01.JPG2008-Apr-14 21:12:22229.2Kimage/jpeg
20080415064218!Central_Obesity_008.jpg2007-Feb-05 00:32:04204.4Kimage/jpeg
20080415212928!Norway_-_Arnøya.png2008-Apr-06 23:32:0414.4Kimage/png
20080416031823!PeppersSuprise01.JPG2008-Apr-14 21:20:36229.2Kimage/jpeg
20080416203618!Bwy_wikipedia_logo.jpg2008-Apr-16 20:35:4720.3Kimage/jpeg
20080417094421!GW-Bush-in-uniform.jpg2007-Jan-19 23:22:48312.9Kimage/jpeg
20080417184108!Dubi_CoA_CZ.jpg2007-Mar-06 20:52:2620.6Kimage/jpeg
20080418070607!Marques_de_Comillas_en_Chiapas.svg2007-Oct-24 07:00:01285.5Kapplication/octet-stream
20080419080842!Monasterio_de_la_Oliva_-_Portada_-_Friso.jpg2007-Dec-02 14:17:365.1Mimage/jpeg
20080421230431!Naphthalene.svg2007-Jan-30 23:00:432.4Kapplication/octet-stream
20080422231622!ProcessamentoOSG.jpg2008-Apr-22 22:59:5212.0Kimage/jpeg
20080423005253!Current_loops.PNG2008-Apr-22 21:38:1930.2Kimage/png
20080424201046!Tutorial_SWBD_map_13.jpg2007-May-08 12:54:20162.2Kimage/jpeg
20080425054750!Webb_County_Courthouse_2007.jpg2007-Aug-11 09:58:301.2Mimage/jpeg
20080425201805!Bild_Zwingli_Asper.jpg2008-Apr-25 20:09:141.0Mimage/jpeg
20080426042522!Karte_Gemeinde_Certara_2008.png2008-Apr-20 06:51:14847.9Kimage/png
20080426202752!Dendrobium_chrysotoxum1.jpg2008-Apr-26 20:24:381.8Mimage/jpeg
20080427172624!Cerdedo_Spain.svg2008-Mar-23 18:56:4737.3Kapplication/octet-stream
20080430061542!Rambla1.jpg2008-Apr-30 00:48:29439.1Kimage/jpeg
20080430190123!Linha_5_-_Lilás.PNG2008-Apr-11 18:09:0246.9Kimage/png
20080430235148!Goldengatebridge009.jpg2008-Apr-30 23:43:14585.3Kimage/jpeg
20080501042427!Linha_5_-_Lilás.PNG2008-Apr-30 19:01:2018.9Kimage/png
20080501131510!Rotterdam_voorhaven7.jpg2007-Nov-23 22:41:06219.2Kimage/jpeg
20080501135844!Linha_5_-_Lilás.PNG2008-May-01 04:24:2746.9Kimage/png
20080501173113!Linha_5_-_Lilás.PNG2008-May-01 13:58:4418.9Kimage/png
20080502083804!Project_Management_(phases).png2008-May-02 07:56:4534.8Kimage/png
20080502223437!SurfTensionContactAngle.png2007-Sep-01 16:19:211.9Kimage/png
20080502230656!Laura_Põldvere.jpg2008-Apr-19 10:29:5071.6Kimage/jpeg
20080503121357!Thorium-Reihe.gif2008-Mar-17 19:27:2083.1Kimage/gif
20080504002447!Linha_5_-_Lilás.PNG2008-May-01 17:31:1346.9Kimage/png
20080504011628!Linha_5_-_Lilás.PNG2008-May-04 00:24:4244.2Kimage/png
20080505083134!Profiler.jpg2007-Dec-02 01:14:50173.8Kimage/jpeg
20080505083428!Profiler.jpg2008-May-05 08:31:31175.8Kimage/jpeg
20080506063210!Danimusic.JPG2008-May-06 06:19:18487.6Kimage/jpeg
20080507100535!PuitsSteMarie.png2008-May-07 10:05:041.2Mimage/png
20080507154755!Symbol_split_discussion.svg2008-May-03 18:03:1313.7Kapplication/octet-stream
20080509172632!Pickle.jpg2008-May-09 17:26:32194.1Kimage/jpeg
20080509172843!Pickle.jpg2008-May-09 17:28:43186.8Kimage/jpeg
20080510001807!Gate_to_the_Badshahi.jpg2008-May-10 00:18:07408.1Kimage/jpeg
20080510060809!Fipjp_verbände.jpg2008-May-10 06:08:09104.7Kimage/jpeg
20080510062531!Fipjp_verbände.jpg2008-May-10 06:25:31101.3Kimage/jpeg
20080510232704!Apollo_10_Lunar_Module.jpg2008-May-10 23:27:0433.9Kimage/jpeg
20080511181517!Jean_Galfione_CM_Helsinki_2005.jpg2008-May-11 18:15:17117.2Kimage/jpeg
20080511182102!Dominatrix.jpg2008-May-11 18:21:02228.4Kimage/jpeg
20080511223017!Moralzarzal_(Madrid)_mapa.svg2008-May-11 22:30:17230.0Kapplication/octet-stream
20080512074928!ShukinPI.jpg2008-May-12 07:49:2810.0Kimage/jpeg
20080513135448!RyuichiSakamotoJI4-1.jpg2008-May-13 13:54:481.9Mimage/jpeg
20080514065812!Isuzu_Wizard_001.JPG2008-May-14 06:58:12412.6Kimage/jpeg
20080515153944!Pilgrim's_Oratory001.JPG2008-May-15 15:39:44711.8Kimage/jpeg
20080516133544!Jaume_Aymar.jpg2008-May-16 13:35:4479.9Kimage/jpeg
20080517123252!Ishitani_residence02_2816.jpg2008-May-17 12:32:53978.2Kimage/jpeg
20080518013631!Izushi_museum02_2816.jpg2008-May-18 01:36:31742.2Kimage/jpeg
20080519191331!CC-sampling.svg2008-May-19 19:13:313.2Kapplication/octet-stream
20080520225425!BulgariaFIFARank.png2008-May-20 22:54:2549.9Kimage/png
20080520225615!BulgariaFIFARank.png2008-May-20 22:56:1546.3Kimage/png
20080521170932!Hu-tizenegy.ogg2008-May-21 17:09:3319.4Kapplication/ogg
20080522102931!Srbsko_Roman_ru.svg2008-May-22 10:29:31270.2Kapplication/octet-stream
20080522201315!IPhone_hands_on_trial.jpg2008-May-22 20:13:15319.7Kimage/jpeg
20080522204151!Erebiamedusa.jpg2008-May-22 20:41:51378.7Kimage/jpeg
20080526033713!WTN_EVula_035.jpg2008-May-26 03:37:141.4Mimage/jpeg
20080526172849!Arsène_Wenger_2008.jpg2008-May-26 17:28:50237.4Kimage/jpeg
20080528164456!Gretsch_6119-Tennessean-1966.JPG2008-May-28 16:44:56289.8Kimage/jpeg
20080529131736!Armoiries_de_Leiningen.svg2008-May-29 13:17:3639.3Kapplication/octet-stream
20080531153041!Wappen_Eschenbach_Wuerttemberg.png2008-May-31 15:30:4198.2Kimage/png
20080531163444!自-order.gif2008-May-31 16:34:457.0Kimage/gif
20080531205809!Rotterdam_veerhaven2.jpg2008-May-31 20:58:09489.7Kimage/jpeg
20080601121807!Elberfeld-West.png2008-Jun-01 12:18:077.2Kimage/png
20080601150308!VIOLIN.JPG2008-Jun-01 15:03:08250.7Kimage/jpeg
20080602023335!I-295_(MD).svg2008-Jun-02 02:33:3517.2Kapplication/octet-stream
20080602214504!SagradaFamiliaVoltaCentral_1410-01.jpg2008-Jun-02 21:45:04723.4Kimage/jpeg
20080604075942!Neue_Alm_Schema.svg2008-Jun-04 07:59:4219.8Kapplication/octet-stream
20080604080006!Neue_Alm_Schema.svg2008-Jun-04 08:00:0621.2Kapplication/octet-stream
20080604080058!Neue_Alm_Schema.svg2008-Jun-04 08:00:5821.2Kapplication/octet-stream
20080605004437!Armenia-geo-stub_icon.svg2008-Jun-05 00:44:3739.1Kapplication/octet-stream
20080605103937!Die_Portugiesenzeit_(Strandes)_110.jpg2008-Jun-05 10:39:378.2Kimage/jpeg
20080605121556!Witte_de_With_Rotterdam.jpg2008-Jun-05 12:15:56191.8Kimage/jpeg
20080606045412!Escudo.JPG2008-Jun-06 04:54:125.1Kimage/jpeg
20080606113811!De_Das_Sprichwort_als_Kosmopolit_(Düringsfeld)_334.jpg2008-Jun-06 11:38:11133.2Kimage/jpeg
20080606120138!DE_CDB_1_18_369.jpg2008-Jun-06 12:01:3830.0Kimage/jpeg
20080606173249!Escudo_de_Xeresa.svg2008-Jun-06 17:32:49208.4Kapplication/octet-stream
20080606232205!De_Meusel_Lexikon_6_031.jpg2008-Jun-06 23:22:0531.6Kimage/jpeg
20080607065655!Bonzi-Wells-Guards-Gerrald-Wallace.jpg2008-Jun-07 06:56:55305.7Kimage/jpeg
20080608181359!Storhamar_vgs.jpg2008-Jun-08 18:14:00277.6Kimage/jpeg
20080609121613!Tatra_T138_Crane.jpg2008-Jun-09 12:16:14727.3Kimage/jpeg
20080611140536!Map_of_Indiana_State_Road_106.svg2008-Jun-11 14:05:3687.6Kapplication/octet-stream
20080611141006!Map_of_Indiana_State_Road_106.svg2008-Jun-11 14:10:0688.3Kapplication/octet-stream
20080613061552!Brown_Leghorn_hen,_Ohio.jpg2008-Jun-13 06:15:52360.0Kimage/jpeg
20080613092427!2004_Toyota_Mark-X_01.jpg2008-Jun-13 09:24:27140.5Kimage/jpeg
20080614184324!Corydalis_cava_Sturm42.jpg2008-Jun-14 18:43:24236.6Kimage/jpeg
20080615125246!Model_Topkapi_Istanbul_(1).JPG2008-Jun-15 12:52:461.1Mimage/jpeg
20080615131600!Model_Topkapi_Istanbul_(1).JPG2008-Jun-15 13:16:00530.2Kimage/jpeg
20080615161900!Model_Topkapi_Istanbul_(1).JPG2008-Jun-15 16:19:00549.2Kimage/jpeg
20080616190022!Halle_Saale_Giebichenstein_um_1900.jpg2008-Jun-16 19:00:22238.1Kimage/jpeg
20080617131622!Atlantic_Canada_IPA_chart.PNG2008-Jun-17 13:16:2235.5Kimage/png
20080618193247!Bamberg_Rathaus_untere_bruecke_1900.jpg2008-Jun-18 19:32:47172.0Kimage/jpeg
20080618194024!Park_Ji-Sung_20080429.jpg2008-Jun-18 19:40:241.1Mimage/jpeg
20080618205448!Berlin_Unter_den_Linden_Blick_von_der_Schlossbrücke_um_1900.jpg2008-Jun-18 20:54:48160.0Kimage/jpeg
20080619190237!POR-GER_2008-06-19.svg2008-Jun-19 19:02:3745.9Kapplication/octet-stream
20080619190820!POR-GER_2008-06-19.svg2008-Jun-19 19:08:2045.9Kapplication/octet-stream
20080620000631!Grosvenor_Place_2_2008_06_19.jpg2008-Jun-20 00:06:31133.1Kimage/jpeg
20080620220231!Wappen_Laucha_an_der_Unstrut.png2008-Jun-20 22:02:3177.7Kimage/png
20080621144346!Blender3D_FieldsAndDeflectionPanel.png2008-Jun-21 14:43:4686.6Kimage/png
20080622114547!Geum_urbanum_Sturm44.jpg2008-Jun-22 11:45:47255.2Kimage/jpeg
20080623153221!KonectbusYJ56WVA.jpg2008-Jun-23 15:32:21124.2Kimage/jpeg
20080625201020!Bunsow.jpg2008-Jun-25 20:10:2043.9Kimage/jpeg
20080627093604!Bamberg_Rathaus_untere_bruecke_1900.jpg2008-Jun-27 09:36:04158.1Kimage/jpeg
20080628170454!Wikiforum.svg2008-Jun-28 17:04:5411.7Kapplication/octet-stream
20080628174159!Wikiforum.svg2008-Jun-28 17:41:59185.2Kapplication/octet-stream
20080628174644!Wikiforum.svg2008-Jun-28 17:46:44190.0Kapplication/octet-stream
20080629083916!D'ANGELIS_BERHA_LOUISE.jpg2008-Jun-29 08:39:16312.5Kimage/jpeg
20080703191555!Bobby_Benson_B-Bar-B_Riders_01.jpg2008-Jul-03 19:15:55105.4Kimage/jpeg
20080703215008!One_Main_Place.jpg2008-Jul-03 21:50:08286.0Kimage/jpeg
20080704034908!6_Warszawa_358.jpg2008-Jul-04 03:49:09156.9Kimage/jpeg
20080704035008!6_Warszawa_369.jpg2008-Jul-04 03:50:09169.9Kimage/jpeg
20080704040744!7_Przemysl_006.jpg2008-Jul-04 04:07:4494.7Kimage/jpeg
20080704185437!5_Warszawa_081.jpg2008-Jul-04 18:54:38173.0Kimage/jpeg
20080704190804!6_Antonin_04.jpg2008-Jul-04 19:08:04156.9Kimage/jpeg
20080704191540!6_Kalisz_39.jpg2008-Jul-04 19:15:40115.3Kimage/jpeg
20080704192825!Wappen_Oetigheim.png2008-Jul-04 19:28:2560.5Kimage/png
20080704193745!6_Poznan_108.jpg2008-Jul-04 19:37:45101.5Kimage/jpeg
20080705084645!Evan_hardy_collegiate.JPG2008-Jul-05 08:46:462.7Mimage/jpeg
20080705111352!Śrem_-_odlewnik3.jpg2008-Jul-05 11:13:52211.8Kimage/jpeg
20080705111826!Śrem_-_odlewnik3.jpg2008-Jul-05 11:18:26396.5Kimage/jpeg
20080705113438!KRW-JPY_v2.svg2008-Jul-05 11:34:38133.9Kapplication/octet-stream
20080705152337!Admiral_Sebree_and_Pacific_Fleet_Staff_on_the_Tennessee.jpg2008-Jul-05 15:23:37112.1Kimage/jpeg
20080705160217!Berlin_Unter_den_Linden_Blick_von_der_Schlossbrücke_um_1900.jpg2008-Jul-05 16:02:17147.6Kimage/jpeg
20080705165740!Cicerbita_alpina_Sturm48.jpg2008-Jul-05 16:57:40265.5Kimage/jpeg
20080705192728!ProhibitionSign.svg2008-Jul-05 19:27:285.5Kapplication/octet-stream
20080705193015!ProhibitionSign.svg2008-Jul-05 19:30:155.5Kapplication/octet-stream
20080708093229!Neue_Alm_Schema.svg2008-Jul-08 09:32:2921.2Kapplication/octet-stream
20080708203831!Leontodon_autumnalis_Sturm33.jpg2008-Jul-08 20:38:31259.4Kimage/jpeg
20080708205304!Ancy-le-Franc_3.jpg2008-Jul-08 20:53:05325.9Kimage/jpeg
20080710032803!Gafanhoto_2.jpg2008-Jul-10 03:28:041.5Mimage/jpeg
20080710175449!Melins-stenografi-konsonantsammansattningar.svg2008-Jul-10 17:54:4974.0Kapplication/octet-stream
20080711023120!Dinornis1387.jpg2008-Jul-11 02:31:2031.3Kimage/jpeg
20080711120926!Vallée_de_la_Pique_et_port_de_Venasque.jpg2008-Jul-11 12:09:26915.0Kimage/jpeg
20080712113319!Stemma_Toderini_dGdV.jpg2008-Jul-12 11:33:19141.3Kimage/jpeg
20080712223140!Stemma_Toderini_dGdV.jpg2008-Jul-12 22:31:4059.1Kimage/jpeg
20080713032631!Morton_County,_Kansas_SPOT_1303.jpg2008-Jul-13 03:26:31118.8Kimage/jpeg
20080714190210!SirJohnTrenchard.jpg2008-Jul-14 19:02:103.1Kimage/jpeg
20080714230750!Kahlborn-osburg.jpg2008-Jul-14 23:07:511.0Mimage/jpeg
20080715082139!Rybniště,_kostel.jpg2008-Jul-15 08:21:39619.7Kimage/jpeg
20080715124631!Rio_Novo_px_Cast_REFON.jpg2008-Jul-15 12:46:31468.9Kimage/jpeg
20080715124831!Rod_Marechal_Rondon_250606_REFON_.jpg2008-Jul-15 12:48:321.2Mimage/jpeg
20080715203033!Museo_Teatro_Romano_Cartagena.jpg2008-Jul-15 20:30:3397.0Kimage/jpeg
20080716080250!DaveGibbons.jpg2008-Jul-16 08:02:50603.0Kimage/jpeg
20080717184719!Praezession.svg2008-Jul-17 18:47:19233.6Kapplication/octet-stream
20080721071538!F_John_Series_2_Protorohippus_card_5.jpg2008-Jul-21 07:15:3841.0Kimage/jpeg
20080722064049!LocationNepal.png2008-Jul-22 06:40:498.3Kimage/png
20080722064106!LocationNepal.png2008-Jul-22 06:41:065.9Kimage/png
20080722064126!LocationNepal.png2008-Jul-22 06:41:265.9Kimage/png
20080722121125!Flag_of_Chièvres.svg2008-Jul-22 12:11:2525.2Kapplication/octet-stream
20080722183852!Mohyla_Milana_Rastislava_Stefanika.jpg2008-Jul-22 18:38:5220.4Kimage/jpeg
20080722200958!Catedral_Metropolitana_(Cuiaba).jpg2008-Jul-22 20:09:581.0Mimage/jpeg
20080723154412!TallerLenateros49Sml.jpg2008-Jul-23 15:44:12287.2Kimage/jpeg
20080723204517!Portaal_Landen_&_Volken.png2008-Jul-23 20:45:17262.9Kimage/png
20080728184416!Escudo_de_Castejón_de_Monegros.svg2008-Jul-28 18:44:16365.9Kapplication/octet-stream
20080731020502!YellowWildSKFlower.JPG2008-Jul-31 02:05:021.9Mimage/jpeg
20080731111751!B-24Spain.png2008-Jul-31 11:17:5237.6Kimage/png
20080731225125!Darwin_IP_18.jpg2008-Jul-31 22:51:2519.5Kimage/jpeg
20080804144336!Norwegian-road-sign-308.0.svg2008-Aug-04 14:43:369.5Kapplication/octet-stream
20080805154802!Oak-ridge-george-jones-tn1.jpg2008-Aug-05 15:48:03398.4Kimage/jpeg
20080805155223!Oak-ridge-george-jones-tn1.jpg2008-Aug-05 15:52:23424.1Kimage/jpeg
20080807000925!F_John_Series_2_Protorohippus_card_5.jpg2008-Aug-07 00:09:2569.4Kimage/jpeg
20080809083857!Sigebert_Ier.jpg2008-Aug-09 08:38:5784.9Kimage/jpeg
20080810222906!Chateaux_de_Saverne.jpg2008-Aug-10 22:29:07312.6Kimage/jpeg
20080810224246!Petit-Ringelstein.jpg2008-Aug-10 22:42:46880.2Kimage/jpeg
20080811112611!رفع_العلم_فوق_جزيرة_طنب.jpg2008-Aug-11 11:26:1141.2Kimage/jpeg
20080811205300!Hoellentalklamm_1900.jpg2008-Aug-11 20:53:00331.8Kimage/jpeg
20080811220212!USSRONALDREAGAN.jpg2008-Aug-11 22:02:1245.4Kimage/jpeg
20080812085135!Neue_Alm_Schema.svg2008-Aug-12 08:51:3522.6Kapplication/octet-stream
20080812085309!Neue_Alm_Schema.svg2008-Aug-12 08:53:0924.5Kapplication/octet-stream
20080812090532!Neue_Alm_Schema.svg2008-Aug-12 09:05:3224.5Kapplication/octet-stream
20080813001804!MoinhoDeAgua-Pisao.JPG2008-Aug-13 00:18:08590.3Kimage/jpeg
20080813071442!Jasminocereus_thouarsii_2.jpg2008-Aug-13 07:14:423.4Mimage/jpeg
20080815101156!2008-07-15_Duke_Integrative_Medicine.jpg2008-Aug-15 10:11:563.3Mimage/jpeg
20080815191011!Leuchtenburg_1900.jpg2008-Aug-15 19:10:11229.5Kimage/jpeg
20080816024731!Wonder_Girls_Logo-Heart.svg2008-Aug-16 02:47:3168.2Kapplication/octet-stream
20080816030132!BMW_E64_M6_Convertible.JPG2008-Aug-16 03:01:32429.1Kimage/jpeg
20080816172616!10roubles1947b.jpg2008-Aug-16 17:26:161.3Mimage/jpeg
20080820061234!Lijn6FB31974.jpg2008-Aug-20 06:12:34424.3Kimage/jpeg
20080820090931!Wappen_Maihingen.png2008-Aug-20 09:09:3170.6Kimage/png
20080820223901!Nl-marine-vloot-sergeant.svg2008-Aug-20 22:39:012.9Kapplication/octet-stream
20080820234734!Nl-marine-mariniers-sergeant_majoor.svg2008-Aug-20 23:47:343.7Kapplication/octet-stream
20080821085941!Stazione_di_Manerbio_Lato_ferrovia_20080820.jpg2008-Aug-21 08:59:411.7Mimage/jpeg
20080821093713!Helen_Keller.jpg2008-Aug-21 09:37:1358.2Kimage/jpeg
20080821150946!Adrienne_Barbeau_(57743795)_new.jpg2008-Aug-21 15:09:4631.9Kimage/jpeg
20080823120041!Pomnik_(04)_by_Ron.jpg2008-Aug-23 12:00:411.1Mimage/jpeg
20080824110023!Santa_Lucia_-_Quirizio_da_Murano.jpg2008-Aug-24 11:00:23303.5Kimage/jpeg
20080824232815!Ike_Willis.jpg2008-Aug-24 23:28:15328.6Kimage/jpeg
20080825075055!7_white,_red_rounded_rectangle.svg2008-Aug-25 07:50:550.2Kapplication/octet-stream
20080825171922!Westwindowstjohns.JPG2008-Aug-25 17:19:224.4Mimage/jpeg
20080825183129!Todor_Saev.JPG2008-Aug-25 18:31:2913.9Kimage/jpeg
20080826152259!Hugh_Laurie_Actors_Guild.jpg2008-Aug-26 15:22:59111.8Kimage/jpeg
20080826152541!Hugh_Laurie_Actors_Guild.jpg2008-Aug-26 15:25:41100.4Kimage/jpeg
20080828093854!Escudo_de_Jabugo.svg2008-Aug-28 09:38:54335.1Kapplication/octet-stream
20080829101602!Pediocactus_nigrispinus_ssp_indranus_fh_1_ID_location_B.jpg2008-Aug-29 10:16:0289.8Kimage/jpeg
20080829155045!KRW-JPY_v2.svg2008-Aug-29 15:50:45134.5Kapplication/octet-stream
20080830104650!Mortar-attu-1943.jpg2008-Aug-30 10:46:5059.1Kimage/jpeg
20080831121655!Fragranthillspic1.jpg2008-Aug-31 12:16:55147.6Kimage/jpeg
20080901001342!FRG_map_Flag.png2008-Sep-01 00:13:4222.6Kimage/png
20080901052800!10_steps_in_19-et_on_C.mid2008-Sep-01 05:28:000.1Kapplication/octet-stream
20080903171029!Ulaz_u_Manasiju.jpg2008-Sep-03 17:10:31415.4Kimage/jpeg
20080904001644!Museumentrancepic1.jpg2008-Sep-04 00:16:44143.1Kimage/jpeg
20080905001737!Beijingbotanical7.jpg2008-Sep-05 00:17:37123.6Kimage/jpeg
20080905230130!Portaal_Landen_&_Volken.png2008-Sep-05 23:01:30260.2Kimage/png
20080905232049!Politisches_System_des_Bundes_und_der_Länder_in_Österreich.svg2008-Sep-05 23:20:4965.2Kapplication/octet-stream
20080905232214!Portaal_Landen_&_Volken.png2008-Sep-05 23:22:14217.9Kimage/png
20080905232343!Portaal_Landen_&_Volken.png2008-Sep-05 23:23:43220.2Kimage/png
20080905232523!Portaal_Landen_&_Volken.png2008-Sep-05 23:25:23220.0Kimage/png
20080905233551!Politisches_System_des_Bundes_und_der_Länder_in_Österreich.svg2008-Sep-05 23:35:5165.3Kapplication/octet-stream
20080905233949!Politisches_System_des_Bundes_und_der_Länder_in_Österreich.svg2008-Sep-05 23:39:4965.5Kapplication/octet-stream
20080905234800!Politisches_System_des_Bundes_und_der_Länder_in_Österreich.svg2008-Sep-05 23:48:0065.5Kapplication/octet-stream
20080905235211!Politisches_System_des_Bundes_und_der_Länder_in_Österreich.svg2008-Sep-05 23:52:1166.6Kapplication/octet-stream
20080905235437!Politisches_System_des_Bundes_und_der_Länder_in_Österreich.svg2008-Sep-05 23:54:3768.8Kapplication/octet-stream
20080906093444!Politisches_System_des_Bundes_und_der_Länder_in_Österreich.svg2008-Sep-06 09:34:4468.8Kapplication/octet-stream
20080906154934!Politisches_System_des_Bundes_und_der_Länder_in_Österreich.svg2008-Sep-06 15:49:3454.3Kapplication/octet-stream
20080906194844!Politisches_System_des_Bundes_und_der_Länder_in_Österreich.svg2008-Sep-06 19:48:4446.5Kapplication/octet-stream
20080906211720!Politisches_System_des_Bundes_und_der_Länder_in_Österreich.svg2008-Sep-06 21:17:2053.2Kapplication/octet-stream
20080906222849!BulgariaFIFARank.png2008-Sep-06 22:28:4945.7Kimage/png
20080907122424!Politisches_System_des_Bundes_und_der_Länder_in_Österreich.svg2008-Sep-07 12:24:2452.3Kapplication/octet-stream
20080908080835!Instrumental_Temperature_Record.svg2008-Sep-08 08:08:3594.3Kapplication/octet-stream
20080911184252!Wappen_Kau.png2008-Sep-11 18:42:5295.4Kimage/png
20080913102646!TriangulodesdeAndromeda.png2008-Sep-13 10:26:4692.3Kimage/png
20080914061811!Forbiddencitypic15.jpg2008-Sep-14 06:18:11120.3Kimage/jpeg
20080914173948!Halle_Saale_Giebichenstein_um_1900.jpg2008-Sep-14 17:39:49218.3Kimage/jpeg
20080921054515!NorthBlock.jpg2008-Sep-21 05:45:1599.0Kimage/jpeg
20080921055339!NorthBlock.jpg2008-Sep-21 05:53:3973.8Kimage/jpeg
20080921055356!NorthBlock.jpg2008-Sep-21 05:53:5673.8Kimage/jpeg
20080921060250!NorthBlock.jpg2008-Sep-21 06:02:5073.8Kimage/jpeg
20080921060713!NorthBlock.jpg2008-Sep-21 06:07:1373.0Kimage/jpeg
20080921074520!Vue-axono-anonyme-saqqarah-sud2.jpg2008-Sep-21 07:45:20289.6Kimage/jpeg
20080922142547!Befolkningsutvikling_kommune_1853.svg2008-Sep-22 14:25:471.3Kapplication/octet-stream
20080922182641!Berste_in_LDS.png2008-Sep-22 18:26:418.5Kimage/png
20080922190808!PekingUniversitycampus10.jpg2008-Sep-22 19:08:08122.5Kimage/jpeg
20080924221045!Hoellentalklamm_1900.jpg2008-Sep-24 22:10:45316.9Kimage/jpeg
20080925074512!SamandLX2006.jpg2008-Sep-25 07:45:131.2Mimage/jpeg
20080929000202!David_Almond_photograph.jpg2008-Sep-29 00:02:021.0Mimage/jpeg
20080929084016!Gephyrocapsa_oceanica.jpg2008-Sep-29 08:40:16110.5Kimage/jpeg
20080929103416!Rangitotofrommountvictoria.jpg2008-Sep-29 10:34:16511.4Kimage/jpeg
20080929172757!Djoser-vue-générale2.jpg2008-Sep-29 17:27:581.7Mimage/jpeg
20080929173253!Djoser-vue-générale2.jpg2008-Sep-29 17:32:532.0Mimage/jpeg
20080929231044!I-295_(MD).svg2008-Sep-29 23:10:4419.5Kapplication/octet-stream
20080930232034!I-295_(MD).svg2008-Sep-30 23:20:3417.2Kapplication/octet-stream
20081001103622!Om-mani-padme-hum_02.svg2008-Oct-01 10:36:2228.2Kapplication/octet-stream
20081002141731!Mary_Hart_2008.jpg2008-Oct-02 14:17:3131.7Kimage/jpeg
20081002150411!Ulica_Świętego_Piotra,_Gdynia_-_002.JPG2008-Oct-02 15:04:112.0Mimage/jpeg
20081002174727!Upper_galil.svg2008-Oct-02 17:47:2782.3Kapplication/octet-stream
20081003184206!Politisches_System_des_Bundes_und_der_Länder_in_Österreich.svg2008-Oct-03 18:42:0645.7Kapplication/octet-stream
20081003203847!Die_Gartenlaube_(1873)_671.JPG2008-Oct-03 20:38:483.4Mimage/jpeg
20081003211936!Wappen_schutzbach.jpg2008-Oct-03 21:19:363.9Kimage/jpeg
20081003224605!Die_Gartenlaube_(1873)_770.JPG2008-Oct-03 22:46:063.3Mimage/jpeg
20081004071754!Boscowen.jpg2008-Oct-04 07:17:5464.4Kimage/jpeg
20081004124607!Battle_of_Tannenberg.jpg2008-Oct-04 12:46:0744.2Kimage/jpeg
20081004132341!France_Chambre_des_deputes_1877.png2008-Oct-04 13:23:4124.5Kimage/png
20081004144740!KRW-JPY_v2.svg2008-Oct-04 14:47:40135.9Kapplication/octet-stream
20081004230221!Coat_of_arms_of_North_Rhine-Westfalia.svg2008-Oct-04 23:02:23129.9Kapplication/octet-stream
20081005064731!Calles_GDL.svg2008-Oct-05 06:47:31102.9Kapplication/octet-stream
20081005090506!Politisches_System_des_Bundes_und_der_Länder_in_Österreich.svg2008-Oct-05 09:05:0748.2Kapplication/octet-stream
20081005145234!Fujikyu-Shonan-M8507.jpg2008-Oct-05 14:52:342.0Mimage/jpeg
20081005221629!Politisches_System_des_Bundes_und_der_Länder_in_Österreich.svg2008-Oct-05 22:16:2948.2Kapplication/octet-stream
20081006052121!Yedidia_meir.jpg2008-Oct-06 05:21:2286.2Kimage/jpeg
20081006052646!Yedidia_meir.jpg2008-Oct-06 05:26:46264.9Kimage/jpeg
20081006103147!Bandera_de_Cifuentes.svg2008-Oct-06 10:31:47222.7Kapplication/octet-stream
20081006103800!Bandera_de_Cifuentes.svg2008-Oct-06 10:38:00223.0Kapplication/octet-stream
20081007093048!Bandera_de_Cifuentes.svg2008-Oct-07 09:30:49200.1Kapplication/octet-stream
20081007193326!Battle_of_Tannenberg.jpg2008-Oct-07 19:33:27155.0Kimage/jpeg
20081007193358!Battle_of_Tannenberg.jpg2008-Oct-07 19:33:5844.2Kimage/jpeg
20081007202836!Calles_GDL.svg2008-Oct-07 20:28:36102.6Kapplication/octet-stream
20081008110947!Théâtre_de_Plaute,_Panckoucke,_tome_2.djvu2008-Oct-08 11:09:485.6Mapplication/octet-stream
20081008143027!BulgariaFIFARank.png2008-Oct-08 14:30:2847.1Kimage/png
20081008213448!T7-armored-car-haugh.jpg2008-Oct-08 21:34:4847.4Kimage/jpeg
20081008223141!Leuchtenburg_1900.jpg2008-Oct-08 22:31:41220.6Kimage/jpeg
20081009000948!WelcomeToFairchance.gif2008-Oct-09 00:09:49130.9Kimage/gif
20081009132457!Mitiglinide.svg2008-Oct-09 13:24:5811.0Kapplication/octet-stream
20081009161418!Baku_metro_plan.png2008-Oct-09 16:14:18138.4Kimage/png
20081009165910!Iditarod_Trail_Seward_500.jpg2008-Oct-09 16:59:10160.1Kimage/jpeg
20081010144736!Wappen_dierbach.jpg2008-Oct-10 14:47:3614.7Kimage/jpeg
20081012090652!Daurischer_Pfeifhase.JPG2008-Oct-12 09:06:523.9Mimage/jpeg
20081014003532!LaPalmaCityHall.jpg2008-Oct-14 00:35:32492.1Kimage/jpeg
20081014125054!Dura_Europos_synagogue_recontruction.svg2008-Oct-14 12:50:54513.3Kapplication/octet-stream
20081014141229!EindhovenAirportSign.jpg2008-Oct-14 14:12:3098.9Kimage/jpeg
20081014162759!The_Squirrels_0026.jpg2008-Oct-14 16:28:002.8Mimage/jpeg
20081014185929!EindhovenAirportSign.jpg2008-Oct-14 18:59:29306.1Kimage/jpeg
20081014235014!Fremantle_Journal_and_General_Advertiser_(27_February_1830)_p._1.png2008-Oct-14 23:50:146.7Mimage/png
20081015020727!Fremantle_Journal_and_General_Advertiser_(27_February_1830)_p._1.png2008-Oct-15 02:07:276.7Mimage/png
20081015160713!Kinder_und_Hausmärchen_(Grimm)_1812_I_154.jpg2008-Oct-15 16:07:13157.9Kimage/jpeg
20081019175227!Bad_Mergentheim_Marktplatz.jpg2008-Oct-19 17:52:27817.9Kimage/jpeg
20081021100115!Taekyeung4.jpg2008-Oct-21 10:01:16457.3Kimage/jpeg
20081023121233!Naked_Pictures_of_Bea_Arthur_0046.jpg2008-Oct-23 12:12:343.3Mimage/jpeg
20081023180559!Lake_nakuru_baboon_P1010345.jpg2008-Oct-23 18:05:592.0Mimage/jpeg
20081023180719!Hulshorst_-_De_Maagd_4.JPG2008-Oct-23 18:07:204.3Mimage/jpeg
20081023180845!Hulshorst_-_De_Maagd_4.JPG2008-Oct-23 18:08:454.3Mimage/jpeg
20081024100810!Schlossmerode.jpg2008-Oct-24 10:08:1031.4Kimage/jpeg
20081024121735!WSTM-CornFedChicks0098.JPG2008-Oct-24 12:17:351.3Mimage/jpeg
20081024195726!Państwowa_Wyższa_Szkoła_Zawodowa_w_Wałbrzychu_-_building_B_entrance.jpg2008-Oct-24 19:57:272.2Mimage/jpeg
20081026203450!Voto_Concejales_2008_Chile.svg2008-Oct-26 20:34:50235.9Kapplication/octet-stream
20081026231305!France_Chambre_des_deputes_1914.png2008-Oct-26 23:13:0627.6Kimage/png
20081026234209!Matthäus_Daniel_Pöppelmann.jpg2008-Oct-26 23:42:10209.6Kimage/jpeg
20081030170241!Hafis_Gedichte_146.gif2008-Oct-30 17:02:4131.1Kimage/gif
20081030182029!Uss_constellation_baltimore.jpg2008-Oct-30 18:20:30922.5Kimage/jpeg
20081030184114!Chess_z6ver_26.svg2008-Oct-30 18:41:142.9Kapplication/octet-stream
20081031121846!Hans_Memling_081.jpg2008-Oct-31 12:18:4682.8Kimage/jpeg
20081031150932!Jungle_Prada_09.jpg2008-Oct-31 15:09:33561.7Kimage/jpeg
20081101020726!KRW-JPY_v2.svg2008-Nov-01 02:07:26136.9Kapplication/octet-stream
20081101130349!Krasnik_059_kosciol.jpg2008-Nov-01 13:03:491.2Mimage/jpeg
20081102072106!Plyty_tektoniczne.svg2008-Nov-02 07:21:07450.3Kapplication/octet-stream
20081103210803!1de8.svg2008-Nov-03 21:08:036.5Kapplication/octet-stream
20081103221112!1de8.svg2008-Nov-03 22:11:157.5Kapplication/octet-stream
20081104122447!MovuzAVb1_rib.png2008-Nov-04 12:24:482.8Kimage/png
20081104150012!Bandera_de_Ontígola.svg2008-Nov-04 15:00:12170.9Kapplication/octet-stream
20081106102841!Dolci_Monaco.jpg2008-Nov-06 10:28:4130.6Kimage/jpeg
20081107005906!Brack_Obama_November_4.jpg2008-Nov-07 00:59:06352.2Kimage/jpeg
20081108102228!Torre_Alemanna_12.jpg2008-Nov-08 10:22:2845.7Kimage/jpeg
20081108143657!Eva_Demski_by_Sven_Teschke.jpg2008-Nov-08 14:36:57137.4Kimage/jpeg
20081108144302!Eva_Demski_by_Sven_Teschke.jpg2008-Nov-08 14:43:02212.6Kimage/jpeg
20081109141745!Mandriva_RPMDrake.png2008-Jun-08 23:03:26127.0Kimage/png
20081109141925!Mandriva_RPMDrake.png2008-Nov-09 14:17:46114.3Kimage/png
20081109142056!Mandriva_RPMDrake.png2008-Nov-09 14:19:26127.0Kimage/png
20081109144942!Antietam_field.jpg2008-May-03 00:53:1384.9Kimage/jpeg
20081109192330!LocationMiddleEast.png2007-May-18 15:18:3778.2Kimage/png
20081111103452!Entrelac_tibet.svg2008-Apr-12 16:16:2635.7Kapplication/octet-stream
20081111174713!Cefalu_christus_pant.jpg2008-Aug-20 22:22:02486.4Kimage/jpeg
20081113134215!Pentahexaflexágono_-_instrucciones.svg2008-Nov-11 12:33:1770.4Kapplication/octet-stream
20081113154828!MichiganState_hockey_2008.jpg2008-Nov-13 11:07:23415.8Kimage/jpeg
20081113155715!MichiganState_hockey_2008.jpg2008-Nov-13 15:48:282.1Mimage/jpeg
20081113203608!Logo_batalionu_AK_Kilinski.gif2008-May-18 14:37:433.9Kimage/gif
20081116164313!Kazahstan_airbases.jpg2008-Nov-16 16:40:52130.5Kimage/jpeg
20081116204424!Zwei_Feuerwehrmänner_mit_Atemschutzgeräten.jpg2008-Nov-16 20:36:411.4Mimage/jpeg
20081116212314!Bonset_Letterklankbeelden_5.jpg2008-May-14 07:26:2315.2Kimage/jpeg
20081117190235!De_Kinder_und_Hausmärchen_Grimm_1819_V1_261.jpg2007-Mar-23 08:20:20401.9Kimage/jpeg
20081117194056!De_Kinder_und_Hausmärchen_Grimm_1819_V1_310.jpg2007-Mar-23 08:27:40405.9Kimage/jpeg
20081118090902!Stamp_Germany_1995_Briefmarke_Franz_Radziwill.jpg2008-Nov-18 09:03:128.9Mimage/jpeg
20081118232134!Intel_8085_arch.svg2008-Nov-16 21:41:3763.6Kapplication/octet-stream
20081118233139!Intel_8085_arch.svg2008-Nov-18 23:21:2978.1Kapplication/octet-stream
20081119000352!Intel_8085_arch.svg2008-Nov-18 23:31:3678.1Kapplication/octet-stream
20081119175110!QC08.jpg2008-Nov-17 07:22:02363.3Kimage/jpeg
20081121123117!Anonym_Herzogin_Dorothea_Sophia.jpg2008-Nov-16 23:28:5537.5Kimage/jpeg
20081121175932!Blason_Bacouel-sur-Selle_.svg2008-Nov-12 21:41:5573.3Kapplication/octet-stream
20081122230222!Mercedes_C-Klasse_(W204).jpg2008-Apr-05 19:25:28410.0Kimage/jpeg
20081124031209!India_(orthographic_projection).svg2008-Nov-03 02:20:37496.2Kapplication/octet-stream
20081124135436!Laster_der_Unzucht_(Oest)_061.jpg2008-Nov-24 13:34:46103.1Kimage/jpeg
20081124201554!Zanskar_Thangtse_01.jpg2008-Nov-12 19:46:525.6Mimage/jpeg
20081125034118!QC08.jpg2008-Nov-19 17:50:59364.1Kimage/jpeg
20081125095611!Chamaedorea_seifrizii3.jpg2004-Oct-27 05:10:0920.1Kimage/jpeg
20081125120039!India_(orthographic_projection).svg2008-Nov-24 03:12:09502.6Kapplication/octet-stream
20081125152740!India_(orthographic_projection).svg2008-Nov-25 12:00:40496.2Kapplication/octet-stream
20081125215947!Palazzo_Corsini,_stemma.JPG2006-Aug-17 21:38:382.3Mimage/jpeg
20081126013021!Location_European_monarchies.svg2008-Jul-09 09:41:02710.3Kapplication/octet-stream
20081126033420!QC08.jpg2008-Nov-25 03:41:12292.4Kimage/jpeg
20081127042931!QC08.jpg2008-Nov-26 03:34:17301.4Kimage/jpeg
20081127145924!Bartholomäus_Spranger_007.jpg2008-Nov-04 18:16:2233.2Kimage/jpeg
20081127225128!Faust_I_(Goethe)_158.jpg2008-Jan-25 19:33:01172.1Kimage/jpeg
20081128095852!Stamp_Germany_1995_Briefmarke_Franz_Radziwill.jpg2008-Nov-18 09:08:55424.3Kimage/jpeg
20081128174304!Frohnsdorf_in_ABG.png2007-Nov-01 09:06:495.4Kimage/png
20081128233445!Dictionary_of_National_Biography_volume_05.djvu2008-Nov-26 14:33:5033.9Mapplication/octet-stream
20081128233743!KRW-JPY_v2.svg2008-Nov-01 02:07:27137.7Kapplication/octet-stream
20081129050116!Flag_of_the_Red_Crystal.svg2008-Mar-01 18:31:580.6Kapplication/octet-stream
20081129104725!Stamp_Germany_1995_Briefmarke_Franz_Radziwill.jpg2008-Nov-28 09:58:47332.9Kimage/jpeg
20081129191643!Seal_Mae_Hong_Son.png2008-Jul-11 00:52:555.9Kimage/png
20081129195453!Ixora_sp_Blanco1.22.jpg2006-Apr-26 13:34:33208.3Kimage/jpeg
20081130143449!POL.Kosakowo2008.jpg2008-Nov-30 14:20:46433.7Kimage/jpeg
20081130215118!De_Kinder_und_Hausmärchen_Grimm_1819_V2_076.jpg2007-Mar-23 11:25:46393.9Kimage/jpeg
20081130224146!De_Kinder_und_Hausmärchen_Grimm_1819_V2_214.jpg2007-Mar-23 11:46:53392.0Kimage/jpeg
20081201022715!Seal_Uttaradit.png2008-Jul-11 00:52:056.3Kimage/png
20081201164554!Sa_idli_stand.jpg2007-Jun-30 15:33:00953.7Kimage/jpeg
20081201205835!Wappen_von_Dietfurt_an_der_Altmühl.png2006-Aug-23 17:27:0464.4Kimage/png
20081202120125!1puk_4.png2008-Nov-03 08:51:40922.3Kimage/png
20081203230330!Geometric_interpretation_of_dqo_transform.jpg2008-Dec-03 22:52:2531.8Kimage/jpeg
20081203235347!Geometric_interpretation_of_dqo_transform.jpg2008-Dec-03 23:03:2332.9Kimage/jpeg
20081204141919!Amyl_acetate.png2006-Aug-11 14:29:442.6Kimage/png
20081205121457!Kit_body_ecsa0809t.png2008-Dec-05 12:14:390.3Kimage/png
20081205134704!Hofmann_Degredation_(Amine_1).png2008-Dec-04 22:01:1713.0Kimage/png
20081205161152!QC08.jpg2008-Nov-27 04:29:27303.4Kimage/jpeg
20081206193819!Doppler_broadening.PNG2008-Dec-06 19:23:198.2Kimage/png
20081207020419!QC08.jpg2008-Dec-05 16:11:53304.0Kimage/jpeg
20081207224106!QC08.jpg2008-Dec-07 02:04:19310.4Kimage/jpeg
20081208012337!AV-8B_Harrier_formation_VMA-513.JPG2007-Sep-15 16:15:1524.8Kimage/jpeg
20081209175512!Marinopoulos_Supermarket_(Athens_riots_December_2008).JPG2008-Dec-09 08:47:16320.6Kimage/jpeg
20081210221543!Xuechen_olympics2008.jpg2008-Dec-10 22:11:24957.3Kimage/jpeg
20081213205332!Avalanche_6977.JPG2008-Dec-13 15:27:148.0Mimage/jpeg
20081214124042!Bad_Sobernheim_nudpiedejo_11.jpg2008-Dec-14 12:33:591.9Mimage/jpeg
20081215024645!Horses_at_the_Porch.jpg2008-Dec-06 02:13:41440.7Kimage/jpeg
20081217045647!17-W_2006_track.png2007-Jan-07 12:26:18616.5Kimage/png
20081217171141!Bertie-Alvin_2005_track.png2007-Aug-02 22:27:15111.0Kimage/png
20081217195910!Assam_Nagaon_locator_map.svg2008-Dec-15 21:06:41165.2Kapplication/octet-stream
20081220162434!KSU_flagg.png2008-Dec-20 16:21:3530.7Kimage/png
20081220162720!KSU_flagg.png2008-Dec-20 16:24:2830.7Kimage/png
20081221002750!Emblematanit.jpg2008-Dec-21 00:24:4721.4Kimage/jpeg
20081221032213!Stratford_station_old_Overground_platforms_look_north.JPG2008-Dec-21 03:21:06458.9Kimage/jpeg
20081221222550!HMS_Hood_Aft_guns_1926_USNHC_57184.jpg2008-Dec-13 16:40:5083.4Kimage/jpeg
20081222125002!ShokokuHyaku_Ugume.jpg2008-Nov-03 23:02:2271.0Kimage/jpeg
20081224105945!Rubiks_14.svg2008-Dec-24 10:55:3914.9Kapplication/octet-stream
20081224153412!Макеевский_металлургический_завод_1211.jpg2008-Oct-31 15:25:234.2Kimage/jpeg
20081224153414!Макеевский_металлургический_завод_1213.jpg2008-Oct-31 15:25:255.6Kimage/jpeg
20081224155921!Escudo_de_la_provincia_de_Ciudad_Real.svg2008-Apr-10 23:09:562.3Mapplication/octet-stream
20081225180000!LM317_1A_ConstCurrent.jpg2007-Feb-06 05:30:4237.6Kimage/jpeg
20081225201302!Seal_Mae_Hong_Son.png2008-Nov-29 19:16:4378.4Kimage/png
20081226010536!Seal_Uttaradit.png2008-Dec-01 02:27:1587.8Kimage/png
20081226065607!EasternWildTurkey.jpg2008-Dec-20 07:59:04545.6Kimage/jpeg
20081227000845!Elio.Chile.Jpeg2008-Dec-26 23:50:41846.1Kimage/jpeg
20081227125516!Final.png2008-Feb-07 07:40:091.6Mimage/png
20081227175709!Wikiforum.svg2008-Jun-28 17:46:44185.4Kapplication/octet-stream
20081227185146!Budapest_Castle_hill.jpg2005-Jun-02 20:04:40626.3Kimage/jpeg
20081227215411!Male_Chaffinch.jpg2008-May-25 11:57:2576.2Kimage/jpeg
20081227220211!Blason_ville_fr_Fêche-l'Église_(Territoire_de_Belfort).svg2008-Dec-27 21:58:5834.0Kapplication/octet-stream
20081227231835!Weesenstein_Schloß_(1)_2006-04-26.jpg2006-May-18 13:15:56239.4Kimage/jpeg
20081230132444!Le_marchand_des_marrons.jpg2008-Dec-29 17:49:49261.9Kimage/jpeg
20081231115902!Domersleben_in_BK.png2007-Sep-08 20:35:1317.3Kimage/png
20090101023406!SouthLytchettManorSouthFront.jpg2009-Jan-01 02:31:48381.9Kimage/jpeg
20090101043038!KRW-JPY_v2.svg2008-Nov-28 23:37:43138.3Kapplication/octet-stream
20090102093631!UK_road_A7.svg2009-Jan-02 02:03:337.1Kapplication/octet-stream
20090103073258!Altlandsberg_in_MOL.png2008-Mar-31 21:26:305.7Kimage/png
20090106053314!1999-2000_Peugeot_406_(D9)_SV_sedan_02.jpg2009-Jan-06 05:19:313.0Mimage/jpeg
20090106110813!Wappen_Unterstadion.svg2009-Jan-04 20:06:4466.5Kapplication/octet-stream
20090106202422!Crepaxbyjoezattere.jpg2008-Aug-27 12:44:5779.0Kimage/jpeg
20090107075950!Flag_of_Russia_(1668).svg2008-Sep-26 20:30:480.4Kapplication/octet-stream
20090107080039!Flag_of_Russia_(1668).svg2009-Jan-07 07:59:441.1Kapplication/octet-stream
20090108070454!Kit_body.png2005-Feb-15 16:47:100.2Kimage/png
20090108104949!Kit_body.png2009-Jan-08 07:04:350.4Kimage/png
20090108144931!JPY_Nominal_Effective_Exchange_Rates_(1970-).svg2008-Dec-03 15:49:4619.9Kapplication/octet-stream
20090110105047!Canon_Epoca_-_front.jpg2008-Nov-16 15:22:242.7Mimage/jpeg
20090111035143!Lionfish_hiding_komodo.jpg2009-Jan-03 22:32:38361.2Kimage/jpeg
20090111215510!Escudo_de_Fago.svg2008-Aug-16 21:49:13489.0Kapplication/octet-stream
20090112135329!Intérieur_Église_Polignac.JPG2007-Jun-19 19:23:53701.6Kimage/jpeg
20090113194145!Attica_topography_basemap.svg2009-Jan-13 19:18:20927.4Kapplication/octet-stream
20090113195145!Attica_topography_basemap.svg2009-Jan-13 19:41:34938.0Kapplication/octet-stream
20090113202211!Attica_topography_basemap.svg2009-Jan-13 19:51:34938.0Kapplication/octet-stream
20090117214855!Perry_Barr_station_-_2009-01-17.jpg2012-Dec-12 17:42:331.9Mimage/jpeg
20090118183746!Rotterdam_zeemansstraat7-11.jpg2007-Nov-12 21:41:50589.0Kimage/jpeg
20090122045059!Terpinolene3DModel.png2009-Jan-22 03:38:39271.8Kimage/png
20090122104816!Libyan_phoenician_lancer.png2008-Apr-03 15:42:507.9Kimage/png
20090122114656!Attica_topography_basemap.svg2009-Jan-13 20:22:051.6Mapplication/octet-stream
20090122222626!DanewerkKograben.gif2009-Jan-22 22:22:4120.4Kimage/gif
20090122230546!DanewerkKograben.gif2009-Jan-22 22:26:1020.5Kimage/gif
20090123150502!Map_France_1030-fr.svg2008-Jun-18 20:16:34791.7Kapplication/octet-stream
20090123152901!Map_France_1030-fr.svg2009-Jan-23 15:04:33807.0Kapplication/octet-stream
20090123153254!Bundesarchiv_Bild_183-T0517-0312,_Leipzig,_Denkmal_für_Opfer_des_Nationalsozialismus.jpg2008-Dec-04 18:28:0872.3Kimage/jpeg
20090125214902!Nygårdstangen_panorama_sun.jpg2009-Jan-25 21:21:462.7Mimage/jpeg
20090125230759!Nygårdstangen_panorama_sun.jpg2009-Jan-25 21:49:032.7Mimage/jpeg
20090125231119!Nygårdstangen_panorama_sun.jpg2009-Jan-25 23:07:593.6Mimage/jpeg
20090125235343!Nygårdstangen_panorama_sun.jpg2009-Jan-25 23:11:193.6Mimage/jpeg
20090126180029!Salix_exigua(01).jpg2005-May-15 16:26:11165.6Kimage/jpeg
20090126190410!AlexanderGrafKeyserling.jpg2008-Jan-08 17:24:3327.2Kimage/jpeg
20090126213339!Bnf119.jpg2007-Nov-18 12:25:1656.9Kimage/jpeg
20090128041404!Ipomoea_capillacea_Blanco2.315.png2006-Sep-28 15:46:471.2Mimage/png
20090128213943!Calles_GDL.svg2008-Oct-07 20:28:18105.3Kapplication/octet-stream
20090128215301!Calles_GDL.svg2009-Jan-28 21:39:30179.8Kapplication/octet-stream
20090129191710!Ilulissat-airport-destinations.svg2009-Jan-29 19:15:5259.9Kapplication/octet-stream
20090129192117!Ilulissat-airport-destinations.svg2009-Jan-29 19:17:0759.9Kapplication/octet-stream
20090131032244!KRW-JPY_v2.svg2009-Jan-01 04:30:38139.1Kapplication/octet-stream
20090131040047!Map_of_IJmeer.png2009-Jan-31 03:57:377.1Kimage/png
20090131040130!Map_of_IJmeer.png2009-Jan-31 04:00:476.7Kimage/png
20090131103825!Köster_Alterthümer_033.png2009-Jan-31 09:56:28659.1Kimage/png
20090131112450!Flag_of_Russia_(1668).svg2009-Jan-07 08:00:390.4Kapplication/octet-stream
20090131112748!Flag_of_Russia_(1668).svg2009-Jan-31 11:24:501.1Kapplication/octet-stream
20090131154730!Himno_Guatemala_.pdf2009-Jan-27 19:17:30232.1Kapplication/pdf
20090201075641!JGR-Hohayufu8150.jpg2009-Feb-01 07:56:40245.9Kimage/jpeg
20090202033401!PearlJam-7-7-06-2.jpg2009-Feb-01 19:20:08283.1Kimage/jpeg
20090204140648!Ilulissat-airport-destinations.svg2009-Jan-29 19:21:1559.9Kapplication/octet-stream
20090204221846!Charlesrogier.jpg2007-Sep-10 01:29:3718.0Kimage/jpeg
20090204222539!CZ-cleneni-Slezsko-wl.svg2009-Feb-03 19:23:22105.3Kapplication/octet-stream
20090205011204!Matrix.svg2008-Jan-17 22:46:3531.8Kapplication/octet-stream
20090206035636!PDB_1q86_EBI.jpg2009-Feb-04 06:39:3775.9Kimage/jpeg
20090206195905!Flag_of_Russia_(1668).svg2009-Jan-31 11:27:481.1Kapplication/octet-stream
20090206231756!Wappen_von_Isselburg.png2006-May-11 16:41:1216.5Kimage/png
20090207085521!JPY_Nominal_Effective_Exchange_Rates_(1970-).svg2009-Jan-08 14:49:3119.9Kapplication/octet-stream
20090207200056!Mercedes_ML_280CDI_Edition_10_rear.jpg2008-Apr-27 15:16:03641.8Kimage/jpeg
20090208034146!PDB_1q86_EBI.jpg2009-Feb-06 03:56:3675.9Kimage/jpeg
20090208154727!PDB_1ppj_EBI.jpg2009-Feb-03 03:32:5570.8Kimage/jpeg
20090208212437!CabaneStrut.JPG2009-Feb-08 21:22:05610.4Kimage/jpeg
20090209092707!India_(orthographic_projection).svg2008-Nov-25 15:27:40571.8Kapplication/octet-stream
20090209160930!Helen_Keller.jpg2008-Aug-21 09:37:0030.4Kimage/jpeg
20090210022018!PDB_1siq_EBI.jpg2009-Feb-04 03:51:3340.8Kimage/jpeg
20090210033451!Fans_super_aguri_et_honda.jpg2009-Feb-09 14:51:27366.7Kimage/jpeg
20090210181026!Hostomice_prapor.gif2007-Jul-20 07:59:546.2Kimage/gif
20090210204208!Sgarbiabivona.jpg2009-Feb-10 20:30:011.3Mimage/jpeg
20090211002820!Marsha_Blackburn_1.jpg2008-Jun-22 11:05:378.2Kimage/jpeg
20090211133350!Soini.vaakuna.svg2006-Mar-22 21:11:463.3Kapplication/octet-stream
20090211154627!Rembrandt_Harmensz._van_Rijn_014.jpg2006-Mar-23 12:50:40123.6Kimage/jpeg
20090211213959!Soini.vaakuna.svg2009-Feb-11 13:33:503.7Kapplication/octet-stream
20090212115951!Carte_vigilance_meteo_france_12_février_2009.svg2009-Feb-12 07:19:04174.3Kapplication/octet-stream
20090213220803!India_(orthographic_projection).svg2009-Feb-09 09:27:07496.2Kapplication/octet-stream
20090213220845!India_(orthographic_projection).svg2009-Feb-13 22:08:04571.8Kapplication/octet-stream
20090213220937!India_(orthographic_projection).svg2009-Feb-13 22:08:46496.2Kapplication/octet-stream
20090213221218!India_(orthographic_projection).svg2009-Feb-13 22:09:37571.8Kapplication/octet-stream
20090215092216!Uetersen_Schnee_04.JPG2008-Dec-07 17:29:27803.8Kimage/jpeg
20090215204722!Jan_Ocko_vitraz.jpg2009-Feb-15 20:44:1080.9Kimage/jpeg
20090216111337!Andrew_Jackson-Christopher_Heyerdahl_Gatecon2005_1.jpg2009-Feb-16 10:54:291.5Mimage/jpeg
20090216114050!Altfrid.jpg2009-Feb-16 11:28:3737.9Kimage/jpeg
20090216220541!Helen_Keller.jpg2009-Feb-09 16:09:31328.2Kimage/jpeg
20090217054110!PDB_1r5i_EBI.jpg2009-Feb-13 02:09:4841.1Kimage/jpeg
20090217165745!Kraków_-_Pomnik_Józefa_Dietla_01.JPG2008-Sep-18 20:40:191.6Mimage/jpeg
20090217182635!Caspar_David_Friedrich_026.jpg2008-Feb-17 16:29:58410.4Kimage/jpeg
20090218012826!Not_customs.svg2009-Feb-18 01:19:196.6Kapplication/octet-stream
20090218021911!PDB_1y6m_EBI.jpg2009-Feb-10 02:16:3830.2Kimage/jpeg
20090218055238!PDB_1d01_EBI.jpg2009-Feb-02 06:15:2167.2Kimage/jpeg
20090219124543!Flammability_diagram_methane_(alternative_axis).png2009-Feb-19 12:32:4088.2Kimage/png
20090220052415!Casinha.jpg2009-Feb-20 05:03:39679.9Kimage/jpeg
20090220070119!PDB_4hmg_EBI.jpg2009-Feb-02 08:02:3546.7Kimage/jpeg
20090220134942!Die_Gartenlaube_(1891)_125.jpg2008-May-25 09:45:121.2Mimage/jpeg
20090220142314!Die_Gartenlaube_(1891)_172.jpg2008-May-25 10:11:461.3Mimage/jpeg
20090220181205!Die_Gartenlaube_(1891)_356.jpg2008-May-25 11:49:351.6Mimage/jpeg
20090220233001!Die_Gartenlaube_(1891)_448.jpg2008-May-25 12:40:131.6Mimage/jpeg
20090220233508!Die_Gartenlaube_(1891)_455.jpg2008-May-25 12:43:581.4Mimage/jpeg
20090221044445!Marsha_Blackburn_1.jpg2009-Feb-11 00:28:2115.3Kimage/jpeg
20090221060257!PDB_1ppj_EBI.jpg2009-Feb-08 15:47:2770.8Kimage/jpeg
20090221075925!Isuzu_Wizard_001.JPG2008-May-14 06:58:12415.9Kimage/jpeg
20090221121341!Snap3.jpg2009-Feb-21 11:28:1748.9Kimage/jpeg
20090221182600!PDB_1kk8_EBI.jpg2009-Feb-10 15:27:0641.9Kimage/jpeg
20090221183109!PDB_1q86_EBI.jpg2009-Feb-08 03:41:4675.9Kimage/jpeg
20090221214137!Bandera_de_Tabasco_prouesta_en_2009.png2009-Feb-21 21:41:0269.6Kimage/png
20090222033057!PDB_1tx6_EBI.jpg2009-Feb-06 01:58:0651.5Kimage/jpeg
20090222074729!Susan_Hayward_in_I_Thank_a_Fool_trailer_2.jpg2009-Feb-22 07:35:1719.6Kimage/jpeg
20090222075934!Susan_Hayward_in_I_Thank_a_Fool_trailer_2.jpg2009-Feb-22 07:47:2919.7Kimage/jpeg
20090222222109!Lycopersicon_esculentum_Blanco2.265.png2006-Jul-29 16:53:252.1Mimage/png
20090223202838!Paper_moneda_de_20_cèntims_de_Tremp_cara_b.png2009-Feb-23 20:08:262.1Mimage/png
20090224115948!Italian_traffic_signs_-_intersezione_con_diritto_di_precedenza.svg2006-Nov-06 14:22:193.3Kapplication/octet-stream
20090224140856!Meyers_b3_s0403a.jpg2006-Aug-30 07:02:38207.6Kimage/jpeg
20090224142902!Daihatsu_Cuore_Top_front.JPG2008-Sep-09 18:35:342.7Mimage/jpeg
20090224163023!Broad_chain_closeup.jpg2006-Sep-22 20:38:00107.4Kimage/jpeg
20090225184545!Tarim_river.jpg2007-Mar-16 13:08:03171.7Kimage/jpeg
20090225195549!Perná,_zastávka_bus.jpg2008-Mar-26 06:35:51727.9Kimage/jpeg
20090225215739!Wollstonecraftlettersmap.png2007-Aug-23 13:19:02156.0Kimage/png
20090227122915!Bundesarchiv_Bild_183-S85823,_Berlin,_J.-R.-Becker_Straße,_Grünanlage.jpg2008-Dec-04 18:20:1982.1Kimage/jpeg
20090228001324!Jahodová.jpg2006-Oct-01 20:14:22320.7Kimage/jpeg
20090228173726!Bundesarchiv_Bild_102-13505,_Berlin,_Automobilrennen_auf_der_Avus.jpg2008-Dec-12 21:42:1161.6Kimage/jpeg
20090303005908!KRW-JPY_v2.svg2009-Jan-31 03:22:44179.4Kapplication/octet-stream
20090303010249!Melochia_arborea_Blanco1.189.png2006-Jul-02 15:28:251.8Mimage/png
20090303083509!Tenjin_Chikagai(Tenjin_Underground_City)_-_01.JPG2008-Sep-01 13:43:14549.6Kimage/jpeg
20090305095706!Painting_cassano_monastero.jpg2009-Mar-01 10:31:45348.4Kimage/jpeg
20090305200829!Vegueries_Catalunya_1304.svg2009-Mar-05 19:25:221.5Mapplication/octet-stream
20090305201500!Vegueries_Catalunya_1304.svg2009-Mar-05 20:08:291.5Mapplication/octet-stream
20090305201730!Vegueries_Catalunya_1304.svg2009-Mar-05 20:15:001.5Mapplication/octet-stream
20090305202007!Vegueries_Catalunya_1304.svg2009-Mar-05 20:17:301.5Mapplication/octet-stream
20090306150022!Sarah_Churchill,_Duchess_of_Marlborough.jpg2008-Jan-13 12:13:337.1Kimage/jpeg
20090306221635!Muar_Sg_antennas.jpg2009-Mar-06 13:49:40309.9Kimage/jpeg
20090307094313!5_kov_-_zastavnik.gif2007-Nov-17 11:06:427.3Kimage/gif
20090307101037!Vegueries_Catalunya_1304.svg2009-Mar-05 20:20:071.5Mapplication/octet-stream
20090307151405!Hesburgerbussi.jpg2009-Mar-07 15:10:5256.3Kimage/jpeg
20090307151414!Hesburgerbussi.jpg2009-Mar-07 15:14:0519.9Kimage/jpeg
20090307213131!Portulaca_axilliflora_Blanco1.164.png2006-Jun-10 15:30:23945.1Kimage/png
20090308071725!Peter_Paul_Rubens_035.jpg2005-May-21 04:58:23158.1Kimage/jpeg
20090308103431!Bobby_Rahal_2004.jpg2009-Mar-08 10:29:19198.2Kimage/jpeg
20090308155451!PDB_2nt0_EBI.jpg2009-Feb-22 20:43:1676.5Kimage/jpeg
20090309015541!PDB_1q86_EBI.jpg2009-Feb-21 18:31:0975.9Kimage/jpeg
20090309031347!PDB_1gln_EBI.jpg2009-Feb-13 02:31:4032.8Kimage/jpeg
20090309031931!PDB_2gvq_EBI.jpg2009-Feb-11 02:26:3745.0Kimage/jpeg
20090309040419!PDB_1wb3_EBI.jpg2009-Feb-22 02:32:3538.0Kimage/jpeg
20090309040607!PDB_1kk8_EBI.jpg2009-Feb-21 18:26:0041.9Kimage/jpeg
20090309052911!Usage_share_of_web_browsers_that_pass_Acid2.png2009-Feb-21 02:45:4112.3Kimage/png
20090309135733!Transformer3d_col3_ru.svg2009-Mar-09 13:38:23149.9Kapplication/octet-stream
20090310042502!PDB_2hcb_EBI.jpg2009-Feb-08 20:22:5257.7Kimage/jpeg
20090310150309!JPY_Nominal_Effective_Exchange_Rates_(1970-).svg2009-Feb-07 08:55:2119.9Kapplication/octet-stream
20090310174335!Tutorial_translate_a_map_6.png2009-Mar-08 20:21:55252.5Kimage/png
20090310182059!Thaddeus_H._Caraway.jpg2008-Jan-20 22:13:3217.1Kimage/jpeg
20090311023958!PDB_1uwy_EBI.jpg2009-Feb-18 03:44:4441.7Kimage/jpeg
20090311025646!NO_1201_Bergen-13-.svg2009-Mar-11 02:01:16187.1Kapplication/octet-stream
20090311123403!India_(orthographic_projection).svg2009-Feb-13 22:12:19571.8Kapplication/octet-stream
20090311131749!India_(orthographic_projection).svg2009-Mar-11 12:34:03496.2Kapplication/octet-stream
20090311212526!Locator_map_RB_AR_in_Germany.svg2009-Mar-11 14:11:25636.8Kapplication/octet-stream
20090313001153!PDB_1bc5_EBI.jpg2009-Feb-11 02:33:2440.2Kimage/jpeg
20090314161055!Audi_C_14_35_Alpensieger_-_front.jpg2007-Oct-14 16:05:04394.2Kimage/jpeg
20090314205314!Périgueux_(Fr),_cathédrale_St.Front,_extérieur.jpg2008-Jul-14 19:28:502.8Mimage/jpeg
20090315173757!Sprachenkarte_Deutschland1880.png2007-Nov-03 19:07:29398.7Kimage/png
20090315173841!Sprachenkarte_Deutschland1880.png2009-Mar-15 17:37:571.0Mimage/png
20090315173855!Sprachenkarte_Deutschland1880.png2009-Mar-15 17:38:42398.7Kimage/png
20090316103908!Tudor.png2009-Mar-16 10:30:149.1Kimage/png
20090316104933!Tudor.png2009-Mar-16 10:38:539.1Kimage/png
20090317132803!Keane_-_Tom_Chaplin.jpg2009-Mar-17 09:37:57184.8Kimage/jpeg
20090318173721!Map_-_NL_-_Staphorst_-_Wijk_00_Staphorst_(kern).svg2009-Feb-26 20:11:2214.2Kapplication/octet-stream
20090319131805!KCTS_logo.png2009-Mar-19 13:12:2242.6Kimage/png
20090319134209!KCTS_logo.png2009-Mar-19 13:18:062.5Mimage/png
20090319191409!Sokoleipzig.jpg2008-Apr-13 18:34:573.0Mimage/jpeg
20090320113350!W_Hermeskeil.JPG2006-Feb-22 17:09:5234.5Kimage/jpeg
20090320130348!Starak.jpg2006-Nov-01 10:34:3330.0Kimage/jpeg
20090321183339!Coloured_Figures_of_English_Fungi_or_Mushrooms_-_t._22.png2008-Jul-17 02:36:10676.5Kimage/png
20090321202402!1puk_4.png2008-Dec-02 12:01:16871.4Kimage/png
20090322001320!PDB_1q86_EBI.jpg2009-Mar-09 01:55:4175.9Kimage/jpeg
20090322001342!PDB_1w26_EBI.jpg2009-Feb-13 03:39:1439.8Kimage/jpeg
20090322005141!A_1157889869_rm7.jpg2007-Jan-25 18:09:30129.9Kimage/jpeg
20090322011511!PDB_2c7n_EBI.jpg2009-Feb-06 04:28:4846.8Kimage/jpeg
20090322035548!PDB_1r5i_EBI.jpg2009-Feb-17 05:41:1041.1Kimage/jpeg
20090322042112!PDB_1p7q_EBI.jpg2009-Feb-17 05:13:1355.7Kimage/jpeg
20090322190434!PDB_1gmv_EBI.jpg2009-Feb-22 18:08:1527.8Kimage/jpeg
20090322192129!PDB_1ppj_EBI.jpg2009-Feb-21 06:02:5770.8Kimage/jpeg
20090322233936!Socionics_symbol_Si.svg2007-Aug-16 22:21:380.7Kapplication/octet-stream
20090323112839!Fr-mode.ogg2007-Nov-07 22:01:4314.2Kapplication/ogg
20090324170616!Locator_map_AÖ_in_Germany.svg2009-Mar-24 17:04:36580.9Kapplication/octet-stream
20090324232141!Locator_map_AÖ_in_Germany.svg2009-Mar-24 17:06:16580.9Kapplication/octet-stream
20090325004545!PDB_2nzu_EBI.jpg2009-Mar-15 22:39:5542.7Kimage/jpeg
20090325222259!Estonia_1m_a.jpg2009-Mar-25 16:24:14220.5Kimage/jpeg
20090326015225!Wiktprintable-zh.svg2006-Nov-11 16:29:1949.8Kapplication/octet-stream
20090326021517!Wiktprintable-zh.svg2009-Mar-26 01:52:2552.9Kapplication/octet-stream
20090326021558!Wiktprintable-zh.svg2009-Mar-26 02:15:1753.4Kapplication/octet-stream
20090326121018!Muzeum_Diecezjalne_-_23.JPG2007-Oct-21 23:53:201.2Mimage/jpeg
20090327005239!Westwood_Plantation_02.jpg2008-Nov-24 18:31:26256.3Kimage/jpeg
20090327143525!Pennsylvania_canals.png2009-Mar-17 18:38:11130.5Kimage/png
20090328195007!Bundesarchiv_Bild_137-012604,_Demonstration_in_der_Türkei.jpg2008-Dec-09 15:49:4180.2Kimage/jpeg
20090329150805!PDB_2fpg_EBI.jpg2009-Mar-09 00:25:1556.8Kimage/jpeg
20090329151110!PDB_1h1q_EBI.jpg2009-Feb-12 06:19:1570.6Kimage/jpeg
20090330185045!FF_Mister_K_Onstage.png2009-Mar-26 19:09:0220.3Kimage/png
20090331173339!Blason_de_la_ville_de_Vers-Pont-du-Gard_(30).svg2009-Mar-29 22:44:2224.2Kapplication/octet-stream
20090331211822!ESC_1998_Map.svg2009-Mar-31 21:16:06514.8Kapplication/octet-stream
20090401003603!Leidseplein_Amsterdam3.jpg2009-Mar-31 20:47:09540.9Kimage/jpeg
20090401214006!Usage_share_of_web_browsers_that_pass_Acid2.png2009-Mar-09 05:29:114.9Kimage/png
20090402002105!Kalinovik_municipality.svg2009-Apr-01 13:25:57350.4Kapplication/octet-stream
20090402134134!PDB_2hzy_EBI.jpg2009-Feb-21 18:31:5959.7Kimage/jpeg
20090403102828!CabaneStrut.JPG2009-Feb-08 21:24:3798.7Kimage/jpeg
20090403211456!Joey_Mathews_(Adam_Birch).jpg2009-Apr-03 16:43:29116.9Kimage/jpeg
20090404144317!KRW-JPY_v2.svg2009-Mar-03 00:59:09180.1Kapplication/octet-stream
20090404171455!WSBAnnouncement.jpg2008-Nov-03 15:24:0379.0Kimage/jpeg
20090404183734!Romania_1930_ethnic_map_de.svg2009-Apr-04 18:34:52828.8Kapplication/octet-stream
20090404211322!Air_New_Zealand_Lord_of_the_Rings_747-400.jpg2009-Apr-04 21:05:19163.7Kimage/jpeg
20090405003441!Blason_de_la_ville_de_Vers-Pont-du-Gard_(30).svg2009-Mar-31 17:33:3939.9Kapplication/octet-stream
20090405090505!Louis_Sullivan_-_interior_-_Holy_Trinity_Russian_&_Greek_Orthodox_Church,_1121_North_Leavitt_Street,_Chicago,_Cook_County,_IL.jpg2006-May-13 23:46:455.9Mimage/jpeg
20090405204548!Cyclone_Lin_April_5_2009_0132_Z.jpg2009-Apr-05 14:29:421.7Mimage/jpeg
20090405212131!Opperrabbijn_Jacobs_ondertekend.jpg2009-Jan-20 07:11:04224.8Kimage/jpeg
20090406045635!Happy_birthday_nohjan.svg2009-Apr-06 04:30:0680.0Kapplication/octet-stream
20090406050408!Happy_birthday_nohjan.svg2009-Apr-06 04:56:3580.1Kapplication/octet-stream
20090406104734!Metro-Brussels-map.svg2009-Feb-15 17:20:482.0Kapplication/octet-stream
20090406135133!Combate_Independencia_Covadonga_21_mayo_1879.png2009-Apr-03 18:29:3895.3Kimage/png
20090406173008!Логотип_лосьон.jpg2009-Apr-06 17:25:5259.5Kimage/jpeg
20090406200612!GIPE25_-_Etamines_d-une_fleur_d-Amaryllis_(by).jpg2009-Jan-14 19:30:504.9Mimage/jpeg
20090407134617!Buda_Castle.jpg2009-Apr-07 07:22:394.9Mimage/jpeg
20090407232223!Cladogram_Anatidae_Jonesgard1978.png2008-Jan-05 16:20:3224.5Kimage/png
20090408030126!Cedar_Lawn,_West_Virginia.jpg2008-Dec-30 03:12:411.9Mimage/jpeg
20090408213044!Laufwasser_Kraftwerk_Isarwerk1.jpg2009-Apr-03 22:09:1534.1Mimage/jpeg
20090408223507!Limestone_Mines_at_Cedar_Creek.jpg2009-Mar-19 12:33:27112.9Kimage/jpeg
20090409063209!2006-2008_Toyota_Camry_(ACV40R)_Altise_sedan_02.jpg2009-Apr-09 06:28:002.6Mimage/jpeg
20090409072146!1991-1994_Mitsubishi_KR_Verada_Xi_sedan_01.jpg2009-Apr-09 07:19:063.3Mimage/jpeg
20090409153903!Location_Of_Anfu.svg2009-Mar-22 17:50:4174.4Kapplication/octet-stream
20090410090113!Diethyl_mercury.svg2009-Mar-28 06:54:402.5Kapplication/octet-stream
20090410162359!Bataille_de_Poitiers.jpg2005-Apr-29 19:56:3236.0Kimage/jpeg
20090411141520!JPY_Nominal_Effective_Exchange_Rates_(1970-).svg2009-Mar-10 15:03:0919.9Kapplication/octet-stream
20090412171009!M1_icon.svg2009-Apr-12 17:07:083.3Kapplication/octet-stream
20090412180321!Sprachenkarte_Deutschland1880.png2009-Mar-15 17:38:551.0Mimage/png
20090413073942!FirmaFDB.jpg2009-Mar-16 07:36:1214.1Kimage/jpeg
20090413095150!Cm_harry_oxley.jpg2009-Feb-21 21:24:3826.3Kimage/jpeg
20090413151103!Locked_Flößerdenkmal_Bad_Tölz_2009-03-10_15.46_000.JPG2009-Apr-13 14:30:126.3Mimage/jpeg
20090414002722!Omar_Minaya.jpg2007-Apr-01 20:28:11887.7Kimage/jpeg
20090414075046!Kazahstan_airbases.jpg2008-Nov-16 16:43:05131.2Kimage/jpeg
20090414075324!Kazahstan_airbases.jpg2009-Apr-14 07:50:46125.5Kimage/jpeg
20090418144943!Reinshtein.jpg2009-Apr-18 04:26:31151.9Kimage/jpeg
20090418182041!Map_-_NL_-_Amersfoort_-_Wijk_10_Liendert_-_Buurt_04_Zwaluwenstraat.svg2009-Mar-19 19:54:5227.2Kapplication/octet-stream
20090418182607!Map_-_NL_-_Apeldoorn_-_Wijk_07_Apeldoorn_Noordoost_-_Buurt_02_Sluisoord.svg2009-Mar-19 20:19:0129.8Kapplication/octet-stream
20090418182953!Map_-_NL_-_Arnhem_-_Wijk_09_Alteveer_en_Cranevelt_-_Buurt_52_Alteveer-Cranevelt.svg2009-Mar-19 20:25:5224.3Kapplication/octet-stream
20090418190018!Map_-_NL_-_Dongeradeel_-_Wijk_07_-_Buurt_03_Hiaure.svg2009-Mar-19 21:23:4331.7Kapplication/octet-stream
20090418190030!Map_-_NL_-_Dronten_-_Wijk_01_Dronten_west_-_Buurt_03_De_Gilden.svg2009-Mar-19 21:24:0516.9Kapplication/octet-stream
20090418191146!Map_-_NL_-_Enschede_-_Wijk_05_Ribbelt_-_Stokhorst_-_Buurt_00_Schreurserve.svg2009-Mar-19 21:46:1821.5Kapplication/octet-stream
20090418191244!Map_-_NL_-_Enschede_-_Wijk_08_Glanerbrug_en_omgeving_-_Buurt_07_Dolphia.svg2009-Mar-19 21:48:0121.3Kapplication/octet-stream
20090418204103!Map_-_NL_-_Groningen_-_Wijk_01_Schilders-_en_Zeeheldenwijk_-_Buurt_06_Hoendiep.svg2009-Mar-18 23:27:2217.2Kapplication/octet-stream
20090418204848!Map_-_NL_-_Leek_-_Wijk_01_Zevenhuizen_-_Buurt_07_Buitengebied_ten_noorden_van_Zevenhuizen.svg2009-Mar-18 23:40:3915.8Kapplication/octet-stream
20090418205224!Map_-_NL_-_Scheemda_-_Wijk_03_Midwolda_-_Buurt_03_Ekamp.svg2009-Mar-18 23:46:0617.6Kapplication/octet-stream
20090418205336!Map_-_NL_-_Slochteren_-_Wijk_01_Schildwolde-Hellum_-_Buurt_01_Hellum.svg2009-Mar-19 23:53:4918.0Kapplication/octet-stream
20090418205439!Map_-_NL_-_Slochteren_-_Wijk_03_Harkstede_-_Buurt_04_Borgweg_(gedeeltelijk).svg2009-Mar-19 23:54:4918.8Kapplication/octet-stream
20090418221429!Map_-_NL_-_Dongeradeel_-_Wijk_07_-_Buurt_03_Hiaure.svg2009-Apr-18 19:00:1827.9Kapplication/octet-stream
20090418223619!Map_-_NL_-_Leeuwarden_-_Wijk_22_Vrijheidswijk_-_Buurt_02_Vrijheidswijk-Oost.svg2009-Mar-19 22:44:5526.6Kapplication/octet-stream
20090418223651!Map_-_NL_-_Leeuwarden_-_Wijk_32_'t_Vliet_-_Buurt_04_Welgelegen.svg2009-Mar-19 22:45:3926.3Kapplication/octet-stream
20090418223744!Map_-_NL_-_Leeuwarden_-_Wijk_44_Huizem-West_-_Buurt_01_Hollanderwijk.svg2009-Mar-19 22:46:4626.5Kapplication/octet-stream
20090419103752!Map_-_NL_-_Apeldoorn_-_Wijk_07_Apeldoorn_Noordoost_-_Buurt_02_Sluisoord.svg2009-Apr-18 18:26:0628.5Kapplication/octet-stream
20090419105811!Map_-_NL_-_Enschede_-_Wijk_05_Ribbelt_-_Stokhorst_-_Buurt_00_Schreurserve.svg2009-Apr-18 19:11:4619.5Kapplication/octet-stream
20090419105915!Map_-_NL_-_Enschede_-_Wijk_08_Glanerbrug_en_omgeving_-_Buurt_07_Dolphia.svg2009-Apr-18 19:12:4320.9Kapplication/octet-stream
20090419110518!Map_-_NL_-_Hellendoorn_-_Wijk_04_Nijverdal_Oost_-_Buurt_02_de_Brake.svg2009-Mar-19 22:21:4019.4Kapplication/octet-stream
20090419110520!Map_-_NL_-_Hellendoorn_-_Wijk_04_Nijverdal_Oost_-_Buurt_03_Konijnenberg.svg2009-Mar-19 22:21:4519.4Kapplication/octet-stream
20090419111141!Map_-_NL_-_Kampen_-_Wijk_00_Kampen_-_Buurt_16_Polder_Dronthen.svg2009-Mar-19 22:41:0124.9Kapplication/octet-stream
20090419135325!Map_-_NL_-_Amersfoort_-_Wijk_10_Liendert_-_Buurt_04_Zwaluwenstraat.svg2009-Apr-18 18:20:4026.0Kapplication/octet-stream
20090419140036!Map_-_NL_-_Arnhem_-_Wijk_09_Alteveer_en_Cranevelt_-_Buurt_52_Alteveer-Cranevelt.svg2009-Apr-18 18:29:5223.1Kapplication/octet-stream
20090419142517!Map_-_NL_-_Dronten_-_Wijk_01_Dronten_west_-_Buurt_03_De_Gilden.svg2009-Apr-18 19:00:2916.9Kapplication/octet-stream
20090419154557!Map_-_NL_-_Alkmaar_-_Wijk_01_Zuid_-_Buurt_00_Kooimeer.svg2009-Mar-19 19:42:0115.9Kapplication/octet-stream
20090419155439!Map_-_NL_-_Amsterdam_-_Stadsdeel_Zuideramstel_-_Buurt_52_Scheldebuurt.svg2009-Mar-19 20:14:0246.1Kapplication/octet-stream
20090419162004!Map_-_NL_-_Haarlem_-_Wijk_06_Ter_Kleef_en_Te_Zaanen_-_Buurt_00_Kleverpark.svg2009-Mar-20 23:24:1916.2Kapplication/octet-stream
20090419162317!Map_-_NL_-_Haarlemmermeer_-_Wijk_05_Badhoevedorp_en_omgeving_-_Buurt_55_Badhoevedorp-Sloterweg.svg2009-Mar-20 23:26:4028.0Kapplication/octet-stream
20090419164009!Map_-_NL_-_Montfoort_-_Wijk_02_Willeskop_-_Buurt_00_Willeskop.svg2009-Mar-19 23:17:4812.8Kapplication/octet-stream
20090419165057!Map_-_NL_-_Wijk_bij_Duurstede_-_Wijk_03_Langbroek_-_Buurt_00_Nederlangbroek.svg2009-Mar-20 00:33:0612.9Kapplication/octet-stream
20090419165159!Map_-_NL_-_Zeist_-_Wijk_02_Zeist-Noord_-_Buurt_04_Mooi_Zeist,_Sanatorium_en_omgeving.svg2009-Mar-20 00:40:2314.1Kapplication/octet-stream
20090419193042!Map_-_NL_-_Binnenmaas_-_Wijk_01_Mijnsheerenland_-_Buurt_02_Stougjesdijk_(gedeeltelijk).svg2009-Mar-20 23:01:5117.1Kapplication/octet-stream
20090419194028!Map_-_NL_-_Delft_-_Wijk_25_Buitenhof_-_Buurt_03_Gillisbuurt.svg2009-Mar-20 23:11:1318.0Kapplication/octet-stream
20090419202353!Butadiene_to_Cyclobutadiene.png2009-Apr-19 20:17:4515.3Kimage/png
20090419204609!Map_-_NL_-_Leiden_-_Wijk_00_Binnenstad-Zuid_-_Buurt_01_Academiewijk.svg2009-Mar-20 23:41:1713.9Kapplication/octet-stream
20090419205339!Map_-_NL_-_Nieuwkoop_-_Wijk_00_-_Buurt_03_Uitbreiding_dorpskern_Nieuwkoop.svg2009-Mar-20 23:47:0317.0Kapplication/octet-stream
20090420185937!Map_-_NL_-_Cromstrijen_-_Wijk_01_Klaaswaal_-_Buurt_01_Oude_Sluis.svg2009-Mar-20 23:09:1212.8Kapplication/octet-stream
20090420190259!Map_-_NL_-_Goes_-_Wijk_01_Goes_-_Buurt_10_Overzuid.svg2009-Mar-21 16:52:5819.5Kapplication/octet-stream
20090420190322!Map_-_NL_-_Goes_-_Wijk_04_Kattendijke_-_Buurt_00_Kattendijke.svg2009-Mar-21 16:53:1320.3Kapplication/octet-stream
20090420191127!Map_-_NL_-_Rijswijk_-_Wijk_02_-_Buurt_22_Bomenbuurt.svg2009-Mar-20 23:52:1111.8Kapplication/octet-stream
20090420191846!Map_-_NL_-_Rotterdam_-_Wijk_25_Rivium_-_Buurt_40_Rivium.svg2009-Mar-20 23:56:5542.0Kapplication/octet-stream
20090420192911!Map_-_NL_-_Vlist_-_Wijk_00_Haastrecht_-_Buurt_04_Stolwijkersluis_(gedeeltelijk).svg2009-Mar-21 00:07:2315.9Kapplication/octet-stream
20090420194000!Map_-_NL_-_Zederik_-_Wijk_00_Meerkerk_-_Buurt_02_Bazeldijk_Gorinchem_Dorpsplein_Tol.svg2009-Mar-21 18:43:2015.4Kapplication/octet-stream
20090421021954!Hymenocallis_littoralis_Blanco2.411.png2009-Feb-19 18:32:56946.7Kimage/png
20090421145504!Linoleic_Acid_Metabolism.gif2009-Apr-21 14:54:0010.9Kimage/gif
20090422192919!Map_-_NL_-_'s-Hertogenbosch_-_Wijk_11_West_-_Buurt_09_De_Rietvelden-West.svg2009-Mar-21 16:11:0423.1Kapplication/octet-stream
20090422194019!Map_-_NL_-_De_Ronde_Venen_-_Wijk_03_Wilnis_-_Buurt_08_Verspreide_huizen_in_de_polder_Groot-Mijdrecht.svg2009-Mar-21 16:33:5316.2Kapplication/octet-stream
20090422195747!Map_-_NL_-_Helmond_-_Wijk_29_Industriegebied_Zuid_-_Buurt_02_B.Z.O.B..svg2009-Mar-21 17:01:4017.8Kapplication/octet-stream
20090422195906!Map_-_NL_-_Hilvarenbeek_-_Wijk_01_Esbeek_-_Buurt_00_Esbeek.svg2009-Mar-21 17:02:3413.1Kapplication/octet-stream
20090422205021!Map_-_NL_-_Vlissingen_-_Wijk_04_Lammerenburg_-_Buurt_02_Westerzicht.svg2009-Mar-21 18:26:5717.1Kapplication/octet-stream
20090423184327!Map_-_NL_-_Lelystad_-_Gebied_44_Lelystad_Zuidoost_-_Buurt_30_De_Landerijen.svg2009-Mar-21 17:13:4523.4Kapplication/octet-stream
20090423185058!Map_-_NL_-_Nederweert_-_Wijk_02_Ospel_-_Buurt_01_Ospeldijk.svg2009-Mar-21 17:29:5314.7Kapplication/octet-stream
20090423192724!Map_-_NL_-_Venray_-_Wijk_00_Overige_kernen_-_Buurt_01_Heide.svg2009-Mar-21 18:25:5216.3Kapplication/octet-stream
20090424191344!Blason_de_la_famille_Lencastre_e_Távora.svg2009-Apr-20 20:18:311.2Mapplication/octet-stream
20090424200719!Map_-_NL_-_Aa_en_Hunze_-_Wijk_07_Spijkerboor_-_Buurt_00_Spijkerboor.svg2009-Mar-21 16:11:5525.6Kapplication/octet-stream
20090424202104!Map_-_NL_-_Cranendonck_-_Wijk_03_Maarheeze_-_Buurt_08_Verspreide_huizen_Hugten.svg2009-Mar-21 16:31:3114.1Kapplication/octet-stream
20090424202125!Map_-_NL_-_Cuijk_-_Wijk_00_Cuijk_-_Buurt_02_Heiligenberg_en_Beijerd_en_'t_Riet.svg2009-Mar-21 16:31:4614.0Kapplication/octet-stream
20090424203241!Map_-_NL_-_Dinkelland_-_Wijk_00_Denekamp_-_Buurt_08_Binnenveld_en_'t_Pierik.svg2009-Mar-21 16:36:2724.7Kapplication/octet-stream
20090424212934!Map_-_NL_-_Steenwijkerland_-_Wijk_08_Sint_Jansklooster_-_Buurt_09_Verspreide_huizen_Leeuwte_(gedeeltelijk).svg2009-Mar-21 18:02:0342.4Kapplication/octet-stream
20090424213418!Map_-_NL_-_Tynaarlo_-_Wijk_12_Yde_-_Buurt_08_Verspreide_huizen_De_Punt.svg2009-Mar-21 18:13:3427.2Kapplication/octet-stream
20090426192628!Yakovlev_Yak-40_Polish_AF_048.jpg2007-Jun-15 16:02:1386.0Kimage/jpeg
20090428003423!Palmerston_Aerial.jpg2008-Feb-13 08:50:1225.7Kimage/jpeg
20090428004902!Anemone_apennina_Barbarano_Romano_San_Guilano.jpg2009-Apr-28 00:17:382.9Mimage/jpeg
20090428123240!Wz._1977_Dana.JPG2009-Apr-28 12:30:303.8Mimage/jpeg
20090430200813!1903AL08_image_media_horizontal.jpg2008-Dec-02 20:09:1689.8Kimage/jpeg
20090501021213!MY_BIKE.jpg2009-Apr-11 03:25:53250.6Kimage/jpeg
20090501095605!EU27-2008-Union_for_the_Mediterranean.svg2009-Apr-29 11:33:59550.9Kapplication/octet-stream
20090501162157!EU27-2008-Union_for_the_Mediterranean.svg2009-May-01 09:56:05679.0Kapplication/octet-stream
20090501171944!Usage_share_of_web_browsers_that_pass_Acid2.png2009-Apr-01 21:40:065.0Kimage/png
20090501172208!Usage_share_of_web_browsers_that_pass_Acid2.png2009-May-01 17:19:445.1Kimage/png
20090501175827!MilanKits.png2007-Oct-04 16:00:142.3Kimage/png
20090501181638!MilanKits.png2009-May-01 17:58:27138.3Kimage/png
20090502001739!Racking-92599305_9a9213d8d5.jpg2009-May-01 20:37:16126.7Kimage/jpeg
20090502221845!Ch47-chinook-vietnam.jpg2005-Sep-28 11:53:5268.0Kimage/jpeg
20090503035223!SPQRomani.svg2008-Jan-24 19:18:4049.9Kapplication/octet-stream
20090503100258!SPQRomani.svg2009-May-03 03:52:2345.2Kapplication/octet-stream
20090503191042!Bobby_Benson_B-Bar-B_Riders_01.jpg2008-Jul-03 19:15:5596.1Kimage/jpeg
20090504014652!KRW-JPY_v2.svg2009-Apr-04 14:43:17180.9Kapplication/octet-stream
20090505154710!Nerolidol_-_cis.png2009-May-05 15:43:2510.3Kimage/png
20090505192233!Blason_de_l'Isle_de_Lalande.svg2008-Sep-06 12:25:40220.3Kapplication/octet-stream
20090505192508!Blason_de_l'Isle_de_Lalande.svg2009-May-05 19:22:2032.2Kapplication/octet-stream
20090505215857!România_regiuni_dezvoltare.svg2009-May-04 06:31:131.6Mapplication/octet-stream
20090506085955!Bono_da_Ferrara_-_Saint_Jerome.jpg2009-May-06 08:55:3330.9Kimage/jpeg
20090506171350!Voices_from_Chernobyl.jpg2009-May-06 17:03:073.7Mimage/jpeg
20090508141707!File1-Ноздря.jpg2009-May-08 14:15:4620.1Kimage/jpeg
20090509203554!Vesuvius_Furnace.jpg2009-May-09 14:49:092.6Mimage/jpeg
20090510133231!Escudoalbadetormes.gif2007-Jul-22 03:34:284.9Kimage/gif
20090512035051!SPQRomani.svg2009-May-03 10:02:5945.1Kapplication/octet-stream
20090512145031!Battle_of_Cyzicus.svg2007-Jan-04 11:19:486.2Kapplication/octet-stream
20090512165014!Fujikyu_city_e6302.jpg2007-Dec-24 02:24:2876.9Kimage/jpeg
20090513103606!Voices_from_Chernobyl.jpg2009-May-06 17:13:502.8Mimage/jpeg
20090513105142!Voices_from_Chernobyl.jpg2009-May-13 10:36:061.4Mimage/jpeg
20090513140607!Koszary_dziwnów.JPG2009-May-13 14:02:25462.8Kimage/jpeg
20090513140738!Koszary_dziwnów.JPG2009-May-13 14:06:10947.1Kimage/jpeg
20090513154931!SlotZeist1.jpg2007-Dec-06 17:06:34171.2Kimage/jpeg
20090513222847!Indian_Brook_Road_Historic_District_map.png2009-May-11 05:12:2019.2Kimage/png
20090515005828!SPQRomani.svg2009-May-12 03:50:5141.3Kapplication/octet-stream
20090515031923!EU27-2008-Union_for_the_Mediterranean.svg2009-May-01 16:21:57678.3Kapplication/octet-stream
20090515124504!Progress_M-02M.jpg2009-May-15 12:21:0941.5Kimage/jpeg
20090515225123!MY_BIKE.jpg2009-May-01 02:12:13487.9Kimage/jpeg
20090515233443!TG17.3_and_HMAS_Australia_under_attack_Coral_Sea.jpg2009-May-15 23:28:2428.1Kimage/jpeg
20090516123305!Spera,_Clemente_and_Magnasco,_Alessandro_-_Mythological_Figures_among_Ruins_-_1690s.jpg2009-May-16 12:25:13405.7Kimage/jpeg
20090516153208!Electric_power_factor.svg2009-May-16 15:31:0913.9Kapplication/octet-stream
20090516153426!Electric_power_factor.svg2009-May-16 15:32:0813.9Kapplication/octet-stream
20090516182647!Slashing-and-burning.jpg2005-Nov-04 13:55:5725.4Kimage/jpeg
20090517111722!UML_DP_ObjetComposite.png2009-May-09 13:09:5044.7Kimage/png
20090518073103!Zigarettenfilter_benutzt.jpg2008-May-13 06:37:57311.2Kimage/jpeg
20090518090521!Altstadt_Koblenz.jpg2005-Aug-18 09:39:00528.0Kimage/jpeg
20090518144855!EU27-2008-Union_for_the_Mediterranean.svg2009-May-15 03:19:23675.7Kapplication/octet-stream
20090519175053!KAIST_Seal.png2009-May-19 17:50:150.0Kimage/png
20090519175741!Crown_Princess_(2).jpg2009-May-19 18:07:19323.6Kimage/jpeg
20090519180326!Crown_Princess_(2).jpg2009-May-19 18:14:53323.6Kimage/jpeg
20090519180718!Crown_Princess_(2).jpg2009-May-19 18:06:36323.6Kimage/jpeg
20090519203654!Mir_Hossein_Mousavi_in_Zanjan_by_Mardetanha_0805.jpg2009-May-19 20:22:104.2Mimage/jpeg
20090521110927!ESC_1998_Map.svg2009-Mar-31 21:18:22514.8Kapplication/octet-stream
20090522005028!Circular_argument_ja.svg2009-May-22 00:47:1115.4Kapplication/octet-stream
20090522103319!Flag_of_Russia_(1668).svg2009-Feb-06 19:59:053.4Kapplication/octet-stream
20090522112000!Archbishop_T.P._Broglio_at_Al_Asad.JPG2009-May-22 11:13:095.8Mimage/jpeg
20090522120946!Flag_of_Russia_(1668).svg2009-May-22 10:33:200.4Kapplication/octet-stream
20090523183624!US_Army_ethnolinguistic_map_of_Afghanistan_--_circa_2001-09.jpg2009-May-23 18:33:52179.5Kimage/jpeg
20090524023203!Wappen_Herzberg-Elster.png2006-Feb-08 17:32:1349.2Kimage/png
20090524102611!Kaiserin_Maria_Theresia_promenade_deck.jpg2009-Jan-03 21:57:46402.9Kimage/jpeg
20090524212929!Turnhalle_Süd_Muhen.JPG2009-May-24 01:51:063.9Mimage/jpeg
20090525134704!Mi-24_CZ_7354_LKCV_1.jpg2009-May-25 13:45:291.4Mimage/jpeg
20090525214913!Sears-Ferris_House.jpg2009-May-25 21:35:192.5Mimage/jpeg
20090526072352!L-159_CZ_6052_LKCV.jpg2009-May-26 07:23:13893.3Kimage/jpeg
20090526171349!Banner_of_arms_kingdom_of_Leon.svg2009-May-26 16:53:38170.9Kapplication/octet-stream
20090526171635!Banner_of_arms_kingdom_of_Leon.svg2009-May-26 17:13:50169.4Kapplication/octet-stream
20090527194919!Coat-of-Arms-Bulgaria.jpg2009-May-25 19:19:543.4Mimage/jpeg
20090528032555!Foreign_Relations_Of_Colombia.svg2009-May-07 04:21:151.8Mapplication/octet-stream
20090528124020!EC-EU-enlargement_animation.gif2009-May-28 03:39:07307.5Kimage/gif
20090528135557!2009-02-03_Dune-Wanderkarte.JPG2009-Feb-03 20:01:57361.7Kimage/jpeg
20090531091723!Mitsubishi_eK_classy.JPG2008-Feb-10 03:37:44134.5Kimage/jpeg
20090601211322!Znak_F-8.svg2009-May-24 12:34:1332.7Kapplication/octet-stream
20090602082950!Kvaefjord_kyrkje_Wilse.jpeg2009-Jun-02 08:27:4229.6Kimage/jpeg
20090603055718!Usage_share_of_web_browsers_that_pass_Acid2.png2009-May-01 17:22:085.1Kimage/png
20090603060045!Usage_share_of_web_browsers_that_pass_Acid2.png2009-Jun-03 05:57:188.9Kimage/png
20090603060648!Usage_share_of_web_browsers_that_pass_Acid2.png2009-Jun-03 06:00:457.8Kimage/png
20090603204203!360°_Staubern_Rheintal.jpg2009-May-31 19:45:0311.7Mimage/jpeg
20090605165533!WikipediaBinary.svg2009-Jun-05 16:55:1921.9Kapplication/octet-stream
20090606143519!Feldbahn_1757_DDM.jpg2007-Apr-25 19:18:37225.8Kimage/jpeg
20090607062225!KRW-JPY_v2.svg2009-May-04 01:46:52180.9Kapplication/octet-stream
20090607070045!JPY_Nominal_Effective_Exchange_Rates_(1970-).svg2009-Apr-11 14:15:2020.0Kapplication/octet-stream
20090607102653!Russian_Ground_Forces_-_Moscow_Military_District_Structure.png2009-Jun-06 17:53:10112.7Kimage/png
20090607102939!Russian_Ground_Forces_-_Moscow_Military_District_Structure.png2009-Jun-07 10:26:53107.4Kimage/png
20090607103053!Russian_Ground_Forces_-_Moscow_Military_District_Structure.png2009-Jun-07 10:29:39107.4Kimage/png
20090607115606!Acrodipsas_brisbanensis.jpg2008-Dec-27 03:34:1210.1Kimage/jpeg
20090607144834!Progress_M-02M.jpg2009-May-15 12:45:06662.5Kimage/jpeg
20090609184739!Metrobus55_munich.svg2009-May-18 17:52:443.2Kapplication/octet-stream
20090609203548!Waco_AVN-8_N19378_HARM_St_Louis_10.06.06R.jpg2009-Jun-09 18:31:42108.9Kimage/jpeg
20090612071133!PDB_3ccr_EBI.png2009-Jun-12 03:15:27506.3Kimage/png
20090612202421!Adrienne_Barbeau_(57743795)_new.jpg2008-Aug-21 15:09:4231.7Kimage/jpeg
20090613104509!Teresa-lorvao.jpg2009-Jun-13 10:41:53190.5Kimage/jpeg
20090613150622!Trassenheide_in_OVP.png2009-Jun-10 21:10:516.0Kimage/png
20090613162332!USA_Vermont_location_map.svg2009-Jun-13 16:05:37101.4Kapplication/octet-stream
20090613181834!Neuendorf_A_in_OVP.png2009-Jun-10 00:06:406.0Kimage/png
20090613183255!USA_Vermont_location_map.svg2009-Jun-13 16:23:3399.6Kapplication/octet-stream
20090614111738!USA_Vermont_location_map.svg2009-Jun-13 18:32:56196.8Kapplication/octet-stream
20090614115323!USA_Vermont_location_map.svg2009-Jun-14 11:17:38256.4Kapplication/octet-stream
20090614173646!Maclean_of_Duart_and_Morven_arms.svg2009-Jun-14 17:32:16134.3Kapplication/octet-stream
20090614183524!PDB_3ccr_EBI.png2009-Jun-12 07:11:33506.3Kimage/png
20090614194503!PDB_2dy1_EBI.png2009-Jun-12 07:17:29198.0Kimage/png
20090615155639!Metrobus55_munich.svg2009-Jun-09 18:47:403.4Kapplication/octet-stream
20090616172652!AMAM.JPG2008-Jan-08 15:19:1110.5Kimage/jpeg
20090617031756!PDB_2dy1_EBI.png2009-Jun-14 19:45:04198.0Kimage/png
20090617031925!PDB_3ccr_EBI.png2009-Jun-14 18:35:24506.3Kimage/png
20090617060649!PDB_3ccr_EBI.png2009-Jun-17 03:19:25506.3Kimage/png
20090617133414!PDB_2om2_EBI.png2009-Jun-14 19:44:38180.0Kimage/png
20090617133731!PDB_2zh9_EBI.png2009-Jun-12 13:42:34266.8Kimage/png
20090617134300!PDB_3cum_EBI.png2009-Jun-14 18:14:53204.2Kimage/png
20090617185645!Plumpy'nut_-_from_Flickr_2874479122.jpg2009-Jun-17 18:48:10393.1Kimage/jpeg
20090620130913!Polystyrene2.svg2009-Jun-20 01:36:1711.0Kapplication/octet-stream
20090620131550!Polystyrene2.svg2009-Jun-20 13:09:1316.5Kapplication/octet-stream
20090620141309!Boris_makarov_grave.JPG2009-Jun-20 14:12:074.0Mimage/jpeg
20090621084651!Electric_power_factor.svg2009-May-16 15:34:2611.3Kapplication/octet-stream
20090621144039!Preserje,_Brezovica.jpg2009-Jun-21 14:32:545.6Mimage/jpeg
20090621194743!720_locomotive.jpg2009-Jun-21 14:58:25208.1Kimage/jpeg
20090621194753!720_locomotive.jpg2009-Jun-21 19:47:43254.6Kimage/jpeg
20090623094229!RF00216.jpg2007-May-08 22:02:2322.2Kimage/jpeg
20090623094827!RF00204.jpg2007-May-08 22:01:0126.0Kimage/jpeg
20090623114718!Roundel_of_the_Netherlands_WW1.svg2008-Mar-13 13:26:212.5Kapplication/octet-stream
20090623114955!Escut_d'Isil_i_Alós.svg2009-Jun-23 10:20:3531.6Kapplication/octet-stream
20090623122708!Escut_d'Isil_i_Alós.svg2009-Jun-23 11:49:5531.5Kapplication/octet-stream
20090623151022!A-2_Ogura_VCEH_clutch.jpg2009-Jun-08 14:50:07781.8Kimage/jpeg
20090623223943!Codex_Mendoza_folio_61r.jpg2006-Oct-20 02:20:44163.5Kimage/jpeg
20090624091109!Flag_of_Uzbek_SSR.svg2006-Feb-28 20:57:553.6Kapplication/octet-stream
20090624095433!Western_Han_soldiers_2.jpg2009-Jun-24 09:48:44123.7Kimage/jpeg
20090624161050!Rattus_rattus05.jpg2005-May-12 12:03:5310.0Kimage/jpeg
20090624204907!De_Zerstreute_Blätter_II_(Herder)_039.jpg2007-Aug-21 16:52:59239.3Kimage/jpeg
20090624204927!De_Zerstreute_Blätter_II_(Herder)_044.jpg2007-Aug-21 16:53:31215.7Kimage/jpeg
20090624205724!De_Zerstreute_Blätter_II_(Herder)_153.jpg2007-Aug-21 17:05:15285.3Kimage/jpeg
20090624210202!De_Zerstreute_Blätter_II_(Herder)_218.jpg2007-Aug-21 17:12:14210.1Kimage/jpeg
20090624210556!De_Zerstreute_Blätter_II_(Herder)_267.jpg2007-Aug-21 17:18:13315.1Kimage/jpeg
20090625140936!NY-31.svg2006-Sep-22 03:40:376.6Kapplication/octet-stream
20090625173351!London_Overground_map_2009.png2009-Jun-24 00:26:4280.9Kimage/png
20090625235830!LocationmapChina3.png2009-Feb-27 14:01:23168.9Kimage/png
20090626150849!Fratercula_corniculataUSFWS-00031A.jpg2006-Mar-28 03:19:17103.0Kimage/jpeg
20090626195646!Kit_right_arm_nufc_away_0910.png2009-Jun-22 14:05:400.3Kimage/png
20090627230744!ESC_1998_Map.svg2009-May-21 11:09:27526.9Kapplication/octet-stream
20090628125432!Ish!!!_the_fish.jpg2009-Jun-27 20:37:3818.0Kimage/jpeg
20090629133952!Flag_of_Uzbek_SSR.svg2009-Jun-24 09:11:092.8Kapplication/octet-stream
20090630235005!NY-352.svg2006-Oct-09 02:36:3512.8Kapplication/octet-stream
20090701004240!Tissot_The_Two_Priests_Are_Destroyed.jpg2009-Apr-17 00:40:491.4Mimage/jpeg
20090701013410!NY-427.svg2006-Oct-08 16:16:4410.0Kapplication/octet-stream
20090702083358!Vinzelberg_in_SDL.png2007-Nov-22 04:55:346.2Kimage/png
20090702102707!LocationGuam.png2004-Dec-23 02:56:276.2Kimage/png
20090702153036!Anas_rubripes_Yonkers.jpg2009-Jul-02 15:14:48354.0Kimage/jpeg
20090703052530!Bates_Motel.jpg2008-Jun-23 08:41:08559.9Kimage/jpeg
20090704002154!Istanbul_görüntü.jpg2009-Jul-03 23:58:30449.5Kimage/jpeg
20090704093425!Beethoven-Denkmal_New_York.JPG2009-Jul-04 08:00:472.0Mimage/jpeg
20090704101745!Sprachenkarte_Deutschland1880.png2009-Apr-12 18:03:22398.7Kimage/png
20090704120038!Beethoven-Denkmal_New_York.JPG2009-Jul-04 09:33:594.0Mimage/jpeg
20090704153744!Sprachenkarte_Deutschland1880.png2009-Jul-04 10:17:541.0Mimage/png
20090704162559!Pholiota.lenta.-.lindsey.jpg2008-Feb-16 17:34:33195.3Kimage/jpeg
20090705061644!Descaso_com_o_centro_histórico_de_Natal.jpg2009-Jul-05 03:23:12144.1Kimage/jpeg
20090705151737!Beethoven-Denkmal_New_York.JPG2009-Jul-04 12:00:384.0Mimage/jpeg
20090705195918!F-14A_FGR2_1991_DN-SC-91-03245.JPEG2007-Nov-01 21:20:383.2Mimage/jpeg
20090706151054!Gable01.jpg2009-May-27 21:37:4655.0Kimage/jpeg
20090707032057!Majestic_Theater.jpg2009-Jul-07 02:36:144.4Mimage/jpeg
20090707061652!Voldemort_in_popular_culture.jpg2009-Jul-07 01:10:33444.1Kimage/jpeg
20090707135338!KRW-JPY_v2.svg2009-Jun-07 06:22:25182.5Kapplication/octet-stream
20090707192106!Pedrayes_2.jpg2007-Nov-14 14:51:344.6Mimage/jpeg
20090707192106!Processus_3.JPG2007-Sep-29 10:29:411.3Mimage/jpeg
20090708084721!Basilius_Perger.JPG2009-Jul-06 16:12:17682.3Kimage/jpeg
20090709093705!NGC_3370.jpg2005-Dec-28 20:06:1828.9Kimage/jpeg
20090709145905!Osterholz-Scharmbeck_in_OHZ.svg2009-Jul-09 12:12:131.9Mapplication/octet-stream
20090710092505!Cacatua_ophthalmica_-captive-6a.jpg2009-Jul-10 09:25:05325.3Kimage/jpeg
20090710092506!Cacatua_ophthalmica_-captive-6a.jpg2009-Jul-10 09:25:05325.3Kimage/jpeg
20090711163946!Cmentarz_nr_293_w_Zkliczynie.JPG2009-Jul-11 16:39:408.0Kimage/jpeg
20090711164128!Cmentarz_nr_293_w_Zkliczynie.JPG2009-Jul-11 16:40:410.0Kimage/jpeg
20090712182726!Playing_Settlers_of_Catan.jpg2009-Jul-12 10:20:452.2Mimage/jpeg
20090713035025!Crystal_Project_kedit.png2008-Aug-30 10:34:008.5Kimage/png
20090713091041!Heda,_Willem_Claesz_-_Breakfast_with_a_Lobster.jpg2009-Jul-11 13:26:1366.0Mimage/jpeg
20090713114420!StMichaelSonthofenGedenk2.JPG2009-Jul-11 16:03:265.8Mimage/jpeg
20090713121513!Nigel_McGuinness_in_April_2009.jpg2009-Jul-13 11:55:3354.4Kimage/jpeg
20090714011424!Windows_XP_wordmark.svg2008-Feb-23 21:54:3915.6Kapplication/octet-stream
20090714165708!Krafft-Ebing.jpg2006-Jul-31 20:18:11162.0Kimage/jpeg
20090715135024!School4S_logo.jpg2009-Jul-15 13:52:22104.6Kimage/jpeg
20090715135143!School4S_logo.jpg2009-Jul-15 13:56:00104.6Kimage/jpeg
20090715164313!Eilenburg_Wasserturm_Inneres4.jpg2009-Jul-15 16:43:321.8Mimage/jpeg
20090716162322!Vaccinium_ovalifolium_9733.JPG2009-Jul-16 15:18:553.4Mimage/jpeg
20090716234428!Vodní_nádrž_Džbán,_výpusť.jpg2009-Jul-16 23:42:21478.9Kimage/jpeg
20090716234538!Vodní_nádrž_Džbán,_výpusť.jpg2009-Jul-16 23:45:29478.9Kimage/jpeg
20090716234657!Vodní_nádrž_Džbán,_výpusť.jpg2009-Jul-16 23:47:36478.9Kimage/jpeg
20090716235056!Vodní_nádrž_Džbán,_výpusť.jpg2009-Jul-16 23:52:32478.9Kimage/jpeg
20090716235220!Vodní_nádrž_Džbán,_výpusť.jpg2009-Jul-16 23:59:04478.9Kimage/jpeg
20090717091653!Vodní_nádrž_Džbán,_výpusť.jpg2009-Jul-16 23:52:32478.9Kimage/jpeg
20090717140913!JPY_Nominal_Effective_Exchange_Rates_(1970-).svg2009-Jun-07 07:00:4520.1Kapplication/octet-stream
20090718070506!Wappen_Maihingen.png2008-Aug-20 09:09:237.8Kimage/png
20090720120001!Daniela_Beyruti.jpg2009-Jun-12 19:11:36123.9Kimage/jpeg
20090720125445!Japanese_House_of_Councillors_election,_1968_en.svg2007-Apr-24 14:47:456.4Kapplication/octet-stream
20090720145012!St_Nicolas_Church_Czwartek_Lublin.jpg2007-Sep-22 07:15:222.4Mimage/jpeg
20090721054028!Edenallure.jpg2009-Jul-21 05:36:5312.9Kimage/jpeg
20090721093201!Adendorf_in_LG.svg2009-Jul-18 09:20:413.2Mapplication/octet-stream
20090722044920!Wappen_Gross_Santersleben.png2007-Oct-09 17:54:42163.9Kimage/png
20090722203055!Delian_League_Campaign_Map.png2009-Jun-29 06:56:021.2Mimage/png
20090722203934!Delian_League_Campaign_Map.png2009-Jul-22 20:30:55524.7Kimage/png
20090723144553!2001-2003_Toyota_Corolla_(ZZE122R)_Ascent_5-door_hatchback_02.jpg2009-Jul-23 13:14:073.4Mimage/jpeg
20090723194406!Karte_Lage_Kanton_Zug_2009.png2008-Dec-28 10:38:221.9Mimage/png
20090724030150!Britney_Jean_Spears_Live.jpg2009-Jul-24 01:24:1043.0Kimage/jpeg
20090724181949!矢原堰_02.jpg2009-Jul-24 18:04:353.1Mimage/jpeg
20090726230249!Fontaine_Tourny_Quebec_Homme_Femme.JPG2009-Jul-24 00:40:1881.2Kimage/jpeg
20090727004231!Villa_Emo_Fanzolo_giardino_retro_2009-07-18_f01.jpg2009-Jul-24 23:34:073.4Mimage/jpeg
20090729202702!Upplands_runinskrifter_889_runes.png2009-Jul-29 20:24:315.6Kimage/png
20090730191913!Blagoevgrad_Province_location_map.svg2009-Jul-30 18:57:26191.2Kapplication/octet-stream
20090731174700!Kiessee-bei-Krugsdorf-27-07-2009-169.jpg2009-Jul-31 17:46:15381.4Kimage/jpeg
20090731231506!Bad_Saulgau_130-1.JPG2009-Jul-31 22:34:273.3Mimage/jpeg
20090801075610!KRW-JPY_v2.svg2009-Jul-07 13:53:42183.4Kapplication/octet-stream
20090802070322!Jay_Street-Borough_Hall.jpg2007-Aug-21 02:14:52835.7Kimage/jpeg
20090802114608!Triton_Earth_Moon_Comparison.png2007-Aug-07 16:00:17442.3Kimage/png
20090803064953!Stuart_Levey.jpg2006-May-31 22:00:241.5Mimage/jpeg
20090803174031!Instrumental_Temperature_Record.svg2008-Sep-08 08:08:3595.4Kapplication/octet-stream
20090803185439!Blagoevgrad_Province_location_map.svg2009-Jul-30 19:19:13206.0Kapplication/octet-stream
20090803193121!Blagoevgrad_Province_location_map.svg2009-Aug-03 18:54:39209.2Kapplication/octet-stream
20090803211418!Bottle_of_Duff_2.png2009-Aug-03 21:09:38887.2Kimage/png
20090804175437!Stuttgart_-_CSD_2009_-_Parade01.jpg2009-Aug-02 11:46:12712.4Kimage/jpeg
20090805113911!Magdalena_Torbianka.jpg2006-Feb-27 14:54:0047.6Kimage/jpeg
20090806210820!Nordkirchen-090806-9291.jpg2009-Aug-06 21:02:536.3Mimage/jpeg
20090809112755!Sprachenkarte_Deutschland1880.png2009-Jul-04 15:37:45398.7Kimage/png
20090809143616!Castel-Masegra-per-Wikimedia-20090808_482_by_ArnaldoZitti.jpg2009-Aug-09 14:20:322.4Mimage/jpeg
20090809180205!Nationalpark_Stelvio_Wasserfall.jpg2006-Oct-24 22:07:05572.9Kimage/jpeg
20090809183434!Rukas_umc.jpg2009-Aug-09 18:30:3598.2Kimage/jpeg
20090810114907!BMW_3er_Touring_E91_Facelift_20090425_rear.JPG2009-Apr-25 21:14:460.9Mimage/jpeg
20090810182347!Mercedes_ML_280CDI_Edition_10_rear.jpg2009-Feb-07 20:00:562.2Mimage/jpeg
20090811180118!CRA_Portrait.jpg2009-Aug-11 15:42:313.9Mimage/jpeg
20090811192707!Afghanistan_location_map.svg2008-Sep-14 12:11:48359.7Kapplication/octet-stream
20090811211023!Sprachenkarte_Deutschland1880.png2009-Aug-09 11:27:551.0Mimage/png
20090812064852!JPY_Nominal_Effective_Exchange_Rates_(1970-).svg2009-Jul-17 14:09:1420.1Kapplication/octet-stream
20090812122220!Pulegon.svg2009-Aug-12 12:21:575.6Kapplication/octet-stream
20090812122519!Pulegon.svg2009-Aug-12 12:22:205.6Kapplication/octet-stream
20090812122542!Pulegon.svg2009-Aug-12 12:25:205.5Kapplication/octet-stream
20090812125452!Blason_ville_it_Varese_(Empire).svg2009-Aug-12 08:09:227.9Kapplication/octet-stream
20090812130718!Georgian_SSR_flag.png2005-Jul-09 20:59:243.5Kimage/png
20090812145330!Blason_ville_it_Varese_(Empire).svg2009-Aug-12 12:54:538.6Kapplication/octet-stream
20090813235619!Barthel_Bv.png2008-Feb-20 10:57:32173.5Kimage/png
20090813235850!Barthel_Bv.png2009-Aug-13 23:56:20262.0Kimage/png
20090815223136!Bundesarchiv_Bild_183-77050-0002,_Berlin,_tschechische_Gastarbeiter.jpg2008-Dec-04 15:55:1361.9Kimage/jpeg
20090816091034!Loshult_2007A.jpg2009-Aug-01 09:25:13179.4Kimage/jpeg
20090816161838!Kylemunro1.JPG2009-Jun-21 23:30:392.2Mimage/jpeg
20090816173134!LocationGuam.png2009-Jul-02 10:27:085.4Kimage/png
20090816185224!Escudo_baza.jpg2008-Nov-14 15:01:2813.3Kimage/jpeg
20090816195632!Lublin_wrotkow_herbapol_przy_diamentowej_od_romera.jpg2009-Aug-13 21:25:08187.3Kimage/jpeg
20090818184908!Loshult_2007A.jpg2009-Aug-16 09:10:34196.1Kimage/jpeg
20090818203459!Masters_of_Lindy_Hop_and_Tap_2009_-_taking_bows_03.jpg2009-Aug-18 20:28:024.1Mimage/jpeg
20090821025003!SekienSessho-seki.jpg2007-May-09 14:16:20143.7Kimage/jpeg
20090821030503!J-2_rocket_engine.jpg2006-Apr-02 13:50:44101.1Kimage/jpeg
20090821104110!Ruetschenhausen_Fronleichnahmsaltar1.jpg2009-Aug-25 05:48:221.1Mimage/jpeg
20090821174706!1994-1996_Holden_LG_Nova_SLX_hatchback_03.jpg2009-Aug-21 15:47:083.1Mimage/jpeg
20090822103949!BRICS.svg2009-Apr-24 11:41:171.5Mapplication/octet-stream
20090822225823!Soest-090816-9980-Fachwerk-Osthofenstrasse-63.jpg2009-Aug-22 22:55:506.9Mimage/jpeg
20090823075547!Kaart_Provinciale_weg_562.png2009-Aug-20 15:01:4754.1Kimage/png
20090823224525!Hugh_Laurie_Actors_Guild.jpg2008-Aug-26 15:25:41100.4Kimage/jpeg
20090826150043!Female_leonardo.jpg2009-Aug-26 14:58:26119.9Kimage/jpeg
20090826164834!Oberamt_Gmuend_136.jpg2008-Nov-22 13:41:18648.7Kimage/jpeg
20090827205315!Kiszone_patisony.jpg2009-Jul-07 23:39:22753.4Kimage/jpeg
20090829113744!Moog_Prodigy.jpg2009-Aug-29 11:33:1536.1Kimage/jpeg
20090830124941!Eu-Block.jpg2009-Jul-09 00:52:47140.2Kimage/jpeg
20090830144427!Map_No._4_of_Schedule_1_to_Notice_1998_of_2005.png2009-Jun-16 14:57:44116.6Kimage/png
20090830222214!Bates_Motel.jpg2009-Jul-03 05:25:30769.5Kimage/jpeg
20090902120752!Warszawa-Centralna_&_al.png2009-Sep-02 12:00:5378.5Kimage/png
20090903082306!ISO_639_Icon_ru.svg2006-Nov-23 18:03:310.6Kapplication/octet-stream
20090904133815!Japanese_National_Route_Sign_0172.svg2006-Dec-16 19:48:469.1Kapplication/octet-stream
20090904193421!NGC1433-hst-R814GB450.jpg2009-Sep-03 09:50:151.0Mimage/jpeg
20090905054441!1993-1995_Nissan_Pulsar_(N14_CBU)_Ti_5-door_hatchback_01.jpg2009-Sep-05 05:29:173.2Mimage/jpeg
20090905072657!Kharosthi_p.svg2009-Aug-14 05:58:1511.1Kapplication/octet-stream
20090905080709!Fortuneteller_mgx2of12.svg2009-Sep-05 07:50:522.9Kapplication/octet-stream
20090905080851!Fortuneteller_mgx2of12.svg2009-Sep-05 08:06:552.9Kapplication/octet-stream
20090905081335!Kharosthi_p.svg2009-Sep-05 07:26:5811.1Kapplication/octet-stream
20090905081610!Kharosthi_p.svg2009-Sep-05 08:13:3511.1Kapplication/octet-stream
20090905082806!Kharosthi_p.svg2009-Sep-05 08:16:1011.1Kapplication/octet-stream
20090905101227!Japanese_National_Route_Sign_0435.svg2006-Dec-16 20:02:269.1Kapplication/octet-stream
20090905120115!Nikšić,_Montenegro_-_church.jpg2009-Sep-05 10:45:542.4Mimage/jpeg
20090905143826!KRW-JPY_v2.svg2009-Aug-01 07:56:10184.0Kapplication/octet-stream
20090905181815!Fernando_Alonso_2009_Europe_2.jpg2009-Sep-05 15:54:56532.7Kimage/jpeg
20090906094154!Shi_Yousan.jpg2009-Aug-22 12:22:4399.0Kimage/jpeg
20090906172440!Bundesarchiv_Bild_183-S56603,_Warschau,_Luftaufnahme_von_Bränden.jpg2008-Dec-04 18:17:4572.2Kimage/jpeg
20090907093144!APowerlineTower.JPG2007-Nov-21 21:26:121.8Mimage/jpeg
20090907150728!91_Canton_Arpajon.png2009-Feb-10 20:36:5829.4Kimage/png
20090908125820!Diag_FeC_fonte_blanche.svg2009-Sep-08 12:49:59155.1Kapplication/octet-stream
20090908131103!Diag_FeC_fonte_blanche.svg2009-Sep-08 12:58:17153.4Kapplication/octet-stream
20090911062000!Chickens_in_tractor_organic_farm.jpg2009-Sep-11 05:58:35706.2Kimage/jpeg
20090911125420!NapierRapier.JPG2008-Sep-21 19:50:481.9Mimage/jpeg
20090911164805!Bahram_Gur_in_the_yellow_pavilion.jpg2008-Jun-06 17:59:53157.6Kimage/jpeg
20090911193913!VW_Polo_V_20090717_rear.JPG2009-Jul-17 20:26:22442.6Kimage/jpeg
20090912233218!Maizuru_red_brick_warehouses08s3200.jpg2007-Jul-30 12:59:061.8Mimage/jpeg
20090913112055!JPY_Nominal_Effective_Exchange_Rates_(1970-).svg2009-Aug-12 06:48:5320.1Kapplication/octet-stream
20090915062758!Bates_Motel.jpg2009-Aug-30 22:22:141.8Mimage/jpeg
20090915141646!Klayman_Ha1.svg2009-Sep-15 14:00:184.3Kapplication/octet-stream
20090916213306!Actinomycin_D.svg2009-Aug-21 19:54:48128.4Kapplication/octet-stream
20090916213615!Actinomycin_D.svg2009-Sep-16 21:33:06134.3Kapplication/octet-stream
20090916214229!Actinomycin_D.svg2009-Sep-16 21:36:15134.3Kapplication/octet-stream
20090917082401!De_Neue_Thalia_Band4_074.jpg2009-Aug-15 22:42:2771.8Kimage/jpeg
20090918235149!Nordkirchen-090806-9339-Orangerie.jpg2009-Sep-18 23:49:395.7Mimage/jpeg
20090920124431!Japanese_Type_90_Tank_-_2.jpg2007-Nov-08 17:27:48348.2Kimage/jpeg
20090922051651!Flag_of_the_Red_Crystal.svg2008-Nov-29 05:04:040.7Kapplication/octet-stream
20090922061859!Shadows1.jpg2007-Dec-28 12:45:01203.6Kimage/jpeg
20090922211653!Lamborghini_Murcièlago.jpg2006-Oct-29 16:47:36527.5Kimage/jpeg
20090923085109!Fête_de_la_Fraternité_2009_-_Journaliste_édition_spécial_Canal_+_by_Mikani.JPG2009-Sep-23 08:31:343.0Mimage/jpeg
20090925232648!Suspension_bridge_pattern_german2.svg2009-Sep-19 18:44:386.3Kapplication/octet-stream
20090927104321!Miao_Bin.jpg2009-Aug-24 15:58:2589.1Kimage/jpeg
20090928062512!Lexus_IS300_Millenium_Silver_Metallic.jpg2009-Sep-28 06:17:34385.1Kimage/jpeg
20090929020300!Lexus_IS300_Millenium_Silver_Metallic.jpg2009-Sep-28 06:25:12349.4Kimage/jpeg
20090929133017!Klayman_Ha1.svg2009-Sep-15 14:16:464.2Kapplication/octet-stream
20090929184939!SB2U_VS-42_CV-4_4Dec1941_NAN9-78.jpg2008-Apr-30 18:34:37120.1Kimage/jpeg
20090930060448!T-45A_Goshawk_03.jpg2008-Jun-10 05:22:401.8Mimage/jpeg
20090930071948!T-45A_Goshawk_03.jpg2009-Sep-30 06:04:451.8Mimage/jpeg
20091002234335!Yvoir_JPG00.jpg2005-Aug-31 13:43:101.3Mimage/jpeg
20091003022849!Escudo_de_Briceño.svg2009-Oct-02 16:30:48571.5Kapplication/octet-stream
20091003224955!Escudo_de_Briceño.svg2009-Oct-03 02:28:49562.0Kapplication/octet-stream
20091004040613!KRW-JPY_v2.svg2009-Sep-05 14:38:26184.9Kapplication/octet-stream
20091005154304!91_CA_Portes-Essonne.png2009-May-26 13:09:2529.2Kimage/png
20091006192734!Carte_joseph_bouchette_petite_partie_bas-canada.jpg2009-Sep-18 02:01:1665.6Kimage/jpeg
20091008122930!Kurotomesode_back_view_with_panels_opened_motif_is_gagaku.jpg2006-Jul-12 17:41:4140.9Kimage/jpeg
20091008134643!IsraelCVFRlegend.jpg2009-Oct-08 13:45:53124.3Kimage/jpeg
20091008174453!CC-sampling.svg2008-May-19 19:13:284.7Kapplication/octet-stream
20091009195940!Afghanistan_location_map.svg2009-Aug-11 19:27:07354.6Kapplication/octet-stream
20091009220613!Recommind_logo_web.jpg2009-Oct-09 21:51:5524.1Kimage/jpeg
20091010034238!JPY_Nominal_Effective_Exchange_Rates_(1970-).svg2009-Sep-13 11:20:5520.2Kapplication/octet-stream
20091010125112!Abert_collects_nesting_material.jpg2009-Oct-10 12:39:00115.9Kimage/jpeg
20091010155639!2009-08-27-06625-00_USA_Colorado_347_BlackCanyonOfTheGunnison_NP_copy.jpg2009-Oct-10 15:52:57630.5Kimage/jpeg
20091010200842!Britney_Jean_Spears_Live.jpg2009-Jul-24 03:01:5038.6Kimage/jpeg
20091011141041!Bild_Zwingli_Asper.jpg2008-Apr-25 20:17:591.2Mimage/jpeg
20091011210506!Sprachenkarte_Deutschland1880.png2009-Aug-11 21:10:23398.7Kimage/png
20091011211333!100_east_wisconsin.jpg2009-Sep-06 22:46:3689.5Kimage/jpeg
20091012182247!Ascent_of_the_Blessed.jpg2009-Mar-15 07:41:1132.0Kimage/jpeg
20091013015858!Sa-sieng-se.jpg2009-Oct-12 21:47:27447.2Kimage/jpeg
20091014034612!Frederic_Remington.jpg2007-Aug-31 16:03:4111.5Kimage/jpeg
20091014121605!Guillem_Guisbert.jpg2009-Oct-14 08:02:58462.7Kimage/jpeg
20091014144411!Binding-price-ceiling-fr.svg2007-Oct-18 13:00:4914.5Kapplication/octet-stream
20091014145015!Binding-price-ceiling-fr.svg2009-Oct-14 14:44:1114.5Kapplication/octet-stream
20091014163345!Mercedes_C-Klasse_(W204).jpg2008-Nov-22 23:02:201.4Mimage/jpeg
20091014163515!Mercedes_C-Klasse_(W204).jpg2009-Oct-14 16:33:451.8Mimage/jpeg
20091014164518!Mercedes_C-Klasse_(W204).jpg2009-Oct-14 16:35:161.8Mimage/jpeg
20091014210622!Rotation(60deg).svg2009-Oct-14 20:56:257.4Kapplication/octet-stream
20091015193528!Norway_Rear_Admiral_1815.jpg2009-Oct-15 19:34:04522.1Kimage/jpeg
20091016094853!Koban-Chogin-rate.png2009-Sep-16 01:22:4116.1Kimage/png
20091016152030!VCLTmemberstatesworldmap.png2009-Sep-11 08:24:4418.1Kimage/png
20091018130659!Bermatingen_2.jpg2008-Apr-23 16:00:563.0Mimage/jpeg
20091018161058!Sprachenkarte_Deutschland1880.png2009-Oct-11 21:05:071.0Mimage/png
20091018161452!Sprachenkarte_Deutschland1880.png2009-Oct-18 16:10:59398.7Kimage/png
20091019152901!Maclean_of_Duart_and_Morven_arms.svg2009-Jun-14 17:36:46134.2Kapplication/octet-stream
20091019153316!Maclean_of_Duart_and_Morven_arms.svg2009-Oct-19 15:29:01134.2Kapplication/octet-stream
20091019153318!Maclean_of_Duart_and_Morven_arms.svg2009-Oct-19 15:33:17134.2Kapplication/octet-stream
20091019153420!Maclean_of_Duart_and_Morven_arms.svg2009-Oct-19 15:33:18134.2Kapplication/octet-stream
20091019153438!Maclean_of_Duart_and_Morven_arms.svg2009-Oct-19 15:34:21134.2Kapplication/octet-stream
20091019154322!Maclean_of_Duart_and_Morven_arms.svg2009-Oct-19 15:34:38134.2Kapplication/octet-stream
20091019154344!Maclean_of_Duart_and_Morven_arms.svg2009-Oct-19 15:43:23134.2Kapplication/octet-stream
20091019155213!Maclean_of_Duart_and_Morven_arms.svg2009-Oct-19 15:43:44134.2Kapplication/octet-stream
20091020003058!02_Institut_de_France.jpg2008-Jun-07 04:58:19519.9Kimage/jpeg
20091021093554!Zaoutouge.jpg2009-Oct-21 09:35:3232.5Kimage/jpeg
20091021125406!TN-23.svg2007-Oct-26 11:30:5648.8Kapplication/octet-stream
20091022135434!Hydrous_piceus_underside.jpg2007-Mar-27 06:49:35591.6Kimage/jpeg
20091022185122!TN-23.svg2009-Oct-21 12:54:07181.4Kapplication/octet-stream
20091023120324!Prag_Mahal13.jpg2009-Oct-21 14:06:472.9Mimage/jpeg
20091023200055!Coa_ploiesti_ro.gif2006-Oct-18 16:08:0428.2Kimage/gif
20091023215638!Sigma_7_insignia.jpg2006-Sep-02 17:32:175.0Kimage/jpeg
20091024143800!Frankfurt_Am_Main-Fay-BADAFAMNDN-Heft_01-Nr_002-1896-Die_Mehlwaage_Garkuechenplatz.jpg2009-Oct-20 16:42:233.0Mimage/jpeg
20091025114722!Squyres_portrait.jpg2009-Oct-25 11:46:18928.2Kimage/jpeg
20091025121010!Fale_-_Spain_-_Barcelona_-_110.jpg2009-Oct-24 18:05:47668.4Kimage/jpeg
20091025121535!Fale_-_Spain_-_Huesca_-_27.jpg2009-Oct-24 20:23:50722.3Kimage/jpeg
20091025171414!Bruchomyia_wing_veins.svg2009-Apr-13 22:42:2833.5Kapplication/octet-stream
20091025180839!Fale_-_Spain_-_Sevilla_-_15.jpg2009-Oct-24 18:57:24650.2Kimage/jpeg
20091025181541!Fale_-_Spain_-_Huesca_-_29.jpg2009-Oct-24 20:24:09671.1Kimage/jpeg
20091025181759!Fale_-_Spain_-_Granada_-_140.jpg2009-Oct-24 20:52:43635.2Kimage/jpeg
20091026060525!Fale_-_Spain_-_Barcelona_-_120.jpg2009-Oct-24 18:07:39555.3Kimage/jpeg
20091026091712!Höxter_Ortsteile_Bosseborn.svg2009-Apr-25 21:53:06644.0Kapplication/octet-stream
20091026111110!Veteran_truda_1.jpg2008-Mar-03 08:10:221.6Mimage/jpeg
20091026155134!Stadtteile_Detmold_-_Heidenoldendorf.svg2009-Apr-16 09:06:48703.2Kapplication/octet-stream
20091027153709!Higashiura_in_Aichi_Prefecture_Ja.svg2008-Mar-02 21:38:4437.0Kapplication/octet-stream
20091027192355!Aerial_view_of_Fox_Glacier_2008-12-30_09.33.50.jpg2009-Oct-27 19:23:506.3Mimage/jpeg
20091027192400!Aerial_view_of_Fox_Glacier_2008-12-30_09.33.50.jpg2009-Oct-27 19:23:566.3Mimage/jpeg
20091027192437!Aerial_view_of_Fox_Glacier_2008-12-30_09.33.50.jpg2009-Oct-27 19:24:006.3Mimage/jpeg
20091027192438!Aerial_view_of_Fox_Glacier_2008-12-30_09.33.50.jpg2009-Oct-27 19:24:376.3Mimage/jpeg
20091027192440!Aerial_view_of_Fox_Glacier_2008-12-30_09.33.50.jpg2009-Oct-27 19:24:386.3Mimage/jpeg
20091027192447!Aerial_view_of_Fox_Glacier_2008-12-30_09.33.50.jpg2009-Oct-27 19:24:416.3Mimage/jpeg
20091027192459!Aerial_view_of_Fox_Glacier_2008-12-30_09.33.50.jpg2009-Oct-27 19:24:476.3Mimage/jpeg
20091027192521!Aerial_view_of_Fox_Glacier_2008-12-30_09.33.50.jpg2009-Oct-27 19:25:006.3Mimage/jpeg
20091027192613!Aerial_view_of_Fox_Glacier_2008-12-30_09.33.50.jpg2009-Oct-27 19:25:216.3Mimage/jpeg
20091027192620!Aerial_view_of_Fox_Glacier_2008-12-30_09.33.50.jpg2009-Oct-27 19:26:136.3Mimage/jpeg
20091027192724!Aerial_view_of_Fox_Glacier_2008-12-30_09.33.50.jpg2009-Oct-27 19:26:216.3Mimage/jpeg
20091028100556!Porta_Westfalica_Stadtteile_-_Neesen.svg2009-Feb-11 13:46:03648.7Kapplication/octet-stream
20091028100913!Rahden_administrativ_Tonnenheide.svg2008-Dec-25 11:33:31633.0Kapplication/octet-stream
20091028115936!Tert-butyl.png2009-Sep-17 14:16:592.8Kimage/png
20091028121652!Tert-butyl.png2009-Oct-28 11:59:362.9Kimage/png
20091028131054!Sprachenkarte_Deutschland1880.png2009-Oct-18 16:14:48398.7Kimage/png
20091028191929!Tert-butyl.png2009-Oct-28 12:16:522.9Kimage/png
20091028191945!Tert-butyl.png2009-Oct-28 19:19:292.9Kimage/png
20091028192038!Tert-butyl.png2009-Oct-28 19:19:452.9Kimage/png
20091029101327!Stadtteile_Bielefeld_-_Ummeln.svg2009-Apr-16 06:48:121.0Mapplication/octet-stream
20091030120552!Alexey_Antropov_008.jpg2009-Oct-30 10:39:14111.2Kimage/jpeg
20091030191611!Cetiedil_small.png2008-Dec-22 16:59:304.0Kimage/png
20091030193339!Chavicol.png2007-Jun-08 23:20:232.7Kimage/png
20091031001917!BuntzenLakePL280507.jpg2007-Jul-03 23:31:05288.2Kimage/jpeg
20091031165035!Deere330C.jpg2008-Aug-28 07:10:59598.6Kimage/jpeg
20091101095947!Resonant_Cavity_Magnetron_Diagram_ru.svg2009-Oct-31 23:28:1017.4Kapplication/octet-stream
20091101131832!India_(orthographic_projection).svg2009-Mar-11 13:17:49571.8Kapplication/octet-stream
20091101145602!1903_ball_-_Vlad._Nik._Nikolaev.jpeg2009-Nov-01 13:36:2530.4Kimage/jpeg
20091103131813!2000-2001_Honda_HR-V_three-door_02.jpg2009-Nov-03 11:46:203.4Mimage/jpeg
20091103143645!1987-1993_Saab_900i_5-door_hatchback_(2009-10-23).jpg2009-Nov-03 14:35:083.1Mimage/jpeg
20091103143706!1987-1993_Saab_900i_5-door_hatchback_(2009-10-23).jpg2009-Nov-03 14:36:453.3Mimage/jpeg
20091104162050!Mortar-attu-1943.jpg2008-Aug-30 10:46:5039.6Kimage/jpeg
20091104184519!Sprachenkarte_Deutschland1880.png2009-Oct-28 13:10:541.0Mimage/png
20091107191301!Bulgaria1901.JPG2008-Aug-27 20:16:334.2Mimage/jpeg
20091107191538!Bulgaria1901.JPG2009-Nov-07 19:13:010.0Kimage/jpeg
20091107195720!Clivina_fossor_side.jpg2008-May-25 11:11:431.8Mimage/jpeg
20091107201307!JamesYuill.jpg2009-Nov-07 18:58:23259.5Kimage/jpeg
20091107225850!KSC_0708_1_Miller_02.jpg2009-Jun-17 13:33:5877.5Kimage/jpeg
20091108153130!US_and_USSR_nuclear_stockpiles.svg2007-Jan-01 22:42:0026.4Kapplication/octet-stream
20091108232056!Dymaxion_2003_animation_small1.gif2006-Dec-31 10:48:282.6Mimage/gif
20091108232619!Dymaxion_2003_animation_small1.gif2009-Nov-08 23:20:573.1Mimage/gif
20091108233058!Dymaxion_2003_animation_small1.gif2009-Nov-08 23:26:193.1Mimage/gif
20091109124447!Thunderstorms_on_the_Brazilian_Horizon.jpg2009-Nov-09 12:38:03926.0Kimage/jpeg
20091109195332!Goldwiki_with_poppy.png2009-Nov-09 19:28:07211.1Kimage/png
20091109210621!Sanaearegalis.JPG2009-Sep-17 20:40:48776.0Kimage/jpeg
20091109221819!Goldwiki_with_poppy.png2009-Nov-09 19:53:32218.8Kimage/png
20091111070809!UBcity.JPG2009-Nov-11 06:59:412.9Mimage/jpeg
20091112114957!2003-2005_Nissan_Pulsar_(N16_S2)_ST_sedan_06.jpg2009-Nov-12 10:47:553.4Mimage/jpeg
20091112201135!Cafestol.svg2009-Nov-04 18:33:2022.2Kapplication/octet-stream
20091112215123!Armoiries_comtes_palatins_de_Soulzbach.svg2008-Jun-27 21:41:53163.5Kapplication/octet-stream
20091114114625!Maclean_of_Duart_and_Morven_arms.svg2009-Oct-19 15:52:13134.2Kapplication/octet-stream
20091114115035!Maclean_of_Duart_and_Morven_arms.svg2009-Nov-14 11:46:25127.1Kapplication/octet-stream
20091114224745!AAA_SVG_Chessboard_and_chess_pieces_01.svg2008-Jun-29 09:34:48140.0Kapplication/octet-stream
20091115004533!Wikiversity-logo-ru.svg2009-Nov-15 00:30:4811.9Kapplication/octet-stream
20091115004949!Wikiversity-logo-ru.svg2009-Nov-15 00:45:3310.2Kapplication/octet-stream
20091115112421!Cami10005.JPG2009-Nov-15 11:20:3064.8Kimage/jpeg
20091115112559!Cami10005.JPG2009-Nov-15 11:24:2164.8Kimage/jpeg
20091115234033!India_(orthographic_projection).svg2009-Nov-01 13:18:32496.2Kapplication/octet-stream
20091116075229!Fogolino_CarloMagno_Buonconsiglio_.JPG2007-Mar-24 21:51:061.0Mimage/jpeg
20091116085800!2000-2001_Holden_VX_Commodore_S_sedan_02.jpg2009-Nov-16 07:46:163.2Mimage/jpeg
20091116213029!Demerath_westansicht.jpg2009-Nov-16 17:46:12181.8Kimage/jpeg
20091116213041!Demerath_westansicht.jpg2009-Nov-16 21:30:29173.8Kimage/jpeg
20091117213454!Retrato_de_Alonso_de_Santo_Tomás,_obispo_de_Málaga.jpg2009-Nov-17 21:32:10141.7Kimage/jpeg
20091119010520!Pennsylvania_canals.png2009-Mar-27 14:35:25131.1Kimage/png
20091119011704!Pennsylvania_canals.png2009-Nov-19 01:05:20132.1Kimage/png
20091119114059!Municipalities_in_MI.svg2008-Sep-01 14:21:381.1Mapplication/octet-stream
20091119194236!Ganymedes_Palatino_Inv12486.jpg2006-Nov-03 20:04:351.8Mimage/jpeg
20091121111510!Non-Native_American_Nations_Control_over_N_America_1836.png2009-Nov-14 03:59:42219.8Kimage/png
20091121233400!Rapperswil_-_Altstadt_Hintergasse.JPG2007-Apr-12 00:37:47352.0Kimage/jpeg
20091124112017!Sajil.jpg2009-Nov-24 11:19:4613.8Kimage/jpeg
20091125123749!Taxol_total_synthesis_by_Danishefsky_5.svg2007-Oct-04 15:49:5358.8Kapplication/octet-stream
20091126212455!Kit_body_Palmeiras_0809h.png2008-Oct-28 21:20:562.9Kimage/png
20091126234134!BiH_Austria-Hungary_ethmoc.png2009-Nov-25 13:17:4311.7Kimage/png
20091127150836!Christmas.JPG2009-Mar-13 04:16:311.0Mimage/jpeg
20091127203557!Lozan_antlaşması.png2009-Nov-27 19:36:2171.4Kimage/png
20091127210127!Lozan_antlaşması.png2009-Nov-27 20:35:5771.5Kimage/png
20091127220733!Christmas.JPG2009-Nov-27 15:08:36708.0Kimage/jpeg
20091127220819!Christmas.JPG2009-Nov-27 22:07:331.0Mimage/jpeg
20091127221223!Christmas.JPG2009-Nov-27 22:08:191.0Mimage/jpeg
20091128181659!Bibelöversättningarna_av_år_1536_band_I_070.jpg2009-Nov-27 15:29:59604.2Kimage/jpeg
20091128213056!Heathrow_T5_station_AB.JPG2008-Mar-29 18:46:013.1Mimage/jpeg
20091128224609!POL_COA_Trzcieński.svg2009-Nov-08 19:54:49375.6Kapplication/octet-stream
20091129103752!Bernhard_Vogel_in_Duesseldorf_2009.jpg2009-Oct-26 20:23:112.7Mimage/jpeg
20091129180510!Spera,_Clemente_and_Magnasco,_Alessandro_-_Mythological_Figures_among_Ruins_-_1690s.jpg2009-May-16 12:33:05235.4Kimage/jpeg
20091129202036!Peptide_Synthesis.png2009-Nov-29 19:54:55223.9Kimage/png
20091130130758!Probenecid.svg2007-Jan-13 09:56:567.3Kapplication/octet-stream
20091130151951!PeppersSuprise01.JPG2008-Apr-16 03:18:01248.6Kimage/jpeg
20091130152206!Osterholz-Scharmbeck_in_OHZ.svg2009-Jul-09 14:59:052.0Mapplication/octet-stream
20091201012003!Detroit_Cub_Scouts.jpg2012-Dec-12 23:19:51198.4Kimage/jpeg
20091201130703!UK_George_Medal_ribbon.svg2009-Nov-30 13:08:1810.1Kapplication/octet-stream
20091201201157!Wooden_Church_of_Resurrection.jpg2009-Nov-18 03:45:15109.4Kimage/jpeg
20091203001941!Dissection_wacken2.jpg2009-Dec-02 18:45:4559.3Kimage/jpeg
20091203113247!Boavita_Bandera.png2012-Dec-25 05:00:047.5Kimage/png
20091203134415!Non-Native_American_Nations_Control_over_N_America_1836.png2009-Nov-21 11:15:1063.9Kimage/png
20091203134420!Non-Native_American_Nations_Control_over_N_America_1836.png2009-Dec-03 13:44:15219.9Kimage/png
20091203135303!Wladyslaw_Zelenski's_funeral_01.jpg2006-Jun-30 15:02:04112.3Kimage/jpeg
20091203135849!BiH_Austria-Hungary_ethmoc.png2009-Nov-26 23:41:3413.6Kimage/png
20091203171515!AOC_touraine_amboise.png2009-Dec-03 16:38:4132.2Kimage/png
20091204075647!BiH_Austria-Hungary_ethmoc.png2009-Dec-03 13:58:4413.6Kimage/png
20091204183419!Quebrantahuesos_2007_(Somport,_Rioseta).jpg2008-Apr-12 19:38:442.6Mimage/jpeg
20091205082330!KRW-JPY_v2.svg2009-Oct-04 04:06:13185.6Kapplication/octet-stream
20091205085442!JPY_Nominal_Effective_Exchange_Rates_(1970-).svg2009-Oct-10 03:42:3920.2Kapplication/octet-stream
20091206165726!ESC_1998_Map.svg2009-Jun-27 23:07:44528.7Kapplication/octet-stream
20091207031820!Tollarp_vapen.svg2009-Dec-07 03:14:4319.8Kapplication/octet-stream
20091208001151!AntibodyChains.svg2007-Aug-31 03:19:489.0Kapplication/octet-stream
20091208001400!AntibodyChains.svg2009-Dec-08 00:11:5223.0Kapplication/octet-stream
20091208123027!Transactions_of_the_Geological_Society,_1st_series,_vol._1_plate_page_0449.jpg2009-Sep-12 19:33:41595.0Kimage/jpeg
20091210122325!Wilsecker_in_BIT.svg2009-Dec-08 20:06:58466.5Kapplication/octet-stream
20091210223408!Schlummerli-medium.jpg2009-Dec-10 22:20:0595.0Kimage/jpeg
20091211224133!Second_world_war_europe_1940_map_pl.png2009-Dec-08 17:46:46370.7Kimage/png
20091213181626!AvrilDallas.jpg2009-Dec-13 14:41:32113.1Kimage/jpeg
20091214130040!Gladbeck_in_RE.svg2008-Aug-28 13:46:521.3Mapplication/octet-stream
20091214172539!BiH_Austria-Hungary_ethmoc.png2009-Dec-04 07:56:3713.5Kimage/png
20091215153140!DMT_Band-Anzeige.svg2009-Nov-10 17:15:0220.0Kapplication/octet-stream
20091215171040!Ratuboko_Gate.jpg2007-Sep-29 08:14:23108.3Kimage/jpeg
20091215213109!Berlin,_Treptow,_Gewerbeausstellung_1896,_Kolonial-Ausstellung.jpg2006-Jun-06 23:16:51591.6Kimage/jpeg
20091216182539!Mosaic_cat_ducks_Massimo_Inv124137_n2.jpg2006-Oct-01 12:54:523.3Mimage/jpeg
20091216192419!Thermae_boxer_Massimo_Inv1055.jpg2006-Oct-01 17:57:101.7Mimage/jpeg
20091216230241!A-2_Ogura_VCEH_clutch.jpg2009-Jun-23 15:10:2230.7Kimage/jpeg
20091217121300!10_steps_in_19-et_on_C.mid2008-Sep-01 05:27:580.1Kapplication/octet-stream
20091217123617!Radio_tower_on_pole.svg2009-Dec-17 12:27:045.1Kapplication/octet-stream
20091218170932!Raduno_di_Vicenza_2007_IMG_2240.JPG2009-Dec-18 17:04:482.4Mimage/jpeg
20091218173121!Raduno_di_Vicenza_2007_IMG_2240.JPG2009-Dec-18 17:09:322.4Mimage/jpeg
20091218180410!Mass_vs._relativistic_mass_in_APS_journals.svg2009-Dec-18 18:02:3633.4Kapplication/octet-stream
20091219121734!Tram_line_malabar_battery.jpg2009-Dec-19 11:59:325.2Mimage/jpeg
20091219144858!1,2-Diacylglycerin.svg2007-May-09 20:22:3310.9Kapplication/octet-stream
20091220115830!2006-2008_Holden_WM_Caprice_sedan_03.jpg2009-Dec-20 11:38:232.5Mimage/jpeg
20091221151155!Villa_Jovis.jpg2006-Feb-04 18:49:262.1Mimage/jpeg
20091221152117!Villa_Jovis.jpg2009-Dec-21 15:11:47162.8Kimage/jpeg
20091221230005!Depression_ARB_01_2009-06-23_0600Z.jpg2009-Sep-06 18:03:213.5Mimage/jpeg
20091222175917!SK-Kareli-ka.svg2009-Dec-22 17:58:19540.4Kapplication/octet-stream
20091222205620!Isaac_of_Nineveh_Mystic_Treatises_023.png2009-Dec-13 20:36:5994.8Kimage/png
20091224053821!Conselhodiretor.JPG2009-Dec-24 02:01:111.2Mimage/jpeg
20091224203412!Sanok_3_Maja.JPG2009-Nov-30 21:12:10580.5Kimage/jpeg
20091224203550!Sanok_3_Maja.JPG2009-Dec-24 20:34:0878.9Kimage/jpeg
20091225004433!Neuendorf_A_in_OVP.png2009-Jun-13 18:18:315.9Kimage/png
20091225020701!Trassenheide_in_OVP.png2009-Jun-13 15:06:195.9Kimage/png
20091225150444!Mercedes_ML_280CDI_Edition_10_rear.jpg2009-Aug-10 18:23:47737.5Kimage/jpeg
20091225150606!Mercedes_ML_280CDI_Edition_10_rear.jpg2009-Dec-25 15:04:453.3Mimage/jpeg
20091226023212!Vinzelberg_in_SDL.png2009-Jul-02 08:33:586.4Kimage/png
20091227103951!Amphoe_5003.svg2009-Aug-05 14:30:23194.8Kapplication/octet-stream
20091227234802!Wikipedia-de-ErsteMillion.png2009-Dec-27 10:59:02517.0Kimage/png
20091228183244!Rudolf_potomci.jpg2009-Dec-20 21:29:1172.5Kimage/jpeg
20091231233447!Streets_of_Old_Quebec_City11.JPG2009-Nov-28 19:49:05637.8Kimage/jpeg
20100101001056!Lisanashjones.jpg2009-Dec-31 23:58:5512.6Kimage/jpeg
20100101053006!KRW-JPY_v2.svg2009-Dec-05 08:23:30187.2Kapplication/octet-stream
20100101055108!Earl_Ogasawara_Redidence.jpg2008-Nov-18 12:16:583.2Mimage/jpeg
20100101093141!Lappeenranta.sijainti.suomi.2010.svg2009-Aug-31 06:16:31232.6Kapplication/octet-stream
20100101164427!Tauler_Predigten_(1522)_004.png2009-Nov-30 14:58:14242.9Kimage/png
20100102000036!Die_Gartenlaube_(1873)_671.JPG2008-Oct-03 20:38:463.4Mimage/jpeg
20100102075502!Banat_Josephinische_Landaufnahme_pg024.jpg2009-Dec-02 07:49:5217.3Mimage/jpeg
20100102132629!東伏見稲荷神社初詣6.jpg2010-Jan-01 07:33:511.1Mimage/jpeg
20100102135758!Bundesarchiv_Bild_183-K0314-0001-051,_Leipzig,_Frühjahrsmesse,_Land-_und_Nahrungsgütermaschinenbau.jpg2008-Dec-04 17:20:5658.4Kimage/jpeg
20100102184252!Depression_ARB_01_2009-06-23_0600Z.jpg2009-Dec-21 23:00:052.0Mimage/jpeg
20100103115123!Koszysta_a1.jpg2006-Jul-22 17:15:31168.0Kimage/jpeg
20100103132754!65_milions_d'anys_de_canvi_climàtic.png2010-Jan-03 13:17:5420.3Kimage/png
20100103140500!JNR_EC_M715_side_view.png2009-Sep-12 16:15:3445.7Kimage/png
20100104012718!Ziem_-_O_Canal_Grande_em_Veneza.jpg2008-Jan-27 04:32:1847.5Kimage/jpeg
20100104191129!Schlossmerode.jpg2008-Oct-24 10:08:07254.1Kimage/jpeg
20100105140913!Wadayama_st07_960.jpg2007-Feb-02 04:31:35955.2Kimage/jpeg
20100105140951!Wadayama_st07_960.jpg2010-Jan-05 14:09:091.1Mimage/jpeg
20100105141002!Wadayama_st07_960.jpg2010-Jan-05 14:09:51955.2Kimage/jpeg
20100105145105!Baseball_positions_french_svg.svg2010-Jan-05 14:28:0813.4Kapplication/octet-stream
20100106014139!Heda,_Willem_Claesz_-_Breakfast_with_a_Lobster.jpg2009-Jul-13 09:11:3466.0Mimage/jpeg
20100107191008!UPC-Arena_Panorama.jpg2010-Jan-07 18:40:33426.1Kimage/jpeg
20100107191602!UPC-Arena_Panorama.jpg2010-Jan-07 19:10:08879.3Kimage/jpeg
20100108081226!Eduardo_Palomo-00.jpg2008-Nov-17 08:34:00194.4Kimage/jpeg
20100109195730!North_Reading_ma_highlight.png2007-Sep-02 10:02:0954.5Kimage/png
20100109205743!Braunschweig_Brunswick_Stolpersteine_(2006).jpg2006-Apr-11 05:40:22259.1Kimage/jpeg
20100111115513!Essen_Rellinghausen_Lage.svg2010-Jan-11 11:44:22881.3Kapplication/octet-stream
20100112003212!Shoping_calçados_Jaú_150606_REFON_.jpg2006-Jun-17 04:45:231.3Mimage/jpeg
20100112091215!Petra_Jordan_BW_6.JPG2009-Nov-24 18:28:122.2Mimage/jpeg
20100113110639!Moog_Prodigy.jpg2009-Aug-29 11:37:44138.6Kimage/jpeg
20100115225946!Hurricane_Arlene_(1987).JPG2006-Jan-22 15:14:4324.6Kimage/jpeg
20100116083454!Hirokawa_in_Fukuoka_Prefecture.png2009-May-12 04:45:1142.4Kimage/png
20100117113100!JPY_Nominal_Effective_Exchange_Rates_(1970-).svg2009-Dec-05 08:54:4220.3Kapplication/octet-stream
20100117182858!Wiesendangen-Faktrabdomo-vespere_831.jpg2009-Apr-10 19:25:51355.5Kimage/jpeg
20100118113058!TN-23.svg2009-Oct-22 18:51:22183.2Kapplication/octet-stream
20100118195021!Oak-ridge-george-jones-tn1.jpg2008-Aug-05 15:52:23398.4Kimage/jpeg
20100118220212!Oak-ridge-george-jones-tn1.jpg2010-Jan-18 19:50:22486.5Kimage/jpeg
20100119140605!Rail_Tracks_map_around_JR-E_Shim-Matsudo_Station.svg2010-Jan-16 15:48:4926.4Kapplication/octet-stream
20100121152148!Memoirs_of_Sir_Isaac_Newton's_life_-_041.jpg2010-Jan-21 15:14:4894.9Kimage/jpeg
20100121154959!RenonRailroadMap.svg2007-Jan-02 15:14:3176.8Kapplication/octet-stream
20100121155049!RenonRailroadMap.svg2010-Jan-21 15:49:5990.2Kapplication/octet-stream
20100122152608!Nerother_auf_Burg_Waldeck.JPG2008-Nov-24 13:55:58216.7Kimage/jpeg
20100123005100!Escudo_de_Yopal.svg2010-Jan-23 00:21:0443.9Kapplication/octet-stream
20100124062212!WiezaBismarckaWSzczecinie.jpg2007-May-16 18:23:30235.1Kimage/jpeg
20100125001827!Japanese_White-eye_nest.jpg2010-Jan-24 19:41:48159.7Kimage/jpeg
20100125181258!Travel_London_8847.JPG2008-Dec-28 16:57:11266.6Kimage/jpeg
20100127085606!KORG_Kaoss_Pad_KP2.jpg2010-Jan-27 08:34:12145.4Kimage/jpeg
20100128212014!StrummerNY.jpg2009-Dec-16 14:34:29194.0Kimage/jpeg
20100129001613!Historic_Norman_Hall_Courtyard.jpg2010-Jan-28 22:13:27110.9Kimage/jpeg
20100129035354!Hannibal_Hamlin_Signature.svg2009-Jul-30 02:05:36103.8Kapplication/octet-stream
20100129120103!J_Hillis_Miller_HSC.jpg2010-Jan-28 22:09:1413.0Kimage/jpeg
20100129185345!1de8.svg2008-Nov-03 22:11:159.9Kapplication/octet-stream
20100129191118!1de8.svg2010-Jan-29 18:53:4610.2Kapplication/octet-stream
20100130130806!Thomas_Collier.jpg2010-Jan-30 12:57:30190.4Kimage/jpeg
20100130221317!FALKLANDS_19.jpg2010-Jan-07 07:56:361.5Mimage/jpeg
20100130224405!John_Lambton,_1st_Earl_of_Durham_Signature.svg2009-Nov-15 01:16:0999.2Kapplication/octet-stream
20100130224756!Robert_Baldwin_Signature.svg2009-Nov-14 22:19:45105.5Kapplication/octet-stream
20100131015840!JR-bus-Tohoku-Asunaro.jpg2010-Jan-31 01:56:47272.4Kimage/jpeg
20100131120829!John_Taylor_Gilman_signature.svg2009-Nov-09 04:25:57102.4Kapplication/octet-stream
20100131150319!1de8.svg2010-Jan-29 19:11:1810.2Kapplication/octet-stream
20100131225834!George_Read_Signature.svg2009-Jul-26 23:46:06137.3Kapplication/octet-stream
20100201142608!Oak-ridge-george-jones-tn1.jpg2010-Jan-18 22:02:16452.0Kimage/jpeg
20100201193216!Wrocław_Collage.png2010-Jan-18 01:41:101.8Mimage/png
20100201202341!Ontario_37.svg2007-Sep-10 19:59:138.3Kapplication/octet-stream
20100202132538!Palace-p1030750.jpg2010-Feb-02 12:24:102.4Mimage/jpeg
20100202180029!Palace-p1030750.jpg2010-Feb-02 13:25:382.4Mimage/jpeg
20100202181739!Cinco_menhires,_A_Coruña.jpg2010-Feb-02 18:11:35101.2Kimage/jpeg
20100202182155!Palace-p1030750.jpg2010-Feb-02 18:00:292.4Mimage/jpeg
20100203222335!Pennsylvania_canals.png2009-Nov-19 01:17:04132.0Kimage/png
20100204010215!Corona_heights_SF.JPG2010-Feb-04 01:00:262.6Mimage/jpeg
20100204195940!Lune_007.jpg2010-Feb-04 19:56:11149.9Kimage/jpeg
20100205002324!Brown-bellied_Swallow_(Notiochelidon_murina).jpg2008-Nov-08 03:02:50137.9Kimage/jpeg
20100205023653!A.Pinto-2.jpg2010-Feb-04 18:33:45217.8Kimage/jpeg
20100205140956!Hirokawa_in_Fukuoka_Prefecture.png2010-Jan-16 08:34:5542.3Kimage/png
20100205202713!NowaMapaS7.svg2009-Dec-26 12:02:3845.8Kapplication/octet-stream
20100207070958!KRW-JPY_v2.svg2010-Jan-01 05:30:06187.9Kapplication/octet-stream
20100207122512!6Licicek-drawing_nevit_02.svg2009-Jul-07 09:48:411.3Kapplication/octet-stream
20100207124335!Vlad_Tepes_-_Blatt_3.jpg2006-Nov-06 16:53:22121.8Kimage/jpeg
20100207171033!TRAM_translohr_mestre_venezia_venice.JPG2010-Feb-07 15:15:09100.0Kimage/jpeg
20100208020929!Roso.png2010-Feb-08 02:00:5723.4Kimage/png
20100208021803!Roso.png2010-Feb-08 02:09:2323.4Kimage/png
20100208080211!Hotan_mcp.png2010-Jan-26 07:49:4921.2Kimage/png
20100208112829!Polska_1386_-_1434.png2010-Feb-07 20:10:201.6Mimage/png
20100208224621!Aix_sponsa_-Ouwehands_Dierenpark-8a.jpg2010-Feb-08 22:32:172.1Mimage/jpeg
20100210145047!Bebox_Side.jpg2010-Feb-03 09:20:291.8Mimage/jpeg
20100210211704!Butorides_striatus1.jpg2005-Aug-13 22:55:58591.3Kimage/jpeg
20100211134051!Allocation_of_IPv4_Address_Space_KG.svg2009-Jan-03 11:56:38191.4Kapplication/octet-stream
20100212170420!CTMCG-zonas-bahía.png2010-Feb-12 16:55:02133.2Kimage/png
20100213202741!Hortiguillas_-_Salero.jpg2009-Jul-07 22:19:463.8Mimage/jpeg
20100213221552!TRAM_translohr_mestre_venezia_venice.JPG2010-Feb-07 17:10:3398.9Kimage/jpeg
20100214010311!SCFAE_cover_2nd_Ed.jpg2008-Jul-26 22:46:18164.0Kimage/jpeg
20100214113650!Icebreaker_Oden_I.jpg2010-Feb-14 11:35:2856.5Kimage/jpeg
20100215014750!LogoUserpageXzit.png2010-Feb-13 01:27:5567.6Kimage/png
20100215104210!Elefante_malatestiano.jpg2009-Jul-02 09:03:3489.3Kimage/jpeg
20100215210250!La_division_de_la_Gaule_en_481.svg2010-Feb-15 20:57:18177.4Kapplication/octet-stream
20100215210411!La_division_de_la_Gaule_en_481.svg2010-Feb-15 21:02:50183.1Kapplication/octet-stream
20100215211126!La_division_de_la_Gaule_en_481.svg2010-Feb-15 21:04:11178.4Kapplication/octet-stream
20100215212214!Sport_records_icon_AG.svg2010-Feb-15 21:17:337.8Kapplication/octet-stream
20100215213120!Sport_records_icon_AG.svg2010-Feb-15 21:22:148.1Kapplication/octet-stream
20100215213544!Sport_records_icon_AG.svg2010-Feb-15 21:31:208.4Kapplication/octet-stream
20100216022253!Hammerskins_HFFH.png2010-Feb-15 22:48:25158.7Kimage/png
20100216181537!La_division_de_la_Gaule_en_481.svg2010-Feb-15 21:11:26173.1Kapplication/octet-stream
20100216181732!La_division_de_la_Gaule_en_481.svg2010-Feb-16 18:15:37175.1Kapplication/octet-stream
20100216182512!Kierkegaard_-_En_quoi_l’homme_de_génie_diffère-t-il_de_l’apôtre?.djvu2010-Feb-16 17:52:121.4Mapplication/octet-stream
20100217121131!Pala_barbarigo_02.jpg2010-Feb-10 09:15:25186.9Kimage/jpeg
20100217151606!Henry_Augustus_Pilsbry.jpg2009-Aug-09 18:38:27570.4Kimage/jpeg
20100217155725!United_States_Reports,_Volume_2.djvu2008-Jun-25 16:01:1116.6Mapplication/octet-stream
20100218094331!Tauler_Predigten_(1522)_004.png2010-Jan-01 16:44:27175.9Kimage/png
20100218172221!Hotan_mcp.png2010-Feb-08 08:02:1233.4Kimage/png
20100218222729!Brescia_Monte_pietà_romani9_by_Stefano_Bolognini.JPG2008-Jan-04 17:30:411.2Mimage/jpeg
20100219015131!Taiwan_Province_(PRC)_prfc_map.png2009-Dec-23 07:29:2958.7Kimage/png
20100219165602!Porta_Santa_da_catedral,_Santiago_de_Compostela.jpg2010-Feb-16 01:39:33530.7Kimage/jpeg
20100220202202!Polska_1386_-_1434.png2010-Feb-08 11:28:291.6Mimage/png
20100221063936!DragonsCatalans2008.jpg2010-Jan-23 01:55:5296.1Kimage/jpeg
20100221165106!Mazda_Hakaze_Heck.jpg2010-Feb-21 16:48:42100.5Kimage/jpeg
20100221202816!Pavlov_KL_CZ.png2008-Oct-20 00:22:5926.8Kimage/png
20100221213431!DE_Drensteinfurt_COA.svg2010-Feb-21 21:31:5856.7Kapplication/octet-stream
20100222003833!Piyapong_Pue-on_2010-2-21.jpg2010-Feb-22 00:28:215.3Mimage/jpeg
20100223101454!Les_Perce-Neige.pdf2009-Oct-27 12:34:2067.8Mapplication/pdf
20100224163045!Tauler_Predigten_(1522)_373.png2010-Feb-11 19:36:24277.2Kimage/png
20100224202359!Boavita_Bandera.png2012-Dec-25 05:00:0456.5Kimage/png
20100224214212!Joonas_Donskoi.jpg2009-Oct-22 14:05:51197.8Kimage/jpeg
20100224220935!La_division_de_la_Gaule_en_481.svg2010-Feb-16 18:17:32180.8Kapplication/octet-stream
20100224221600!La_division_de_la_Gaule_en_481.svg2010-Feb-24 22:09:35180.8Kapplication/octet-stream
20100224235601!Kit_body_ldu0910t.png2009-Jun-30 20:27:373.0Kimage/png
20100225102944!Кот.jpg2010-Feb-25 10:25:5149.3Kimage/jpeg
20100225110111!Кот.jpg2010-Feb-25 10:29:4436.6Kimage/jpeg
20100225135015!Bundesarchiv_Bild_183-1983-0825-303,_Gedenkstätte_Buchenwald,_Wachturm,_Stacheldrahtzaun.jpg2008-Dec-03 23:44:2479.8Kimage/jpeg
20100225140449!Indrasahdandaud2.jpg2010-Feb-25 14:00:3312.8Kimage/jpeg
20100226095215!Shin_Hasegawa.jpg2010-Feb-26 09:46:4374.8Kimage/jpeg
20100226182104!Amiloride_structure.png2008-Feb-14 15:35:597.4Kimage/png
20100227170033!Hauyne.png2009-Oct-01 07:40:249.1Mimage/png
20100227172527!Hauyne.png2010-Feb-27 17:00:334.2Mimage/png
20100228022739!Taras_Shevchenko_painting_0209.jpg2009-Nov-24 09:48:5320.5Kimage/jpeg
20100228053001!Christmas_Island_Australia_76-mk.svg2010-Feb-28 05:26:02245.1Kapplication/octet-stream
20100301044816!José_Carbajal.jpg2008-Aug-31 20:57:5861.0Kimage/jpeg
20100301105321!Julius_Glax.jpg2009-May-07 09:32:29150.6Kimage/jpeg
20100301162522!Kingston-plant-spill-yard-tn1.jpg2008-Dec-28 01:01:07829.8Kimage/jpeg
20100302174430!InfQ45.jpg2005-Dec-12 05:24:2050.6Kimage/jpeg
20100302204216!VaihingenBurg.jpg2007-May-03 04:16:20881.4Kimage/jpeg
20100302215409!Kia_Bongo_III.jpg2009-Aug-21 04:45:511.1Mimage/jpeg
20100303024530!Northchapel_4.JPG2009-Jun-22 22:14:522.0Mimage/jpeg
20100303201152!InfQ45.jpg2010-Mar-02 17:44:3061.5Kimage/jpeg
20100303230438!3G_iPod.svg2009-Jan-03 01:04:429.4Kapplication/octet-stream
20100303233321!3G_iPod.svg2010-Mar-03 23:04:389.3Kapplication/octet-stream
20100304001136!Přírodní_park_Baba907.jpg2010-Mar-03 20:00:2648.7Kimage/jpeg
20100304204218!POL_Jastrzębia_Góra_COA.gif2012-Sep-25 19:20:064.2Kimage/gif
20100305002323!Pine_grosbeak17g.jpg2010-Mar-04 02:37:201.6Mimage/jpeg
20100305012820!Tower_of_Lozoya,_Segovia.jpg2010-Mar-05 01:22:173.1Mimage/jpeg
20100305202521!Christus_saint_eloi_orfèvre.jpg2007-Jan-07 09:31:2529.9Kimage/jpeg
20100306152646!Enquanto_havia_conflitos_pela_pose_da_terra_o_cafezal_florecia.JPG2008-Dec-25 03:19:5918.3Kimage/jpeg
20100306152820!Enquanto_havia_conflitos_pela_pose_da_terra_o_cafezal_florecia.JPG2010-Mar-06 15:26:4618.9Kimage/jpeg
20100306203320!Gyrocarpus_jacquinii.jpg2007-Sep-01 18:44:2947.7Kimage/jpeg
20100307090920!José_Fagnano.JPG2008-Oct-07 15:08:05216.9Kimage/jpeg
20100307092802!KRW-JPY_v2.svg2010-Feb-07 07:09:59189.5Kapplication/octet-stream
20100308133404!Linalyl_acetate.png2008-Aug-07 16:33:334.3Kimage/png
20100308222913!Pacific_Tree_Frog_(Pseudacris_regilla).jpg2010-Mar-07 23:30:201.9Mimage/jpeg
20100309120111!EMP_-_Roots_and_Branches_06.jpg2010-Mar-09 07:45:551.2Mimage/jpeg
20100309151002!West_Japan_Industrial_Club.jpg2005-Sep-27 10:00:2660.7Kimage/jpeg
20100309160222!Spiš_Castle_4.jpg2008-Jul-07 07:48:14389.5Kimage/jpeg
20100309170108!Herz_Jesu-Kirche_(Freiburg)_06.jpg2010-Mar-09 15:56:281.2Mimage/jpeg
20100310000117!Ch47-chinook-vietnam.jpg2009-May-02 22:18:4571.9Kimage/jpeg
20100310170906!Duisburg_StDionysius_v_O1.JPG2010-Mar-10 17:06:163.5Mimage/jpeg
20100311205231!Schuppenfeh.svg2010-Feb-26 17:54:4141.7Kapplication/octet-stream
20100312001232!Bundesarchiv_B_145_Bild-F079065-0019,_Frankfurt-Main,_Lufthansa-Airport-Express.jpg2008-Dec-12 19:49:0144.6Kimage/jpeg
20100312155007!Wappen_bad_laasphe.png2006-May-17 15:22:26550.1Kimage/png
20100312190929!Page_140_map_(The_Life_of_Matthew_Flinders).jpg2010-Mar-12 19:06:2357.4Kimage/jpeg
20100313044128!Pacific_Tree_Frog_(Pseudacris_regilla).jpg2010-Mar-08 22:28:421.2Mimage/jpeg
20100313122857!Freiburg_Bauten_b_490.jpg2010-Mar-12 18:53:352.2Mimage/jpeg
20100314064158!JPY_Nominal_Effective_Exchange_Rates_(1970-).svg2010-Jan-17 11:31:0020.2Kapplication/octet-stream
20100315110059!Passport_of_Gibraltar.gif2009-Dec-21 20:01:38397.4Kimage/gif
20100316100527!Mellrichstadt_in_NES.svg2009-Nov-16 20:39:121.4Mapplication/octet-stream
20100316170929!Hualañe.svg2007-Jun-05 11:06:1185.9Kapplication/octet-stream
20100316192928!Escudo_de_Lebu.svg2009-Mar-18 23:42:031.4Mapplication/octet-stream
20100318145408!Thunderstorms_on_the_Brazilian_Horizon.jpg2009-Nov-09 12:44:470.9Mimage/jpeg
20100319175949!Acrosternum_hilare_2134082.jpg2009-Nov-04 07:04:05922.6Kimage/jpeg
20100323104255!1puk_4.png2009-Mar-21 20:24:02861.0Kimage/png
20100323143537!14puj_3.png2008-Dec-11 17:11:06316.9Kimage/png
20100324164715!Lorenzetti_Ambrogio_presentation-in-the-temple-_1342..jpg2008-May-07 10:30:33542.5Kimage/jpeg
20100325120956!Fête_de_la_Fédération,_14_July_1790_(Monument_to_the_Republic)_2010-03-23_09.jpg2010-Mar-25 11:41:521.0Mimage/jpeg
20100325183041!Kit_body_ldu0910t.png2010-Feb-24 23:55:593.0Kimage/png
20100325203208!Villa_Jovis.jpg2009-Dec-21 15:21:05105.1Kimage/jpeg
20100327092913!La_division_de_la_Gaule_en_481.svg2010-Feb-24 22:16:00173.6Kapplication/octet-stream
20100327213117!14puj_3.png2010-Mar-23 14:35:3899.8Kimage/png
20100327213410!1puk_4.png2010-Mar-23 10:42:5565.4Kimage/png
20100329140845!Tierkrieger_1.png2010-Mar-28 19:36:521.5Mimage/png
20100329190045!Die_Gartenlaube_(1869)_085.jpg2009-Feb-18 07:01:351.5Mimage/jpeg
20100329202051!USS_Dale_(DD-290).jpg2007-Mar-27 00:01:0072.5Kimage/jpeg
20100330142848!Big_Man.jpg2009-Dec-18 11:09:42108.8Kimage/jpeg
20100330163527!Herz_Jesu-Kirche_(Freiburg)_06.jpg2010-Mar-09 17:01:091.2Mimage/jpeg
20100331160133!Befolkningsutvikling_kommune_1853.svg2008-Sep-22 14:25:422.9Kapplication/octet-stream
20100401100944!Wappen_Dickenschied.png2009-Feb-18 06:31:5744.2Kimage/png
20100403044421!KRW-JPY_v2.svg2010-Mar-07 09:28:02190.2Kapplication/octet-stream
20100403141234!1994-1996_Mitsubishi_Starwagon_(WA)_GLS_van_01.jpg2010-Apr-03 06:53:443.3Mimage/jpeg
20100404102911!Nakashidze-Sharron2.svg2010-Apr-04 10:27:4151.8Kapplication/octet-stream
20100404103510!Nakashidze-Sharron2.svg2010-Apr-04 10:29:1152.3Kapplication/octet-stream
20100404103808!Nakashidze-Sharron2.svg2010-Apr-04 10:35:1057.5Kapplication/octet-stream
20100404152714!7-segment_abce.svg2007-Mar-30 16:21:250.9Kapplication/octet-stream
20100405053242!Lee_County_867.svg2013-Jan-13 20:05:351.7Kapplication/octet-stream
20100406202041!Berg_komm.svg2010-Jan-14 01:13:422.3Kapplication/octet-stream
20100406202725!Berg_komm.svg2010-Apr-06 20:20:410.9Kapplication/octet-stream
20100406212814!La_division_de_la_Gaule_en_481.svg2010-Mar-27 09:29:13181.7Kapplication/octet-stream
20100407120023!Word_Count_h_2400.svg2010-Apr-07 10:16:286.0Kapplication/octet-stream
20100408193415!Stibiconite_-_Le_Cetine,_Siena,_Italia.jpg2010-Apr-02 20:43:421.5Mimage/jpeg
20100409023334!Russian_Ground_Forces_-_Moscow_Military_District_Structure.png2009-Jun-07 10:30:53107.4Kimage/png
20100409074351!Nicolaes_Pietersz._Berchem_011.jpg2010-Apr-08 22:44:5293.6Kimage/jpeg
20100409173239!Hanau_Neustadt_-_Mühltor.jpg2010-Jan-25 21:57:09310.4Kimage/jpeg
20100409173425!Hanau_Neustadt_-_Mühltor.jpg2010-Apr-09 17:32:39331.2Kimage/jpeg
20100409214523!Hotan_mcp.png2010-Feb-18 17:22:2133.3Kimage/png
20100410023026!Russian_Ground_Forces_-_Moscow_Military_District_Structure.png2010-Apr-09 02:33:3496.6Kimage/png
20100410233149!BSicon_exhABZlr.svg2010-Mar-27 07:49:342.5Kapplication/octet-stream
20100412220743!Mrs_Thomas_Hastings_coach_Colony_Club.jpg2010-Apr-12 00:41:01156.7Kimage/jpeg
20100413160140!Om_Norrlands_skogar.djvu2010-Feb-27 18:44:001.8Mapplication/octet-stream
20100413194005!Plaza_soberania.jpg2009-Sep-19 18:43:2753.0Kimage/jpeg
20100413204956!AF_EDU_Logo.jpg2010-Apr-13 19:36:36217.6Kimage/jpeg
20100414203237!Range_Lasionycta_skrae-tai.JPG2010-Apr-14 20:30:52198.3Kimage/jpeg
20100415130946!Knud_H.jpg2010-Apr-15 13:02:39743.6Kimage/jpeg
20100415210108!Lord_Nigel_Lawson,_right.jpg2010-Apr-15 20:54:371.4Mimage/jpeg
20100416211859!Yamaha_YM2612_pinout.svg2010-Apr-16 14:47:369.1Kapplication/octet-stream
20100418135009!Stalin's_line_museum,_ISU-152,_IS-3,_T-55MV,_T-80B,_2S1_Gvozdika,_2S3_Akatsiya_and_2S7_Pion.jpg2010-Mar-20 18:10:58180.5Kimage/jpeg
20100420092431!Two_mitsys_no_reg..jpg2010-Apr-20 09:17:52928.5Kimage/jpeg
20100420092938!Two_mitsys_no_reg..jpg2010-Apr-20 09:24:311.9Mimage/jpeg
20100420212614!Bykle_komm.svg2010-Jan-14 12:47:389.1Kapplication/octet-stream
20100421081945!Grahovčići_zajednica09744.JPG2010-Apr-15 08:51:40418.3Kimage/jpeg
20100421084056!Grahovčići_jezero09700.JPG2010-Apr-21 08:16:59211.4Kimage/jpeg
20100421084436!Grahovčići_zajednica09744.JPG2010-Apr-21 08:19:39418.3Kimage/jpeg
20100421112004!PrudentiusArmentiaGravat.jpg2010-Apr-21 11:11:1471.1Kimage/jpeg
20100421112720!PrudentiusArmentiaGravat.jpg2010-Apr-21 11:20:0470.8Kimage/jpeg
20100422062228!Llanrwst_Lead_Mine_Chimney_-_geograph.org.uk_-_74883.jpg2010-Jan-30 16:47:0260.7Kimage/jpeg
20100422113254!Potok,_Konjevići-Zenica09599.JPG2010-Apr-22 08:55:35523.0Kimage/jpeg
20100422141712!Italy_Star_ribbon.png2010-Apr-16 16:27:044.2Kimage/png
20100422151434!Tigris-Australia_location_Victoria.svg2010-Feb-27 19:26:21522.3Kapplication/octet-stream
20100423140935!Mount_Kosciuszko_-_Landsat_satelite.jpg2009-May-03 15:20:2489.5Kimage/jpeg
20100423153558!Attributed_to_M._Coffermans_Removing_the_Rocks_from_the_Head.jpg2009-Feb-15 12:54:1241.7Kimage/jpeg
20100425070737!Collage_teatri_italiani.jpg2010-Apr-25 04:47:444.7Mimage/jpeg
20100425100553!Provincia_di_Pesaro_e_Urbino.png2010-Apr-21 17:48:09369.1Kimage/png
20100425234952!Brasão_dos_Sousa_do_Prado.png2010-Apr-25 23:23:50602.7Kimage/png
20100426000151!Würzburg_-_Kiliansbrunnen,_frontal_(2010).JPG2010-Apr-25 20:28:423.0Mimage/jpeg
20100426033940!Brasão_dos_Sousa_do_Prado.png2010-Apr-25 23:49:5290.4Kimage/png
20100427064528!Hergensweiler_in_LI.svg2010-Apr-26 15:04:16940.5Kapplication/octet-stream
20100427204849!La_division_de_la_Gaule_en_481.svg2010-Apr-06 21:28:14274.5Kapplication/octet-stream
20100428062545!Hergensweiler_in_LI.svg2010-Apr-27 06:45:21940.6Kapplication/octet-stream
20100428082234!Necklace.jpg2009-Dec-25 13:25:3424.8Kimage/jpeg
20100428174335!Kerimov_Kerim.jpg2010-Apr-12 16:10:3915.4Kimage/jpeg
20100428195944!Provincia_di_Pesaro_e_Urbino.png2010-Apr-25 10:05:54452.3Kimage/png
20100429185630!Palac_Szlenkierow.jpg2010-Apr-06 16:37:0393.7Kimage/jpeg
20100430010914!Hartman.jpg2005-Oct-09 17:06:0523.4Kimage/jpeg
20100430120151!Bad_Kissingen_-_Maxbrunnen,_untere_Brunnen.JPG2010-Apr-30 07:52:184.0Mimage/jpeg
20100502035513!Mane_espriu.jpg2010-May-02 03:53:1012.1Kimage/jpeg
20100502133153!SWE-Map_Kammarrätter.svg2010-May-02 01:48:1740.3Kapplication/octet-stream
20100502161929!SWE-Map_Kammarrätter.svg2010-May-02 13:31:5347.0Kapplication/octet-stream
20100502181617!Cameron_Diaz_by_David_Shankbone.jpg2010-May-02 12:32:4489.3Kimage/jpeg
20100503101119!KRW-JPY_v2.svg2010-Apr-03 04:44:21190.9Kapplication/octet-stream
20100503214557!From_Moscow-City_by_Anton_Nossik_3.jpg2010-Apr-22 16:36:20149.5Kimage/jpeg
20100503223733!Mappa_ferrovie_retiche.svg2009-Jul-16 15:21:0632.8Kapplication/octet-stream
20100503224415!Mappa_ferrovie_retiche.svg2010-May-03 22:37:3329.5Kapplication/octet-stream
20100504001253!Mappa_ferrovie_retiche.svg2010-May-03 22:44:1532.8Kapplication/octet-stream
20100504063554!JPY_Nominal_Effective_Exchange_Rates_(1970-).svg2010-Mar-14 06:41:5820.6Kapplication/octet-stream
20100505001548!Die_Gartenlaube_(1888)_073.jpg2009-Feb-14 09:43:381.6Mimage/jpeg
20100505045038!2007-2009_Mitsubishi_Lancer_(CJ)_ES_sedan_01.jpg2010-May-05 02:29:593.2Mimage/jpeg
20100505120753!Die_Gartenlaube_(1883)_037.jpg2008-Oct-07 19:14:111.6Mimage/jpeg
20100506063728!De-Willi_Ostermann_Stand_2010-03-20_article.ogg2010-May-05 19:54:516.2Mapplication/ogg
20100506172042!Gardiner_Lake_Shore_Don_Bridge.jpg2010-May-05 16:36:382.0Mimage/jpeg
20100506172428!Gardiner_Lake_Shore_Don_Bridge.jpg2010-May-06 17:20:422.7Mimage/jpeg
20100508000724!Die_Gartenlaube_(1873)_328.JPG2008-Aug-24 02:34:533.8Mimage/jpeg
20100508134534!Stuck_truck,_Kunar.JPG2010-May-08 13:42:42245.1Kimage/jpeg
20100509082204!200Lek.jpg2006-Nov-17 10:09:4510.8Kimage/jpeg
20100509082452!200Lek.jpg2010-May-09 08:22:0422.4Kimage/jpeg
20100509134611!Anatomy_grotesque.jpg2006-Sep-23 08:18:44252.7Kimage/jpeg
20100509200651!Karte_Meister-Bundesliga-2.png2009-Aug-13 21:35:05935.9Kimage/png
20100510174320!Waterfalls_Kravica_1,_Bosnia_and_Herzegovina.jpg2007-Sep-23 00:31:39404.3Kimage/jpeg
20100510202609!Baku_metro_plan.png2008-Oct-09 16:14:1584.5Kimage/png
20100510204324!Baku_metro_plan.png2010-May-10 20:26:09158.9Kimage/png
20100510204358!Baku_metro_plan.png2010-May-10 20:43:24103.7Kimage/png
20100510204607!Baku_metro_plan.png2010-May-10 20:43:58158.9Kimage/png
20100510205034!Baku_metro_plan.png2010-May-10 20:46:07103.7Kimage/png
20100511001030!Die_Gartenlaube_(1885)_837.jpg2009-Apr-18 17:40:511.5Mimage/jpeg
20100511072740!Sonangol_building_-_Luanda.jpg2010-May-11 07:23:482.6Mimage/jpeg
20100511093725!日月旗.svg2010-May-11 08:07:391.8Kapplication/octet-stream
20100511120049!Sonangol_building_-_Luanda.jpg2010-May-11 07:27:402.6Mimage/jpeg
20100511144907!Sonangol_building_-_Luanda.jpg2010-May-11 12:00:492.6Mimage/jpeg
20100511223323!Baku_metro_plan.png2010-May-10 20:50:34103.7Kimage/png
20100512020716!SD_102.svg2007-Jan-06 01:34:4524.2Kapplication/octet-stream
20100512132924!Zimbardo.JPG2009-Apr-07 15:41:5456.5Kimage/jpeg
20100512224218!Jay_Street-Borough_Hall.jpg2009-Aug-02 07:03:222.9Mimage/jpeg
20100513005558!Kholais_castle.png2010-May-13 00:51:03488.1Kimage/png
20100513051406!Br-ba-fs.jpg2006-Nov-26 00:58:2119.1Kimage/jpeg
20100515082122!BMP-3M_and_MTU-72_REA_2009.jpg2010-May-15 08:18:27219.0Kimage/jpeg
20100515185848!Crafoordprize_2010-21.jpg2010-May-15 18:58:443.8Mimage/jpeg
20100517011459!Unm_outpatientsurgery.jpg2010-May-09 03:43:09976.4Kimage/jpeg
20100517015724!ISS_components.svg2010-May-17 01:55:02393.8Kapplication/octet-stream
20100517015840!ISS_components.svg2010-May-17 01:57:24398.4Kapplication/octet-stream
20100517024525!ISS_components.svg2010-May-17 01:58:40398.4Kapplication/octet-stream
20100517025231!ISS_components.svg2010-May-17 02:45:23393.7Kapplication/octet-stream
20100517030832!ISS_components.svg2010-May-17 02:52:30567.6Kapplication/octet-stream
20100517155606!Pere_Colom_lesbo_1.jpg2008-Nov-06 13:26:1591.0Kimage/jpeg
20100517205406!ISS_components.svg2010-May-17 03:08:33398.4Kapplication/octet-stream
20100518012611!ISS_components.svg2010-May-17 20:54:06394.4Kapplication/octet-stream
20100518130006!US_and_USSR_nuclear_stockpiles.svg2009-Nov-08 15:31:3026.2Kapplication/octet-stream
20100518145902!Berkheim_in_BC.svg2010-Apr-08 21:09:05646.7Kapplication/octet-stream
20100518215932!PILStudents_visites.svg2010-May-18 21:56:0423.6Kapplication/octet-stream
20100518231220!41ecs-emblem.jpg2009-Feb-20 02:04:1040.7Kimage/jpeg
20100519113711!1984-1986_Holden_JD_Camira_SLX_station_wagon_01.jpg2010-May-19 10:11:533.2Mimage/jpeg
20100519140639!Nonylphenol.png2007-Apr-27 20:50:493.1Kimage/png
20100519171430!Fujikyu-Shonan-M8507.jpg2008-Oct-05 14:52:34338.0Kimage/jpeg
20100521013516!Vieilgril2.JPG2010-May-11 22:25:281.7Mimage/jpeg
20100521095434!Mulhouse_unite_urbaine.png2010-May-20 23:48:2625.5Kimage/png
20100521213838!Iglesia_de_Santa_María_de_Videferre.jpg2010-May-17 21:14:34258.7Kimage/jpeg
20100521232723!Wikipedia-logo-v2-ar.svg2010-May-12 23:38:08383.7Kapplication/octet-stream
20100522061514!Trisha_Yearwood_2010.jpg2010-May-22 01:51:41162.5Kimage/jpeg
20100522073345!NowaMapaS7.svg2010-Feb-05 20:27:1346.3Kapplication/octet-stream
20100522155703!Broad_chain_closeup.jpg2009-Feb-24 16:30:24102.0Kimage/jpeg
20100523014447!Trisha_Yearwood_2010.jpg2010-May-22 06:15:14298.4Kimage/jpeg
20100523151508!NowaMapaS7.svg2010-May-22 07:33:4547.9Kapplication/octet-stream
20100523172841!Bamble_komm.svg2010-Jan-14 10:43:5711.5Kapplication/octet-stream
20100523194841!Flag_of_Vereya_(Moscow_oblast).png2010-May-23 19:28:454.3Kimage/png
20100524070211!Partizanski_spomenik00916.JPG2010-May-24 06:58:05243.8Kimage/jpeg
20100526133400!Jupiter_und_Ganymed_(Mengs).jpg2009-Nov-26 15:58:0729.5Kimage/jpeg
20100527192059!India_Calcutta-Kolkata_2001.png2009-Sep-05 16:34:0644.0Kimage/png
20100530045312!Polymerketten_-_amorph_und_kristallinEN.svg2010-May-30 04:50:027.6Kapplication/octet-stream
20100530052742!Polymerketten_-_amorph_und_kristallinEN.svg2010-May-30 04:53:127.6Kapplication/octet-stream
20100530052859!Polymerketten_-_amorph_und_kristallinEN.svg2010-May-30 05:27:426.9Kapplication/octet-stream
20100530074306!Right_Livelihood_Award_2009-award_ceremony-12.jpg2010-May-30 07:43:004.5Mimage/jpeg
20100531154224!Venn_0000_0100.svg2010-May-31 14:05:306.1Kapplication/octet-stream
20100601121513!Winger_11.jpg2010-Jun-01 10:46:23398.8Kimage/jpeg
20100601181746!Wheelhouse,_communication_and_navigation_systems_of_the_Barend_Biesheuvel.jpg2010-Jun-01 15:54:0568.0Kimage/jpeg
20100601192633!Karte_Gemeinde_Certara_2008.png2008-Apr-26 04:25:22742.1Kimage/png
20100601224628!Fotothek_df_pk_0000168_044_Porträts,_H._Köhnen_Bernard_Koenen,_Olga_Körner,_Eva_Höhn,_Gertrud_Graeser_(Rast.jpg2009-Apr-16 18:53:13124.9Kimage/jpeg
20100602114524!1962-1964_Pontiac_Parisienne_hardtop_02.jpg2010-Jun-02 11:01:143.0Mimage/jpeg
20100603143745!Georgia_1_Loop.svg2006-May-06 20:16:4011.5Kapplication/octet-stream
20100603151537!Georgia_221.svg2006-Jul-07 20:37:0410.6Kapplication/octet-stream
20100603153214!Georgia_3.svg2006-Apr-16 14:40:087.8Kapplication/octet-stream
20100603153905!Trilingual_inscription_of_Xerxes,_Van,_1973.JPG2008-Mar-25 10:58:59264.6Kimage/jpeg
20100603160756!Georgia_72.svg2006-Jun-05 19:29:038.6Kapplication/octet-stream
20100603160834!Trilingual_inscription_of_Xerxes,_Van,_1973.JPG2010-Jun-03 15:39:05703.1Kimage/jpeg
20100604191946!Push-Pull_converter.svg2010-Jun-04 18:46:1031.2Kapplication/octet-stream
20100604200245!Treseburg.jpg2010-Jan-17 12:51:57914.9Kimage/jpeg
20100605053709!KRW-JPY_v2.svg2010-May-03 10:11:19191.6Kapplication/octet-stream
20100605074040!Equinox-first-point-ES.svg2010-Jun-05 05:18:5946.8Kapplication/octet-stream
20100605205208!Andenhausen_in_WAK.png2007-Oct-26 14:06:324.8Kimage/png
20100606152917!Oxford_Advanced_Learner's_Dictionary_of_Current_English.jpg2010-Jun-05 16:15:533.6Mimage/jpeg
20100606154258!FT-17-argonne-1918.gif2005-Oct-27 09:42:5482.1Kimage/gif
20100606165151!Rebaudioside_A.svg2010-Jun-06 14:37:5424.5Kapplication/octet-stream
20100607140942!M87.jpg2010-Apr-02 02:25:523.7Kimage/jpeg
20100607195320!Tropical_Depression_One_26_june_1992_1311Z.jpg2007-Oct-07 21:54:15130.3Kimage/jpeg
20100608072311!Aegyptisches_Museum_Berlin_InvNr20936_20080313_merotische_Keramik_aus_Faras.jpg2008-Mar-24 18:11:451.9Mimage/jpeg
20100609101411!Bismarckturm_Konstanz_01.jpg2010-Jun-09 09:58:5567.5Kimage/jpeg
20100609162505!Viral_Tegument.svg2010-Jun-09 16:22:34243.6Kapplication/octet-stream
20100609164330!Viral_Tegument.svg2010-Jun-09 16:25:05286.9Kapplication/octet-stream
20100609171905!Kłobuck_Śródmieście.jpg2010-May-14 17:29:284.7Mimage/jpeg
20100610142014!Община_Симитли_(България).gif2009-Nov-03 14:33:3923.2Kimage/gif
20100611072441!Verwaltungsgemeinschaft_Krumbach_(Schwaben)_in_GZ.svg2010-Jun-07 09:33:451.1Mapplication/octet-stream
20100611083656!Trier_Porta_Nigra_Platz_5.jpg2010-May-24 11:02:451.9Mimage/jpeg
20100611133416!Brandenburg_Altstädtische_Große_Heidestrasse_47.jpg2010-Jun-11 13:34:08640.0Kimage/jpeg
20100611163058!Cassatt_Mary_At_the_Theater_1879.jpg2005-Jun-13 01:52:5785.7Kimage/jpeg
20100611200627!Rapperswil_-_Altstadt_Hintergasse.JPG2009-Nov-21 23:34:007.1Mimage/jpeg
20100611230037!Viral_Tegument.svg2010-Jun-09 16:43:30286.9Kapplication/octet-stream
20100612120709!Toyota_Corolla_Rumion_002.JPG2010-Jun-12 12:03:52370.1Kimage/jpeg
20100612150034!Viral_Tegument.svg2010-Jun-11 23:00:37294.3Kapplication/octet-stream
20100612162407!Feast_of_the_Gods_Giovanni_Bellini_1514_detail.jpg2010-Jun-12 16:00:32236.1Kimage/jpeg
20100613205503!LocationmapChina3.png2009-Jun-25 23:58:31166.4Kimage/png
20100613213620!R8_und_Ederauenradweg_vor_Frankenberg.jpg2007-Jul-31 15:20:56485.8Kimage/jpeg
20100613224630!Rapperswil_-_HSR_IMG_2600.JPG2009-Nov-01 22:21:057.2Mimage/jpeg
20100614134600!Map_of_comune_of_Bard_(region_Aosta_Valley,_Italy).svg2010-Jun-07 14:32:28138.2Kapplication/octet-stream
20100615123809!Tigris-Australia_location_Victoria.svg2010-Apr-22 15:14:34154.4Kapplication/octet-stream
20100616215841!Plan_de_acción_del_Museo_Arqueológico_Regional_Pereira,_Risaralda._2011-2012.pdf2010-Jun-16 20:14:375.7Mapplication/pdf
20100617125202!Xarxa_Rasa_Fornell.jpg2010-Jun-17 11:40:3818.4Kimage/jpeg
20100617174952!Cosme_San_Martín_-_El_niño_de_la_chaqueta_blanca.jpg2010-Jun-17 16:51:1310.9Kimage/jpeg
20100617222947!Bundesarchiv_Bild_146-2008-0197,_Friedrich_Beckh.jpg2008-Dec-12 22:21:3954.9Kimage/jpeg
20100617224058!Plan_de_acción_del_Museo_Arqueológico_Regional_Pereira,_Risaralda._2011-2012.pdf2010-Jun-16 21:58:415.7Mapplication/pdf
20100618045352!Wappen_Landkreis_Potsdam-Mittelmark.png2008-Jan-17 19:35:199.7Kimage/png
20100618201937!Reinshtein.jpg2009-Apr-18 14:49:4370.1Kimage/jpeg
20100619101400!Trstenik-01133.JPG2010-Jun-19 10:10:38278.6Kimage/jpeg
20100619191201!The_Scott_Monument,_Edinburgh_-_DSC06182.JPG2010-Jun-15 21:10:343.4Mimage/jpeg
20100620011433!Yates_City_tornado_June_5,_2010.JPG2010-Jun-20 01:10:0174.0Kimage/jpeg
20100620121854!ResLazGrp_7319.png2010-Apr-02 15:04:41167.9Kimage/png
20100620141607!Evenes_komm.svg2010-Jan-15 08:46:299.2Kapplication/octet-stream
20100620162933!Female_leonardo.jpg2009-Aug-26 15:00:43207.1Kimage/jpeg
20100620170118!Female_leonardo.jpg2010-Jun-20 16:29:33185.2Kimage/jpeg
20100621030324!DesulfScope4.png2010-Jun-21 03:00:4012.2Kimage/png
20100621164714!J-2_rocket_engine.jpg2009-Aug-21 03:05:03678.8Kimage/jpeg
20100621175509!Tatai_Vadlúd_Sokadalom.jpg2010-Mar-28 21:07:44453.8Kimage/jpeg
20100621195104!Paul_W_Tibbets_USAF_bio_photo.jpg2007-Nov-04 15:58:5027.8Kimage/jpeg
20100622002441!Santa_Maria_di_Galeria.png2010-Jun-21 16:58:27554.6Kimage/png
20100622105657!POL_województwo_lubelskie_1946.svg2007-Jun-27 11:26:4951.6Kapplication/octet-stream
20100622111935!Zack-Malin-ComicCon.jpg2010-Jun-21 15:04:59866.1Kimage/jpeg
20100622164843!A_bounty_leaflect_prepared_by_the_USA_for_use_in_Afghanistan_(front)_-a.jpg2010-Jun-22 16:41:5111.0Kimage/jpeg
20100623061336!UK-Motorway-M898.svg2007-Jun-11 22:52:5711.3Kapplication/octet-stream
20100623110916!Benin_brass_plaque_01.jpg2009-Mar-19 17:26:372.1Mimage/jpeg
20100623170536!1850_CustomHouse_HinghamPacket_Boston_MFABoston.png2009-Oct-21 10:56:17369.1Kimage/png
20100624014429!Habsburg_Admiral’s_Flag_(1853).svg2008-Jul-15 19:03:2327.5Kapplication/octet-stream
20100625161931!Kapela.JPG2010-Jan-20 16:20:1470.7Kimage/jpeg
20100625204008!Muntii_Dobrogei_-_Harta_topografica.jpg2010-Jun-25 20:32:563.0Mimage/jpeg
20100626144234!Berlin_kammergericht.jpg2006-May-15 00:43:56179.4Kimage/jpeg
20100627141616!Caran_d'Ache_BICOLOR_without_shadow.jpg2010-Jun-27 14:13:571.3Mimage/jpeg
20100628100715!Division_of_Hinkler_2010.png2010-Jun-28 09:00:5324.4Kimage/png
20100629131007!Fiat_Tipo_5door.jpg2009-Dec-08 15:37:57168.6Kimage/jpeg
20100630002255!HKRedScope6.png2010-Jun-23 18:33:1022.2Kimage/png
20100630174834!Wikipedia-logo-v2-ar.svg2010-May-21 23:27:23250.2Kapplication/octet-stream
20100630233655!Tai_30.svg2010-Apr-19 11:16:08183.4Kapplication/octet-stream
20100630233720!Tai_3乙.svg2010-Apr-23 10:20:5543.7Kapplication/octet-stream
20100701142426!Genbudo_Museum_in_Genbudo_Park_Toyooka_Hyogo.JPG2009-Dec-21 13:52:072.2Mimage/jpeg
20100701221812!Raeren_coat_of_arms.svg2007-Aug-01 22:30:111.1Mapplication/octet-stream
20100702055102!Homestake_works_mine_1889.jpg2006-Aug-21 01:56:32289.3Kimage/jpeg
20100702142536!50ieme_fetes_a_jean.jpg2010-Jul-02 14:24:213.6Mimage/jpeg
20100703001535!Hamdanid_Dynasty_890_-_1004_(AD).PNG2009-Apr-01 19:56:5135.1Kimage/png
20100704043417!Berner_Aargau.png2009-Jun-01 14:24:20397.3Kimage/png
20100704134505!Charadrius_morinellus_male_with_chicks.jpg2006-May-15 10:50:54635.2Kimage/jpeg
20100704135243!Charadrius_morinellus_male.jpg2006-May-15 14:59:28209.1Kimage/jpeg
20100705085418!VassilTchekalaroffBGrevolutionary.jpg2007-Nov-22 18:31:43266.9Kimage/jpeg
20100705235745!Dendropsophus_microps02a.jpg2009-Mar-18 09:05:1932.3Kimage/jpeg
20100706000249!El_hombre_y_la_maquina.jpg2008-Nov-29 05:15:081.7Mimage/jpeg
20100706173150!Kolumbianischer_Präsident_Alvaro_Uribe_2004.jpg2008-Feb-15 20:10:301.1Mimage/jpeg
20100707070431!פולין_006.jpg2007-Jul-14 18:03:54381.5Kimage/jpeg
20100709104213!Vitracsv_eg1.JPG2010-Apr-04 08:24:17254.9Kimage/jpeg
20100709222458!Sprachenkarte_Deutschland1880.png2009-Nov-04 18:45:19398.7Kimage/png
20100710033901!Martinsville_track_map.svg2010-Jul-10 03:36:2546.9Kapplication/octet-stream
20100710040528!Martinsville_track_map.svg2010-Jul-10 03:39:0146.9Kapplication/octet-stream
20100710041017!Martinsville_track_map.svg2010-Jul-10 04:05:2846.9Kapplication/octet-stream
20100710042000!Martinsville_track_map.svg2010-Jul-10 04:10:1761.0Kapplication/octet-stream
20100710042023!Martinsville_track_map.svg2010-Jul-10 04:20:0056.9Kapplication/octet-stream
20100710042303!Martinsville_track_map.svg2010-Jul-10 04:20:2346.9Kapplication/octet-stream
20100710042520!Martinsville_track_map.svg2010-Jul-10 04:23:0334.1Kapplication/octet-stream
20100710110118!OrigamiCrane.ogv2010-Jul-10 10:18:285.7Mapplication/octet-stream
20100711141531!2009-2010_Audi_Q5_(8R)_2.0_TFSI_quattro_wagon_03.jpg2010-Jul-11 09:09:393.9Mimage/jpeg
20100712015625!28-090504-black-headed-bunting-at-first-layby_edit.jpg2010-Jul-12 01:51:461.6Mimage/jpeg
20100712015836!28-090504-black-headed-bunting-at-first-layby_edit.jpg2010-Jul-12 01:56:252.0Mimage/jpeg
20100712015950!28-090504-black-headed-bunting-at-first-layby_edit.jpg2010-Jul-12 01:58:36478.6Kimage/jpeg
20100712020152!28-090504-black-headed-bunting-at-first-layby_edit.jpg2010-Jul-12 01:59:50476.1Kimage/jpeg
20100712020513!28-090504-black-headed-bunting-at-first-layby_edit.jpg2010-Jul-12 02:01:521.6Mimage/jpeg
20100712021303!Louis_Joseph_de_Bourbon-Condé_cartoon_1791.jpg2007-Nov-26 12:12:55549.3Kimage/jpeg
20100712165723!Arquebusier_Le_Page_par_Coeuré.jpg2010-Jul-12 16:50:1299.5Kimage/jpeg
20100713195755!Ostrava_cathedral.jpg2010-Jul-13 19:50:34245.2Kimage/jpeg
20100713204530!Japanese_Type_90_Tank_-_2.jpg2009-Sep-20 12:44:311.2Mimage/jpeg
20100714121830!Mappa_ferrovie_retiche.svg2010-May-04 00:12:5332.8Kapplication/octet-stream
20100714130820!Mappa_ferrovie_retiche.svg2010-Jul-14 12:18:3035.9Kapplication/octet-stream
20100714133240!Mappa_ferrovie_retiche.svg2010-Jul-14 13:08:2032.3Kapplication/octet-stream
20100714133415!Mappa_ferrovie_retiche.svg2010-Jul-14 13:32:4133.4Kapplication/octet-stream
20100715144228!F1010021.jpg2007-Jun-23 18:15:47818.7Kimage/jpeg
20100716024702!OldRockSchool.jpg2010-Jul-16 02:35:013.1Mimage/jpeg
20100716101004!USS_Fulton_(1837).jpg2010-Jul-16 09:58:28107.5Kimage/jpeg
20100716105502!Iaşi_,_Romanian_Literature_Museum_(House_Pogor).JPG2010-Jul-14 01:23:122.2Mimage/jpeg
20100716120312!Peace-Arch-3614_edit.jpg2010-Jul-15 22:53:491.5Mimage/jpeg
20100716121538!Peace-Arch-3614_edit.jpg2010-Jul-16 12:03:121.2Mimage/jpeg
20100717081950!Cymbiola_nobilis_01.jpg2010-Jul-17 06:34:163.1Mimage/jpeg
20100718150125!Cymbiola_nobilis_01.jpg2010-Jul-17 08:19:503.0Mimage/jpeg
20100718195415!OxoamMech1.png2010-Jun-10 15:21:3417.1Kimage/png
20100719120633!Vallee-Musculdy-Osquich.jpg2008-Mar-09 10:12:14651.6Kimage/jpeg
20100719155619!Yates_City_tornado_June_5,_2010.JPG2010-Jun-20 01:14:3349.5Kimage/jpeg
20100719175311!Kit_left_arm_benfica1011a.png2010-Jul-18 12:21:460.4Kimage/png
20100719212846!Royal_Wedding_Stockholm_2010-Konserthuset-350.jpg2010-Jul-19 21:28:405.0Mimage/jpeg
20100719214538!Royal_Wedding_Stockholm_2010-Konserthuset-409.jpg2010-Jul-19 21:45:344.9Mimage/jpeg
20100720013432!Kit_left_arm_benfica1011a.png2010-Jul-19 17:53:110.3Kimage/png
20100720081610!1.3.1_Однопутная_железная_дорога.svg2010-Jul-20 08:14:483.5Kapplication/octet-stream
20100720155650!USA_Hendry_County,_Florida_age_pyramid.svg2006-Jun-26 19:51:529.1Kapplication/octet-stream
20100720155750!USA_Orange_County,_Florida_age_pyramid.svg2006-Jun-26 19:55:268.5Kapplication/octet-stream
20100720160005!USA_Tipton_County,_Indiana_age_pyramid.svg2006-Jun-28 14:17:448.4Kapplication/octet-stream
20100720160729!USA_Powder_River_County,_Montana_age_pyramid.svg2006-Jun-28 21:15:188.4Kapplication/octet-stream
20100720164208!USA_Roberts_County,_South_Dakota_age_pyramid.svg2006-Jul-20 11:56:568.4Kapplication/octet-stream
20100720165004!USA_Coleman_County,_Texas_age_pyramid.svg2006-Jul-20 12:03:518.4Kapplication/octet-stream
20100720165814!USA_Stonewall_County,_Texas_age_pyramid.svg2006-Jul-20 12:11:378.4Kapplication/octet-stream
20100720190221!Polythiophenes_3mt.png2007-Mar-25 17:39:091.0Kimage/png
20100720203900!USA_Putnam_County,_West_Virginia_age_pyramid.svg2006-Jul-21 16:47:448.5Kapplication/octet-stream
20100721054740!Konstanz_Stephan.jpg2007-Jan-27 11:17:171.4Mimage/jpeg
20100721091137!'The_Young_Sophocles_Leading_the_Chorus_of_Victory_after_the_Battle_of_Salamis',_sculpture_by_John_Talbott_Donoghue_c._1889.jpg2007-Jun-27 09:49:1715.5Kimage/jpeg
20100721123538!Reilly_0002.jpg2010-Apr-26 06:53:30434.7Kimage/jpeg
20100722120845!Hajnowka_Sobor_sw_Trojcy_dachy.jpg2009-Jul-21 20:23:062.6Mimage/jpeg
20100722230715!Anser_cygnoides_QiQiHaEr.jpg2009-Dec-22 01:34:02326.3Kimage/jpeg
20100723175252!Chlamydoselachus_anguineus1.jpg2010-Jul-04 22:40:44953.6Kimage/jpeg
20100724090344!1991-1996_Toyota_4Runner_(LN130R)_wagon_01.jpg2010-Jul-24 05:12:145.0Mimage/jpeg
20100724213432!Army_France_OF6.png2010-Jul-24 09:51:3310.3Kimage/png
20100724230425!Manzana_ISPE.png2010-Jul-24 22:58:4215.7Kimage/png
20100724230442!Manzana_ISPE.png2010-Jul-24 23:04:2515.7Kimage/png
20100726062710!Church_of_the_Saviour_at_Berestove_(Side_view).jpg2006-Nov-24 23:01:57118.2Kimage/jpeg
20100726081712!Karte_Gemeinde_Guntmadingen_2010.png2010-May-02 16:07:32287.2Kimage/png
20100726114753!Mappa_ferrovie_retiche.svg2010-Jul-14 13:34:1533.6Kapplication/octet-stream
20100726132607!Demy_de_Zeeuw.jpg2010-Jul-26 13:24:58379.3Kimage/jpeg
20100726191252!Gypse_Caresse.jpg2009-Nov-22 09:49:044.3Mimage/jpeg
20100727124118!Frombork_015.jpg2010-Jul-27 12:11:451.9Mimage/jpeg
20100727175608!Breukelen.svg2010-Jul-27 17:48:55119.9Kapplication/octet-stream
20100730014249!King_Constantine.jpg2010-Jul-30 01:39:2439.5Kimage/jpeg
20100730014354!King_Constantine.jpg2010-Jul-30 01:42:4939.5Kimage/jpeg
20100730014358!King_Constantine.jpg2010-Jul-30 01:43:54306.4Kimage/jpeg
20100730062849!Dani_Pedrosa_2010_Assen.jpg2010-Jul-30 06:28:21144.7Kimage/jpeg
20100730111051!2,3-Diiodophenol.svg2010-Jul-30 09:46:224.5Kapplication/octet-stream
20100730111146!2,3-Diiodophenol.svg2010-Jul-30 11:10:514.5Kapplication/octet-stream
20100730125949!Bircatrampanoramic.JPG2009-Oct-24 10:49:281.1Mimage/jpeg
20100730130029!Bircatrampanoramic.JPG2010-Jul-30 12:59:501.4Mimage/jpeg
20100730150346!UTV-isotype.svg2010-Jul-28 23:25:0624.2Kapplication/octet-stream
20100730151325!UTV-isotype.svg2010-Jul-30 15:03:4627.4Kapplication/octet-stream
20100730155231!Bln_Siegessäule1.jpg2005-Dec-16 14:28:29215.3Kimage/jpeg
20100801091628!Brandon_Routh_2.jpg2010-Aug-01 08:55:15118.2Kimage/jpeg
20100802104334!2bsumsd.jpg2009-Aug-26 20:10:5266.5Kimage/jpeg
20100802134526!Hamada_Sarita.jpg2010-Aug-02 12:14:52283.0Kimage/jpeg
20100802201850!Fotothek_df_ld_0003052_001_Bauernhof_^_Bäume.jpg2009-Oct-01 10:31:15243.9Kimage/jpeg
20100803153702!Archimedes_Heat_Ray_conceptual_diagram-es.svg2010-Aug-03 14:54:37181.3Kapplication/octet-stream
20100803161820!Archimedes_Heat_Ray_conceptual_diagram-es.svg2010-Aug-03 15:37:02181.3Kapplication/octet-stream
20100803173531!Archimedes_Heat_Ray_conceptual_diagram-es.svg2010-Aug-03 16:18:1285.2Kapplication/octet-stream
20100803204700!Kit_left_arm_benfica1011a.png2010-Jul-20 01:34:320.4Kimage/png
20100804120554!Eye_movements_abductors.jpg2006-Dec-27 17:06:41504.0Kimage/jpeg
20100804230534!Kit_left_arm_benfica1011a.png2010-Aug-03 20:47:000.3Kimage/png
20100805163213!Homestake_works_mine_1889.jpg2010-Jul-02 05:51:022.1Mimage/jpeg
20100806043644!TW_THWtn148.svg2010-Aug-06 02:11:482.7Kapplication/octet-stream
20100806071304!EmbassySuitesHotel-Jul2010.JPG2010-Aug-06 06:40:311.7Mimage/jpeg
20100807153651!Kakutsa_shepitsulebi.jpg2008-May-21 02:03:14329.9Kimage/jpeg
20100808063126!KRW-JPY_v2.svg2010-Jun-05 05:37:09192.6Kapplication/octet-stream
20100809173243!Blagoevgrad_Province_location_map.svg2009-Aug-03 19:31:21206.7Kapplication/octet-stream
20100811000042!Barbarakraut-IMG_2402.JPG2008-May-04 20:20:576.9Mimage/jpeg
20100811145502!Eindhoven_wapen.svg2010-Aug-11 14:46:52324.5Kapplication/octet-stream
20100811193600!KFZ-Zulassungsplakette_des_Landkreises_Mecklenburg-Strelitz,_Mecklenburg-Vorpommern.png2010-May-26 15:45:431.9Mimage/png
20100811234106!Kit_body_atlas1011h.png2010-Aug-11 19:45:370.3Kimage/png
20100812024823!JPY_Nominal_Effective_Exchange_Rates_(1970-).svg2010-May-04 06:35:5420.7Kapplication/octet-stream
20100812150105!Kit_body_atlas1011h.png2010-Aug-11 23:41:062.9Kimage/png
20100812151237!Kit_left_arm_benfica1011a.png2010-Aug-04 23:05:340.4Kimage/png
20100813002911!Dihydrofolic_acid.svg2007-Mar-10 19:06:0113.6Kapplication/octet-stream
20100813003115!Dihydrofolic_acid.svg2010-Aug-13 00:29:114.8Kapplication/octet-stream
20100813154959!FrancisDeGastonChevalierDeLevis.png2010-Jan-30 23:11:25331.6Kimage/png
20100813155138!FrancisDeGastonChevalierDeLevis.png2010-Aug-13 15:49:59139.0Kimage/png
20100813170737!Kit_left_arm_benfica1011a.png2010-Aug-12 15:12:370.3Kimage/png
20100814160747!Geometria_Deutsch_05_Detail.jpg2009-Jul-16 05:37:0120.4Kimage/jpeg
20100815005753!Beaker_(cup).jpg2009-Apr-03 18:16:58124.4Kimage/jpeg
20100815232058!Burg_Wissem.JPG2006-Apr-23 15:14:37117.8Kimage/jpeg
20100817052048!RO_Roadsign_17B.svg2009-Feb-01 02:18:386.5Kapplication/octet-stream
20100817053735!CambridgeTower-2010-08-b.JPG2010-Aug-17 05:16:202.2Mimage/jpeg
20100817054049!CambridgeTower-2010-08-b.JPG2010-Aug-17 05:37:352.2Mimage/jpeg
20100818183236!Kit_shorts_ita10a.png2010-Jul-22 07:23:120.5Kimage/png
20100819103705!Sun-above-cloud.JPG2010-Aug-19 10:32:0411.2Kimage/jpeg
20100819103729!Sun-above-cloud.JPG2010-Aug-19 10:37:0510.7Kimage/jpeg
20100819125557!FRG_map_Flag.png2008-Sep-01 00:13:1624.7Kimage/png
20100819125658!FRG_map_Flag.png2010-Aug-19 12:55:3210.4Kimage/png
20100819202226!Commuting_to_Work.jpg2005-Oct-02 22:35:42398.2Kimage/jpeg
20100820182230!Kit_left_arm_benfica1011a.png2010-Aug-13 17:07:370.4Kimage/png
20100820201627!Brandon_Jones_at_49ers_training_camp_2010-08-11.JPG2010-Aug-20 19:52:19529.7Kimage/jpeg
20100821021520!Law_Kar-ying_2007.jpg2010-Aug-21 02:14:43399.4Kimage/jpeg
20100821234945!Kaldari_Zygoballus_rufipes_05.jpg2010-Aug-21 23:28:241.0Mimage/jpeg
20100822155910!Calvin-cycle4_ru.svg2010-Aug-22 15:53:3476.1Kapplication/octet-stream
20100822182042!Symbole_Uzumaki.svg2010-Aug-22 17:39:083.1Kapplication/octet-stream
20100823203831!WOSM-WAGGGS-Africa_Region.svg2008-Feb-01 04:34:311.9Mapplication/octet-stream
20100823220021!Comarca_de_la_Costa_Tropical.svg2007-Nov-01 23:15:47300.1Kapplication/octet-stream
20100824142553!Strindbergmuseet_april_2008.jpg2008-Apr-20 12:22:27393.6Kimage/jpeg
20100825063352!Kit_body_atlas1011h.png2010-Aug-12 15:01:050.3Kimage/png
20100825114207!Kit_body_atlas1011h.png2010-Aug-25 06:33:522.9Kimage/png
20100825180351!Železniční_muzeum_Výtopna_Jaroměř_(08).jpg2010-Aug-25 14:48:261.5Mimage/jpeg
20100825195754!Kit_body_atlas1011h.png2010-Aug-25 11:42:070.3Kimage/png
20100825201026!Italian_traffic_signs_-_icona_carabinieri.svg2010-Aug-19 16:48:524.2Kapplication/octet-stream
20100826160125!Kit_body_atlas1011h.png2010-Aug-25 19:57:542.9Kimage/png
20100827173611!Mackinac_Bridge-2.jpg2010-Aug-27 16:49:14281.6Kimage/jpeg
20100828135346!Rudozem-Chepinska_reka.JPG2010-Jun-13 08:44:251.2Mimage/jpeg
20100828150624!TE-Collage_Boston.png2010-May-21 09:06:303.6Mimage/png
20100828153355!Fiat_Argenta1.jpg2010-Apr-10 14:07:32467.0Kimage/jpeg
20100828153553!Fiat_Argenta1.jpg2010-Aug-28 15:33:55232.7Kimage/jpeg
20100828161537!Boenisch2.jpg2010-Aug-28 16:07:01201.8Kimage/jpeg
20100828224458!Letenské_sady,_dočasná_komunikace,_u_Špejcharu.jpg2010-Aug-28 22:36:311.5Mimage/jpeg
20100829132038!Gewoelbe_inschrift.org.jpg2010-Aug-29 13:06:11664.8Kimage/jpeg
20100829132441!Gewoelbe_inschrift.org.jpg2010-Aug-29 13:20:3873.9Kimage/jpeg
20100830011304!Alstom_A96_-_Frota_G_do_Metrô_de_São_Paulo_-_Visão_Interna.jpg2010-May-20 20:46:542.8Mimage/jpeg
20100830110720!Map_-_IT_-_Benevento_-_Telese_Terme.svg2010-Aug-29 20:49:43553.3Kapplication/octet-stream
20100830214240!Colonel_Joseph_Boissin.jpg2010-Aug-30 19:52:19607.6Kimage/jpeg
20100831064052!Singular-Value-Decomposition.svg2010-Aug-30 22:39:2215.0Kapplication/octet-stream
20100831115517!三江線探索2_109.jpg2010-Aug-31 11:30:04225.4Kimage/jpeg
20100902123021!Estonia_municipalities.png2008-Mar-24 13:40:0775.5Kimage/png
20100902200609!Trafford_park_railway.jpg2010-Sep-02 14:21:561.8Mimage/jpeg
20100903100729!FSALn990.jpg2008-Apr-13 16:56:13155.0Kimage/jpeg
20100903161309!Naphthalene.svg2008-Apr-21 23:04:325.0Kapplication/octet-stream
20100903235351!Singer.Model27.shuttles.8227.jpg2010-Sep-03 23:46:4311.0Kimage/jpeg
20100904203048!NowaMapaS7.svg2010-May-23 15:15:0848.4Kapplication/octet-stream
20100905072219!KRW-JPY_v2.svg2010-Aug-08 06:31:26194.1Kapplication/octet-stream
20100905141731!Le_Tour_du_monde_-_03.djvu2009-Jan-28 12:43:4239.9Mapplication/octet-stream
20100905142042!China-Today_oil_reserves_and_demand-en.svg2009-Jun-11 17:02:232.3Mapplication/octet-stream
20100905142344!China-Today_oil_reserves_and_demand-en.svg2010-Sep-05 14:20:4226.3Kapplication/octet-stream
20100905222101!ZSG_-_Panta_Rhei_-_Zürich_Bürkliplatz_2010-08-11_21-56-46_02.JPG2010-Aug-11 23:31:462.9Mimage/jpeg
20100906001400!China-Today_oil_reserves_and_demand-en.svg2010-Sep-05 14:23:44526.0Kapplication/octet-stream
20100906004027!Balaur_bondoc.jpg2010-Sep-01 09:55:3298.3Kimage/jpeg
20100906123807!Methylpropanale.png2010-Sep-05 10:34:498.6Kimage/png
20100906124213!Zschornewitz_in_WB.svg2009-Jul-31 21:24:332.7Mapplication/octet-stream
20100908045856!Toolbaricon_italic_C.png2009-Dec-08 15:43:560.5Kimage/png
20100908120512!05_Uetersen_Bestätigungsurkunde_1285.jpg2008-Nov-24 16:45:43225.7Kimage/jpeg
20100908130924!Men_destroying_coffer_dam_crib,_Victoria_Bridge,_Montreal,_QC,_1859.jpg2010-Aug-29 09:22:23362.3Kimage/jpeg
20100908184344!Mathew_Street_Festival_2010_-_DSC09071.JPG2010-Sep-06 10:36:203.5Mimage/jpeg
20100909013303!Franklin_Township_map.png2010-Sep-09 00:47:071.2Mimage/png
20100909062325!2bsumsd.jpg2010-Aug-02 10:43:3465.7Kimage/jpeg
20100909111432!WikiProject_Scouting_uniform_template_male_background.svg2010-Sep-09 10:36:4269.2Kapplication/octet-stream
20100909112649!WikiProject_Scouting_uniform_template_male_background.svg2010-Sep-09 11:14:3289.4Kapplication/octet-stream
20100909113336!WikiProject_Scouting_uniform_template_male_background.svg2010-Sep-09 11:26:4989.5Kapplication/octet-stream
20100909123659!WikiProject_Scouting_uniform_template_male_background.svg2010-Sep-09 11:33:3787.6Kapplication/octet-stream
20100909192025!Franklin_Township_map.png2010-Sep-09 01:33:031.2Mimage/png
20100910141149!WikiProject_Scouting_uniform_template_male_background.svg2010-Sep-09 12:36:5996.2Kapplication/octet-stream
20100910142822!WikiProject_Scouting_uniform_template_male_background.svg2010-Sep-10 14:11:49103.8Kapplication/octet-stream
20100910143254!WikiProject_Scouting_uniform_template_male_background.svg2010-Sep-10 14:28:22101.5Kapplication/octet-stream
20100910163653!Zigarettenfilter_benutzt.jpg2009-May-18 07:31:032.3Kimage/jpeg
20100911083118!Slovakia_Sariska_highlands_161.jpg2007-Aug-25 18:19:091.1Mimage/jpeg
20100911101521!Kozijn_aanzicht_001.svg2008-Mar-17 14:39:357.1Kapplication/octet-stream
20100911221653!Santiago_de_Chile_L4.svg2006-Nov-06 08:50:530.9Kapplication/octet-stream
20100912015951!Logitech_Cordless_Action_Controller_+_Dongle.jpg2010-Sep-12 01:51:18847.2Kimage/jpeg
20100912185943!Zürich_-_Enge_-_Hafen_-_Clubhaus_IMG_1895.JPG2009-Mar-13 23:16:151.6Mimage/jpeg
20100913201959!Joe_Doering.jpg2010-Sep-13 20:03:18447.2Kimage/jpeg
20100913204726!PlayStation-with-DualShock.png2010-Sep-13 20:37:003.8Mimage/png
20100915204406!Robert_Devereux_Earl_of_Essex_22_Hilliard.jpg2010-Aug-28 20:01:5956.3Kimage/jpeg
20100916093832!Copenhagen_Kongens_Nytorv.jpg2005-Jun-28 21:37:02544.4Kimage/jpeg
20100916112916!Hotan_mcp.png2010-Apr-09 21:45:2329.8Kimage/png
20100916160128!Jabiru_mycteria_-Parque_das_Aves,_Foz_do_Iguacu,_Brazil_-back-8a.jpg2010-Sep-16 15:55:08233.7Kimage/jpeg
20100917101701!Maclean_of_Duart_and_Morven_arms.svg2009-Nov-14 11:50:36134.2Kapplication/octet-stream
20100918072606!JPY_Nominal_Effective_Exchange_Rates_(1970-).svg2010-Aug-12 02:48:2320.8Kapplication/octet-stream
20100918104713!Acacia_dealbata_leaves.JPG2010-Sep-18 10:21:043.1Mimage/jpeg
20100918121111!Châteauroux_-_Église_Saint-André.jpg2010-Sep-17 11:36:00790.9Kimage/jpeg
20100918214151!Location_European_monarchies.svg2008-Nov-26 01:30:18666.8Kapplication/octet-stream
20100918232342!Radium226.jpg2010-Sep-18 21:06:59303.9Kimage/jpeg
20100919023210!UTV-isotype.svg2010-Jul-30 15:13:2514.4Kapplication/octet-stream
20100919201350!U-Bahn_Wien_Eröffnungen.gif2010-Sep-19 16:54:511.5Mimage/gif
20100920155012!U-Bahn_Wien_Eröffnungen.gif2010-Sep-19 20:13:501.3Mimage/gif
20100920183809!Gundremmingen_Nuclear_Power_Plant.jpg2008-Aug-03 15:45:391.8Mimage/jpeg
20100920220032!SBB_RBDe_560_Train_des_Vignes.jpg2010-Sep-19 20:16:083.1Mimage/jpeg
20100921141527!Mekong_vehicle_ferry_-b.jpg2010-Sep-21 13:19:10280.6Kimage/jpeg
20100921165244!Major_greenhouse_gas_trends.png2005-Apr-29 01:51:5957.1Kimage/png
20100922200728!Xarxa_Rasa_Fornell.jpg2010-Jun-17 12:52:0219.5Kimage/jpeg
20100923131908!Pielnia_-_mapa_(1852).jpg2010-Mar-21 16:01:582.8Mimage/jpeg
20100923141530!Strike_fighter_clasp_luftwaffe.jpg2010-Sep-23 00:16:5190.0Kimage/jpeg
20100924173314!Felix_Burgel_WEGSTEIN.jpg2010-Sep-24 12:47:08904.0Kimage/jpeg
20100925102640!Europe_map_1648.png2009-Oct-07 11:33:49193.3Kimage/png
20100925174422!OAMünsingen019.png2010-Sep-25 11:06:52194.7Kimage/png
20100925175817!Santiago_de_Chile_L4.svg2010-Sep-11 22:16:532.9Kapplication/octet-stream
20100925192426!Yacht_Ecstasea_14.jpg2009-Nov-27 08:37:172.9Mimage/jpeg
20100926103558!Yacht_Eminence_20.jpg2009-Nov-26 10:36:053.1Mimage/jpeg
20100926112541!Katharinenrieth_in_Allstedt.svg2010-Sep-11 11:42:07105.3Kapplication/octet-stream
20100926195605!Werktuigendagen_2007_m.jpg2010-Mar-29 17:05:52478.1Kimage/jpeg
20100927230350!Wackershofen_Winterstimmung.jpg2007-Dec-20 15:27:24740.5Kimage/jpeg
20100928210359!Paolonutiniradio.jpg2009-Nov-16 17:23:05108.0Kimage/jpeg
20100929102747!Ryuumonsanchi20100929a.JPG2010-Sep-29 09:20:2688.4Kimage/jpeg
20100930133855!Sendantodoro_Falls.jpg2010-Sep-30 13:28:17769.9Kimage/jpeg
20100930183408!SAR_Class_5E1_Series_1_E461.JPG2010-Aug-28 20:25:351.0Mimage/jpeg
20101001000031!Amsterdam_-_Prinsengracht_331.JPG2010-Sep-30 19:35:544.7Mimage/jpeg
20101001135217!Ryuumonsanchi20100929a.JPG2010-Sep-29 10:27:47180.7Kimage/jpeg
20101002185121!U-Bahn_Wien_Eröffnungen.gif2010-Sep-20 15:50:121.3Mimage/gif
20101002225356!NIE_Mullets_and_Allies.jpg2010-Aug-04 22:11:16195.2Kimage/jpeg
20101003041556!Manuel_María_Lombardini.PNG2010-Jan-25 22:34:45571.6Kimage/png
20101003112253!ENC_1-0059.jpg2010-Oct-03 11:16:49585.0Kimage/jpeg
20101003112739!ENC_1-0059.jpg2010-Oct-03 11:22:53585.0Kimage/jpeg
20101004015654!Basílica_Desemparats_València_cúpula_interior.JPG2009-Nov-25 00:01:572.2Mimage/jpeg
20101004143429!Samtgemeinde_Eilsen_in_SHG.svg2009-Jul-06 14:10:432.0Mapplication/octet-stream
20101004211607!Lamborghini_Sesto_Elemento.jpg2010-Oct-04 21:12:282.2Mimage/jpeg
20101006074631!Flag_of_county_Offaly.svg2012-Nov-27 09:14:413.2Kapplication/octet-stream
20101006132948!KRW-JPY_v2.svg2010-Sep-05 07:22:19194.9Kapplication/octet-stream
20101008051140!L4lo.gif2005-Oct-01 03:14:0910.8Kimage/gif
20101008171756!Blagoevgrad_Province_location_map.svg2010-Aug-09 17:32:43206.8Kapplication/octet-stream
20101009182526!Vendel_era_helmet_(942).jpg2009-Apr-21 12:24:35487.7Kimage/jpeg
20101010153928!NowaMapaS7.svg2010-Sep-04 20:30:4848.8Kapplication/octet-stream
20101011121754!Elfviks_gård_1928.jpg2009-Nov-20 08:58:07692.8Kimage/jpeg
20101011174543!La_Revue_blanche,_t27,_1902.djvu2010-Jun-09 13:14:5729.4Mapplication/octet-stream
20101012103318!20100825_hyundai_elantra_1.jpg2010-Aug-25 18:59:24439.2Kimage/jpeg
20101012222811!Buber_Haus,_Heppenheim_ad_Bergstrasse_Deutschland.JPG2010-Oct-12 22:13:243.1Mimage/jpeg
20101013184434!Calicheamicin_Glycosidteil_gamma(1)I.svg2010-Oct-13 18:42:4391.8Kapplication/octet-stream
20101017052102!Sven-Eric_Liedman.jpg2010-Oct-16 07:17:39553.2Kimage/jpeg
20101017142413!Rakow_ambulance_P1000631.jpg2009-Aug-31 22:38:47273.2Kimage/jpeg
20101018153647!Circuit_Implied_by_Balanced_Transmission_Line_Equations.jpg2010-Oct-07 01:28:43461.8Kimage/jpeg
20101018153911!Circuit_Implied_by_Balanced_Transmission_Line_Equations.jpg2010-Oct-18 15:36:47879.1Kimage/jpeg
20101018154214!Circuit_Implied_by_Balanced_Transmission_Line_Equations.jpg2010-Oct-18 15:39:11879.1Kimage/jpeg
20101018154611!Circuit_Implied_by_Balanced_Transmission_Line_Equations.jpg2010-Oct-18 15:42:14879.1Kimage/jpeg
20101018154822!Circuit_Implied_by_Balanced_Transmission_Line_Equations.jpg2010-Oct-18 15:46:11879.1Kimage/jpeg
20101018155220!Circuit_Implied_by_Balanced_Transmission_Line_Equations.jpg2010-Oct-18 15:48:22879.1Kimage/jpeg
20101018155252!Circuit_Implied_by_Balanced_Transmission_Line_Equations.jpg2010-Oct-18 15:52:20879.1Kimage/jpeg
20101018155503!Circuit_Implied_by_Balanced_Transmission_Line_Equations.jpg2010-Oct-18 15:52:52879.1Kimage/jpeg
20101019145614!EmbeddedInCosz+c.jpg2010-Sep-30 13:08:30215.3Kimage/jpeg
20101019164739!Map_France_1030-fr.svg2009-Jan-23 15:28:58812.8Kapplication/octet-stream
20101019200212!Governor_Dukakis_speaks_at_the_1976_Democratic_National_Convention_(cropped).jpg2010-Oct-19 19:56:521.5Mimage/jpeg
20101020021529!Billie_Joe_Armstrong_at_Madison_Square_Garden.jpg2010-Oct-20 01:58:5392.7Kimage/jpeg
20101020182952!The_Library_of_Congress_-_(Main_Street,_Creede,_Colorado)_(LOC).jpg2010-Aug-12 15:56:46187.8Kimage/jpeg
20101021233248!Xtreme_screenshot.png2010-Jun-09 00:13:5953.3Kimage/png
20101022100820!Oryol2006.jpg2007-May-01 21:38:38151.8Kimage/jpeg
20101022211059!Mars_Exploration_Rover_mk.svg2010-Oct-22 21:01:11261.7Kapplication/octet-stream
20101022211312!Mars_Exploration_Rover_mk.svg2010-Oct-22 21:10:42261.7Kapplication/octet-stream
20101022225245!Mars_Exploration_Rover_mk.svg2010-Oct-22 21:13:08263.0Kapplication/octet-stream
20101024134156!LocationSomaliland3.png2007-Jul-19 11:39:5274.5Kimage/png
20101025094608!20100801_kia_sportage_0002.jpg2010-Aug-12 10:16:53510.6Kimage/jpeg
20101025094615!20100801_kia_sportage_0001.jpg2010-Aug-12 10:16:14488.2Kimage/jpeg
20101025100133!Ebersdorf_in_ROW.svg2009-Jul-20 21:31:264.2Mapplication/octet-stream
20101026203957!Rembrandt_Harmensz._van_Rijn_014.jpg2009-Feb-11 15:46:28151.8Kimage/jpeg
20101026211919!JuliopintandoEpopeyadeIntelecto.jpg2010-Oct-26 21:17:07132.1Kimage/jpeg
20101026211954!JuliopintandoEpopeyadeIntelecto.jpg2010-Oct-26 21:19:19132.1Kimage/jpeg
20101026212059!JuliopintandoEpopeyadeIntelecto.jpg2010-Oct-26 21:19:54132.1Kimage/jpeg
20101027041250!Dorsal_silhouette_An-22_from_Greg_Goebel.svg2010-Oct-27 03:35:1175.4Kapplication/octet-stream
20101027041614!Dorsal_silhouette_An-22_from_Greg_Goebel.svg2010-Oct-27 04:12:5080.1Kapplication/octet-stream
20101027142635!Osterholz-Scharmbeck_in_OHZ.svg2009-Nov-30 15:22:062.8Mapplication/octet-stream
20101027193532!Gorilla-server.svg2010-Oct-25 20:24:25612.3Kapplication/octet-stream
20101028004723!M23_Gunner.jpg2008-May-09 00:19:3977.0Kimage/jpeg
20101028184924!Böheimkirchen.Kirche.Ac.jpg2010-Oct-28 11:09:424.7Mimage/jpeg
20101028232035!E._B._Ward_signature.jpg2010-Oct-25 22:36:566.7Kimage/jpeg
20101030064153!Halebid_file.jpg2010-Oct-29 04:34:1981.0Kimage/jpeg
20101030100743!KRW-JPY_v2.svg2010-Oct-06 13:29:48195.7Kapplication/octet-stream
20101031174419!PlazaGuemes.JPG2010-Oct-31 17:39:53715.6Kimage/jpeg
20101031182827!1_-_Tribunali_o_Kalsa.png2010-Oct-29 13:38:35130.9Kimage/png
20101101155834!Violet_Paget_-_Vernon_Lee_001.jpg2010-Nov-01 15:52:4450.2Kimage/jpeg
20101101212734!Raymond_Busquet.jpg2010-Nov-01 20:54:0786.0Kimage/jpeg
20101101213609!Olendino.jpg2010-Nov-01 21:26:09155.6Kimage/jpeg
20101101213616!Olendino.jpg2010-Nov-01 21:36:09151.0Kimage/jpeg
20101101213632!Olendino.jpg2010-Nov-01 21:36:16151.0Kimage/jpeg
20101101213754!Olendino.jpg2010-Nov-01 21:36:32151.0Kimage/jpeg
20101101221514!NewEngland_Fall.jpg2010-Oct-13 02:28:43560.8Kimage/jpeg
20101101235625!PhilipBreitmeyer.jpg2010-Jul-06 17:34:4819.9Kimage/jpeg
20101102061223!Anders_Welanders_flaccid_penis.jpg2010-Nov-02 05:48:0737.9Kimage/jpeg
20101102120314!Wikimedia_Italia_WMI_Milano_22.03.2009_12.jpg2010-Nov-02 12:02:032.4Mimage/jpeg
20101102153202!WJamesAdams_NASA.jpg2010-Nov-02 15:26:361.8Mimage/jpeg
20101102153215!WJamesAdams_NASA.jpg2010-Nov-02 15:32:021.8Mimage/jpeg
20101102153430!WJamesAdams_NASA.jpg2010-Nov-02 15:32:151.8Mimage/jpeg
20101102154119!Msk_1960_Dzerzhinsky_rayon.png2010-Nov-02 15:17:33116.0Kimage/png
20101102174417!WJamesAdams_NASA.jpg2010-Nov-02 15:34:311.8Mimage/jpeg
20101103090836!Logo_Energiek.jpg2010-Nov-03 09:04:0620.1Kimage/jpeg
20101103111945!BoR-HungryHorseProject-P447-100-575.jpg2010-Nov-03 11:15:3592.4Kimage/jpeg
20101103120106!Msk_1960_Dzerzhinsky_rayon.png2010-Nov-02 15:41:19116.0Kimage/png
20101104103017!NettogeldvermögenUSA.PNG2010-Nov-03 16:13:2324.1Kimage/png
20101104144334!Primaria_Balti.jpg2010-Oct-22 15:16:1364.6Kimage/jpeg
20101104164022!Biblia_Fjellstedt_III_(1890)_037.jpg2009-Sep-06 13:53:11947.6Kimage/jpeg
20101104170342!Pl-lokomotywa.ogg2010-Sep-19 21:29:1121.1Kapplication/ogg
20101104175024!Escudo.JPG2008-Jun-06 04:53:565.1Kimage/jpeg
20101105075514!Hortiguillas_-_Salero.jpg2010-Feb-13 20:27:413.6Mimage/jpeg
20101105194036!Licensing_tutorial_en.svg2010-Nov-04 17:03:17110.2Kapplication/octet-stream
20101105202128!Licensing_tutorial_en.svg2010-Nov-05 19:40:36163.7Kapplication/octet-stream
20101105204530!Licensing_tutorial_en.svg2010-Nov-05 20:21:28180.3Kapplication/octet-stream
20101105234631!Zürich_-_Seefeld_-_Strandbad_Tiefenbrunnen_IMG_0366.jpg2009-Sep-14 22:56:262.5Mimage/jpeg
20101106082730!Wappen_von_Isselburg.png2009-Feb-06 23:17:5225.4Kimage/png
20101106204753!Calicheamicin_Glycosidteil_gamma(1)I.svg2010-Oct-13 18:44:3499.1Kapplication/octet-stream
20101107021601!20100801_kia_sportage_0001.jpg2010-Oct-25 09:46:16304.6Kimage/jpeg
20101107021610!20100801_kia_sportage_0002.jpg2010-Oct-25 09:46:08303.6Kimage/jpeg
20101107091908!LocationSomaliland3.png2010-Oct-24 13:41:5774.5Kimage/png
20101107120745!Zhu_Shen2.jpg2010-Oct-18 16:59:00294.0Kimage/jpeg
20101107163430!Breschterbaach_1.jpg2010-Nov-07 16:29:251.9Mimage/jpeg
20101107163921!Breschterbaach_1.jpg2010-Nov-07 16:34:311.9Mimage/jpeg
20101107164507!Breschterbaach_1.jpg2010-Nov-07 16:39:211.9Mimage/jpeg
20101107165216!Breschterbaach_1.jpg2010-Nov-07 16:45:071.9Mimage/jpeg
20101107165812!CPA_PUYGROS005.jpg2010-Nov-07 16:56:55392.2Kimage/jpeg
20101107194859!U-Bahn_Wien_Eröffnungen.gif2010-Oct-02 18:51:211.3Mimage/gif
20101107211606!2011_Dimos_Arrianon.svg2010-Oct-05 22:21:49343.2Kapplication/octet-stream
20101109125638!Stationmelusine.JPG2010-Nov-09 12:09:181.1Mimage/jpeg
20101110080823!Ginrei_bus_S200F_2456.JPG2010-Jul-19 09:39:391.4Mimage/jpeg
20101110080913!Ginrei_bus_S200F_2456.JPG2010-Nov-10 08:08:232.2Mimage/jpeg
20101110083913!Marl_in_DH.svg2009-Jul-08 06:16:01810.7Kapplication/octet-stream
20101111125241!Uplengen_in_LER.svg2009-Jul-06 20:10:401.6Mapplication/octet-stream
20101112144703!UkraineDensity10.PNG2010-Jun-30 14:48:4039.4Kimage/png
20101112183322!Los_Tilos_Arch.jpg2010-May-11 15:10:05894.8Kimage/jpeg
20101112201541!Dilijan_resthouses.jpg2010-Nov-12 19:26:22688.8Kimage/jpeg
20101113201636!Wrocław_Collage.png2010-Feb-01 19:32:163.4Mimage/png
20101114175646!Adendorf_in_LG.svg2009-Jul-21 09:32:012.7Mapplication/octet-stream
20101114182723!1000_DM_Serie4_Rueckseite.jpg2008-Apr-08 14:11:2196.9Kimage/jpeg
20101115135008!Texas_99_map.svg2008-Jun-05 05:34:40509.9Kapplication/octet-stream
20101115152422!Pompei-fresco.jpg2005-Dec-03 08:37:23109.5Kimage/jpeg
20101115160640!Texas_156_map.svg2007-Jun-07 22:27:53261.9Kapplication/octet-stream
20101117000338!Licensing_tutorial_en.svg2010-Nov-05 20:46:41180.0Kapplication/octet-stream
20101117002433!Licensing_tutorial_en.svg2010-Nov-17 00:03:38147.3Kapplication/octet-stream
20101117003058!Licensing_tutorial_en.svg2010-Nov-17 00:24:33146.5Kapplication/octet-stream
20101118070541!SGN-PL_SW_masło.PNG2010-Nov-18 05:18:490.4Kimage/png
20101118163508!Kit_right_arm_nufc_away_0910.png2009-Jun-26 19:56:190.4Kimage/png
20101119131459!St._Mariä_Himmelfahrtskirche_in_Düsseldorf-Flingern,_1890_bis_1892,_Architekt_Caspar_Clemens_Pickel.jpg2010-Nov-19 13:12:42230.8Kimage/jpeg
20101119203353!AMilKunde.gif2008-Jun-29 21:35:365.1Kimage/gif
20101119205206!Arms_of_Anne_Boleyn.svg2010-Oct-08 22:48:182.3Mapplication/octet-stream
20101119225556!Licensing_tutorial_en.svg2010-Nov-17 00:30:58146.4Kapplication/octet-stream
20101121222733!Map_of_NEA.png2006-Oct-15 14:06:1930.7Kimage/png
20101122042110!No330.JPG2010-Nov-18 06:18:32619.3Kimage/jpeg
20101122061716!No330.JPG2010-Nov-22 04:21:10619.3Kimage/jpeg
20101122182359!OffsetTF.png2010-Nov-22 16:21:2742.6Kimage/png
20101122185548!Zhang_Zhizhong.jpg2009-Aug-22 23:33:3286.7Kimage/jpeg
20101123145659!OffsetTF.png2010-Nov-22 18:23:5937.5Kimage/png
20101124073423!Foot_and_mouth_disease_in_swine.jpg2007-Jun-26 03:30:4637.1Kimage/jpeg
20101124155153!Order_of_the_October_Revolution_(550).jpg2006-Jun-12 06:10:0610.2Kimage/jpeg
20101125001139!SGN-PL_SW_masło.PNG2010-Nov-18 07:05:410.4Kimage/png
20101125114417!Spain_green.svg2010-Nov-24 10:19:43501.3Kapplication/octet-stream
20101125132349!Toyota_Crown_Comfort_2.0.JPG2010-Nov-24 13:11:363.7Mimage/jpeg
20101125151432!Municipalities_in_MI.svg2009-Nov-19 11:40:591.5Mapplication/octet-stream
20101126052135!LA_Woman_gold_record,_Hard_Rock_Cafe_Hollywood.JPG2010-Jul-08 17:33:101.1Mimage/jpeg
20101126132441!Kit_body_ecsa0809t.png2008-Dec-05 12:14:510.3Kimage/png
20101126221541!Gladbeck_in_RE.svg2009-Dec-14 13:00:41856.1Kapplication/octet-stream
20101127001621!Medaile_A40_1989_-_recto_-_IMG_0002.JPG2010-Nov-26 23:39:40168.9Kimage/jpeg
20101127114811!England_Administrative_1931.tif2010-Aug-20 20:06:5110.9Mapplication/octet-stream
20101127201740!Nude_on_beach_7.jpg2010-Nov-26 19:08:54119.0Kimage/jpeg
20101128222606!Syracuse_1905_clinton-square_bridge.jpg2010-Nov-26 16:45:26161.1Kimage/jpeg
20101129014720!Queen_Victoria_the_Princess_Royal_Victoria_c1844-5.png2010-Sep-28 01:43:362.7Mimage/png
20101129205107!Bat-Yam_beach.jpg2008-Feb-17 14:52:55420.1Kimage/jpeg
20101129230054!Up2_1_32_t01_A6.svg2010-Nov-29 22:25:508.7Mapplication/octet-stream
20101201184648!Orchis_morio_(Green-winged_Orchid)_Specimen_in_Derby_Museum_herbarium.jpg2010-Dec-01 18:42:0089.8Kimage/jpeg
20101201192019!Konstantinos_Mauromixalis.JPG2010-Dec-01 18:57:45297.7Kimage/jpeg
20101204075857!Roman_Empire_125.png2010-Dec-04 05:41:544.1Mimage/png
20101204084427!Roman_Empire_125.png2010-Dec-04 07:58:574.4Mimage/png
20101204214039!Roman_Empire_125.png2010-Dec-04 08:44:274.9Mimage/png
20101205090738!Roman_Empire_125.png2010-Dec-04 21:40:394.9Mimage/png
20101205151850!1de8.svg2010-Jan-31 15:03:1910.2Kapplication/octet-stream
20101205221949!Roman_Empire_125.png2010-Dec-05 09:07:394.9Mimage/png
20101206031825!Roman_Empire_125.png2010-Dec-05 22:19:495.0Mimage/png
20101206041327!Roman_Empire_125.png2010-Dec-06 03:18:255.0Mimage/png
20101206060017!Order.of.the.golden.kite.detail.from.Japanese.soldier.russo-japanese.war.commemorative.scroll.with.honours.wittig.collection.painting.05.JPG2010-Dec-06 01:01:082.5Mimage/jpeg
20101206150715!Gaspar_Muntwyler.JPG2010-Dec-06 14:49:061.8Mimage/jpeg
20101206152604!Gaspar_Muntwyler.JPG2010-Dec-06 15:07:1528.8Kimage/jpeg
20101206211938!Mandombe_diac_e.png2005-Sep-16 12:50:170.2Kimage/png
20101206225121!Roman_Empire_125.png2010-Dec-06 04:13:285.0Mimage/png
20101207023336!Roman_Empire_125.png2010-Dec-06 22:51:214.9Mimage/png
20101207071209!Roman_Empire_125.png2010-Dec-07 02:33:374.9Mimage/png
20101207160625!Roman_Empire_125.png2010-Dec-07 07:12:104.9Mimage/png
20101207180212!Azvag.jpg2008-Dec-14 22:51:19107.1Kimage/jpeg
20101208004209!Roman_Empire_125.png2010-Dec-07 16:06:255.0Mimage/png
20101208011832!Roman_Empire_125.png2010-Dec-08 00:42:105.0Mimage/png
20101208024043!Roman_Empire_125.png2010-Dec-08 01:18:325.0Mimage/png
20101208024613!Roman_Empire_125.png2010-Dec-08 02:40:435.0Mimage/png
20101208025128!Roman_Empire_125.png2010-Dec-08 02:46:135.0Mimage/png
20101208025132!Roman_Empire_125.png2010-Dec-08 02:51:295.0Mimage/png
20101208025946!Roman_Empire_125.png2010-Dec-08 02:51:325.0Mimage/png
20101208090031!Roman_Empire_125.png2010-Dec-08 02:59:465.0Mimage/png
20101209045128!Roman_Empire_125.png2010-Dec-08 09:00:315.0Mimage/png
20101209045659!Roman_Empire_125.png2010-Dec-09 04:51:285.0Mimage/png
20101209141045!Marth_in_EIC.svg2009-Aug-20 08:50:29802.9Kapplication/octet-stream
20101211004931!Montevideo_Casabó-Pajas_Blancas.png2010-Dec-06 16:52:31117.2Kimage/png
20101211031759!Panorama_de_San_Diego.jpg2008-Sep-14 07:03:28377.9Kimage/jpeg
20101211134043!Roman_Empire_125.png2010-Dec-09 04:56:595.0Mimage/png
20101212133535!Queen_Victoria_the_Princess_Royal_Victoria_c1844-5.png2010-Nov-29 01:47:201.7Mimage/png
20101212171211!Komatsushima_city_Hall.JPG2010-Dec-12 17:09:41149.3Kimage/jpeg
20101212171351!Komatsushima_city_Hall.JPG2010-Dec-12 17:12:11149.3Kimage/jpeg
20101213061657!La_Pegna_Überfall_bei_Hochkirch.jpg2010-Oct-06 13:30:46472.4Kimage/jpeg
20101213190249!Augsburg_Tram_6.png2009-Jul-25 18:52:538.0Kimage/png
20101213190503!Wikipedia_screenshot.png2010-Mar-13 15:23:33138.8Kimage/png
20101213191709!Cru_Lamouroux_Chigé-Ziemek_z.jpg2010-Dec-13 18:26:36454.6Kimage/jpeg
20101214093948!Logo_scw.jpg2010-Dec-14 09:35:0455.2Kimage/jpeg
20101214123026!Kit_body_atlas1011h.png2010-Aug-26 16:01:250.3Kimage/png
20101214142002!Roman_Empire_125.png2010-Dec-11 13:40:435.1Mimage/png
20101215170552!Roman_Empire_125.png2010-Dec-14 14:20:035.0Mimage/png
20101215180404!Roman_Empire_125.png2010-Dec-15 17:05:536.0Mimage/png
20101215182558!Roman_Empire_125.png2010-Dec-15 18:04:044.4Mimage/png
20101215202336!Roman_Empire_125.png2010-Dec-15 18:25:584.4Mimage/png
20101215204027!Roman_Empire_125.png2010-Dec-15 20:23:364.4Mimage/png
20101215211108!Road_Lapland_Autumn.jpg2010-Dec-15 15:39:20598.1Kimage/jpeg
20101215220950!Roman_Empire_125.png2010-Dec-15 20:40:274.4Mimage/png
20101216001840!Hibiscus_El_Capitolio.jpg2010-Feb-12 20:43:17948.4Kimage/jpeg
20101217000255!Palau_de_la_Generalitat_-_gargoyle_02.jpg2010-Jan-02 16:59:293.8Mimage/jpeg
20101217055916!Strada_Provinciale_16_Italia.svg2009-Sep-03 16:48:592.4Kapplication/octet-stream
20101217102905!Polissena_Cristina_d'Assia_with_her_children_Victor_Amadeus_III_and_Eleonora_of_Savoy,_Martin_van_Meytens.jpg2010-Aug-11 16:39:1023.1Kimage/jpeg
20101217233742!SamandLX2006.jpg2008-Sep-25 07:44:591.5Mimage/jpeg
20101218004549!SamandLX2006.jpg2010-Dec-17 23:37:42342.8Kimage/jpeg
20101218084946!Državna_cesta_D414_map.svg2010-Dec-10 08:00:361.1Mapplication/octet-stream
20101218121758!Tennoji_park05s3200.jpg2006-Nov-04 14:20:021.2Mimage/jpeg
20101218155636!FAM4_First_Flight_1927.jpg2008-Nov-05 11:00:0192.9Kimage/jpeg
20101219101322!Josip_benko.jpg2010-Aug-01 14:42:487.0Kimage/jpeg
20101220093914!Hendrik_van_Steenwyck_II_-_Intérieur_d'église.jpg2010-Jan-25 11:40:05912.6Kimage/jpeg
20101222084635!Guba_mass_grave_5.jpg2012-Apr-19 22:56:582.1Mimage/jpeg
20101222221244!Katharinenrieth_in_Allstedt.svg2010-Sep-26 11:25:41107.2Kapplication/octet-stream
20101222235752!Torrealbarrana.JPG2006-Dec-08 23:47:07424.4Kimage/jpeg
20101223170924!Roman_Empire_125.png2010-Dec-15 22:09:504.4Mimage/png
20101223175400!Roman_Empire_125.png2010-Dec-23 17:09:244.3Mimage/png
20101224052534!Zeke_jul_9_1991_0552Z.jpg2010-Oct-26 03:27:48276.3Kimage/jpeg
20101224123518!Karte_Gemeinde_Münchenwiler_2011.png2010-Dec-21 18:01:341.1Mimage/png
20101224123736!Karte_Gemeinde_Neuenegg_2011.png2010-Dec-21 18:02:421.1Mimage/png
20101225013854!Luganskteplovoz_diesel_locomotive_TE_model_first_day_postmark_Ukraine_stamps_2007.jpg2007-Aug-22 14:34:061.5Mimage/jpeg
20101225152343!Integrationsplattform.svg2010-Dec-25 15:22:476.9Kapplication/octet-stream
20101225201216!Lardo_di_conca_di_Colonnata.jpg2010-Aug-10 17:40:571.7Mimage/jpeg
20101226223803!Derivative_Works_Decision_Tree_german.svg2008-Oct-02 23:56:11330.6Kapplication/octet-stream
20101227011718!TARDIS-trans.png2007-Oct-17 14:14:03472.4Kimage/png
20101227012037!TARDIS-trans.png2010-Dec-27 01:17:19511.9Kimage/png
20101227173600!LocationSomaliland3.png2010-Nov-07 09:19:0874.6Kimage/png
20101227230952!TARDIS-trans.png2010-Dec-27 01:20:37511.6Kimage/png
20101228024847!Baseball_positions_french_svg.svg2010-Jan-05 14:51:0514.6Kapplication/octet-stream
20101229221900!Fotothek_df_tg_0000510_Bergwerk_^_Bergbau_^_Verhüttung_^_Hüttenwesen_^_Wismutschmelzen.jpg2009-Apr-10 11:11:34253.0Kimage/jpeg
20101230060057!Escudo.JPG2010-Nov-04 17:50:2448.5Kimage/jpeg
20101231001716!Pražský_hrad_(34).jpg2010-Dec-30 17:47:233.0Mimage/jpeg
20101231165101!Wackershofen_Winterstimmung.jpg2010-Sep-27 23:03:50717.7Kimage/jpeg
20110101010055!Édifice_de_Promotion_Saguenay02.JPG2009-May-18 16:03:58807.8Kimage/jpeg
20110101225942!LPD.jpg2010-Nov-20 23:02:3793.2Kimage/jpeg
20110103114401!NowaMapaS7.svg2010-Oct-10 15:39:2867.3Kapplication/octet-stream
20110103153245!20_Jahre_DDR_Bildseite.JPG2011-Jan-02 13:58:162.2Mimage/jpeg
20110103155104!Bath_bubblebbombs.jpg2011-Jan-03 15:48:03407.4Kimage/jpeg
20110103171307!20_Jahre_DDR_Bildseite.JPG2011-Jan-03 15:32:461.9Mimage/jpeg
20110105200029!Ponta_Grossa_bairro.JPG2010-Jan-03 20:58:4339.6Kimage/jpeg
20110105235248!Dinornis1387.jpg2008-Jul-11 02:31:2085.3Kimage/jpeg
20110106102413!NowaMapaS7.svg2011-Jan-03 11:44:0267.9Kapplication/octet-stream
20110106142255!Roman_Empire_125.png2010-Dec-23 17:54:004.3Mimage/png
20110107031421!Lionel_Walden_-_Women_Washing_Laundry_on_a_River_Bank.jpg2011-Jan-05 23:41:5872.7Kimage/jpeg
20110107230116!20070513_Magnificent_Mile.JPG2007-Nov-14 18:27:21739.8Kimage/jpeg
20110108100727!KRW-JPY_v2.svg2010-Oct-30 10:07:43196.2Kapplication/octet-stream
20110110050402!Flag-map_of_Vermont.svg2009-Jun-14 08:16:51457.1Kapplication/octet-stream
20110110110834!Swanavon.jpg2005-Nov-08 18:43:1130.9Kimage/jpeg
20110111154451!LocationSomaliland3.png2010-Dec-27 17:36:0074.6Kimage/png
20110112015504!Not_customs.svg2009-Feb-18 01:28:266.7Kapplication/octet-stream
20110112015722!VinnytsiaCathedral.jpg2006-Apr-14 19:20:0116.6Kimage/jpeg
20110112015759!Not_customs.svg2011-Jan-12 01:55:053.7Kapplication/octet-stream
20110112015823!Not_customs.svg2011-Jan-12 01:57:596.7Kapplication/octet-stream
20110112160120!Verndl_rifle.jpg2011-Jan-12 15:56:2343.9Kimage/jpeg
20110112160453!Verndl_rifle.jpg2011-Jan-12 16:01:2152.7Kimage/jpeg
20110112160553!Verndl_rifle.jpg2011-Jan-12 16:04:5352.4Kimage/jpeg
20110112160910!Workers_and_employees_of_Rybinsk_railway_workshops_(Sigson).JPG2011-Jan-12 16:01:2784.5Kimage/jpeg
20110112161022!Workers_and_employees_of_Rybinsk_railway_workshops_(Sigson).JPG2011-Jan-12 16:09:1053.2Kimage/jpeg
20110113030400!Roman_Empire_125.png2011-Jan-06 14:22:554.3Mimage/png
20110113173516!Roman_Empire_125.png2011-Jan-13 03:04:004.3Mimage/png
20110113204750!Roman_Empire_125.png2011-Jan-13 17:35:184.3Mimage/png
20110113210817!Roman_Empire_125.png2011-Jan-13 20:47:514.3Mimage/png
20110114175120!US_flag_24_stars.svg2006-Apr-26 01:02:4428.4Kapplication/octet-stream
20110114223818!Roman_Empire_125.png2011-Jan-13 21:08:184.3Mimage/png
20110115051948!2007-2008_Holden_Epica_(EP)_CDX_sedan_(2010-12-28).jpg2011-Jan-15 00:31:104.8Mimage/jpeg
20110115233731!1927_Atlantic_tropical_storm_6_track.png2006-Nov-16 21:40:52491.8Kimage/png
20110116140120!Roman_Empire_125.png2011-Jan-14 22:38:194.3Mimage/png
20110116150521!Komatsushima_city_Hall.JPG2010-Dec-12 17:13:5284.9Kimage/jpeg
20110117203306!Dictionary_of_National_Biography_volume_05.djvu2008-Nov-28 23:34:4633.8Mapplication/octet-stream
20110117204758!Dictionary_of_National_Biography_volume_05.djvu2011-Jan-17 20:33:0625.4Mapplication/octet-stream
20110117205646!Dictionary_of_National_Biography_volume_05.djvu2011-Jan-17 20:47:5925.4Mapplication/octet-stream
20110118091640!USS_Redstone_in_Pearl_Harbor.jpg2011-Jan-18 09:15:35678.0Kimage/jpeg
20110118115747!JPY_Nominal_Effective_Exchange_Rates_(1970-).svg2010-Sep-18 07:26:0620.9Kapplication/octet-stream
20110118135627!Kronau_Rathaus_20070602.jpg2007-Jun-02 15:21:181.2Mimage/jpeg
20110119011617!PVG_The_interior_of_Terminal_1_.jpg2011-Jan-19 00:52:44518.0Kimage/jpeg
20110119200113!Roman_Empire_125.png2011-Jan-16 14:01:214.3Mimage/png
20110120222430!Vienna_2011-01-18_Susanne_Scholl_reading_series.jpg2011-Jan-20 22:09:303.6Mimage/jpeg
20110121142832!Tractive_Power.jpg2011-Jan-21 14:22:1011.8Kimage/jpeg
20110121145738!Herrnwald_in_MSP.svg2010-Apr-11 20:19:111.4Mapplication/octet-stream
20110121145759!Tractive_Power.jpg2011-Jan-21 14:28:3324.5Kimage/jpeg
20110121230710!Holdereggen_IMG_3640.jpg2011-Jan-21 13:14:34128.6Kimage/jpeg
20110122121411!Queen_Victoria_the_Princess_Royal_Victoria_c1844-5.png2010-Dec-12 13:35:362.7Mimage/png
20110122160432!Roman_Empire_125.png2011-Jan-19 20:01:134.3Mimage/png
20110122163422!FdS_primo_simbolo_ufficiale.jpg2011-Jan-02 18:35:21292.3Kimage/jpeg
20110122163649!FdS_primo_simbolo_ufficiale.jpg2011-Jan-22 16:34:22653.5Kimage/jpeg
20110122215001!Roman_Empire_125.png2011-Jan-22 16:04:334.2Mimage/png
20110123010434!Ban_Johnson,_1921.jpg2012-Oct-31 15:28:03221.1Kimage/jpeg
20110123071802!USSR-communicationmeeting-1958.jpg2007-Sep-30 01:39:04452.7Kimage/jpeg
20110123094356!Stamp_1944_913.jpg2009-Mar-13 20:40:0051.9Kimage/jpeg
20110123132556!Marine_Parade,_Double_Bay,_New_South_Wales_(2011-01-05).jpg2011-Jan-23 11:08:104.6Mimage/jpeg
20110123140841!LogoKasern.jpg2011-Jan-23 13:52:47627.8Kimage/jpeg
20110123141310!LogoKasern.jpg2011-Jan-23 14:08:412.3Mimage/jpeg
20110123195114!Rapperswil_-_Stadtpfarrkirche_Marienkapelle_lMG_0358_ShiftN.jpg2013-Jan-13 20:14:485.4Mimage/jpeg
20110123203701!Čimický_rybník_(2).jpg2011-Jan-07 20:45:026.6Mimage/jpeg
20110124171741!KFZ-Zulassungsplakette_des_Landkreises_Mecklenburg-Strelitz,_Mecklenburg-Vorpommern.png2010-Aug-11 19:36:001.4Mimage/png
20110124220650!Angola_Ethnic_map_1970-eo.svg2011-Jan-24 22:00:5871.2Kapplication/octet-stream
20110124221353!Angola_Ethnic_map_1970-eo.svg2011-Jan-24 22:06:5171.4Kapplication/octet-stream
20110125232141!Darren_Pratley_-_2.jpg2011-Jan-25 22:09:01645.7Kimage/jpeg
20110126080553!Offenbach_Christian-Pleß-straße_MAN_IMG_0655.JPG2011-Jan-16 15:23:311.0Mimage/jpeg
20110126170600!Sq2_greenwhite.svg2010-Sep-18 15:04:05177.8Kapplication/octet-stream
20110126170659!Sq2_greenwhite.svg2011-Jan-26 17:06:005.2Kapplication/octet-stream
20110126182710!AFT-v2-ViewRatings.png2010-Dec-16 18:37:5911.6Kimage/png
20110127095843!Lübberstorf_in_NWM.PNG2009-Jun-01 00:01:506.3Kimage/png
20110128065523!Макеевский_металлургический_завод_1213.jpg2008-Dec-24 15:33:479.6Kimage/jpeg
20110128073353!Xeic_sirga.jpg2011-Jan-28 07:31:31240.3Kimage/jpeg
20110128105448!Spinning-bike.jpg2009-Mar-12 09:16:3673.0Kimage/jpeg
20110128110822!Most_Zielony_Gdańsk.JPG2011-Jan-27 16:52:30927.0Kimage/jpeg
20110128154031!Arms_of_the_Napoleonic_Kingdom_of_Italy.svg2010-Mar-10 22:18:251.5Mapplication/octet-stream
20110128183832!Wikipedia_screenshot.png2010-Dec-13 19:05:03750.2Kimage/png
20110129014755!Coat_of_arms_of_NVA_(East_Germany).svg2006-Jun-23 14:56:47122.7Kapplication/octet-stream
20110129084545!Coat_of_arms_of_NVA_(East_Germany).svg2011-Jan-29 01:47:55123.6Kapplication/octet-stream
20110130104336!Allocation_of_IPv4_Address_Space_KG.svg2010-Feb-11 13:40:5126.0Kapplication/octet-stream
20110130122142!Jesús_España_Barcelona_2010.jpg2011-Jan-30 11:18:48183.9Kimage/jpeg
20110130230316!Postempire_Orgs_Map2.png2008-Jun-10 21:47:0366.5Kimage/png
20110131000455!Ulm_Fischerviertel.JPG2011-Jan-30 18:04:466.2Mimage/jpeg
20110131224616!Klosterkirche_St._Anna_Muenchen-2.jpg2007-Jul-27 11:44:32241.0Kimage/jpeg
20110201005559!Roman_Empire_125.png2011-Jan-22 21:50:014.2Mimage/png
20110201082305!2011_Dimos_Arrianon.svg2010-Nov-07 21:16:06782.1Kapplication/octet-stream
20110201184507!Queen_Victoria_the_Princess_Royal_Victoria_c1844-5.png2011-Jan-22 12:14:111.7Mimage/png
20110202222932!Floriffoux_JPG00.jpg2005-Dec-22 18:31:201.3Mimage/jpeg
20110203162529!Bornthiswayladygaga.jpg2011-Feb-03 16:16:3653.5Kimage/jpeg
20110203225249!Norwegian_Navy_Patrol_boat_Storm.jpg2009-Nov-01 21:57:244.0Mimage/jpeg
20110204151806!PBY-5A_VP-61_Aleutians_Mar_1943.jpg2008-Jan-28 20:09:3553.3Kimage/jpeg
20110205233726!Italian_traffic_signs_-_intersezione_con_diritto_di_precedenza.svg2009-Feb-24 11:59:493.8Kapplication/octet-stream
20110206124038!Claim_logo.svg2011-Feb-06 12:39:013.7Kapplication/octet-stream
20110206153328!Bushbrown_Butterfly_I_IMG_5458.jpg2007-Aug-09 09:13:4764.8Kimage/jpeg
20110206182435!WAIS-IV_FSIQ_Scores_by_Race_and_Ethnicity.png2011-Feb-06 15:51:0585.5Kimage/png
20110207000826!Klosterkirche_Andechs_Innen_1.JPG2012-Nov-01 18:37:076.6Mimage/jpeg
20110207183807!Flag_of_Chinandega.svg2010-Nov-28 18:13:2916.0Kapplication/octet-stream
20110207193424!Mtnhome-1.jpg2008-Mar-14 10:52:1921.1Kimage/jpeg
20110207202614!Rapperswil_-_HSR_IMG_2600.JPG2010-Jun-13 22:46:313.7Mimage/jpeg
20110208054747!MT-sec-223.svg2007-Jan-08 02:43:0213.4Kapplication/octet-stream
20110209132922!Jean-Baptiste_Lully_Nicolas_Mignard.jpg2011-Feb-09 13:19:5647.7Kimage/jpeg
20110209133939!Jean-Baptiste_Lully_Nicolas_Mignard.jpg2011-Feb-09 13:29:2291.2Kimage/jpeg
20110209141545!Prijedor_Austro-Hungarian_building.jpg2011-Feb-09 14:10:41124.4Kimage/jpeg
20110209190202!Norwegian_Navy_Patrol_boat_Storm.jpg2011-Feb-03 22:52:493.2Kimage/jpeg
20110210205217!Escut_d'Isil_i_Alós.svg2009-Jun-23 12:27:0931.6Kapplication/octet-stream
20110210211834!Escut_d'Isil_i_Alós.svg2011-Feb-10 20:52:1753.9Kapplication/octet-stream
20110211061524!Not_an_optical_illusion,_corner_of_Parliament_and_Mill_-b.jpg2011-Feb-11 05:33:0516.1Kimage/jpeg
20110211111031!Escut_d'Isil_i_Alós.svg2011-Feb-10 21:18:3553.5Kapplication/octet-stream
20110211125410!Semyon_Budyonny.jpg2005-May-02 00:07:098.6Kimage/jpeg
20110211171737!Königssalbung.jpg2010-Feb-26 12:16:26134.9Kimage/jpeg
20110212075119!Bad_Homburg_Erlöserkirche_Inneres.jpg2010-Aug-19 15:12:241.5Mimage/jpeg
20110212154130!Exterior_of_Haditha_Dam_2005.jpg2010-Jul-21 03:42:1774.7Kimage/jpeg
20110212165938!Semyon_Budyonny.jpg2011-Feb-11 12:54:1041.2Kimage/jpeg
20110212172921!Escut_d'Isil_i_Alós.svg2011-Feb-11 11:10:3152.9Kapplication/octet-stream
20110213103402!1de8.svg2010-Dec-05 15:18:500.3Kapplication/octet-stream
20110213125945!WHSeager.jpg2011-Feb-09 19:39:15110.5Kimage/jpeg
20110213224419!LocationSomaliland3.png2011-Jan-11 15:44:5195.4Kimage/png
20110214160822!Fossil_bird_head.jpg2009-Oct-29 18:50:213.6Mimage/jpeg
20110214164310!Escudo.JPG2010-Dec-30 06:00:575.2Kimage/jpeg
20110214185712!Escudo.JPG2011-Feb-14 16:43:109.8Kimage/jpeg
20110214212147!Edite-esta-pagina.jpg2007-Apr-24 12:31:04120.8Kimage/jpeg
20110215023522!1.3.1_Однопутная_железная_дорога.svg2010-Jul-20 08:16:103.6Kapplication/octet-stream
20110215120916!Dem_Slackers.jpg2011-Feb-15 09:45:3287.8Kimage/jpeg
20110215144014!Platform_2_in_Minquan_West_Road_Station.JPG2010-Dec-20 05:13:473.2Mimage/jpeg
20110216001607!SDBayAreaNASA.jpg2011-Jan-24 00:10:11321.6Kimage/jpeg
20110217151815!Derivative_Works_Decision_Tree_german.svg2010-Dec-26 22:38:03337.8Kapplication/octet-stream
20110217160702!Mt_fuji_from_space.jpg2006-Oct-25 18:39:2531.9Kimage/jpeg
20110217164519!Workflowspaghetti.jpg2011-Feb-17 16:39:485.6Kimage/jpeg
20110217225625!Lucas_van_Leyden_010_reconstruction_01.jpg2011-Feb-17 22:46:04184.9Kimage/jpeg
20110218131932!ISFP_Personality.jpg2011-Feb-18 13:14:3479.9Kimage/jpeg
20110219002428!Lucas_Cranach_d._Ä._095.jpg2008-Sep-26 12:33:1218.1Kimage/jpeg
20110219113126!Kairo_Ibn_Tulun_Moschee_BW_0.jpg2010-Nov-20 15:46:167.4Mimage/jpeg
20110219125028!Heinrich_Heine_(ship,_1969)_001.jpg2011-Feb-19 12:48:16512.3Kimage/jpeg
20110219225913!Kairo_Ibn_Tulun_Moschee_BW_0.jpg2011-Feb-19 11:31:273.9Mimage/jpeg
20110220110332!KRW-JPY_v2.svg2011-Jan-08 10:07:27197.9Kapplication/octet-stream
20110220143002!Utopia,_More,_1518_-_0153.jpg2011-Feb-20 08:06:59178.1Kimage/jpeg
20110221152743!Judah_Halevi_st._Haifa.JPG2011-Feb-21 15:19:122.5Mimage/jpeg
20110221230827!Bernhoeft_Adolphe_Bridge-24.jpg2011-Feb-20 00:33:291.1Mimage/jpeg
20110222043901!WilliamEaton.jpg2008-Jun-11 03:07:0623.3Kimage/jpeg
20110222104531!Lorenzetti_Ambrogio_presentation-in-the-temple-_1342..jpg2010-Mar-24 16:47:15535.8Kimage/jpeg
20110224030643!Логотип.jpg2011-Feb-24 03:00:4219.5Kimage/jpeg
20110224030857!Логотип.jpg2011-Feb-24 03:06:4419.5Kimage/jpeg
20110225092536!Bundesarchiv_Bild_146-2008-0197,_Friedrich_Beckh.jpg2010-Jun-17 22:29:47122.1Kimage/jpeg
20110225141958!Bundesarchiv_Bild_146-2008-0197,_Friedrich_Beckh.jpg2011-Feb-25 09:25:3654.9Kimage/jpeg
20110225144202!Kit_left_arm_paraná08t.png2008-Oct-13 12:26:310.3Kimage/png
20110227100204!Limite_60.png2006-Dec-16 21:04:1511.0Kimage/png
20110227134042!臺南市東區小東里.svg2011-Feb-24 13:41:4034.9Kapplication/octet-stream
20110228111250!Berkeley_Group_spot.jpg2011-Feb-28 11:08:2531.9Kimage/jpeg
20110228132259!Preußen_sailing_ship_1908.jpg2009-Jan-28 19:52:45158.2Kimage/jpeg
20110228160858!CanoasPopulaçao.svg2007-Oct-15 02:09:06100.2Kapplication/octet-stream
20110228162354!Iłowo_Osada_CoA.svg2007-Apr-15 21:14:0917.3Kapplication/octet-stream
20110228165834!Viral_entry_(Endocytosis_and_fusion).svg2011-Feb-28 16:49:2424.8Kapplication/octet-stream
20110301001941!Wikipedia_screenshot.png2011-Jan-28 18:38:32393.6Kimage/png
20110301014805!Armour_Square.jpg2009-Sep-10 18:15:57235.1Kimage/jpeg
20110301063455!Jayna_Brown_01.jpg2011-Mar-01 06:10:514.7Mimage/jpeg
20110301121301!Kiyotaki_(Higashihiroshima).jpg2011-Feb-23 10:51:542.2Mimage/jpeg
20110301224831!Gasteig_aussen_an_der_Kellerstrasse_b.jpg2011-Mar-01 22:45:1914.2Mimage/jpeg
20110302140313!Escudo.JPG2011-Feb-14 18:57:129.8Kimage/jpeg
20110302145704!Netzmuräne-Gymnothorax-favagineus.jpg2011-Mar-02 14:44:096.5Mimage/jpeg
20110302164046!Sense.svg2011-Mar-02 16:37:301.3Kapplication/octet-stream
20110302170923!Mullard_Circuits_for_Audio_Amplifiers.JPG2011-Mar-02 17:03:155.0Mimage/jpeg
20110303170335!Small_sandglass.jpg2008-Jul-17 03:04:171.5Mimage/jpeg
20110304091639!Bridge_over_the_Niagara_River_connecting_Fort_Erie_and_Buffalo.jpg2011-Mar-04 08:58:26173.7Kimage/jpeg
20110304111645!De_mulieribus_claris_(Manuzio).jpg2011-Mar-04 11:15:48209.2Kimage/jpeg
20110304212256!Ben_Parker.jpg2011-Mar-04 21:19:14755.1Kimage/jpeg
20110305024247!AFT-v2-ViewRatings.png2011-Jan-26 18:27:1011.6Kimage/png
20110305024514!AFT-v2-ViewRatings.png2011-Mar-05 02:42:479.8Kimage/png
20110305121128!Imperial_Monogram_of_Kaiser_Wilhelm_I.svg2011-Jan-27 03:59:555.5Mapplication/octet-stream
20110305142005!VingtAnnees_286.jpg2010-Apr-12 16:46:53227.5Kimage/jpeg
20110305155918!Théâtre_de_Plaute,_Panckoucke,_tome_2.djvu2008-Oct-08 11:09:495.6Mapplication/octet-stream
20110306122225!Apache_Tear_in_Matrix.jpg2011-Mar-06 12:13:13345.4Kimage/jpeg
20110306171336!Openstreetmap_Regional_Traffic_Ranks.svg2011-Mar-06 08:27:38153.5Kapplication/octet-stream
20110306171644!Openstreetmap_Regional_Traffic_Ranks.svg2011-Mar-06 17:13:36154.2Kapplication/octet-stream
20110306172143!Openstreetmap_Regional_Traffic_Ranks.svg2011-Mar-06 17:16:44154.2Kapplication/octet-stream
20110306220642!Rajiv_Gandhi_International_Airport_Logo.svg2011-Mar-06 05:20:1634.9Kapplication/octet-stream
20110306220645!Rajiv_Gandhi_International_Airport_Logo.svg2011-Mar-06 22:06:4225.3Kapplication/octet-stream
20110306220648!Rajiv_Gandhi_International_Airport_Logo.svg2011-Mar-06 22:06:4536.8Kapplication/octet-stream
20110307111343!Anscombe_stabilized_stdev.svg2011-Mar-07 10:58:4746.5Kapplication/octet-stream
20110307151758!Freighter_Ocean_Phoenix_and_two_tugs_in_Puget_Sound.jpg2011-Mar-07 14:43:2377.4Kimage/jpeg
20110309103824!Raeren_coat_of_arms.svg2010-Jul-01 22:18:12581.0Kapplication/octet-stream
20110310183337!Aliancapq.jpg2011-Mar-10 18:26:0633.0Kimage/jpeg
20110311011633!Tug_and_barges_near_Fort_Smith_-b.jpg2011-Mar-11 01:07:06110.9Kimage/jpeg
20110311131938!Dili1-2009.JPG2009-Nov-25 09:12:082.7Mimage/jpeg
20110311220856!Smaller_Dome_of_Taj_Mahal_Palace_Hotel.jpg2011-Feb-11 21:35:472.5Mimage/jpeg
20110312182600!Burrard-Inlet-map-en.svg2011-Mar-12 18:20:5991.3Kapplication/octet-stream
20110312182658!Burrard-Inlet-map-en.svg2011-Mar-12 18:26:0079.7Kapplication/octet-stream
20110312230145!Adriaen_van_Ostade_Smiling_Smoker.jpg2006-Feb-08 20:52:3073.9Kimage/jpeg
20110312235724!96-9862_e02z.jpg2010-Mar-16 21:06:2770.4Kimage/jpeg
20110314074936!Anders_Zorn_-_Självporträtt_i_rött_(1915).jpg2006-Jul-29 06:42:4015.0Kimage/jpeg
20110314075152!Anders_Zorn_-_Självporträtt_i_rött_(1915).jpg2011-Mar-14 07:49:3656.8Kimage/jpeg
20110314115109!Ee_real_gdp_growth.svg2010-Apr-15 18:47:4332.2Kapplication/octet-stream
20110314155901!Escut_de_Camós.svg2009-May-29 10:53:38111.6Kapplication/octet-stream
20110314181556!Katowice_Flaga.svg2006-Mar-08 17:13:1240.3Kapplication/octet-stream
20110315080756!Vojvodina_-_Udeo_Slovaka_po_naseljima_2002.gif2010-Jul-02 07:10:52196.0Kimage/gif
20110315214756!NorthBlock.jpg2008-Sep-21 06:07:1068.2Kimage/jpeg
20110315215520!NorthBlock.jpg2011-Mar-15 21:47:56165.2Kimage/jpeg
20110315220231!NorthBlock.jpg2011-Mar-15 21:55:21167.6Kimage/jpeg
20110315232022!Avmir2k_5.png2011-Jan-20 20:13:0215.9Kimage/png
20110316125133!Teneriffa_Gesteinsschichten.JPG2008-May-27 21:16:191.9Mimage/jpeg
20110318034516!The_site_Najima_of_a_castle02.jpg2010-Aug-03 12:29:452.1Mimage/jpeg
20110318181405!Petri_Fischzug_Raffael.jpg2008-Nov-25 08:02:491.7Mimage/jpeg
20110318221956!Big_brother_countries.PNG2006-Dec-17 01:04:1747.7Kimage/png
20110318222403!Big_brother_countries.PNG2011-Mar-18 22:19:5654.2Kimage/png
20110319163140!Famille_Alesty.svg2011-Mar-19 16:28:3515.3Kapplication/octet-stream
20110319165048!Famille_Alesty.svg2011-Mar-19 16:31:4015.3Kapplication/octet-stream
20110319183713!Ernst-ludwig-gross.jpg2008-Jan-01 13:18:0344.2Kimage/jpeg
20110319204611!Famille_Alesty.svg2011-Mar-19 16:50:4815.3Kapplication/octet-stream
20110319222020!Banksy_Pollard_Street.jpg2007-Nov-03 22:03:3996.2Kimage/jpeg
20110320204100!Civezzano-Santa_Maria_Assunta-south.jpg2011-Mar-20 20:30:467.4Mimage/jpeg
20110321092945!COA_Escudos_Unasur.png2009-Apr-19 00:46:24192.6Kimage/png
20110321162421!Karlis_Ulmanis_Student.jpg2009-Mar-19 23:50:005.8Kimage/jpeg
20110322012755!Viral_entry_(Endocytosis_and_fusion).svg2011-Feb-28 16:58:3430.0Kapplication/octet-stream
20110322071208!Coprinus_comatus-3_hg.jpg2011-Mar-21 21:41:481.4Mimage/jpeg
20110322220656!Tresonecka-Reka-MK.JPG2011-Mar-21 23:49:23678.7Kimage/jpeg
20110323144108!Arseni.jpg2009-Dec-12 16:48:411.4Mimage/jpeg
20110324013316!Viral_entry_(Endocytosis_and_fusion).svg2011-Mar-22 01:27:5531.4Kapplication/octet-stream
20110325000652!Montfort-le-Gesnois_-_Église_Notre-Dame_-_3.jpg2010-Nov-02 13:52:57815.1Kimage/jpeg
20110325121621!LokomotivaŠkodaDBAG_Class_180Děčín.jpg2010-Mar-20 11:40:00214.7Kimage/jpeg
20110325121759!LokomotivaŠkodaDBAG_Class_180Děčín.jpg2011-Mar-25 12:16:221.0Mimage/jpeg
20110325131535!Yuan_Lidun.jpg2010-Dec-12 15:00:3276.9Kimage/jpeg
20110326184521!Poisson_disk_sampling.svg2011-Mar-26 18:43:2098.3Kapplication/octet-stream
20110326184640!Poisson_disk_sampling.svg2011-Mar-26 18:45:2198.4Kapplication/octet-stream
20110326230520!Jackson-county-courthouse-nc1.jpg2009-Feb-27 16:42:38764.9Kimage/jpeg
20110327214427!Riu_de_Font_Amagada.JPG2011-Mar-27 21:38:141.4Mimage/jpeg
20110328033841!TheodoreRMilton.jpg2011-Jan-15 04:56:2768.4Kimage/jpeg
20110328093629!Mars_Exploration_Rover_mk.svg2010-Oct-22 22:52:42263.1Kapplication/octet-stream
20110328115653!Berlin,_Neukoelln,_Lilienthalstrasse,_Johannes-Basilika.jpg2011-Mar-25 21:25:251.1Mimage/jpeg
20110330150819!Escudo.JPG2011-Mar-02 14:03:13143.5Kimage/jpeg
20110330153847!Wlm2_-_M0tty.svg2011-Mar-30 15:33:3410.9Kapplication/octet-stream
20110331020640!Sint_Anthonis_wapen.svg2011-Mar-31 01:55:2183.2Kapplication/octet-stream
20110331021058!Big_Man.jpg2010-Mar-30 14:28:4876.7Kimage/jpeg
20110331022234!Heath_miller_fcw.jpg2009-Feb-28 11:50:1772.1Kimage/jpeg
20110331050433!Ranunculus_lingua_marais-la-chaussee-tirancourt_80_08062008_4.JPG2011-Mar-30 20:27:483.1Mimage/jpeg
20110331121716!Fireboat_Seenator_Emil_Peters.jpg2011-Mar-31 11:57:18124.0Kimage/jpeg
20110331211627!Fireboat_Howard_T._Tellepsen_in_the_Houston_Channel_-a.jpg2011-Mar-31 20:47:3476.6Kimage/jpeg
20110402023644!Pentax_LX_MotorDrive_Batteriegriff_Langfilmmagazin_1_4_85mm_AF_Star.jpg2011-Apr-02 02:34:59344.4Kimage/jpeg
20110402023811!Pentax_LX_MotorDrive_Batteriegriff_Langfilmmagazin_1_4_85mm_AF_Star.jpg2011-Apr-02 02:36:44344.4Kimage/jpeg
20110402023939!Pentax_LX_MotorDrive_Batteriegriff_Langfilmmagazin_1_4_85mm_AF_Star.jpg2011-Apr-02 02:38:11344.4Kimage/jpeg
20110402024103!Pentax_LX_MotorDrive_Batteriegriff_Langfilmmagazin_1_4_85mm_AF_Star.jpg2011-Apr-02 02:39:39344.4Kimage/jpeg
20110402024219!Pentax_LX_MotorDrive_Batteriegriff_Langfilmmagazin_1_4_85mm_AF_Star.jpg2011-Apr-02 02:41:03344.4Kimage/jpeg
20110402024338!Pentax_LX_MotorDrive_Batteriegriff_Langfilmmagazin_1_4_85mm_AF_Star.jpg2011-Apr-02 02:42:19344.4Kimage/jpeg
20110402024501!Pentax_LX_MotorDrive_Batteriegriff_Langfilmmagazin_1_4_85mm_AF_Star.jpg2011-Apr-02 02:43:38344.4Kimage/jpeg
20110402024632!Pentax_LX_MotorDrive_Batteriegriff_Langfilmmagazin_1_4_85mm_AF_Star.jpg2011-Apr-02 02:45:01344.4Kimage/jpeg
20110402182416!Barrio_Parque_Rodo.png2011-Apr-02 18:19:22334.4Kimage/png
20110402182600!Barrio_Parque_Rodo.png2011-Apr-02 18:24:16140.8Kimage/png
20110402202348!Logo_of_Hockey_Federation_of_Ukraine.PNG2010-Apr-15 10:53:1841.9Kimage/png
20110403163444!Evgeny_Voronov_at_all-star_PBL_game_2011_(4).JPG2011-Apr-03 16:10:56472.8Kimage/jpeg
20110403170704!Picture_003.jpg2011-Feb-17 04:50:363.9Mimage/jpeg
20110403171227!Picture_003.jpg2011-Apr-03 17:07:041.4Mimage/jpeg
20110403204615!Leire_Olaberria_(2).jpg2011-Mar-30 19:13:16355.1Kimage/jpeg
20110403204645!Leire_Olaberria_(2).jpg2011-Apr-03 20:46:16355.1Kimage/jpeg
20110403222127!Fases_culturales_El_Salvador_clasico_tardio.svg2011-Apr-03 22:13:1964.7Kapplication/octet-stream
20110403222425!Fases_culturales_El_Salvador_clasico_tardio.svg2011-Apr-03 22:21:2764.7Kapplication/octet-stream
20110403223104!Fases_culturales_El_Salvador_clasico_tardio.svg2011-Apr-03 22:24:2564.8Kapplication/octet-stream
20110403223430!Fases_culturales_El_Salvador_clasico_tardio.svg2011-Apr-03 22:31:0564.8Kapplication/octet-stream
20110403224602!Fases_culturales_El_Salvador_clasico_tardio.svg2011-Apr-03 22:34:3064.8Kapplication/octet-stream
20110403225439!Fases_culturales_El_Salvador_clasico_tardio.svg2011-Apr-03 22:46:0265.4Kapplication/octet-stream
20110403230644!Fases_culturales_El_Salvador_clasico_tardio.svg2011-Apr-03 22:54:4065.4Kapplication/octet-stream
20110404010315!Fases_culturales_El_Salvador_clasico_tardio.svg2011-Apr-03 23:06:4466.3Kapplication/octet-stream
20110404023734!Fases_culturales_El_Salvador_clasico_tardio.svg2011-Apr-04 01:03:1566.2Kapplication/octet-stream
20110404033550!Fases_culturales_El_Salvador_clasico_tardio.svg2011-Apr-04 02:37:3459.4Kapplication/octet-stream
20110404034542!Fases_culturales_El_Salvador_clasico_tardio.svg2011-Apr-04 03:35:5068.6Kapplication/octet-stream
20110404075253!Fases_culturales_El_Salvador_clasico_tardio.svg2011-Apr-04 03:45:4358.1Kapplication/octet-stream
20110404144610!Picture_003.jpg2011-Apr-03 17:12:271.4Mimage/jpeg
20110404145327!Zeatin.png2007-Oct-30 15:28:146.8Kimage/png
20110404180126!Blason_ville_fr_Rouen-Empire.svg2009-May-10 11:29:3981.6Kapplication/octet-stream
20110405145856!BebenhausenZeughaus.jpg2011-Apr-05 14:49:103.0Mimage/jpeg
20110406085414!WikipediansEditsGt5.PNG2011-Feb-06 19:55:4419.2Kimage/png
20110406090140!WikipediansEditsGt5.PNG2011-Apr-06 08:54:1420.1Kimage/png
20110406111028!Villa_del_Cerro.png2011-Apr-06 10:57:38310.5Kimage/png
20110406161633!OAGeislingen_183.png2011-Apr-06 13:30:52163.4Kimage/png
20110407162817!Coa_France_Family_Counts_of_Ponthieu.svg2012-Jul-29 06:15:45632.8Kapplication/octet-stream
20110407170520!Coa_Germany_Town_Bad_Hönningen_(Verbandsgemeinde).svg2011-Jan-13 15:20:5118.3Kapplication/octet-stream
20110408151452!RoyalEngineers1872.jpg2007-Aug-20 21:01:3910.9Kimage/jpeg
20110408163106!DW364-PL.svg2010-Sep-09 07:18:442.6Kapplication/octet-stream
20110409202420!Cartagena_Peninsula_looking_towards_the_Old_City.jpg2011-Apr-09 20:21:41329.3Kimage/jpeg
20110409220856!Château_de_Versailles,_tympan_Louis-Philippe_02.jpg2011-Apr-09 21:29:095.7Mimage/jpeg
20110410105202!KRW-JPY_v2.svg2011-Feb-20 11:03:32198.9Kapplication/octet-stream
20110411095458!Fahne_6_JgzPfRgt.png2011-Apr-09 06:59:54706.1Kimage/png
20110411181316!Rotterdam_kunstwerk_Idenburg.jpg2010-Apr-15 19:18:02355.8Kimage/jpeg
20110411191441!Collégiale_Saint-Germain.jpg2011-Apr-11 19:12:543.3Mimage/jpeg
20110412030620!EasyPeerReview-filling_out.png2009-Dec-21 02:01:2647.8Kimage/png
20110412030902!EasyPeerReview-filling_out.png2011-Apr-12 03:06:1870.2Kimage/png
20110412124756!Korovin_On_Balcony.jpg2005-Dec-10 08:31:0941.4Kimage/jpeg
20110413020549!Kit_body_gcat2011h.png2011-Feb-22 18:05:480.2Kimage/png
20110413024724!Arms_of_Maria_of_Castile,_Queen_of_Aragon.svg2011-Apr-11 01:58:07144.3Kapplication/octet-stream
20110413102214!Berg_komm.svg2010-Apr-06 20:27:250.9Kapplication/octet-stream
20110413114256!Tsuboya_Pottery_Museum06n4272.jpg2009-Jul-09 12:50:514.6Mimage/jpeg
20110413220611!Friesach_-_Dominikanerkirche_-_Hochaltar_-_Opferung_Isaaks.jpg2011-Jan-30 19:30:301.7Mimage/jpeg
20110414023623!SouthDakota-StateSeal.svg2011-Apr-05 19:22:18240.6Kapplication/octet-stream
20110414024058!SouthDakota-StateSeal.svg2011-Apr-14 02:36:23255.8Kapplication/octet-stream
20110414154657!Blason_ville_fr_Rouen-Empire.svg2011-Apr-04 18:01:2680.5Kapplication/octet-stream
20110414180442!Panthèreevergladessign.jpg2008-Apr-30 21:41:421.5Mimage/jpeg
20110414182526!Evenes_komm.svg2010-Jun-20 14:16:083.1Kapplication/octet-stream
20110415194715!Rivers_of_New_Brunswick_map-fr.svg2011-Apr-14 20:33:244.5Mapplication/octet-stream
20110415212421!Audi_A5_Cabriolet_1.8_TFSI_S-line_–_Heckansicht,_15._April_2011,_Wülfrath.jpg2011-Apr-15 19:06:141.9Mimage/jpeg
20110416215156!Cunningham_Cabin_in_Jackson_Hole.JPG2007-Mar-27 01:20:37742.0Kimage/jpeg
20110417000215!Petrovice_(8).jpg2011-Apr-16 22:05:364.9Mimage/jpeg
20110417020420!BRICS.svg2009-Aug-22 10:39:501.5Mapplication/octet-stream
20110417113840!Great_mosque_minaret_Aleppo.jpg2011-Apr-17 11:38:33199.0Kimage/jpeg
20110417184206!Bykle_komm.svg2010-Apr-20 21:26:143.5Kapplication/octet-stream
20110417184316!Bykle_komm.svg2011-Apr-17 18:42:062.3Kapplication/octet-stream
20110417201907!Fases_culturales_El_Salvador_clasico_tardio.svg2011-Apr-04 07:52:5352.9Kapplication/octet-stream
20110418085311!Notedetaljer.svg2011-Apr-18 08:47:056.0Kapplication/octet-stream
20110418121305!Alone_at_last2.jpg2009-Oct-11 05:17:176.6Mimage/jpeg
20110418162948!Bunnik_wapen.svg2010-Aug-14 02:44:14615.4Kapplication/octet-stream
20110418180345!WikipediansEditsGt5.PNG2011-Apr-06 09:01:4020.3Kimage/png
20110419123353!BOLD_Blood_Oxygenation_Level_Dependent_Relaxation.svg2011-Apr-19 12:14:2021.6Kapplication/octet-stream
20110420222056!James_Morrison-_Brazil_vs_Scotland_Mar11.jpg2011-Apr-20 22:05:339.0Mimage/jpeg
20110421012300!Bundesarchiv_Bild_183-1983-0825-303,_Gedenkstätte_Buchenwald,_Wachturm,_Stacheldrahtzaun.jpg2010-Feb-25 13:50:1598.6Kimage/jpeg
20110421103625!Bamble_komm.svg2010-May-23 17:28:427.1Kapplication/octet-stream
20110421161959!Roman_Empire_125.png2011-Feb-01 00:55:593.8Mimage/png
20110422115835!Kirche_von_Katharinenfeld.jpg2010-Oct-21 20:20:161.5Mimage/jpeg
20110422133142!KeyboardIndicatorAlternateLayout.JPG2011-Apr-22 13:26:40906.3Kimage/jpeg
20110422220456!Molas_pass_pano_May29_2007.jpg2011-Apr-22 16:16:521.9Mimage/jpeg
20110423124117!COA_Habermayer_Franz.jpg2011-Mar-21 16:11:12279.1Kimage/jpeg
20110423135115!Лого_ХК_Донбасс.jpg2011-Apr-23 13:51:1456.8Kimage/jpeg
20110425214248!Nuno_Gonçalves_St_Vincent_detail_1460.jpg2009-Jan-06 17:12:39245.9Kimage/jpeg
20110426033147!3rd_Infantry_Brigade1.jpg2011-Feb-18 20:01:1852.9Kimage/jpeg
20110426033151!3rd_Infantry_Brigade1.jpg2011-Apr-26 03:31:4758.4Kimage/jpeg
20110426033155!3rd_Infantry_Brigade1.jpg2011-Apr-26 03:31:5156.5Kimage/jpeg
20110426111149!Albertwille_0001.jpg2011-Apr-26 11:10:58311.6Kimage/jpeg
20110427111853!KeyboardIndicatorAlternateLayout.JPG2011-Apr-22 13:31:42311.8Kimage/jpeg
20110427190628!Fotothek_df_roe-neg_0006125_007_Roger_Rössing_beim_Fotografieren_eines_kleinen_Mädchens.jpg2009-Apr-16 13:27:04147.7Kimage/jpeg
20110428111140!Eindhoven_wapen.svg2010-Aug-11 14:55:02324.5Kapplication/octet-stream
20110428130857!Breukelen.svg2010-Jul-27 17:56:08120.4Kapplication/octet-stream
20110428180151!Famille_Alesty.svg2011-Mar-19 20:46:118.9Kapplication/octet-stream
20110429080401!Síň_Lipských.JPG2011-Apr-29 07:51:50630.7Kimage/jpeg
20110430021725!Van_Balen_and_Brueghel,_The_Wedding_of_Thétis_and_Pélée.jpg2011-Apr-30 02:17:053.5Mimage/jpeg
20110430125558!Будинок_Полтавського_губернського_земства._Вестибюль_першого_поверху.jpg2011-Apr-28 13:53:4365.8Kimage/jpeg
20110430131040!Будинок_Полтавського_губернського_земства._Вестибюль_першого_поверху.jpg2011-Apr-30 12:55:58278.9Kimage/jpeg
20110430131118!Будинок_Полтавського_губернського_земства._Вестибюль_першого_поверху.jpg2011-Apr-30 13:10:40277.7Kimage/jpeg
20110430211534!Friedrich_Wilhelm_Mengelberg,_circa_1900.jpg2011-Apr-30 20:51:577.4Kimage/jpeg
20110430211927!Friedrich_Wilhelm_Mengelberg,_circa_1900.jpg2011-Apr-30 21:15:343.9Kimage/jpeg
20110430212256!Friedrich_Wilhelm_Mengelberg,_circa_1900.jpg2011-Apr-30 21:19:273.3Kimage/jpeg
20110501110903!NowaMapaS7.svg2011-Jan-06 10:24:1394.9Kapplication/octet-stream
20110501125054!Friedrich_Wilhelm_Mengelberg,_circa_1900.jpg2011-Apr-30 21:22:563.9Kimage/jpeg
20110501202249!Ifasya_madagascariensis.JPG2009-May-02 22:17:58128.7Kimage/jpeg
20110502162751!Revised_stevens_paquette_synthesis.png2011-May-02 14:35:5918.3Kimage/png
20110502190204!Estremoz_April_2011-3.jpg2011-May-01 11:06:294.1Mimage/jpeg
20110505191440!De-Genre-Theorie-article.ogg2011-May-03 16:20:193.4Mapplication/ogg
20110506034107!Royal_Monogram_of_King_Carlos_I_of_Portugal.svg2011-Feb-03 14:16:11230.4Kapplication/octet-stream
20110507061004!20100801_kia_sportage_0002.jpg2010-Nov-07 02:16:1099.5Kimage/jpeg
20110507061012!20100801_kia_sportage_0001.jpg2010-Nov-07 02:16:0199.2Kimage/jpeg
20110507102027!L’home_del_zodíac_(xilografies_de_impremta_Carreras)_1.jpg2011-May-07 10:19:04145.8Kimage/jpeg
20110507114145!Roman_Empire_125.png2011-Apr-21 16:20:004.2Mimage/png
20110508132828!Karte_Meister-Bundesliga-2.png2010-May-09 20:06:511.1Mimage/png
20110508163327!Libellula_quadrimaculata_qtl2b.jpg2011-May-08 16:28:163.1Mimage/jpeg
20110508173200!Libellula_quadrimaculata_qtl2b.jpg2011-May-08 16:33:273.2Mimage/jpeg
20110508214337!Neuhof_(Dobbertin)_Weißer_See_2011-04-20_079.JPG2011-May-08 21:40:152.3Mimage/jpeg
20110509084308!The_Portrait_of_Empress_XiaoHe.JPG2007-Sep-30 19:40:2866.5Kimage/jpeg
20110509154753!Friedrich_Wilhelm_Mengelberg,_circa_1900.jpg2011-May-01 12:50:544.6Kimage/jpeg
20110511041325!ENI_02329184_TOURMALIJN_(01).JPG2011-May-10 06:50:443.2Mimage/jpeg
20110511092257!Strandfsthlm.gif2011-May-10 20:14:2910.3Kimage/gif
20110511122540!Euglena_scheme_ua.svg2011-May-11 12:22:3628.7Kapplication/octet-stream
20110511174929!Hyrtl_Corrosions-Anatomie_065.jpg2011-May-11 16:21:191.0Mimage/jpeg
20110512115507!Kit_body_palmeiras1011t.png2010-Oct-26 13:56:060.6Kimage/png
20110512115612!Fenwick_Roll_címertekercs_(1450-es_évek)_--_evet-hermelin.svg2010-Mar-01 20:47:49242.3Kapplication/octet-stream
20110512214452!Evgeny_Kurbatov.jpg2011-Jan-27 22:24:531.9Mimage/jpeg
20110513152511!Kit_body_gcat2011h.png2011-Apr-13 02:05:490.2Kimage/png
20110514104750!ESC_1998_Map.svg2009-Dec-06 16:57:26559.0Kapplication/octet-stream
20110514105335!ESC_1998_Map.svg2011-May-14 10:47:50576.9Kapplication/octet-stream
20110514172320!Robert_L._Capp_Great_Kantō_earthquake_1.jpg2008-May-11 10:43:45124.9Kimage/jpeg
20110514195636!Povalo-Shvejkovskij,_Ivan_Semjonovich.jpg2010-Mar-04 17:44:1411.9Kimage/jpeg
20110515170956!Rettungskette.svg2010-Jun-15 18:36:3413.8Kapplication/octet-stream
20110516083156!Cnaphalocrocis_poeyalis1.jpg2011-May-16 08:28:5029.8Kimage/jpeg
20110516083235!Cnaphalocrocis_poeyalis1.jpg2011-May-16 08:31:5629.8Kimage/jpeg
20110516204509!93greenal.jpg2011-May-16 20:45:096.9Kimage/jpeg
20110517015247!Roman_Empire_125.png2011-May-07 11:41:454.3Mimage/png
20110517030759!Arms_of_Archduke_Albert_of_Austria_and_Infanta_Isabella_of_Spain.svg2011-May-14 00:49:591.3Mapplication/octet-stream
20110517194213!Africa_North_1747,_Emanuel_Bowen_(4006898-recto).jpg2011-May-17 19:39:564.9Mimage/jpeg
20110517195443!Africa_North_1747,_Emanuel_Bowen_(4006898-recto).jpg2011-May-17 19:42:134.9Mimage/jpeg
20110518204949!Gisele_Bundchen4.jpg2006-Oct-21 22:30:26336.5Kimage/jpeg
20110518211942!Mulhouse_unite_urbaine.png2010-May-21 09:54:3425.8Kimage/png
20110519134320!Plaque_commemorating_LTC_Rolt_-_geograph.org.uk_-_678374.jpg2011-Feb-07 22:57:00218.8Kimage/jpeg
20110519163433!Duchesse_du_Maine.jpeg2007-Oct-01 03:18:13103.5Kimage/jpeg
20110519212941!Voltaic_Pile_demonstration_in_cup_configuration.jpg2011-May-15 14:05:541.5Mimage/jpeg
20110520113837!Plan_Zuid_(Berlage).jpg2008-Apr-24 23:14:3699.9Kimage/jpeg
20110522102925!Amanawa-3.jpg2011-May-22 03:02:492.0Mimage/jpeg
20110523040145!Lithospermum_ruderale_4147f.JPG2011-May-22 04:37:352.6Mimage/jpeg
20110523044045!AthanasiosTsakalov.jpg2010-May-26 13:45:2022.7Kimage/jpeg
20110523075304!Sori_sign.svg2011-May-18 15:30:273.2Kapplication/octet-stream
20110523142700!BFH_Wegkreuz_Hagenbach4.jpg2011-May-23 12:43:36253.0Kimage/jpeg
20110524030033!Rule162rand.png2011-Apr-24 22:18:530.9Kimage/png
20110524112547!Paradoxe_français.jpg2011-May-24 10:37:24163.8Kimage/jpeg
20110524163230!AthanasiosTsakalov.jpg2011-May-23 04:40:454.7Kimage/jpeg
20110524163333!AthanasiosTsakalov.jpg2011-May-24 16:32:304.2Kimage/jpeg
20110525063452!Gregson_Williams.png2010-Feb-10 19:22:37254.0Kimage/png
20110526232122!UK_Helpston-2.jpg2009-Dec-24 17:08:57198.2Kimage/jpeg
20110527111227!Ägyptische_Sammlung_03.jpg2007-Oct-09 09:39:56241.9Kimage/jpeg
20110527171113!Spandau_Groenerstraße.jpg2010-Jun-09 17:59:281.2Mimage/jpeg
20110528045110!Gonzalo_Perlo.JPG2011-Jan-14 02:34:3414.6Kimage/jpeg
20110528054344!Bust_of_Zeno-MGR_Lyon-IMG_9752.jpg2011-May-27 17:16:101.6Mimage/jpeg
20110528091409!Biblia_Fjellstedt_II_(1890)_117.jpg2009-Sep-25 14:52:491.0Mimage/jpeg
20110529233054!Map_of_comune_of_Pievebovigliana_(province_of_Macerata,_region_Marche,_Italy).svg2011-May-29 17:43:11114.3Kapplication/octet-stream
20110531132819!Floxuridine.png2007-Oct-24 17:49:117.2Kimage/png
20110601000355!Budapešť_0178.jpg2011-May-23 16:28:462.8Mimage/jpeg
20110601142917!Kit_body_palmeiras1112h.png2011-May-09 14:53:210.4Kimage/png
20110602095317!Independent_State_of_Croatia.png2011-Apr-13 21:42:52172.1Kimage/png
20110603201609!Tegucigalpa_restaurant.jpg2011-Jun-03 19:15:43361.1Kimage/jpeg
20110604102301!20100825_hyundai_elantra_1.jpg2010-Oct-12 10:33:18196.2Kimage/jpeg
20110604111616!Gare_de_Saint-Saviol.jpg2011-Jun-04 10:44:41370.5Kimage/jpeg
20110604205115!BGLogo.jpg2011-Jun-04 20:45:57612.4Kimage/jpeg
20110604215012!Orkhon_Inscription.jpg2009-Oct-29 16:01:3278.8Kimage/jpeg
20110605091901!Karte_Gemeinde_Weiach_2007.png2007-Feb-18 08:01:40263.0Kimage/png
20110606122224!Kit_body_palmeiras1112h.png2011-Jun-01 14:29:170.4Kimage/png
20110606165716!F-94C_Starfires_354th_FIS_1956.jpg2009-Jul-03 14:11:30278.6Kimage/jpeg
20110606234152!Bulgarian_Iron_Church.jpeg2006-Dec-07 17:15:30357.9Kimage/jpeg
20110608121720!Schuppenfeh.svg2010-Mar-11 20:52:3133.0Kapplication/octet-stream
20110608144646!Ezekiel_W._Cullen_Building.JPG2011-Jun-08 04:49:471.7Mimage/jpeg
20110608165008!Ezekiel_W._Cullen_Building.JPG2011-Jun-08 14:46:461.4Mimage/jpeg
20110609002545!Glen_Johnson_(boxer)_2.jpg2011-Jun-09 00:22:333.4Mimage/jpeg
20110609043047!Grey_mexican_squirrel.jpg2010-Dec-09 07:20:532.8Mimage/jpeg
20110610033850!RAID_10.svg2009-Apr-03 22:27:4628.3Kapplication/octet-stream
20110610150411!Chavicol.png2009-Oct-30 19:33:398.8Kimage/png
20110611094054!Tiglassen2.jpg2009-Apr-21 17:57:021.7Mimage/jpeg
20110611133817!Karte_Gemeinde_Weiach_2007.png2011-Jun-05 09:19:01326.9Kimage/png
20110611172340!Oldenburg_Luftaufnahme_PD_035.JPG2011-May-19 22:06:325.3Mimage/jpeg
20110611174304!Oldenburg_Luftaufnahme_PD_041.JPG2011-May-19 22:16:315.6Mimage/jpeg
20110611204434!Ezekiel_W._Cullen_Building.JPG2011-Jun-08 16:50:091.7Mimage/jpeg
20110611222018!Ezekiel_W._Cullen_Building.JPG2011-Jun-11 20:44:341.4Mimage/jpeg
20110612101939!Mariakasimira1641-2.jpg2006-Feb-15 20:23:0444.1Kimage/jpeg
20110612221423!Zinc_Sulfate.jpg2008-Mar-25 19:55:12324.2Kimage/jpeg
20110613165640!Vienna_subdivisions_(15).svg2011-Jun-13 16:46:2089.5Kapplication/octet-stream
20110613191928!FAM4_First_Flight_1927.jpg2010-Dec-18 15:56:36127.5Kimage/jpeg
20110614152334!Hamilton_Disston_Land_Sale_Notice.jpg2008-May-08 13:31:1837.4Kimage/jpeg
20110615041327!Singapore_Road_Signs_-_Warning_Sign_-_Merge.svg2011-Feb-04 16:04:281.9Kapplication/octet-stream
20110615065326!Rzad_Bartla_1_1926.jpg2008-Feb-18 19:33:0269.0Kimage/jpeg
20110617120949!Kostel_svatého_Mikuláše,_Malá_Strana_(06).jpg2011-Jun-16 19:46:086.9Mimage/jpeg
20110618085959!DichorragiaNesimachus217_1.jpg2009-Sep-02 16:19:2328.0Kimage/jpeg
20110619035653!Ezekiel_W._Cullen_Building.JPG2011-Jun-11 22:20:181.4Mimage/jpeg
20110619035812!Ezekiel_W._Cullen_Building.JPG2011-Jun-19 03:56:531.3Mimage/jpeg
20110619052932!Ezekiel_W._Cullen_Building.JPG2011-Jun-19 03:58:121.4Mimage/jpeg
20110619054550!Ezekiel_W._Cullen_Building.JPG2011-Jun-19 05:29:331.4Mimage/jpeg
20110619141833!KRW-JPY_v2.svg2011-Apr-10 10:52:02200.2Kapplication/octet-stream
20110619203300!Seedamm_-_Etzel_-_Rapperswil_Lindenhof_IMG_4570.JPG2009-Dec-05 19:29:403.6Mimage/jpeg
20110620192528!Bismarck-Eiche_bei_Bad_Kissingen,_1.jpg2008-Apr-24 15:26:52930.2Kimage/jpeg
20110622123821!Coat_of_arms_-_Jászberény.jpg2007-May-13 15:17:198.9Kimage/jpeg
20110622160413!Hyrtl_Corrosions-Anatomie_065.jpg2011-May-11 17:49:27547.2Kimage/jpeg
20110622160641!Hyrtl_Corrosions-Anatomie_065.jpg2011-Jun-22 16:04:12629.0Kimage/jpeg
20110624180432!Vienna_subdivisions_(15).svg2011-Jun-13 16:56:3989.5Kapplication/octet-stream
20110625044211!WhalePump.jpg2011-Jun-24 18:41:311.1Mimage/jpeg
20110625085150!CleromeArcesilaus162_1a.jpg2009-Aug-31 01:41:5613.7Kimage/jpeg
20110625091213!DiscophoraIndica153_1b.jpg2009-Aug-31 15:07:3322.2Kimage/jpeg
20110625125334!Hyogo_prefectural_museum_of_art03s3200.jpg2006-Sep-19 11:53:561.8Mimage/jpeg
20110625184712!Museu_Municipal_de_Caxias_do_Sul_-_Máquina_de_joeirar_feijão.jpg2008-Sep-14 23:40:35184.8Kimage/jpeg
20110625194800!Coa_Illustration_Cross_Fourchee_2.svg2011-Apr-20 07:38:021.8Kapplication/octet-stream
20110626095018!BK117.jpg2011-Jun-26 01:11:47592.2Kimage/jpeg
20110626095024!BK117.jpg2011-Jun-26 09:50:18384.8Kimage/jpeg
20110627094812!South_American_Homalodotherium.jpg2011-Jun-27 06:49:481.1Mimage/jpeg
20110627151546!Karte_Bezirk_Aigle_2008.png2007-Dec-24 12:05:23438.6Kimage/png
20110627152404!Ares_I-X_launch_08.jpg2009-Oct-28 23:53:321.9Mimage/jpeg
20110628104127!1993-1995_Honda_Accord_EXi_sedan_(2011-06-15).jpg2011-Jun-26 04:16:265.0Mimage/jpeg
20110628191131!Coa_Germany_Town_Duttenberg.svg2011-Jun-28 19:05:109.3Kapplication/octet-stream
20110629025121!Ecuador_Guayas_province.svg2009-Nov-07 05:59:01790.3Kapplication/octet-stream
20110629061503!Gedenktafel_Gundelfinger_Str_36_(Karl)_Bernhard_Lichtenberg.jpg2010-Feb-19 04:36:382.4Mimage/jpeg
20110629080358!Flag_map_of_South_Sudan.svg2011-Jun-28 23:36:444.2Kapplication/octet-stream
20110629083346!Kadya_Molodovsky.png2011-Jun-29 08:19:2564.7Kimage/png
20110630134522!Godschalk_van_Zutphen_wapen.svg2011-Jun-30 13:41:4618.8Kapplication/octet-stream
20110630211119!Barrios_de_Pamplona-Azpilagaña.svg2009-Feb-13 23:56:0122.6Kapplication/octet-stream
20110703123121!HUN_Szabadszállás_COA.jpg2009-Nov-20 11:27:589.4Kimage/jpeg
20110704183223!Pietro_Annigoni.jpg2011-Jul-04 18:20:16109.8Kimage/jpeg
20110705100423!Okres_pribram.png2009-May-12 10:14:2717.5Kimage/png
20110706153249!Baku_metro_plan.png2010-May-11 22:33:23102.9Kimage/png
20110706153843!Baku_metro_plan.png2011-Jul-06 15:32:4989.5Kimage/png
20110706155527!Baku_metro_plan.png2011-Jul-06 15:38:4389.5Kimage/png
20110706163147!Ezekiel_W._Cullen_Building.JPG2011-Jun-19 05:45:501.4Mimage/jpeg
20110706163341!Ezekiel_W._Cullen_Building.JPG2011-Jul-06 16:31:481.2Mimage/jpeg
20110706163920!Ezekiel_W._Cullen_Building.JPG2011-Jul-06 16:33:411.4Mimage/jpeg
20110707043647!Charles_McDonnell.jpg2011-Jul-05 20:35:3123.7Kimage/jpeg
20110708110345!Green-browser-5.png2011-May-03 18:07:20193.8Kimage/png
20110708172011!Rue_de_la_Voûte.JPG2009-Jun-30 16:26:192.6Mimage/jpeg
20110710092814!Grafenwerth_Rolandsbogen.JPG2006-Jun-15 13:56:081.3Mimage/jpeg
20110710185703!Flug_Westerstede_nach_Leer_2010_219.jpg2011-Oct-10 21:54:275.0Mimage/jpeg
20110711025149!Flag_of_Chièvres.svg2008-Jul-22 12:11:25110.2Kapplication/octet-stream
20110711133343!Berg_komm.svg2011-Apr-13 10:22:141.3Kapplication/octet-stream
20110711140652!El_Alamein_Aussie_9th_edited.JPG2008-Aug-04 21:00:281.9Mimage/jpeg
20110711210312!Por_liberal.jpg2011-Jul-11 17:43:4764.2Kimage/jpeg
20110713045954!Minute_Maid_Logo.svg2011-Jul-12 18:27:40116.6Kapplication/octet-stream
20110713102526!Coa_Illustration_Cross_Fourchee_2.svg2011-Jun-25 19:48:001.9Kapplication/octet-stream
20110713181758!OAStuttgartAmt_123.png2011-Jul-13 12:16:59303.5Kimage/png
20110714014027!WOSM-WAGGGS-Africa_Region.svg2010-Aug-23 20:38:311.5Mapplication/octet-stream
20110714153412!WOSM-WAGGGS-Africa_Region.svg2011-Jul-14 01:40:28196.8Kapplication/octet-stream
20110714161618!Jesolo_hotel.jpg2011-Jul-14 15:39:35617.9Kimage/jpeg
20110714203857!Cargo_pant,_female.JPG2010-Sep-09 18:41:452.9Mimage/jpeg
20110715093643!Wuerflach_Wehrkirchen.JPG2006-May-07 21:14:57681.9Kimage/jpeg
20110715202621!Zeatin.png2011-Apr-04 14:53:2717.9Kimage/png
20110715202657!Zeatin.png2011-Jul-15 20:26:2125.8Kimage/png
20110716010411!Vojvodina_-_Udeo_Slovaka_po_naseljima_2002.gif2011-Mar-15 08:07:56196.7Kimage/gif
20110716104857!Yevgeny_Alexandrovich_Khoroshevtsev.jpg2011-Jul-15 13:11:59347.3Kimage/jpeg
20110716122050!Songsh.jpg2010-Jan-02 12:02:5915.1Kimage/jpeg
20110718130913!DK13-PL.svg2010-Jul-25 14:47:011.8Kapplication/octet-stream
20110718152349!DK42-PL.svg2010-Aug-13 04:12:571.4Kapplication/octet-stream
20110718154008!Big_brother_countries.PNG2011-Mar-18 22:24:0354.1Kimage/png
20110718165057!Forma_rondó_sonata.png2011-Jul-10 12:00:385.1Kimage/png
20110718205049!04E_2011_5day.gif2011-Jul-18 14:57:5726.7Kimage/gif
20110719033240!04E_2011_5day.gif2011-Jul-18 20:50:5026.7Kimage/gif
20110719101103!Honda_FC50_3.jpg2011-Jan-21 02:17:49255.9Kimage/jpeg
20110719101255!Honda_FC50_3.jpg2011-Jul-19 10:11:030.9Mimage/jpeg
20110719101352!Honda_FC50_3.jpg2011-Jul-19 10:12:550.9Mimage/jpeg
20110719104355!Charles_Rousseliere_1906.jpg2011-Jul-19 10:40:5014.6Kimage/jpeg
20110719124749!Adam_Reed_(footballer).jpg2011-Jul-19 12:46:403.0Mimage/jpeg
20110719145701!04E_2011_5day.gif2011-Jul-19 03:32:4026.7Kimage/gif
20110719215138!04E_2011_5day.gif2011-Jul-19 14:57:0126.2Kimage/gif
20110720051747!04E_2011_5day.gif2011-Jul-19 21:51:3826.3Kimage/gif
20110720082812!Zonage-sismique-2011-fr.svg2011-Jul-20 07:42:47600.0Kapplication/octet-stream
20110720124712!04E_2011_5day.gif2011-Jul-20 05:17:4826.5Kimage/gif
20110720155731!04E_2011_5day.gif2011-Jul-20 12:47:1326.7Kimage/gif
20110720180708!Mark_Mallory.jpg2011-Jul-20 18:05:32303.9Kimage/jpeg
20110720195118!Fluss-lv-Pededze.png2011-Jul-20 18:31:07944.0Kimage/png
20110720213611!04E_2011_5day.gif2011-Jul-20 15:57:3126.5Kimage/gif
20110720225439!04E_2011_5day.gif2011-Jul-20 21:36:1126.2Kimage/gif
20110721012030!Le-prince-leeds1888-copy-NMPFT.png2011-Jun-18 14:46:41147.7Kimage/png
20110721012041!Le-prince-leeds1888-copy-NMPFT.png2011-Jul-21 01:20:30147.7Kimage/png
20110721043426!04E_2011_5day.gif2011-Jul-20 22:54:4026.4Kimage/gif
20110721082201!LocationSomaliland3.png2011-Feb-13 22:44:1968.9Kimage/png
20110721135535!04E_2011_5day.gif2011-Jul-21 04:34:2626.4Kimage/gif
20110721145321!04E_2011_5day.gif2011-Jul-21 13:55:3526.2Kimage/gif
20110721222904!Ebbets_Field,_April_20,_1913.jpg2011-Apr-19 17:34:3644.5Kimage/jpeg
20110722015543!Obrien-turn.jpg2007-Jan-21 03:19:571.7Mimage/jpeg
20110722032256!04E_2011_5day.gif2011-Jul-21 14:53:2126.4Kimage/gif
20110722062820!04E_2011_5day.gif2011-Jul-22 03:22:5626.0Kimage/gif
20110722151152!04E_2011_5day.gif2011-Jul-22 06:28:2026.4Kimage/gif
20110722154557!Klecak,_Rynak_(1932).jpg2011-Jul-22 15:31:5153.0Kimage/jpeg
20110722234521!Manuel_María_Lombardini.PNG2010-Oct-03 04:15:561.1Mimage/png
20110723154436!04E_2011_5day.gif2011-Jul-22 15:11:5325.0Kimage/gif
20110723230849!04E_2011_5day.gif2011-Jul-23 15:44:3622.3Kimage/gif
20110724024113!Enhetsflagget.png2011-Jul-24 02:07:5410.4Kimage/png
20110724032220!04E_2011_5day.gif2011-Jul-23 23:08:4922.4Kimage/gif
20110724061538!Enhetsflagget.png2011-Jul-24 02:41:1318.3Kimage/png
20110724062646!Enhetsflagget.png2011-Jul-24 06:15:3810.4Kimage/png
20110724133211!0_Seneffe_-_Galerie_palladienne_(4).jpg2011-Jul-24 13:26:41856.8Kimage/jpeg
20110724155141!04E_2011_5day.gif2011-Jul-24 03:22:2022.7Kimage/gif
20110724173546!Ducati_Diavel_2.jpg2011-Jan-12 13:07:58438.1Kimage/jpeg
20110724175745!Jama_Maszid.jpg2011-Jul-23 18:38:242.9Mimage/jpeg
20110726083845!Blason_François_Marie_d'Aboville_(1730-1817)_Pair_de_France.svg2011-Jun-22 12:14:1575.8Kapplication/octet-stream
20110727204724!KoreanWar_NK_capture2.JPG2005-Oct-10 09:11:03155.7Kimage/jpeg
20110727213130!BSicon_exhKBHFr.svg2008-Sep-17 06:15:440.9Kapplication/octet-stream
20110728091840!Ebersdorf_in_ROW.svg2010-Oct-25 10:01:32992.2Kapplication/octet-stream
20110729044451!Arabic-Language-Flag.svg2008-Jun-18 23:28:442.1Kapplication/octet-stream
20110729185634!The_Wire_Issue30v12.pdf2011-Jul-29 18:52:523.7Mapplication/pdf
20110730124135!Ismael_Boulliau_Astronom_und_Mathematiker.jpg2010-Nov-06 02:44:37495.1Kimage/jpeg
20110731020642!Ruby_Dee.jpg2006-Nov-18 22:29:4414.4Kimage/jpeg
20110731174144!Zicht_op_Parrega1.jpg2011-Jul-31 17:41:31307.3Kimage/jpeg
20110801203218!ShibePark1973HABS7of9.jpg2011-Jun-11 04:53:16204.4Kimage/jpeg
20110801225649!King1922.jpg2008-Jan-06 20:48:5823.8Kimage/jpeg
20110801235512!Kylemunro1.JPG2009-Aug-16 16:21:172.2Mimage/jpeg
20110802201816!Flug_Emden_2010_067.JPG2011-May-22 14:10:433.5Mimage/jpeg
20110802210135!Balingsholm_terass.jpg2010-Jun-30 17:43:44422.9Kimage/jpeg
20110803125552!000932pv.jpg2011-Jan-04 00:01:08119.2Kimage/jpeg
20110803142155!NowaMapaS7.svg2011-May-01 11:09:0395.7Kapplication/octet-stream
20110805062527!Glen_Johnson_(boxer)_2.jpg2011-Jun-09 00:25:451.0Mimage/jpeg
20110805100105!F_bih02.png2007-Jul-16 08:14:5110.2Kimage/png
20110805181234!Juno_launch_screenshot.jpg2011-Aug-05 16:46:459.3Kimage/jpeg
20110805181442!Ibodutant_structure.svg2008-Aug-19 19:50:4819.4Kapplication/octet-stream
20110805202402!Juno_launch_screenshot.jpg2011-Aug-05 18:12:34209.5Kimage/jpeg
20110806054623!JGSDF_Lieutenant_Colonel_insignia_(b).svg2011-Jul-31 14:53:3749.7Kapplication/octet-stream
20110807012909!Hänigsen,_St._Petri-Kirche.jpg2007-Dec-29 19:56:182.1Mimage/jpeg
20110807145511!Oberambach-6.jpg2011-Jul-23 12:43:13802.3Kimage/jpeg
20110808125618!Nokia_X7-00.png2011-Aug-08 12:53:19152.3Kimage/png
20110808150537!Palladio_filtered.jpg2011-Aug-08 15:04:0289.4Kimage/jpeg
20110808171820!Scheveningen_zoals_de_Duitsers_het_achterlieten_Weeknummer_45-46_-_Open_Beelden_-_24609.ogv2010-Nov-20 23:41:104.8Mapplication/octet-stream
20110808185033!Kit_body_celtic1112a.png2011-May-27 18:53:430.3Kimage/png
20110809115222!WikipediansEditsGt5.PNG2011-Apr-18 18:03:4520.8Kimage/png
20110809120558!MahaldiaSahadeva242_1a.jpg2009-Sep-02 14:05:2677.4Kimage/jpeg
20110809125019!F-16_Demo_Team_take-off.jpg2011-Jul-22 17:38:375.4Mimage/jpeg
20110809143816!Cady_Coleman_stamp.jpg2009-May-14 12:58:399.9Kimage/jpeg
20110809145801!Srbija_-_Sudovi_opste_nadleznosti_2008.gif2011-Jul-25 19:37:07191.7Kimage/gif
20110811085618!Vint_Cerf_-_2010.jpg2010-Sep-17 12:00:072.5Mimage/jpeg
20110811091902!KRW-JPY_v2.svg2011-Jun-19 14:18:33201.8Kapplication/octet-stream
20110811114853!Levovik.jpg2011-Aug-11 11:48:42224.7Kimage/jpeg
20110811145946!Kit_shorts_quixadafc11.png2011-Apr-19 17:21:550.2Kimage/png
20110812073336!Tile_n_drawing-p4gm-a.svg2008-Oct-14 09:28:1713.4Kapplication/octet-stream
20110813085518!Catania_Chiostro_Gesuiti.jpg2007-Feb-12 18:21:592.9Mimage/jpeg
20110813204405!Bandeira_da_Paraíba.svg2007-Aug-11 17:30:585.4Kapplication/octet-stream
20110814004655!Bandeira_da_Paraíba.svg2011-Aug-13 20:44:054.7Kapplication/octet-stream
20110814075238!Catania_Chiostro_Gesuiti.jpg2011-Aug-13 08:55:18191.4Kimage/jpeg
20110814080548!Leipzig_Auerbachs_Keller_1.JPG2011-Feb-03 20:25:45300.5Kimage/jpeg
20110814124618!Nova_polemica-pag137.png2011-Aug-14 12:07:12152.4Kimage/png
20110814214630!Björkekind_vapen.svg2010-Sep-12 01:02:028.5Kapplication/octet-stream
20110814214719!Lösing_vapen.svg2008-Oct-13 16:14:373.1Kapplication/octet-stream
20110814232003!Nås_vapen.svg2009-Sep-23 00:06:198.9Kapplication/octet-stream
20110814232039!Skänninge_vapen.svg2010-Jan-24 16:22:0235.8Kapplication/octet-stream
20110814232131!Tollarp_vapen.svg2009-Dec-07 03:18:2019.8Kapplication/octet-stream
20110814234148!Sanyo_Shinkansen_map.png2010-Sep-07 08:32:4045.6Kimage/png
20110815084305!Mariestad_vapen.svg2008-May-19 18:18:417.7Kapplication/octet-stream
20110815120027!Robert_Recorde_(306312390).jpg2011-Aug-13 20:38:22101.5Kimage/jpeg
20110815130805!Svenska_Heraldiska_Föreningen_vapen,_hela.svg2010-Nov-10 22:46:0351.4Kapplication/octet-stream
20110816004256!Black_Veil_Brides_at_Warped_Tour_2011-08-09_01.jpg2011-Aug-12 14:46:541.3Mimage/jpeg
20110816064036!Bacabal_6.jpg2011-Jun-20 12:54:00133.0Kimage/jpeg
20110816114937!Gekfpeshka.svg2011-Aug-16 11:43:040.2Kapplication/octet-stream
20110816151331!JGSDF_Lieutenant_Colonel_insignia_(b).svg2011-Aug-06 05:46:2349.7Kapplication/octet-stream
20110816223151!Philipp_von_solms-lich.jpg2010-Feb-22 19:50:58100.5Kimage/jpeg
20110817015520!Black_Veil_Brides_at_Warped_Tour_2011-08-09_01.jpg2011-Aug-16 00:42:5774.8Kimage/jpeg
20110817230529!Atlas_D_with_Mercury-Atlas_5_(Nov._29_1961).jpg2006-Dec-19 15:55:3416.1Kimage/jpeg
20110818042936!The_french_clown_mime_Jyjou*.jpg2011-Aug-17 20:35:3432.0Kimage/jpeg
20110818134554!Vista_do_Miradouro_de_Sta._Justa_-_Lisboa_(Portugal)2.jpg2007-Jan-05 16:30:144.1Mimage/jpeg
20110818195800!Flug_Emden_2010_092.JPG2011-May-22 14:47:134.1Mimage/jpeg
20110818231559!Bln_Siegessäule1.jpg2010-Jul-30 15:52:31874.4Kimage/jpeg
20110819075111!Heart_Peaks_north.jpg2011-Mar-20 07:19:3634.2Kimage/jpeg
20110820173431!SG323.jpg2006-Dec-10 21:42:21250.0Kimage/jpeg
20110820182504!43,_45_rue_Gomot.jpg2011-Aug-20 15:59:35320.6Kimage/jpeg
20110820231230!Ángel_Maturino_Reséndiz.jpg2008-Feb-16 13:50:479.7Kimage/jpeg
20110821035414!JGSDF_Lieutenant_Colonel_insignia_(b).svg2011-Aug-16 15:13:3254.8Kapplication/octet-stream
20110821090723!Karte_Gemeinde_Münchenwiler_2011.png2010-Dec-24 12:35:171.9Mimage/png
20110821091030!Karte_Gemeinde_Neuenegg_2011.png2010-Dec-24 12:37:321.9Mimage/png
20110821113435!Flug_Emden_zum_Pilsumer_Leuchtturm_2010_004.JPG2011-May-22 19:40:394.2Mimage/jpeg
20110822000642!Tisová_u_Vysokého_Mýta_5_08-2011.JPG2011-Aug-21 18:22:232.1Mimage/jpeg
20110822163137!The_Leasowe_Castle_pub,_Wallasey_-_DSC06115.JPG2010-Jun-13 15:47:353.5Mimage/jpeg
20110823065838!Villa_Berg,_Nordfassade,_rechtes_Venus-und-Amor-Relief.jpg2011-Aug-20 15:49:1579.0Kimage/jpeg
20110823142649!Kamchatka_in_Russia.svg2011-Jul-29 14:13:146.4Mapplication/octet-stream
20110823184450!CarmenHernandezJMJ.JPG2011-Aug-23 18:34:042.2Mimage/jpeg
20110823194122!Flug_Emden_zum_Pilsumer_Leuchtturm_2010_086.JPG2011-May-22 21:18:033.2Mimage/jpeg
20110823195840!Flug_Emden_zum_Pilsumer_Leuchtturm_2010_093.JPG2011-May-22 21:26:155.2Mimage/jpeg
20110824002913!Wilhelm_Bock.jpg2011-Aug-12 14:12:549.0Kimage/jpeg
20110824211702!Dreieck_Generator_OPAMP.png2011-Jun-30 17:42:185.9Kimage/png
20110824211712!Dreieck_Generator_OPAMP.png2011-Aug-24 21:17:037.6Kimage/png
20110826044816!Gold_nanocages_application.jpg2011-Aug-26 04:17:57199.6Kimage/jpeg
20110826045551!MrTseSingNongMsTamYukLan1935March9SatKS41.jpg2011-Aug-23 12:38:05714.4Kimage/jpeg
20110826222939!Christina_Kahrl_2009.jpg2011-Aug-26 22:26:00657.8Kimage/jpeg
20110827032519!JGSDF_Lieutenant_Colonel_insignia_(b).svg2011-Aug-21 03:54:1423.5Kapplication/octet-stream
20110827125609!DaySign_Ahau.svg2008-Nov-23 20:10:28180.8Kapplication/octet-stream
20110828100552!Wikipedians_of_CEG_-_Constitution.pdf2011-Feb-22 16:42:5145.1Kapplication/pdf
20110828171105!1943-07-01GerWW2BattlefrontAtlas.jpg2007-Dec-24 15:18:291.6Mimage/jpeg
20110829184126!T.J._Quinn_2008.jpg2011-Aug-29 18:40:49363.5Kimage/jpeg
20110829184254!Archibald_Alison.jpg2010-Mar-16 06:52:3941.5Kimage/jpeg
20110830000542!Chrám_svatého_Víta_7923.jpg2011-Jun-18 19:15:466.6Mimage/jpeg
20110830103138!POL_COA_Kliński_II.svg2011-Aug-30 08:41:07266.9Kapplication/octet-stream
20110830173450!Alga_District_Kazakhstan.png2009-Jul-18 13:29:1653.7Kimage/png
20110831044001!Xuechen_olympics2008.jpg2008-Dec-10 22:15:3212.3Kimage/jpeg
20110831110457!Mardakert_in_Nagorno-Karabakh_Republic_(de-facto)_(semi-independent).svg2011-Aug-31 09:52:31132.5Kapplication/octet-stream
20110831154016!Municipality_of_Tsalenjikha,_Samegrelo_Mkhare,_Georgia.svg2010-Sep-04 15:49:252.0Mapplication/octet-stream
20110831165540!Karte_Gemeinde_Haut-Intyamon_2011.png2010-Dec-21 20:08:13659.4Kimage/png
20110831185950!Karte_Gemeinde_Vuisternens-en-Ogoz_2007.png2007-Apr-07 13:17:49397.5Kimage/png
20110831201326!Frei_Montalva_(1964).JPG2011-Aug-31 01:12:501.6Mimage/jpeg
20110831215816!Niaśviž,_klaštar_daminikanaŭ.jpg2011-Aug-31 21:57:08139.8Kimage/jpeg
20110901081950!Flag_of_Yokote_Akita.JPG2011-Jul-22 20:05:3228.9Kimage/jpeg
20110902000422!RO_B_Flamanda_church.jpg2011-Sep-01 18:38:474.7Mimage/jpeg
20110902040343!Alga_District_Kazakhstan.png2011-Aug-30 17:34:5093.7Kimage/png
20110902063543!Prelucrare_3D_pentru_Maglavit,_Hunia,_Golenti_-_Romania.jpg2011-Sep-02 06:30:02242.9Kimage/jpeg
20110902074115!WOSM-WAGGGS-Africa_Region.svg2011-Jul-14 15:34:13201.1Kapplication/octet-stream
20110903163432!La_Bruyère_-_Album,_Hachette,_1882.djvu2010-Jul-08 07:23:170.9Mapplication/octet-stream
20110903165709!AITR-474.djvu2009-Oct-13 00:52:586.3Mapplication/octet-stream
20110904062921!Katódsugarak_mágneses_mezőben(2).jpg2010-May-15 21:59:39112.5Kimage/jpeg
20110904151850!AlcyoneWebsteriKeulemans.jpg2010-Dec-18 14:33:54665.0Kimage/jpeg
20110905000906!Euerbach_Judenfriedhof_18.jpg2011-Sep-03 21:33:04873.4Kimage/jpeg
20110905001844!Església_del_castell_de_Vulpellac-_cementiri.JPG2011-Sep-04 21:26:352.5Mimage/jpeg
20110905204123!Del3.jpg2011-Sep-05 20:31:58267.2Kimage/jpeg
20110905210222!Del3.jpg2011-Sep-05 20:41:23241.3Kimage/jpeg
20110907213932!Chapelle_de_l'Espérance_porte.jpg2011-Sep-07 21:16:582.7Mimage/jpeg
20110908100757!Tune_Yards-9.jpg2011-Sep-08 10:07:02252.7Kimage/jpeg
20110908160240!Fukuitetsudou_nishitakefu_stn.jpg2007-Mar-27 18:10:381.4Mimage/jpeg
20110909025531!Connie_Russell_&_Austine_WNBQ_camera_1951.jpg2012-Nov-19 07:06:1596.6Kimage/jpeg
20110909125210!0_Saint_Remacle_-_Malmedy_050818_(6).jpg2011-Sep-09 12:47:331.7Mimage/jpeg
20110910031549!Northern_artsakh_ethnic_map_1886-1890.png.png2011-Sep-10 02:41:26313.8Kimage/png
20110910195842!Dubrovnik_042.jpg2009-Oct-03 15:30:491.6Mimage/jpeg
20110910202247!Siersburg_Bahnhofstraße_13.jpg2011-Sep-10 20:21:182.2Mimage/jpeg
20110910215920!Hronov_(0).jpg2011-Sep-10 20:40:571.4Mimage/jpeg
20110910235530!Don_Zimmer_2009.jpg2011-Sep-10 23:53:25300.0Kimage/jpeg
20110911071527!Karte_Gemeinde_Guntmadingen_2010.png2010-Jul-26 08:17:12287.6Kimage/png
20110911080113!Pestsäule_Fürstenried.jpg2011-Sep-11 07:46:30165.7Kimage/jpeg
20110912121450!Wymeer_Hochmoor.jpg2011-Sep-12 10:56:37177.1Kimage/jpeg
20110912181540!Evangelische_Martinskirche.jpg2011-Sep-12 14:55:16694.7Kimage/jpeg
20110913140801!Jean_Renoir.jpg2010-Apr-08 11:55:4540.7Kimage/jpeg
20110914212156!Map_of_the_administrative_geography_of_the_British_Isles_with_postcode_areas.jpg2010-Jun-08 05:22:453.0Mimage/jpeg
20110915084833!Barnard_hughes_doc_1975.JPG2011-Sep-15 08:48:2677.7Kimage/jpeg
20110915103504!Immeuble_du_8_rue_Auguste-Leprevost_à_Bernay.jpg2011-Sep-15 10:11:044.6Mimage/jpeg
20110915121332!Wappen_Braunschweig-Schapen.png2011-Sep-15 11:47:28559.8Kimage/png
20110915121859!Wappen_Braunschweig-Schapen.png2011-Sep-15 12:13:3356.2Kimage/png
20110917093847!Kit_shorts_stripes_cut_black.png2010-Oct-23 13:21:431.2Kimage/png
20110917221105!Sailingmap_OG_1996.png2011-Sep-17 22:06:02943.6Kimage/png
20110918001245!Bâtiment_des_postes,_Châtel-Guyon.jpg2011-Sep-17 18:42:512.3Mimage/jpeg
20110918054400!Thomas_Edison,_1878.jpg2007-Aug-23 11:18:4587.3Kimage/jpeg
20110918100625!Haus_Landscheid_Rückseite.jpg2011-Sep-11 19:34:512.1Mimage/jpeg
20110918234614!Adrian_Franczak_2011.jpg2011-Sep-18 23:24:08179.9Kimage/jpeg
20110919062507!Stadtplatz_51,_Wels.jpg2011-Sep-17 13:53:393.9Mimage/jpeg
20110919123933!Amsterdam_Oude_Waal_39_ii_-_6231.JPG2011-Sep-18 19:03:393.2Mimage/jpeg
20110919182200!JacksonSquareNewspaper1935.jpg2008-Sep-27 15:56:2490.6Kimage/jpeg
20110920061609!Ride.jpg2011-Sep-20 06:13:322.2Mimage/jpeg
20110920061851!Ride.jpg2011-Sep-20 06:16:102.2Mimage/jpeg
20110920210436!Icone,_scene_miracolose_nelle_battaglie_di_novgorod_e_suzdalans,_1500-1550_ca,_dalla_chiesa_di_san_nicola_a_gostinolye,_dett_01.JPG2011-Sep-20 21:04:232.1Mimage/jpeg
20110921001907!3120_Amsterdam,_Korsjespoortsteeg_5A.JPG2011-Sep-19 19:32:383.4Mimage/jpeg
20110921235542!Kirishsky_rayon_Pchevskoe_SP.png2010-Oct-31 21:29:038.2Kimage/png
20110922164327!Karte_Gemeinde_Onsernone_2010.png2010-Apr-24 07:30:36573.7Kimage/png
20110922214222!Kirishsky_rayon_Pchevskoe_SP.png2011-Sep-21 23:55:4211.9Kimage/png
20110923002033!Sense.svg2011-Mar-02 16:40:461.4Kapplication/octet-stream
20110923084733!Père-Lachaise_-_François_Bazin_03.jpg2011-Sep-23 08:47:255.4Mimage/jpeg
20110923131520!Billbeee-flemishb.png2011-Sep-23 13:15:1611.8Kimage/png
20110923234757!Malbork,_Zamek_Wysoki,_Kaplica_Św._Anny,_tympanon_portalu.01.jpg2011-Sep-22 22:45:371.0Mimage/jpeg
20110924001304!Biserica_de_lemn_din_Baica_1.jpg2011-Sep-23 18:13:557.2Mimage/jpeg
20110924011724!The_Austrian_Imperial_family_in_Göddollo.jpg2006-Jul-28 21:37:10210.7Kimage/jpeg
20110924025731!Polish_II_Corps_(65)_-_1946-09-02_-_Shady_Camp_-_Kolek.jpg2008-Aug-30 02:37:101.4Mimage/jpeg
20110924181933!Jerez-DSC09619.JPG2011-Sep-18 19:48:411.2Mimage/jpeg
20110925030953!Regensburg_2011_(27).JPG2011-Sep-23 15:00:154.1Mimage/jpeg
20110926000556!Rijksmonument_511837_Interieur_Kasteel_Loenersloot_26.JPG2011-Sep-25 21:55:475.4Mimage/jpeg
20110926015040!SouthDakota-StateSeal.svg2011-Apr-14 02:40:58255.8Kapplication/octet-stream
20110926015603!SouthDakota-StateSeal.svg2011-Sep-26 01:50:41255.8Kapplication/octet-stream
20110926201140!Ireland_vs_Georgia,_Rugby_World_Cup_2007_Little_and_Large.jpg2007-Nov-23 21:30:20165.6Kimage/jpeg
20110927091734!Karte_Gemeinde_Dozwil_2011.png2010-Dec-22 09:18:48397.5Kimage/png
20110927093856!Karte_Gemeinde_Dozwil_2011.png2011-Sep-27 09:17:34423.9Kimage/png
20110927131205!Tile_n_drawing-p4gm-a.svg2011-Aug-12 07:33:3613.5Kapplication/octet-stream
20110927162230!Italian_traffic_signs_-_preavviso_incrocio_extraurbano.svg2011-May-02 17:11:2736.9Kapplication/octet-stream
20110927183549!Alexe_Church,_Bucharest.jpg2011-Sep-27 18:29:414.0Mimage/jpeg
20110928065341!Biblia_Fjellstedt_I_(1890)_639.jpg2009-Nov-16 12:40:551.0Mimage/jpeg
20110929000958!Carrer_de_Gualta-2.jpg2011-Sep-28 21:14:351.6Mimage/jpeg
20110929072601!Drottningholms_slott_trapphus_gravyr.jpg2011-Sep-22 13:44:4436.3Kimage/jpeg
20110929103204!KRW-JPY_v2.svg2011-Aug-11 09:19:02201.8Kapplication/octet-stream
20110929161910!Fred2011.png2011-Sep-29 16:13:39161.7Kimage/png
20110929170624!Opera_20_piantina2resia.JPG2008-Apr-19 10:59:0845.2Kimage/jpeg
20110929231204!KU_Wiki_Aktualnosci_ikona.svg2011-Sep-29 22:47:4453.4Kapplication/octet-stream
20110930004515!KU_Wiki_Aktualnosci_ikona.svg2011-Sep-29 23:12:0471.2Kapplication/octet-stream
20110930021633!Riddarholmskyrkan_Karolinska_gravkoret.jpg2011-Sep-30 02:07:295.5Mimage/jpeg
20110930203311!MARZENIE_I.jpg2011-Sep-30 20:18:364.4Mimage/jpeg
20111001002108!Església_de_Sant_Corneli_i_Sant_Cebrià_(2).JPG2011-Sep-30 15:29:573.1Mimage/jpeg
20111002061949!Saavedra_grd.jpg2006-Dec-18 18:52:3943.6Kimage/jpeg
20111002073820!The_First_stage_of_the_Tyne_and_Wear_Metro_Development.jpg2011-Oct-01 19:12:091.9Mimage/jpeg
20111002110002!The_Seventh_stage_of_the_Tyne_and_Wear_Metro_Development.jpg2011-Oct-01 20:47:171.9Mimage/jpeg
20111002120105!Figurenbildstock_hl._Johannes_Nepomuk,_Vorau.jpg2011-Oct-02 10:54:406.1Mimage/jpeg
20111002190757!Beautiful_Rough_Collie.jpg2011-Oct-02 16:43:4482.8Kimage/jpeg
20111003061727!Songthaew-Hammock.JPG2007-Mar-02 10:46:05477.6Kimage/jpeg
20111003121833!Carrrousel_Heerde.jpg2011-Oct-03 10:35:376.2Mimage/jpeg
20111003162124!Brighton-StBartholomew-Nave-NorthSide-SideAltar-01.jpg2007-Jan-31 23:38:20538.6Kimage/jpeg
20111004140444!Mauritius-Port_Louis_District.svg2011-Oct-04 13:26:5289.9Kapplication/octet-stream
20111004151809!Thomas_Edison,_1878.jpg2011-Sep-18 05:44:00433.9Kimage/jpeg
20111004154946!Mauritius-Port_Louis_District.svg2011-Oct-04 14:04:4484.8Kapplication/octet-stream
20111005060229!EastEnders_Television.png2011-Oct-05 06:02:2221.7Kimage/png
20111005060233!EastEnders_Television.png2011-Oct-05 06:02:2921.7Kimage/png
20111005060236!EastEnders_Television.png2011-Oct-05 06:02:3321.7Kimage/png
20111005091942!Italian_traffic_signs_-_preavviso_di_controllo_velocità.svg2010-May-30 10:41:28100.3Kapplication/octet-stream
20111005171617!Jan_Michał_Sałahub._Ян_Міхал_Салагуб.jpg2011-Oct-05 17:14:4447.1Kimage/jpeg
20111005190337!2009-01-22_BWH-Heart-Stdy_1194_JK.jpg2011-Oct-05 18:43:282.0Mimage/jpeg
20111006174433!Iłowo_Osada_CoA.svg2011-Feb-28 16:23:5415.3Kapplication/octet-stream
20111006184449!ThreeDots.svg2011-Oct-06 18:21:251.5Kapplication/octet-stream
20111006190129!Akoopal-wlm-da-aabenraa-slotsmolle-3.JPG2011-Sep-30 18:44:11161.5Kimage/jpeg
20111007022923!Giant_Pizza_box_Copenhagen.jpg2011-Sep-30 19:15:29367.3Kimage/jpeg
20111007092400!ThreeDots.svg2011-Oct-06 18:44:490.5Kapplication/octet-stream
20111008075957!YosriDec04MawarKampung1_OutlinedF.png2011-Oct-06 05:28:40198.4Kimage/png
20111008141257!Xiangqi1.JPG2011-Aug-29 01:15:391.4Mimage/jpeg
20111009103024!PactoDeNoAgresiónSoviéticoPolaco23121932.jpeg2011-Sep-28 18:41:5825.8Kimage/jpeg
20111009181221!11-09-04-iaa-by-RalfR-311.jpg2011-Oct-05 12:33:29514.1Kimage/jpeg
20111009221729!PPDlogo.gif2010-Dec-12 23:01:384.2Kimage/gif
20111010020552!Richmond_Precinct_Hotel_001.JPG2011-Oct-10 00:38:053.3Mimage/jpeg
20111010030024!Seme_carte_ursun_karuta_denari.svg2011-Oct-10 01:05:2863.3Kapplication/octet-stream
20111010130531!Kit_socks_slask1112h.png2011-Jul-11 21:53:160.3Kimage/png
20111010145213!Bogotá_carrera_68_b_con_calle_25_Ciudad_Salitre_Occidental_Fontibón.JPG2011-Oct-10 14:48:552.6Mimage/jpeg
20111011073751!Di_alcuni_sepolcri_della_necropoli_Felsinea_fig_4.png2011-Oct-11 06:44:0532.3Kimage/png
20111011164734!RobertoFoster-FelipeContreras.jpg2011-Oct-11 16:34:35108.8Kimage/jpeg
20111011235532!Dual_elongated_square_pyramid.png2011-Oct-11 23:06:5131.0Kimage/png
20111012103355!USAF_Special_Tactics_Officer_Flash.png2011-Oct-12 10:33:47327.7Kimage/png
20111012103403!USAF_Special_Tactics_Officer_Flash.png2011-Oct-12 10:33:55304.4Kimage/png
20111012213636!Definitif_1965_Burung_Pacat.jpg2011-Oct-12 21:15:3529.3Kimage/jpeg
20111012213732!Definitif_1965_Burung_Pacat.jpg2011-Oct-12 21:36:3651.2Kimage/jpeg
20111013031300!PunjabPatiala.png2009-Sep-24 03:23:10154.5Kimage/png
20111013111147!STS-51-F_crew.jpg2006-Sep-04 18:12:298.0Mimage/jpeg
20111013143723!DK68-PL.svg2010-Dec-20 17:08:173.6Kapplication/octet-stream
20111013173133!Georges_Gault.jpeg2009-Nov-19 22:46:2228.6Kimage/jpeg
20111013174424!Mosaïque-Aquae-Sextiae.jpg2010-Apr-20 21:09:32314.9Kimage/jpeg
20111014213520!Whatisseamless8.jpg2011-Oct-14 21:35:1951.8Kimage/jpeg
20111017082527!Isaac_Young_Davis,_ca._1860s.jpg2011-Oct-17 05:06:03116.6Kimage/jpeg
20111018053614!Likelike6.jpg2011-Oct-16 22:40:1662.4Kimage/jpeg
20111018121936!HMK_400.jpg2009-Oct-26 11:17:0023.5Kimage/jpeg
20111018183626!Frankfurt_Am_Main-Peterskirche-Kreuzigungsgruppe-Backoffen.jpg2006-Oct-08 19:29:462.9Mimage/jpeg
20111019034833!Likelike6.jpg2011-Oct-18 05:36:1452.6Kimage/jpeg
20111019194815!Kit_body_WIZARDS_98h.png2011-Oct-16 18:34:100.3Kimage/png
20111019212443!Instituto_Superior_de_Diseño.jpg2011-Oct-19 21:21:29146.5Kimage/jpeg
20111019221425!NYC_Montage_2011.jpg2011-Oct-11 21:28:07375.9Kimage/jpeg
20111020173945!The_Seventh_stage_of_the_Tyne_and_Wear_Metro_Development.jpg2011-Oct-02 11:00:031.9Mimage/jpeg
20111020185520!The_First_stage_of_the_Tyne_and_Wear_Metro_Development.jpg2011-Oct-02 07:38:211.9Mimage/jpeg
20111020202650!Spirostomum_minus.ogg2011-Oct-20 02:40:003.0Mapplication/ogg
20111021071920!Olympus_IS_1000_-2.jpg2009-Oct-31 03:19:40193.0Kimage/jpeg
20111021131009!Primaria_Balti.jpg2010-Nov-04 14:43:35107.5Kimage/jpeg
20111022023738!Fereydoon_shahr.png2011-Oct-22 02:34:4828.7Kimage/png
20111022153902!Toronto_-_ON_-_CN_Tower5.jpg2011-Oct-22 15:37:132.6Mimage/jpeg
20111022215601!Olympus_IS_1000_-2.jpg2011-Oct-21 07:19:20380.2Kimage/jpeg
20111024225707!White_Roses-1890-Vincent_van_Gogh.jpg2005-Sep-14 03:25:573.4Mimage/jpeg
20111025020403!SFEC_BritMus_Asia_034.JPG2007-Feb-25 21:10:16993.4Kimage/jpeg
20111025030221!Michael_Douglas_Streets_of_San_Francisco_1972.JPG2011-Oct-25 03:01:29162.4Kimage/jpeg
20111025045834!Ensoniq_ASR-10_rear.jpg2010-Dec-10 19:18:1290.8Kimage/jpeg
20111025072140!Brescia_Monte_pietà_romani9_by_Stefano_Bolognini.JPG2010-Feb-18 22:27:291.4Mimage/jpeg
20111025160753!Teguise_Guatiza_-_Jardin_-_Euphorbia_bicompacta_02_ies.jpg2011-Oct-25 14:25:223.5Mimage/jpeg
20111025193826!German_Vocabulary_-_Greetings.ogg2010-Jul-11 03:20:47143.7Kapplication/ogg
20111026100253!Niederkappel_Pfarrkirche_-_Chorbogen_2_Eherne_Schlange.jpg2011-Oct-26 09:11:591.0Mimage/jpeg
20111027081049!Greg_nelson.jpg2011-Feb-27 06:06:05206.6Kimage/jpeg
20111027140816!Хлебенная_башня_с_юга.jpg2011-Oct-27 10:45:592.7Mimage/jpeg
20111028104203!Monestir_de_Santa_Maria_de_Lillet_(La_Pobla_de_Lillet)_-_1.jpg2011-Sep-25 14:59:35173.4Kimage/jpeg
20111029134656!KRW-JPY_v2.svg2011-Sep-29 10:32:04172.4Kapplication/octet-stream
20111029160806!Evenes_komm.svg2011-Apr-14 18:25:262.9Kapplication/octet-stream
20111030004338!X_tilde_parentheses_n_odd_x.svg2011-Oct-29 21:09:0725.5Kapplication/octet-stream
20111030004339!X_tilde_parentheses_n_odd_x.svg2011-Oct-30 00:43:3825.2Kapplication/octet-stream
20111030004341!X_tilde_parentheses_n_odd_x.svg2011-Oct-30 00:43:3925.5Kapplication/octet-stream
20111030013024!Berg_komm.svg2011-Jul-11 13:33:431.4Kapplication/octet-stream
20111030022821!Bamble_komm.svg2011-Apr-21 10:36:257.6Kapplication/octet-stream
20111030030002!Bykle_komm.svg2011-Apr-17 18:43:162.3Kapplication/octet-stream
20111030090910!JPY_Nominal_Effective_Exchange_Rates_(1970-).svg2011-Jan-18 11:57:4721.0Kapplication/octet-stream
20111030124744!DSC04471_Istanbul_-_Museo_archeol._-_Alessandro_Magno_-_sec._II_a.C._-_Foto_G._Dall'Orto_28-5-2006.jpg2007-Feb-01 21:47:55643.0Kimage/jpeg
20111030162436!Махачкала.png2011-Oct-29 23:03:0066.4Kimage/png
20111030171914!Махачкала.png2011-Oct-30 16:24:3774.0Kimage/png
20111030181255!Келаря20102.jpg2011-Oct-30 16:45:232.5Mimage/jpeg
20111031220957!Flickr_-_schmuela_-_IMG_6339.jpg2010-Jun-03 10:52:001.2Mimage/jpeg
20111101035754!Place_Saint-Michel_(Paris),_numéro_3,_toit.jpg2011-Nov-01 03:38:259.5Mimage/jpeg
20111101195942!The_First_stage_of_the_Tyne_and_Wear_Metro_Development.jpg2011-Oct-20 18:55:201.9Mimage/jpeg
20111101203808!The_Seventh_stage_of_the_Tyne_and_Wear_Metro_Development.jpg2011-Oct-20 17:39:451.9Mimage/jpeg
20111102090508!Marl_in_DH.svg2010-Nov-10 08:39:12445.5Kapplication/octet-stream
20111102132204!Phosphoric_acid_structure_and_formula.png2011-Oct-27 10:24:344.5Kimage/png
20111103094118!Children_in_the_Holocaust_concentration_camp_liberated_by_Red_Army.jpg2005-Aug-29 10:50:3879.8Kimage/jpeg
20111103094632!Stroop_Report_-_Warsaw_Ghetto_Uprising_10.jpg2008-Feb-17 02:04:45229.3Kimage/jpeg
20111103120006!Definitif_1965_Burung_Pacat.jpg2011-Oct-12 21:37:3251.2Kimage/jpeg
20111103133926!Night_view_of_Nakasu_and_Canal_City_Hakata_November_2011.jpg2011-Nov-03 12:53:36642.1Kimage/jpeg
20111103174724!Bamble_komm.svg2011-Oct-30 02:28:217.5Kapplication/octet-stream
20111103204922!Bykle_komm.svg2011-Oct-30 03:00:032.7Kapplication/octet-stream
20111104111105!Berg_komm.svg2011-Oct-30 01:30:241.3Kapplication/octet-stream
20111104114931!Evenes_komm.svg2011-Oct-29 16:08:063.2Kapplication/octet-stream
20111104172555!Vitoria_plaza_españa.jpg2006-Mar-25 19:25:071.0Mimage/jpeg
20111104173946!Vitoria_plaza_españa.jpg2011-Nov-04 17:25:55823.0Kimage/jpeg
20111105120301!Oleviste_kirik_2007-3.jpg2008-Jan-05 15:26:29191.6Kimage/jpeg
20111105140450!Alexe_Church,_Bucharest.jpg2011-Sep-27 18:35:503.3Mimage/jpeg
20111105200226!Wikistress3D_4_pl.png2005-Jun-16 11:46:1561.9Kimage/png
20111107003912!Na_mogile_Gapona.jpg2011-Nov-01 20:56:4756.7Kimage/jpeg
20111107081344!Hypocala_subsatura2.jpg2011-Nov-06 14:52:55148.1Kimage/jpeg
20111107122052!Klosterkirche_Andechs_Innen_1.JPG2012-Nov-01 18:37:086.6Mimage/jpeg
20111107161203!Gold_Christian_cross.svg2008-Dec-11 07:41:2175.4Kapplication/octet-stream
20111107182001!Saint_Andrew_in_Grenada.svg2011-Nov-07 18:16:29407.6Kapplication/octet-stream
20111108001517!Celestun,_Yucatan.jpg2011-Nov-08 00:12:39105.0Kimage/jpeg
20111108040641!Ulm_Fischerviertel.JPG2011-Jan-31 00:04:566.2Mimage/jpeg
20111108145054!LKTB_dep_front.jpg2011-Mar-28 15:02:02226.4Kimage/jpeg
20111109140628!Olpener_Str._Wegekreuz_.jpg2011-Sep-16 11:22:522.5Mimage/jpeg
20111109223047!SideChapelJMJEncarnacio04.jpg2011-Oct-02 15:35:083.9Mimage/jpeg
20111110103702!Schlossruine_Thaur,_Detail_Mauerwerk.JPG2011-Nov-10 02:56:057.9Mimage/jpeg
20111111215525!Kit_right_arm_leondehuanuco2010v.png2011-Aug-06 21:52:190.4Kimage/png
20111111215845!Kit_right_arm_leondehuanuco2010v.png2011-Nov-11 21:55:250.4Kimage/png
20111112155614!Mönchhof_in_Ürzig_an_der_Mosel.jpg2008-Nov-20 11:46:161.5Mimage/jpeg
20111113092230!Jet2_737-300_G-CELO_side.jpg2009-Sep-02 23:43:57788.0Kimage/jpeg
20111113164208!ThomasWoodstock.jpg2010-Jan-22 19:21:3415.4Kimage/jpeg
20111114134356!AT-4645_Kleine_Pfarrgasse_33_02.JPG2011-Sep-25 16:25:332.1Mimage/jpeg
20111114212122!Empty1.png2011-Nov-14 21:05:432.8Kimage/png
20111114212255!Empty1.png2011-Nov-14 21:21:222.8Kimage/png
20111115071043!Mindestlohn_und_Erwerbslosenquote.png2007-Dec-06 20:36:3669.9Kimage/png
20111115094044!Lower_Manhattan_View.jpg2008-Jul-30 00:51:582.5Mimage/jpeg
20111115122229!Orla_Perc_-_mapa.png2010-Apr-22 11:00:081.4Mimage/png
20111116102510!Julbach_St.Anna_-_Beichstuhl_2_Guter_Hirte.jpg2011-Nov-13 17:32:53666.7Kimage/jpeg
20111117034007!Hydrosilation_of_Terminal_Alkyne_(anti).svg2011-Nov-17 03:31:286.7Kapplication/octet-stream
20111117092042!CN_6167.jpg2008-Jan-08 08:11:4668.7Kimage/jpeg
20111117120311!Jean-Yves_Lafesse_2011_a.jpg2011-Nov-17 11:39:379.0Mimage/jpeg
20111117122756!Pauline_Bonaparte_princesse_Borghese.jpg2009-Nov-02 17:43:0651.6Kimage/jpeg
20111118122908!Malampa_in_Vanuatu.svg2011-Nov-16 16:49:38157.9Kapplication/octet-stream
20111118160341!Julbach_St.Anna_-_Wappen.jpg2011-Nov-18 14:53:24952.0Kimage/jpeg
20111119151513!Laos_musicians_1973.jpg2011-Nov-19 14:29:1787.3Kimage/jpeg
20111119174549!Dmytro_Stoyko.jpg2009-Jul-14 15:27:1457.3Kimage/jpeg
20111119233321!Na_mogile_Gapona.jpg2011-Nov-07 00:39:1257.8Kimage/jpeg
20111120094251!DaySign_Ahau.svg2011-Aug-27 12:56:093.5Kapplication/octet-stream
20111120172858!Dunkirchreccon.jpg2006-Dec-08 20:20:3523.4Kimage/jpeg
20111120184703!11-07-31-helsinki-wv-by-RalfR-06.jpg2011-Aug-20 09:17:135.6Mimage/jpeg
20111120185551!Jimmy_correct_POV_donate_banner.png2011-Nov-20 18:07:2572.7Kimage/png
20111120204202!N3S_3040.xnbak.jpg2011-Oct-28 00:29:516.2Mimage/jpeg
20111120213313!BraessParadox1.svg2011-Nov-20 21:11:275.7Kapplication/octet-stream
20111121054319!North_Kosovo_map_EN_FR.svg2011-Nov-16 06:53:1951.5Kapplication/octet-stream
20111121090540!Aire_anneau_difference_disques.svg2011-Oct-24 07:31:5190.9Kapplication/octet-stream
20111121165044!BraessParadox1.svg2011-Nov-20 21:33:135.2Kapplication/octet-stream
20111121202435!Pokradzione_dusze.jpg2011-Nov-20 16:42:2082.5Kimage/jpeg
20111121202542!Pokradzione_dusze.jpg2011-Nov-21 20:24:35194.9Kimage/jpeg
20111122055319!North_Kosovo_map_EN_FR.svg2011-Nov-21 05:43:1952.7Kapplication/octet-stream
20111122154816!Metasequoia_glyptostroboides_Autumn_leaf_color.jpg2011-Nov-18 22:56:044.4Mimage/jpeg
20111123204602!Homosexuales_en_África_-_Entre_Mujeres.svg2011-Nov-23 20:17:23191.7Kapplication/octet-stream
20111124001522!Hussein_Chalayan_dress_2009_exhibit.jpg2011-Nov-23 23:24:14217.1Kimage/jpeg
20111124150931!06-08-11-c2_Aunslev_(Nyborg).jpg2011-Nov-18 15:19:25369.4Kimage/jpeg
20111124165253!Jacob_Knyff_English_and_dutch_ships_taking_on_stores_at_a_port.jpg2007-Dec-01 09:38:2772.6Kimage/jpeg
20111125111746!Dive_hand_signal_Boat.png2011-Nov-25 08:05:0289.7Kimage/png
20111125172756!Nickelskutterudite-mun05-32a.jpg2010-May-26 21:32:0877.8Kimage/jpeg
20111126020439!Pages_from_Prop1994.jpg2011-Nov-26 01:45:25208.7Kimage/jpeg
20111126024523!Herborn_in_LDK.svg2011-Nov-26 02:26:44135.6Kapplication/octet-stream
20111126112817!Herborn_in_LDK.svg2011-Nov-26 02:45:20135.6Kapplication/octet-stream
20111126123907!Herborn_in_LDK.svg2011-Nov-26 11:28:16775.9Kapplication/octet-stream
20111127152440!Gazetapolskacodziennielogo.png2011-Sep-10 17:52:4211.8Kimage/png
20111128040030!Bringing_Up_Father_1914_play.JPG2011-Nov-28 03:59:42204.0Kimage/jpeg
20111128115625!കോടുശ്ശേരി_പള്ളിക്കവല.jpg2011-Nov-28 11:25:3559.7Kimage/jpeg
20111128115711!ACS_Chemical_Neuroscience_logo.gif2011-Nov-28 11:57:077.6Kimage/gif
20111128115713!ACS_Chemical_Neuroscience_logo.gif2011-Nov-28 11:57:114.1Kimage/gif
20111128141805!Minuteman_statue_1_-_Old_North_Bridge.jpg2007-Sep-28 03:31:251.0Mimage/jpeg
20111129180644!Madonna_Mahlknecht_2.JPG2009-Jul-20 12:00:135.0Mimage/jpeg
20111129184726!P.K._Parakkadavu.jpg2011-Sep-06 11:32:512.1Mimage/jpeg
20111129192846!Debromination_Tetrabromo-o-cresol.svg2011-Nov-29 19:06:2973.9Kapplication/octet-stream
20111130142641!Marth_in_EIC.svg2010-Dec-09 14:10:45195.4Kapplication/octet-stream
20111201154737!Atlas_Tyrolensis7.jpg2011-Nov-24 13:52:16816.7Kimage/jpeg
20111202040808!ProhibitionSign.svg2008-Jul-05 19:30:151.1Kapplication/octet-stream
20111202185616!Michelangelo,_tondo_taddei,_1504-05_ca._04.JPG2011-Nov-30 18:16:31516.8Kimage/jpeg
20111203050950!Columbia_County_Courthouse.jpg2011-Dec-03 05:06:09881.4Kimage/jpeg
20111203051410!Columbia_County_Courthouse.jpg2011-Dec-03 05:09:50881.4Kimage/jpeg
20111203052738!Columbia_County_Courthouse.jpg2011-Dec-03 05:14:11881.4Kimage/jpeg
20111203140952!Fougères_(35)_Église_Saint-Sulpice_Tableau_L'Annonciation.jpg2011-Jan-31 20:49:2644.0Kimage/jpeg
20111203161752!Fougères_(35)_Église_Saint-Sulpice_Vitrail_2.jpg2011-Mar-01 16:41:33108.4Kimage/jpeg
20111203221935!Louvigné-de-Bais_(35)_Église_Vaisseau_central.jpg2011-May-25 09:54:3175.5Kimage/jpeg
20111204055711!HMS_Wrangler_1944_IWM_FL_21789.jpg2011-Jun-02 02:00:018.7Kimage/jpeg
20111204104146!Ned_kelly_day_before_execution_photograph.jpg2007-Mar-09 11:58:3317.3Kimage/jpeg
20111204131940!Jorge_Ruiz.JPG2011-Dec-04 13:26:5615.4Kimage/jpeg
20111204201634!Gotland-Fole_kyrka_Hauptportal_04.jpg2007-Dec-01 10:50:281.5Mimage/jpeg
20111204204711!WikiProject_Protected_areas_-_good_articles.png2011-Dec-05 21:30:3817.5Kimage/png
20111204204818!WikiProject_Protected_areas_-_good_articles.png2011-Dec-05 21:30:3817.8Kimage/png
20111205005242!George_Dawe_-_Портрет_Петра_Ивановича_Багратиона_(1765-1812)_-_Google_Art_Project.jpg2011-Feb-20 12:36:478.3Mimage/jpeg
20111205201520!Jean-François_Copé_-_Sarkozy's_meeting_in_Toulouse_for_the_2007_French_presidential_election_0215_2007-04-12.jpg2007-Apr-21 18:27:093.8Mimage/jpeg
20111206020842!2june2006_200.jpg2006-Jun-02 22:14:52289.4Kimage/jpeg
20111206021223!2june2006_217.jpg2006-Jun-02 22:19:08420.9Kimage/jpeg
20111206082907!Kone_Samardzhiev_IMARO.JPG2009-Dec-17 15:55:468.3Kimage/jpeg
20111207021443!4504.Abers_-_Côte_des_Légendes_,_Küste_der_Legenden,_coast_of_the_legends-_Brignogan-Plages,_Finistère,_Bretagne_-_Steffen_Heilfort.JPG2007-Oct-23 20:35:011.9Mimage/jpeg
20111207174521!Boxers_Staatliche_Antikensammlungen_1541.jpg2007-Oct-16 10:35:36849.6Kimage/jpeg
20111207202436!Святые_врата_и_церковь_Лествичника_за_деревом_с_Свияги.jpg2011-Dec-04 07:39:592.6Mimage/jpeg
20111207212431!Rheda-Wiedenbrück,_ev._Stadtkirche_Rheda.jpg2008-Sep-16 17:07:02337.3Kimage/jpeg
20111208030019!Macaw_hybrid_-_Syracuse_Zoo.jpg2008-Feb-11 17:11:18852.7Kimage/jpeg
20111208032342!Church_of_Nativity_of_John_the_Baptist_in_Sokolniki_12.jpg2009-Oct-11 19:28:504.8Mimage/jpeg
20111208051916!Willem_Roelofs_-_Vista_do_Rio_de_Janeiro.JPG2010-Jun-24 21:47:0615.3Kimage/jpeg
20111208072719!Valdaysky_Monastery_10.jpg2010-Sep-28 10:40:232.8Mimage/jpeg
20111208164148!Tempest-V-2TAF.jpg2006-May-04 19:07:0443.1Kimage/jpeg
20111208184523!Aarau_Stadtkirche_8933.jpg2011-Apr-21 19:38:391.5Mimage/jpeg
20111208201713!Le_Faou_(29)_Église_07.jpg2011-Sep-25 15:40:42400.9Kimage/jpeg
20111208205026!Chiesetta_di_san_gottardo.jpg2011-Aug-27 10:50:00252.0Kimage/jpeg
20111208220246!Holzfaeller_Inschrift_Obernburg.jpg2010-Apr-28 23:38:384.1Mimage/jpeg
20111209010344!Betenbrunn_Kirche_Gemälde_Ecce_Homo.jpg2011-Mar-10 19:27:462.6Mimage/jpeg
20111209013307!Owingen_Pfarrkirche_Chorbogen-Kruzifix.jpg2011-Mar-10 15:13:014.0Mimage/jpeg
20111209015733!Weingarten_Narrensprung_2011_Wikinger_06.jpg2011-Mar-06 17:59:431.8Mimage/jpeg
20111209054809!Meersburg_Bären_Hof.jpg2011-May-10 17:38:163.0Mimage/jpeg
20111209075832!Fuente_con_cruz_en_Robledillo_de_la_Jara.jpg2009-Jul-04 19:24:53382.5Kimage/jpeg
20111209090810!Leire_Olaberria_(2).jpg2011-Apr-03 20:46:46355.1Kimage/jpeg
20111209104458!HMS_Aurora_(1913)_mines_closeup_WWI_IWM_SP_001196.jpg2009-May-22 13:06:3820.2Kimage/jpeg
20111209114022!Temasek_Tower.jpg2005-Aug-11 20:12:56604.0Kimage/jpeg
20111209115005!Dallas_2100_Ross_Ave_(San_Jacinto_Tower)_1.jpg2009-Nov-05 10:56:284.3Mimage/jpeg
20111209134319!37821_Walstraat_86_detail.jpg2011-Sep-23 10:12:224.6Mimage/jpeg
20111209144730!Verneuil-sur-Avre_(27)_Église_de_la_Madeleine_Baie_102.jpg2011-Feb-14 21:25:50110.0Kimage/jpeg
20111209153453!Территория-ДАРЯ.png2011-Sep-15 04:20:25233.3Kimage/png
20111209181223!Meissen_Harlequin_VA_C11-1984.jpg2011-Jul-08 17:51:553.8Mimage/jpeg
20111209183318!Model_Theatre_Royal_Drury_Lane_VA_img02.jpg2011-Jul-04 18:58:392.5Mimage/jpeg
20111209194644!Lüneburg_Ratsmühle_2.jpg2010-Jun-08 11:29:492.5Mimage/jpeg
20111209212326!Polish_military_registration_plate1.jpg2008-Sep-11 16:53:5364.3Kimage/jpeg
20111210004924!Nwmsu-university.jpg2006-Aug-29 16:01:06285.1Kimage/jpeg
20111210005751!Elne_Torbogen.JPG2008-May-22 14:57:442.3Mimage/jpeg
20111210015218!Sebaldusgrave_Nuremberg_004.jpg2010-Oct-22 18:19:493.3Mimage/jpeg
20111210015744!Alba_Iulia_National_Museum_of_the_Union_2011_-_Greek_Pottery_from_Histria_and_Tomis.JPG2011-Oct-08 16:20:152.1Mimage/jpeg
20111210134501!Piazza_Navona_360_panoramic_view_9881px.jpg2009-May-02 12:50:323.6Mimage/jpeg
20111210173142!Kotsifou-Bach_01.jpg2007-Jul-02 15:14:083.2Mimage/jpeg
20111210173218!Klosterfelde_Kirche_01.jpg2008-Jun-01 19:41:251.4Mimage/jpeg
20111210183838!Karoly-Stern-Tallinn-Zoo-director.jpg2010-Jan-03 22:11:131.0Mimage/jpeg
20111210210130!Paris_6e_Rue_Vavin_409.JPG2011-Dec-10 20:59:129.1Mimage/jpeg
20111210211521!Dostojevski.IMG_2821.JPG2010-Apr-24 10:47:512.9Mimage/jpeg
20111210215653!Tourcoing_St_Christophe_orgue.JPG2008-Dec-30 23:43:243.2Mimage/jpeg
20111210232729!Serbs_in_croatia_bosnia_and_montenegro_in_1981.png2011-Nov-24 19:29:1982.0Kimage/png
20111211104530!Keitakuen1.jpg2008-Jun-07 20:30:573.0Mimage/jpeg
20111211134026!Diplomatic_missions_of_Kyrgyzstan.PNG2008-Jul-31 15:57:1749.0Kimage/png
20111211172945!Zbor_bralnega_in_pevskega_društva_Slavec_v_Ricmanjih_ob_ostopu_v_grško_katoliški_obred_1900.jpg2010-Jan-25 12:15:1973.7Kimage/jpeg
20111211203959!Berlin_Brüderstraße_Kaufhaus_7.jpg2009-Apr-17 19:15:212.5Mimage/jpeg
20111211205855!Sigurdr.png2007-Feb-19 00:29:1971.2Kimage/png
20111211215251!Pius_III,_Nordisk_familjebok.png2006-Feb-25 10:26:19106.0Kimage/png
20111212034521!Nürnberg_Josephsplatz_25.jpg2010-Apr-13 15:45:352.4Mimage/jpeg
20111212040145!Nürnberg_Tiergärtnertor_2.jpg2010-Apr-11 12:09:582.2Mimage/jpeg
20111212075006!Neuburg_Karlsplatz_Marienbrunnen_2.jpg2010-Aug-11 11:01:473.0Mimage/jpeg
20111212145354!FN_Ailingen_Pfarrkirche_Statue_Paulus.jpg2011-May-08 15:48:122.2Mimage/jpeg
20111212154514!Quedlinburg_Roland_1.jpg2008-May-28 08:34:423.3Mimage/jpeg
20111212164612!Flickr_-_schmuela_-_IMG_7333.jpg2010-Jun-04 10:27:381.2Mimage/jpeg
20111212184755!Blason_ville_fr_Bergerac_(Dordogne).svg2008-Jan-16 17:14:37248.0Kapplication/octet-stream
20111212212116!Sjh.jpg2011-Jun-29 11:59:0215.8Kimage/jpeg
20111212214030!National_Register_of_Historic_Places_listings_in_Downtown_Davenport,_Iowa.png2011-Feb-28 20:21:50425.7Kimage/png
20111212221625!Meistratzheim_StAndré_01.jpg2011-Sep-11 05:01:571.3Mimage/jpeg
20111212223944!National_Register_of_Historic_Places_listings_in_Downtown_Davenport,_Iowa.png2011-Dec-12 21:40:30721.5Kimage/png
20111212235442!Ravensburg_Engel-Apotheke_Wappen_2_Wolbach.jpg2011-Jul-19 13:41:20887.2Kimage/jpeg
20111213030739!PicOfJC.JPG2011-Aug-08 02:54:232.4Mimage/jpeg
20111213032751!VSP-9000.jpg2010-Oct-20 04:49:341.2Mimage/jpeg
20111213060215!Akebia_quinata002.jpg2010-May-26 08:55:49778.0Kimage/jpeg
20111213070329!David_Almond_photograph.jpg2008-Sep-29 00:02:021.0Mimage/jpeg
20111213071254!Schramberg_Heilig_Geist_3.jpg2009-Jun-23 20:13:120.9Mimage/jpeg
20111213122313!Troitskaya_Tower2.JPG2007-Apr-19 23:39:551.8Mimage/jpeg
20111213143010!Bliesheim_Lambertusstraße_44_Mariensäule.jpg2011-Sep-12 14:13:30629.5Kimage/jpeg
20111213171016!Stockach_-_St_Oswald_ex_08_ies.jpg2011-Jul-23 12:35:451.1Mimage/jpeg
20111213184904!Пашпарт._Рэспубліка_Беларусь._2001.jpg2009-Aug-19 14:33:38148.6Kimage/jpeg
20111213201956!Les_Hauts_de_Smith_2004.jpg2010-Feb-07 18:43:14763.7Kimage/jpeg
20111213230501!Bogenberg_Marienkirche_-_Apsis_außen_1.jpg2010-Sep-02 10:37:270.9Mimage/jpeg
20111213235823!Hattori-tenjingu_gomado.jpg2010-Jan-08 20:59:582.0Mimage/jpeg
20111214003401!Frankfurt_Römer_Haus_Löwenstein_Wappenreliefs_7_Steffan.jpg2011-May-02 20:27:30143.0Kimage/jpeg
20111214031131!Duisburg_Rathausbogen_Ecke.jpg2011-Apr-26 18:19:542.2Mimage/jpeg
20111214094153!Parroquia_de_Santos_Justos_y_Pastor_en_Tielmes.jpg2010-Mar-08 22:18:47905.6Kimage/jpeg
20111214103533!Breschterbaach_1.jpg2010-Nov-07 16:52:161.9Mimage/jpeg
20111214120920!Jasminocereus_thouarsii_2.jpg2008-Aug-13 07:14:321.6Mimage/jpeg
20111214150310!Shantel_in_Brussels,_December_2011.JPG2011-Dec-14 14:59:222.3Mimage/jpeg
20111214155646!Sefukuji_sando2.jpg2007-Oct-12 20:28:372.4Mimage/jpeg
20111214173623!Museum_of_Asian_art_of_Corfu_209.JPG2010-Dec-07 23:38:213.6Mimage/jpeg
20111214175126!Shunsui_Kyoraku_cosplayer_at_FanimeCon_2010-05-29.JPG2010-Jun-04 15:59:23614.7Kimage/jpeg
20111214233017!PaulElieRanson+TheBlueBather+1891+MuseeD'Orsay-Paris.jpg2011-Dec-14 18:53:27739.2Kimage/jpeg
20111215082755!1989_Premer_118NE.jpg2007-Aug-18 06:31:01649.1Kimage/jpeg
20111215085531!Low9th27FebCraneINGroofsections.jpg2006-May-04 20:12:181.5Mimage/jpeg
20111215111115!KRW-JPY_v2.svg2011-Oct-29 13:46:56172.9Kapplication/octet-stream
20111215131204!JPY_Nominal_Effective_Exchange_Rates_(1970-).svg2011-Oct-30 09:09:1021.3Kapplication/octet-stream
20111215150743!Vector-infinity-Norm_qtl1.svg2011-Nov-18 15:32:13680.6Kapplication/octet-stream
20111215170159!Centaurea_dealbata002.jpg2011-May-19 17:10:01756.2Kimage/jpeg
20111215173336!BGML_-_Glasfenster_Habakuk.jpg2010-Oct-07 11:14:391.1Mimage/jpeg
20111215193636!Cernuschi_Museum_20060812_075.jpg2006-Aug-23 01:05:292.6Mimage/jpeg
20111215204401!C360_2011-08-02_15-16-59.jpg2011-Aug-03 05:42:24183.3Kimage/jpeg
20111215211032!Anlagegold_weiß.JPG2011-Aug-06 07:05:13866.8Kimage/jpeg
20111216005151!Solidago_virgaurea1.jpg2010-Aug-17 17:34:511.4Mimage/jpeg
20111216010852!Triglochin_maritima05.jpg2012-Jun-21 17:10:47674.1Kimage/jpeg
20111216012207!Vinca_minor_close-up2.jpg2011-Apr-21 12:34:53429.5Kimage/jpeg
20111216012350!Eva_Mendes_66ème_Festival_de_Venise_(Mostra)_5.jpg2009-Nov-16 20:01:541.1Mimage/jpeg
20111216013730!Hancock.JPG2011-Dec-16 01:35:071.1Mimage/jpeg
20111216023943!Cinnamomum_tenuifolium3.jpg2007-Oct-08 13:21:323.3Mimage/jpeg
20111216061405!Gniezno_Cathedral_-_inside_32.JPG2008-Nov-11 02:42:373.7Mimage/jpeg
20111216075008!Innenansicht_Canadair_CRJ_900_Lufthansa_CityLine.jpg2011-Feb-02 23:53:34271.2Kimage/jpeg
20111216125707!UMN-MoosTower.jpg2008-Jul-01 18:36:503.6Mimage/jpeg
20111216165909!Araucaria_bidwillii_leaves_01_by_Line1.jpg2007-Aug-19 06:00:48674.5Kimage/jpeg
20111216181541!Alim_Litrufa_front.jpg2006-Aug-30 17:33:16166.7Kimage/jpeg
20111216201843!CarFloatLagosDoctores201101.jpg2011-Aug-25 00:53:033.5Mimage/jpeg
20111216205539!然-order.gif2011-Dec-16 20:41:436.2Kimage/gif
20111217004846!EntranceMusuemAmberSanCris.JPG2011-May-08 20:02:343.4Mimage/jpeg
20111217053612!Baume_les_messieurs_cascade.JPG2006-Oct-26 17:27:30217.9Kimage/jpeg
20111217062356!Beethoven-Denkmal_New_York.JPG2009-Jul-05 15:17:384.0Mimage/jpeg
20111217073539!Barometr-nonius.jpg2008-Feb-19 18:37:381.0Mimage/jpeg
20111217103947!Steintafel_Ev._Kirche_Wohnbach.JPG2009-Aug-17 20:49:051.1Mimage/jpeg
20111217145123!Araujia_sericifera_3.JPG2008-Aug-07 09:52:283.9Mimage/jpeg
20111217152834!Black_Veil_Brides_at_Warped_Tour_2011-08-09_01.jpg2011-Aug-17 01:55:211.3Mimage/jpeg
20111217171952!RNAS_Hatston.jpg2008-Jan-05 01:18:5036.1Kimage/jpeg
20111217192137!I_support_united_romania.svg2011-Dec-17 19:17:188.9Kapplication/octet-stream
20111217192216!I_support_united_romania.svg2011-Dec-17 19:21:378.9Kapplication/octet-stream
20111217201711!Burg_Spielberg_Kunstwerk1.jpg2006-Aug-20 17:44:5965.0Kimage/jpeg
20111218011002!Dysart_Buildings,_Nantwich_detail.jpg2010-Jun-18 05:22:52434.7Kimage/jpeg
20111218014212!INS_Tir.jpg2009-Oct-20 16:56:58826.0Kimage/jpeg
20111218033917!Dental_chair_used_by_Father_L._Douglas_Brown_in_basement_of_St._Stephen's_R.C._Church_in_Cayuga,_Ontario.jpg2011-Aug-14 16:54:21131.1Kimage/jpeg
20111218042417!Singen_(Schul-_und_Pfarrhaus)_03_ies.jpg2011-Oct-04 17:23:173.2Mimage/jpeg
20111218050407!Cynara-cardunculus-flower.jpg2008-Sep-02 16:33:32629.1Kimage/jpeg
20111218134458!Clara14_DSC0537.JPG2010-Aug-28 14:00:565.5Mimage/jpeg
20111218141919!Claverton_Pumping_Station_gearing_and_sluice_cranks.jpg2011-Oct-04 15:33:091.4Mimage/jpeg
20111218143436!Cmentarz_wojskow_217a_nagrobek.jpg2009-May-04 17:23:04618.7Kimage/jpeg
20111218175219!Dicentra_formosa01.jpg2010-Jun-03 05:25:020.9Mimage/jpeg
20111218182424!Buxheimer_Chorgestuehl_erste_Stalle_sued_unten_rechts.JPG2010-Mar-01 21:24:342.8Mimage/jpeg
20111219012000!Erawan_statue_restored.jpg2006-May-27 15:09:311.7Mimage/jpeg
20111219013226!Escudo_de_Villa_del_Río_(Córdoba).svg2011-Jun-17 11:01:34526.7Kapplication/octet-stream
20111219030829!FU-Fighters_RoboCup_Midsize_Robot_2005.jpg2006-Mar-10 22:52:282.0Mimage/jpeg
20111219033710!Front_Porch.jpg2010-Jun-04 14:09:18144.3Kimage/jpeg
20111219104036!Hofwijck_kitchen_hearth.jpg2009-Sep-08 20:20:272.3Mimage/jpeg
20111219113151!Hexenabwehr_forchheim.jpg2007-Jul-03 22:26:381.1Mimage/jpeg
20111219123247!Hemareddymallamma5.jpg2010-Jun-11 08:16:16139.4Kimage/jpeg
20111219131615!Hardanger.jpg2007-May-01 15:38:06557.4Kimage/jpeg
20111219162852!Grammatophyllum_scriptum_var_citrinum2.jpg2009-Aug-26 12:28:081.8Mimage/jpeg
20111219192228!Freising_Dom_Korbiniansglocke.jpg2011-Nov-09 08:39:47360.0Kimage/jpeg
20111219192239!Freising_Dom_Korbiniansglocke.jpg2011-Dec-19 19:22:290.9Mimage/jpeg
20111219210254!Kodak_Brownie_Starflex.jpg2009-Oct-24 18:36:49503.4Kimage/jpeg
20111220030052!Auckland_Islands_Merganser.jpg2010-Dec-09 23:12:5348.4Kimage/jpeg
20111220030401!Front_of_Radio.jpg2011-Oct-03 03:32:563.1Mimage/jpeg
20111220064755!Kit_left_arm_claretlower.png2011-Dec-20 06:47:522.9Kimage/png
20111220064757!Kit_left_arm_claretlower.png2011-Dec-20 06:47:552.9Kimage/png
20111220070249!-_Paris_en_1910.jpg2011-Nov-03 14:06:421.7Mimage/jpeg
20111220071054!MEGAWEB_13.jpg2007-Mar-02 13:21:23843.3Kimage/jpeg
20111220135354!Laura_Põldvere.jpg2008-May-02 23:06:104.4Mimage/jpeg
20111220202855!Phoebe_(without_cropping).png2011-Dec-20 07:35:2264.2Kimage/png
20111220202901!Phoebe_(without_cropping).png2011-Dec-20 20:28:5586.6Kimage/png
20111220221235!Losriff.jpg2011-Dec-20 22:12:2731.2Kimage/jpeg
20111221090120!Petropolis-Cathedral7.jpg2008-Mar-09 00:13:34171.1Kimage/jpeg
20111221091222!Amsterdam_0021.jpg2011-Apr-30 22:12:051.6Mimage/jpeg
20111221091528!Fina_2011_track.png2011-Dec-22 09:19:32466.3Kimage/png
20111221095342!Pyle_pirates_escape.jpg2005-Sep-09 15:43:001.6Mimage/jpeg
20111221143037!Surgical_removal_of_a_Mucocele..jpg2011-Dec-21 14:15:0767.7Kimage/jpeg
20111221165816!Sroda63_DSC0118.JPG2010-Aug-30 19:58:208.0Mimage/jpeg
20111221172504!Roquemaure,_Gard.jpg2009-Oct-07 19:21:331.3Mimage/jpeg
20111221190528!Sommerwind_(Kordes_1985).JPG2011-Jan-28 23:04:581.5Mimage/jpeg
20111222013413!Saint-Véran_d'Orgon_10.JPG2010-Aug-30 21:24:214.5Mimage/jpeg
20111222033020!Statuya_pavlovsk_dva.jpg2007-Mar-21 09:41:5049.9Kimage/jpeg
20111222040143!Stephan_Huber_Stadtgarten_Essen.JPG2011-Apr-20 20:05:53478.0Kimage/jpeg
20111222092213!Fina_2011_track.png2011-Dec-22 09:19:32465.8Kimage/png
20111222105847!Boats_moored_in_Port_Hope,_and_Cameco_Nuclear.jpg2011-Dec-22 10:57:09830.4Kimage/jpeg
20111222115251!Boats_moored_in_Port_Hope,_and_Cameco_Nuclear.jpg2011-Dec-22 10:58:47111.3Kimage/jpeg
20111222212516!TampereOrdKirche.jpg2006-Jul-31 20:11:35150.7Kimage/jpeg
20111222215549!Tabakera_Nielo.jpg2009-Oct-08 16:44:19480.8Kimage/jpeg
20111222224750!Suriandika_Satjadibrata.JPG2011-Feb-24 01:24:3055.7Kimage/jpeg
20111223012756!Kolam2.jpg2011-Jan-16 15:06:09277.7Kimage/jpeg
20111223120843!VirginRosarioOcotlan.JPG2010-Apr-09 16:39:244.5Mimage/jpeg
20111223124032!DoorwayTomb1Zaachila.JPG2010-Apr-07 14:38:004.2Mimage/jpeg
20111223205822!HMS_Sceptre.jpg2007-Jul-06 17:55:4530.7Kimage/jpeg
20111223220830!Исаакиевский_собор_северный_портик.jpg2011-Sep-30 07:19:46430.1Kimage/jpeg
20111224005806!Palau_del_Marqués_de_Dosaigües_de_València-19.JPG2011-Dec-23 12:15:232.2Mimage/jpeg
20111224005925!Palau_del_Marqués_de_Dosaigües_de_València-20.JPG2011-Dec-23 12:16:432.8Mimage/jpeg
20111224013646!FlowerChapEcoPark01.JPG2010-Dec-08 18:15:383.1Mimage/jpeg
20111224014451!Palau_del_Marqués_de_Dosaigües_de_València-20.JPG2011-Dec-24 00:59:262.8Mimage/jpeg
20111224024006!BL_-_Bodman_-_Burg_Frauenberg_-_Kloster_-_Kapelle_08_ies.jpg2011-Aug-27 15:43:551.5Mimage/jpeg
20111224042623!Flickr_-_schmuela_-_best_salesman_EVER.jpg2010-Jun-04 08:15:111.2Mimage/jpeg
20111224080937!Bundesarchiv_Bild_183-18594-0048,_Werbung_für_die_Wahl_zur_Nationalversammlung.jpg2008-Dec-09 16:53:1959.4Kimage/jpeg
20111224090351!Fina_2011_track.png2011-Dec-22 09:22:13486.7Kimage/png
20111224090841!Musée_Mécanique_116.JPG2009-Dec-24 23:51:443.6Mimage/jpeg
20111224120717!Casa_Manana_interior_2.jpg2009-Nov-01 22:53:472.8Mimage/jpeg
20111224135908!Luckau_Nikolaikirche_Empore_von_unten.jpg2008-May-08 13:31:503.3Mimage/jpeg
20111224175316!Ariane_Moffatt_20060510_Fnac_11.jpg2006-May-10 19:29:292.6Mimage/jpeg
20111224182357!Archangelos058.JPG2009-Dec-01 23:28:403.7Mimage/jpeg
20111224233404!Allstedt_-_Burg_03_ies.jpg2011-Apr-02 17:51:031.2Mimage/jpeg
20111225012442!Hohenfurth_-_Leopoldsbrunnen_1.jpg2008-Jul-09 21:50:21721.4Kimage/jpeg
20111225042813!Bad_Muskau_-_Berliner_Straße_-_Jakobuskirche_09_ies.jpg2011-Apr-22 05:18:001.5Mimage/jpeg
20111225060321!Bergisch_Gladbach_Bensberg_-_Kadettenstraße_-_Denkmal_03_ies.jpg2011-Jan-13 16:11:451.7Mimage/jpeg
20111225070327!Bautzen_-_Schilleranlagen_02_ies.jpg2009-Nov-12 17:02:191.4Mimage/jpeg
20111225082549!Palau_del_Marqués_de_Dosaigües_de_València-19.JPG2011-Dec-24 00:58:062.2Mimage/jpeg
20111225085953!Asklipio041.JPG2009-Dec-03 20:51:453.5Mimage/jpeg
20111225112110!Abyssal_Brachiopod_0026.JPG2009-Jun-08 16:30:201.8Mimage/jpeg
20111225122942!Český_Krumlov_-_Pestsäule_-_Gesamt.jpg2009-Apr-01 16:31:401.0Mimage/jpeg
20111225153220!Montréal_(39th_Parl).png2011-Dec-25 13:12:0914.1Kimage/png
20111225153222!Montréal_(39th_Parl).png2011-Dec-25 15:32:2019.1Kimage/png
20111225153223!Montréal_(39th_Parl).png2011-Dec-25 15:32:2219.1Kimage/png
20111225153227!Montréal_(39th_Parl).png2011-Dec-25 15:32:2319.0Kimage/png
20111225195538!Budynki_mieszkalne_NBP_04.jpg2009-Aug-18 13:05:56510.9Kimage/jpeg
20111225210052!Municipalities_in_UH.png2010-Jul-07 07:07:593.7Kimage/png
20111225231315!Bogenberg_Marienkirche_-_Kanzel_1.jpg2010-Sep-05 09:48:361.2Mimage/jpeg
20111225234621!Dallenbach_Open_Wheel_Pikes_Peak_Special_-_Flickr_-_exfordy.jpg2011-Dec-24 21:13:30573.3Kimage/jpeg
20111226023458!Dec1Romero32.JPG2009-Dec-08 17:29:072.5Mimage/jpeg
20111226052826!CooperativaAgricolaSantaCatarinaFB.JPG2005-May-10 21:41:4357.7Kimage/jpeg
20111226072321!Ciudad5.jpg2010-Feb-06 15:45:18362.1Kimage/jpeg
20111226120105!Engen_-_Hauptstraße_-_Altstadtaufzug_01_ies.jpg2011-Jul-07 15:08:321.3Mimage/jpeg
20111226125101!Emily_Loizeau_20060504_Fnac_04.jpg2006-May-04 18:19:282.7Mimage/jpeg
20111226183547!Diez_Brunnen_Relief_2.jpg2008-May-19 07:55:574.6Mimage/jpeg
20111226204109!Ostrava_415.jpg2011-Dec-24 05:55:343.3Mimage/jpeg
20111226234929!Frederiksborg_-_Brunnen_Najade_2.jpg2008-Dec-28 18:06:201.5Mimage/jpeg
20111227002743!Former_Greyhound_Tavern,_Holland_Road_-_geograph.org.uk_-_1501721.jpg2011-Mar-02 20:40:34139.5Kimage/jpeg
20111227005509!Folsom_6.jpg2007-Dec-01 13:26:13621.5Kimage/jpeg
20111227015305!Taiwan_Province_(PRC)_prfc_map.png2010-Feb-19 01:51:3158.1Kimage/png
20111227060159!Fotky_květů_(43).jpg2010-Jul-26 20:45:024.8Mimage/jpeg
20111227070851!Fale_-_Barcellona_-_353.jpg2009-Oct-20 15:04:380.9Mimage/jpeg
20111227073543!Exterior_of_Palácio_Nacional_da_Pena_P1000443.JPG2011-Feb-28 21:32:355.1Mimage/jpeg
20111227082858!Gandhi_addressing_AICC_in_Bombay_1946.jpg2009-Mar-05 12:05:322.4Mimage/jpeg
20111227094103!Glueckstadt_am_hafen_hausmarke.jpg2007-May-20 20:25:32674.6Kimage/jpeg
20111227095124!Our_Lady_of_Refuge_Church,_Monterrey,_Nuevo_Leon,_Mexico.jpg2011-Dec-27 01:38:5391.9Kimage/jpeg
20111227101729!Glastonbury_Market_Cross_-_geograph.org.uk_-_385103.jpg2011-Feb-03 13:57:4752.2Kimage/jpeg
20111227103520!Grand_Corps_Malade_20060614_Fnac_06.jpg2006-Jun-14 14:21:462.7Mimage/jpeg
20111227155105!Tip_1989_track.png2007-Jan-07 13:22:4449.1Kimage/png
20111227180407!Gelsenkirchen_Horst_-_Schloss_in_01_ies.jpg2011-Feb-17 16:30:131.3Mimage/jpeg
20111227185236!-_Paris_en_1910.jpg2011-Dec-20 07:02:492.5Mimage/jpeg
20111228030553!Hasle_Kirke_-_Århus_-_39.jpg2006-May-24 19:57:021.6Mimage/jpeg
20111228033135!Sykes-Picot.svg2011-Dec-28 03:17:55115.7Kapplication/octet-stream
20111228035853!Hofkirchen_Pfarrkirche_-_Taufkapelle.jpg2009-Aug-04 15:22:471.1Mimage/jpeg
20111228054800!Hattingen_-_Henrichshütte_-_außen_09_ies.jpg2010-Nov-18 15:41:422.3Mimage/jpeg
20111228071921!Harav_Elyakim_Levanon_ap_1.JPG2011-Jun-02 21:52:112.9Mimage/jpeg
20111228100849!Karanlik_-_Fresko_Himmelfahrt_2_Jünger.jpg2011-Feb-22 18:04:16683.2Kimage/jpeg
20111228112106!JRCDSC0033.JPG2008-Jul-02 08:03:58429.8Kimage/jpeg
20111228133857!Jasielski_dab.JPG2009-Oct-30 19:10:201.0Mimage/jpeg
20111228143529!Isselburg_Anholt_-_Friedenskirche_02_ies.jpg2010-Jan-09 06:35:161.7Mimage/jpeg
20111228145727!Intérieur_Église_Polignac.JPG2009-Jan-12 13:53:22443.2Kimage/jpeg
20111228181800!Langenzenn_Stadtkirche_-_Kreuzabnahmealtar_2.jpg2010-Sep-23 07:29:161.4Mimage/jpeg
20111228203641!Kulturweg_08g.jpg2011-Jul-12 19:20:406.4Mimage/jpeg
20111228212500!Krasnik_059_kosciol.jpg2008-Nov-01 13:03:33683.4Kimage/jpeg
20111228214352!Krautstraße_Memmingen_2011.JPG2011-Jul-17 11:37:245.6Mimage/jpeg
20111228220249!Berlin,_Neukoelln,_Lilienthalstrasse,_Johannes-Basilika.jpg2011-Mar-28 11:56:531.0Mimage/jpeg
20111229000958!Махачкала.png2011-Oct-30 17:19:1481.5Kimage/png
20111229033802!Looking_through_a_hole_in_a_groyne_-_geograph.org.uk_-_799305.jpg2011-Feb-20 05:18:1638.4Kimage/jpeg
20111229153155!Martyrs_Monument,_St_Andrews_-_geograph.org.uk_-_173354.jpg2010-Jan-31 14:23:0437.7Kimage/jpeg
20111229194433!Rappenlochbrücke_Militär_18.JPG2011-Jun-11 20:57:508.2Mimage/jpeg
20111229213300!Male_back_Smyrna_Louvre_CA2178.jpg2006-May-08 16:45:471.0Mimage/jpeg
20111230051036!Musee-historique-lausanne-img_0089.jpg2006-Jun-18 14:14:562.8Mimage/jpeg
20111230062933!Morlupo_Paese_Aprile_20070153.JPG2007-Jun-01 20:52:371.7Mimage/jpeg
20111230065432!WLANL_-_Quistnix!_-_Museum_Boijmans_van_Beuningen_-_Wapenvaas,_detail.jpg2009-Aug-22 19:17:494.6Mimage/jpeg
20111230085956!LogoTW.png2010-Dec-22 11:52:535.9Kimage/png
20111230132709!SK-Kareli-ka.svg2009-Dec-22 17:59:18557.4Kapplication/octet-stream
20111230150633!Church_in_Paris412.jpg2011-Jan-09 00:35:442.6Mimage/jpeg
20111230155201!Kara_Patterson_2010.jpg2011-Dec-30 15:47:00404.5Kimage/jpeg
20111230165817!Seelitz_in_FG.png2008-Aug-10 16:07:506.2Kimage/png
20111230182230!Boyarynja_Morozova.jpg2007-Jul-15 20:30:2129.2Kimage/jpeg
20111230200913!Pan_American_Plaza_-_main.JPG2008-Nov-05 03:42:583.0Mimage/jpeg
20111230224400!Sletdale_Burn_-_geograph.org.uk_-_238211.jpg2010-Feb-01 02:15:30123.0Kimage/jpeg
20111230225816!The_footpath_through_Park_Wood_-_geograph.org.uk_-_1627238.jpg2011-Mar-04 14:37:25118.1Kimage/jpeg
20111230231328!St.Mary's_church,_North_Witham,_Lincs._-_geograph.org.uk_-_164617.jpg2010-Jan-31 12:22:5075.7Kimage/jpeg
20111230234134!Rafting_2006.JPG2006-Oct-13 21:39:1756.3Kimage/jpeg
20111230235224!St_Michael's_Gate,_Gloucester_-_geograph.org.uk_-_61275.jpg2010-Jan-30 19:11:12106.0Kimage/jpeg
20111231015347!Rethymno_-_Altstadtgasse_8.jpg2009-May-06 17:56:291.2Mimage/jpeg
20111231023446!Renaissance_fair_-_people_63.JPG2009-May-08 07:13:013.5Mimage/jpeg
20111231095130!Taisyaeki83.JPG2006-Jan-09 13:42:13171.3Kimage/jpeg
20111231174144!Polska_1386_-_1434.png2010-Feb-20 20:22:021.6Mimage/png
20111231213150!EscudoCangasMorrazo.svg2011-Dec-29 15:29:59220.9Kapplication/octet-stream
20111231214557!SF_cable_car_no._9_on_Powell_St._1.JPG2010-Jul-19 18:11:182.5Mimage/jpeg
20111231222828!Ronald_Landa_-_Westerpop_2007_-_01.jpg2007-Aug-25 20:57:031.0Mimage/jpeg
20111231230053!Saint_Mark's_church_in_Benetice_downview.jpg2010-May-20 22:44:001.4Mimage/jpeg
20111231234955!EscudoCangasMorrazo.svg2011-Dec-31 21:31:50222.5Kapplication/octet-stream
20120101031031!St.Martin_-_Kirche_Kruzifix.jpg2009-Oct-18 15:24:261.1Mimage/jpeg
20120101053410!Singapore_Management_University_4.JPG2006-Jul-10 15:50:14516.3Kimage/jpeg
20120101060712!Signal_Tower,_Shore_Leith.jpg2011-Jul-24 11:20:471.2Mimage/jpeg
20120101081045!Wien_Kirche_am_Hof_-_Altarraum.jpg2011-Apr-26 10:03:081.4Mimage/jpeg
20120101095255!Wcn2006-124.JPG2006-Nov-07 23:41:31411.6Kimage/jpeg
20120101105414!Polska_1386_-_1434.png2011-Dec-31 17:41:441.3Mimage/png
20120101125653!Threshing_wheat_with_cattle_in_Shikong,_2011.ogv2012-Jan-12 22:11:42565.3Kapplication/octet-stream
20120101130754!The_Fullerton_Singapore_2.JPG2006-Apr-22 17:01:22646.2Kimage/jpeg
20120101153759!WTMP_Oh,_Shoot!_IMG_4522.JPG2011-Jan-29 14:19:032.5Mimage/jpeg
20120102085839!KRW-JPY_v2.svg2011-Dec-15 11:11:15173.4Kapplication/octet-stream
20120102131420!Neustrelitz_in_MBS.svg2011-Aug-08 14:34:33695.1Kapplication/octet-stream
20120102185400!Yulia_and_Yevhenia_Tymoshenko_4.jpg2012-Jan-02 18:12:23300.6Kimage/jpeg
20120102220042!Groß_Godems_in_SWM.svg2011-Sep-04 14:42:321.1Mapplication/octet-stream
20120103102724!United_States_World_War_II_Airborne_Division_1944_Structure.png2012-Jan-04 14:12:0766.6Kimage/png
20120103212409!Geruchlose_Kamille.JPG2009-Oct-27 20:55:414.8Mimage/jpeg
20120104092807!United_States_World_War_II_Airborne_Division_1944_Structure.png2012-Jan-04 14:12:0769.1Kimage/png
20120104142720!Kočka_093.jpg2011-Apr-27 18:42:263.1Mimage/jpeg
20120104144523!Ochtina_Aragonite_Cave_30.jpg2006-Sep-18 15:02:424.2Mimage/jpeg
20120104153318!Wyniki_EEG.JPG2009-Nov-20 06:57:23449.8Kimage/jpeg
20120105143835!Wappen_namborn.gif2006-Apr-18 06:13:066.9Kimage/gif
20120105184756!Sprungantwort_i-glied_und_t1-glied1.png2012-Jan-05 18:47:15152.1Kimage/png
20120105184806!Sprungantwort_i-glied_und_t1-glied1.png2012-Jan-05 18:47:5649.4Kimage/png
20120105184822!Wiktprintable-zh.svg2009-Mar-26 02:15:5852.9Kapplication/octet-stream
20120105195941!8th_Royal_Scots_advancing_28-06-1944.jpg2007-Apr-09 21:13:2556.0Kimage/jpeg
20120105200514!1d_step_pot_sol_TISE.svg2012-Jan-05 18:50:0770.4Kapplication/octet-stream
20120105225648!Karte_Meister-Bundesliga-2.png2011-May-08 13:28:28549.8Kimage/png
20120106202151!1d_step_pot_sol_TISE.svg2012-Jan-05 20:05:1475.9Kapplication/octet-stream
20120107053200!Colombia_-_Quindio_-_Circasia.svg2011-Dec-31 08:42:13313.4Kapplication/octet-stream
20120107123811!221_Hülserhof_Obstgarten,_Brunnenstraße_4,_(Viersen).jpg2012-Jan-07 12:23:5965.1Kimage/jpeg
20120107151611!1d_step_pot_sol_TISE.svg2012-Jan-06 20:21:5162.4Kapplication/octet-stream
20120107151840!1d_step_pot_sol_TISE.svg2012-Jan-07 15:16:1163.4Kapplication/octet-stream
20120107153854!1d_step_pot_sol_TISE.svg2012-Jan-07 15:18:4063.6Kapplication/octet-stream
20120108001951!El_Canto_del_Loco_2008.12.24_021.jpg2009-Nov-10 23:02:512.5Mimage/jpeg
20120108012235!Franz_Ferdinand_(band)_2008.11.24_015.jpg2009-Nov-10 23:36:213.5Mimage/jpeg
20120108020025!Herman_Düne_2009.05.30_009.jpg2009-Nov-10 23:54:352.2Mimage/jpeg
20120108024215!John_Mayall_2007.07.05_002.jpg2009-Nov-11 00:40:262.2Mimage/jpeg
20120108061217!My_Bloody_Valentine_2009.05.29_001.jpg2009-Nov-11 10:09:571.9Mimage/jpeg
20120108080121!The_B-52's_2008.07.09_008.jpg2009-Nov-10 21:51:333.0Mimage/jpeg
20120108134839!Allocation_of_IPv4_Address_Space_KG.svg2011-Jan-30 10:43:3627.2Kapplication/octet-stream
20120108183510!George_Dawe_-_Портрет_Петра_Ивановича_Багратиона_(1765-1812)_-_Google_Art_Project.jpg2011-Dec-05 00:52:435.5Mimage/jpeg
20120108190534!Pila_voltaica.svg2011-Sep-10 12:14:3927.1Kapplication/octet-stream
20120109141637!Cotto,_just_before_the_fight_against_Margarito_II.jpg2011-Dec-16 15:32:403.6Mimage/jpeg
20120109173835!WikiProject_Protected_areas_-_good_articles.png2011-Dec-05 21:30:3817.8Kimage/png
20120109231528!Elbert_L._Lampson_1913.png2011-Jul-01 18:44:1415.5Kimage/png
20120110005525!Pine_grosbeak17g.jpg2010-Mar-05 00:23:231.7Mimage/jpeg
20120110062208!D700-400.jpg2012-Jan-10 06:22:0334.3Kimage/jpeg
20120111065605!Lionfish_&_chrinoids_on_pom_pom_island.jpg2012-Jan-11 06:40:57226.5Kimage/jpeg
20120111171341!Wappen_namborn.gif2012-Jan-05 14:38:3627.7Kimage/gif
20120111204045!Matrosen_2.JPG2010-Nov-13 17:00:181.7Mimage/jpeg
20120111222005!Small_coalmine_pithead_gear,_Blists_Hill.jpg2012-Jan-11 22:18:005.0Mimage/jpeg
20120112180826!Voina_umved.jpg2010-Jan-09 10:23:53112.2Kimage/jpeg
20120113004354!Flag_map_of_South_Sudan.svg2011-Jun-29 08:03:582.7Kapplication/octet-stream
20120113004423!Flag_map_of_South_Sudan.svg2012-Jan-13 00:43:548.8Kapplication/octet-stream
20120113005332!Flag_map_of_South_Sudan.svg2012-Jan-13 00:44:232.7Kapplication/octet-stream
20120113040308!Flag_map_of_South_Sudan.svg2012-Jan-13 00:53:328.8Kapplication/octet-stream
20120113093650!Dinornis1387.jpg2011-Jan-05 23:52:483.0Mimage/jpeg
20120114043000!2012_JMA_TD_01.jpg2012-Jan-14 04:26:4924.9Kimage/jpeg
20120114181235!Dubrovnik_042.jpg2011-Sep-10 19:58:424.2Mimage/jpeg
20120114181626!Dubrovnik_042.jpg2012-Jan-14 18:12:354.3Mimage/jpeg
20120114222620!Sacos_de_café,_Casa_do_Bandeirante_2.JPG2009-Oct-24 20:32:3075.4Kimage/jpeg
20120115045248!Challenge_Modell.jpg2012-Jan-14 18:25:37602.3Kimage/jpeg
20120115045815!Challenge_Modell.jpg2012-Jan-15 04:52:48653.6Kimage/jpeg
20120115180545!Cruise_ship_Deutschland_2011-06-05.jpg2011-Jun-06 20:22:48259.8Kimage/jpeg
20120115200628!Dubrovnik_042.jpg2012-Jan-14 18:16:264.4Mimage/jpeg
20120115224039!Dubrovnik_042.jpg2012-Jan-15 20:06:284.7Mimage/jpeg
20120115225120!Dubrovnik_042.jpg2012-Jan-15 22:40:394.9Mimage/jpeg
20120116215836!Claas_Lexion_570,_Fryšták_(12).jpg2011-Oct-14 18:35:33150.9Kimage/jpeg
20120117214826!Sykes-Picot.svg2011-Dec-28 03:31:35105.7Kapplication/octet-stream
20120117215040!Sykes-Picot.svg2012-Jan-17 21:48:26115.7Kapplication/octet-stream
20120118002025!Whitman_-_Feuilles_d’herbe,_trad._Bazalgette.djvu2012-Jan-18 00:04:3217.9Mapplication/octet-stream
20120119192310!North_Dakota_75.svg2007-Mar-28 23:10:106.8Kapplication/octet-stream
20120119192334!North_Dakota_89.svg2007-Mar-28 23:46:108.5Kapplication/octet-stream
20120119194154!NOBNetz2010.png2012-Jan-16 19:43:4838.9Kimage/png
20120119194159!NOBNetz2010.png2012-Jan-19 19:41:5442.2Kimage/png
20120120022003!Christ_the_King_Church,_Tres_Valles,_Veracruz,_Mexico_.jpg2011-Mar-05 09:22:02319.1Kimage/jpeg
20120120034112!Holy_Sepulchre_Church,_San_Pedro_Cholula,_Puebla_state,_Mexico.jpg2011-Dec-27 15:17:48117.7Kimage/jpeg
20120120073038!MT-78.svg2007-Jan-07 22:30:548.7Kapplication/octet-stream
20120120075243!Flag_of_North_Carolina.svg2007-Apr-23 04:48:3919.9Kapplication/octet-stream
20120120194515!75th_Anniversary,_the_October_Revolution_Locomotive_Works,_Luhansk_1971.jpg2012-Jan-20 18:58:40322.8Kimage/jpeg
20120121004446!Saint_Francis_of_Assisi_Church,_Coyoacan,_Federal_District,_Mexico006.jpg2011-Aug-08 11:44:51165.1Kimage/jpeg
20120121032414!Flag_map_of_East_Berlin_(1949-1990).svg2011-Jan-27 00:09:3646.7Kapplication/octet-stream
20120121180029!Diplomatic_missions_of_Panama.png2008-Dec-06 00:47:3958.7Kimage/png
20120122041911!Immaculate_Conception_Church,_Cuauhtémoc,_Federal_District,_Mexico01a.jpg2011-Mar-01 12:18:07166.5Kimage/jpeg
20120122131958!FC_Tobol.jpg2012-Jan-22 13:10:413.4Kimage/jpeg
20120122181426!Port_Perry_downtown_in_1940.jpg2012-Jan-22 18:08:2755.1Kimage/jpeg
20120123071450!Pemp_pezh-c’hoari_berr.djvu2012-Jan-23 05:42:03900.4Kapplication/octet-stream
20120123125703!Elaenia_flavogaster.jpg2008-Mar-24 15:29:2246.1Kimage/jpeg
20120123220655!KarthauseBuxheimAnnakapelle08.JPG2009-Nov-23 19:56:254.9Mimage/jpeg
20120124150500!Andrey_Petrov_Malo_Tsarsko_IMARO.JPG2011-Feb-21 04:56:5725.1Kimage/jpeg
20120124224551!Rusenski_Lom_butterfly4.jpg2007-Jun-30 10:46:011.3Mimage/jpeg
20120125020425!WTMTL_T16_IMGP9199.JPG2011-Sep-03 23:47:341.4Mimage/jpeg
20120125075217!CT_-_Escola_de_Química_-_EQ_-_UFRJ.jpg2012-Jan-25 07:17:00133.4Kimage/jpeg
20120125205640!Roundel_of_the_Netherlands_WW1.svg2009-Jun-23 11:47:180.1Kapplication/octet-stream
20120126082057!CT_-_Escola_de_Química_-_EQ_-_UFRJ.jpg2012-Jan-25 07:52:17772.9Kimage/jpeg
20120126130943!000527lg_Prometrium_100_MG_Oral_Capsule.jpg2011-Feb-24 15:40:3620.7Kimage/jpeg
20120126152434!Rose_hydrangea_calla_wedding_bouquet.jpg2007-Jul-14 15:24:531.2Mimage/jpeg
20120127060039!Roundel_of_the_Netherlands_WW1.svg2012-Jan-25 20:56:411.5Kapplication/octet-stream
20120127133128!PHscalenolang.svg2009-Feb-05 23:22:2020.5Kapplication/octet-stream
20120127133815!PHscalenolang.svg2012-Jan-27 13:31:2817.8Kapplication/octet-stream
20120127141130!Entenfang.JPG2008-Aug-18 17:43:28802.1Kimage/jpeg
20120127212510!Baltimore_and_Ohio_Cincinnatian.JPG2012-Jan-27 21:24:1464.2Kimage/jpeg
20120127230007!Roundel_of_the_Netherlands_WW1.svg2012-Jan-27 06:00:391.5Kapplication/octet-stream
20120128011116!Roundel_of_the_Netherlands_WW1.svg2012-Jan-27 23:00:081.7Kapplication/octet-stream
20120129051656!Letestu_1st_goal_2010-02-01.JPG2012-Jan-28 06:21:341.0Mimage/jpeg
20120129092924!Fort_Bowie_in_1893.jpg2010-Jun-04 07:38:29202.3Kimage/jpeg
20120129141107!LocationSomaliland3.png2011-Jul-21 08:22:0275.5Kimage/png
20120130102849!Vint_Cerf_-_2010.jpg2011-Aug-11 08:56:18637.4Kimage/jpeg
20120130102908!Ares_I-X_launch_08.jpg2011-Jun-27 15:24:05939.4Kimage/jpeg
20120130113813!Nomilin.png2012-Jan-29 20:33:5942.8Kimage/png
20120130174239!Coe_Rail's_locomotive_in_front_of_their_office_in_Michigan.jpg2012-Jan-30 17:38:11228.4Kimage/jpeg
20120131130313!Licensing_tutorial_en.svg2010-Nov-19 22:55:56146.4Kapplication/octet-stream
20120131171001!Mönchhof_in_Ürzig_an_der_Mosel.jpg2011-Nov-12 15:56:141.8Mimage/jpeg
20120131233020!Licensing_tutorial_en.svg2012-Jan-31 13:03:13146.4Kapplication/octet-stream
20120201092816!Zhou_Daichun.jpg2010-Nov-09 06:45:1745.6Kimage/jpeg
20120201153039!Casa_mia_33.jpg2011-Jul-22 20:14:062.9Mimage/jpeg
20120201230557!Agrosylva_Forest_Craft_Ornament.jpg2012-Jan-09 18:28:321.1Mimage/jpeg
20120202012001!Znak_D-49.svg2007-Jan-04 20:34:3916.4Kapplication/octet-stream
20120202012658!Znak_F-8.svg2009-Jun-01 21:13:2232.7Kapplication/octet-stream
20120202034359!Our_Lady_of_Refuge_Church,_Monterrey,_Nuevo_Leon,_Mexico_04.jpg2012-Feb-02 00:03:15118.5Kimage/jpeg
20120202052138!Wappen_Landkreis_Potsdam-Mittelmark.png2010-Jun-18 04:53:52249.9Kimage/png
20120202170149!Sclerocactus_whipplei_fh_58_AZ_B.jpg2008-Apr-10 14:33:08105.1Kimage/jpeg
20120203140458!Elchlosung.jpg2010-Apr-18 00:05:383.1Mimage/jpeg
20120203190826!LocatieWaterland.png2005-Aug-15 01:11:239.5Kimage/png
20120204231208!Cyrus_Bryant.jpg2011-Aug-31 04:14:111.5Mimage/jpeg
20120205040939!Saint_Peter_Apostol_Church,_Almoloya_de_Alquisiras,_Mexico_state,_Mexico_17.jpg2012-Jan-15 09:34:47100.9Kimage/jpeg
20120205044416!Thirteenth_chord_voice_leading.png2012-Jan-26 18:32:0744.0Kimage/png
20120205162716!Heliconia_rostrata_4.jpg2012-Jan-25 15:37:1289.3Kimage/jpeg
20120205203942!Bandeira_de_Barbalha_-_Ceará.JPG2012-Jan-14 23:35:2817.2Kimage/jpeg
20120205204321!Bandeira_de_Barbalha_-_Ceará.JPG2012-Feb-05 20:39:4221.4Kimage/jpeg
20120206210017!Lagoazulrioclaro.jpg2010-Jul-17 04:19:3160.3Kimage/jpeg
20120206210417!Bovril_poster_c1900.jpg2010-Jan-08 23:09:3665.8Kimage/jpeg
20120207042415!Hatchback_large.png2011-Dec-05 19:21:5131.6Kimage/png
20120207044036!2012_New_Hampshire_Republican_Primary_Top_Five_-_Caricatures.jpg2012-Jan-12 19:04:311.9Mimage/jpeg
20120207205817!Neudenau-jagstaufweitung2009.jpg2009-May-04 21:58:50387.2Kimage/jpeg
20120208122718!HMS_United.jpg2007-Jul-15 23:51:2130.8Kimage/jpeg
20120209025345!Flag_of_county_Offaly.svg2012-Nov-27 09:14:413.2Kapplication/octet-stream
20120209171404!Sachin_Pilot_at_the_India_Economic_Summit_2010_cropped.jpg2011-Jul-17 06:15:06259.9Kimage/jpeg
20120209211518!Opava,_Milostovice,_OP-S_25_(rok_2001).jpg2012-Feb-08 10:44:19873.1Kimage/jpeg
20120209212812!Darkovice,_MO-S_23_(rok_2001).jpg2012-Feb-08 10:29:391.1Mimage/jpeg
20120209215652!Hall_and_parlor_house_floor_plan.png2012-Feb-09 21:48:2058.1Kimage/png
20120210164236!Pecquencourt_-_Cités_de_la_fosse_Barrois_des_mines_d'Aniche_(A114).ogv2012-Feb-10 16:32:548.5Mapplication/octet-stream
20120210165459!Pecquencourt_-_Cités_de_la_fosse_Barrois_des_mines_d'Aniche_(A114).ogv2012-Feb-10 16:42:3616.6Mapplication/octet-stream
20120210171139!Pecquencourt_-_Cités_de_la_fosse_Barrois_des_mines_d'Aniche_(A114).ogv2012-Feb-10 16:55:0033.4Mapplication/octet-stream
20120210171620!Punjab,D.G.Khan.jpg2012-Feb-10 16:56:22151.7Kimage/jpeg
20120210171805!Punjab,D.G.Khan.jpg2012-Feb-10 17:16:20151.7Kimage/jpeg
20120210172336!Orphelinat_strasbourg-neudorf.jpg2012-Feb-10 17:21:403.4Mimage/jpeg
20120210172750!Pecquencourt_-_Cités_de_la_fosse_Barrois_des_mines_d'Aniche_(A114).ogv2012-Feb-10 17:11:4141.6Mapplication/octet-stream
20120210194610!Yakovlev_Kabuki1.jpg2006-Dec-07 12:19:2252.2Kimage/jpeg
20120210205021!William_E._Tou_Velle.png2011-Feb-15 22:34:25320.1Kimage/png
20120211073623!Miles_Park_Romney_family.jpg2012-Jan-31 00:11:5438.0Kimage/jpeg
20120211122116!Correg-malinta-tunnel-inter.jpg2007-Jun-07 04:17:3713.2Kimage/jpeg
20120212110841!Maureen_Dor.JPG2012-Feb-12 10:11:153.4Mimage/jpeg
20120212154346!Hpv_06.JPG2008-Nov-06 02:47:50948.4Kimage/jpeg
20120212172100!Platycladus_orientalis_Simatai.jpg2009-Mar-14 01:06:173.3Mimage/jpeg
20120213122537!Barents_Sea_map_hr.svg2012-Feb-13 12:20:45475.1Kapplication/octet-stream
20120213123129!Barents_Sea_map_hr.svg2012-Feb-13 12:25:37488.3Kapplication/octet-stream
20120213170859!Barents_Sea_map_hr.svg2012-Feb-13 12:31:29488.3Kapplication/octet-stream
20120213170953!Barents_Sea_map_hr.svg2012-Feb-13 17:08:59479.4Kapplication/octet-stream
20120215194924!8._Petersbergenstraße.JPG2012-Feb-15 19:48:5832.2Kimage/jpeg
20120215194929!8._Petersbergenstraße.JPG2012-Feb-15 19:49:2422.7Kimage/jpeg
20120215231007!Jerry_Douglas_in_2006.jpg2012-Feb-15 22:20:3726.8Kimage/jpeg
20120216102220!OlegFrolov-1.jpg2012-Feb-16 09:47:4497.7Kimage/jpeg
20120216125105!Bosch_laatste_oordeel_drieluik_(exterior).jpg2009-Jan-22 16:38:4433.2Kimage/jpeg
20120216150546!Old_Jerusalem_Western_Wall_Road_sign.JPG2012-Feb-16 14:59:451.9Mimage/jpeg
20120216150734!Old_Jerusalem_Western_Wall_Road_sign.JPG2012-Feb-16 15:05:461.9Mimage/jpeg
20120216223548!Fermo_Panorama.JPG2012-Feb-16 18:26:45446.8Kimage/jpeg
20120217063950!US_and_USSR_nuclear_stockpiles.svg2010-May-18 13:00:067.4Kapplication/octet-stream
20120218023225!Southern_Pacific_Daylight_Horseshoe_Curve.JPG2012-Feb-18 02:30:5374.7Kimage/jpeg
20120218103745!COA_cardinal_DE_Bengsch_Alfred.png2009-Aug-06 19:07:3072.4Kimage/png
20120218115812!01._Retrato.jpg2012-Feb-18 11:48:271.2Mimage/jpeg
20120218122353!Shrine_of_Our_Lady_of_Perpetual_Help,_San_Luis_Potosi_city,_San_Luis_Potosi_state,_Mexico04.jpg2012-Feb-17 23:33:0890.3Kimage/jpeg
20120218150937!WikiProject_Protected_areas_-_good_articles.png2012-Jan-09 17:38:3520.2Kimage/png
20120219174131!2011-10-13_TEDxRotterdam_057.JPG2011-Oct-14 23:02:172.2Mimage/jpeg
20120219205610!National_Register_of_Historic_Places_listings_in_Downtown_Davenport,_Iowa.png2011-Dec-12 22:39:441.3Mimage/png
20120219205807!National_Register_of_Historic_Places_listings_in_Downtown_Davenport,_Iowa.png2012-Feb-19 20:56:10425.7Kimage/png
20120220210504!WikiProject_Protected_areas_-_good_articles.png2012-Feb-18 15:09:3720.4Kimage/png
20120221003423!RedbackPottingMix.JPG2012-Feb-12 12:59:591.4Mimage/jpeg
20120221005512!NYC_NY.png2011-Sep-30 13:44:0171.7Kimage/png
20120221131806!Korea_Expressway_No.7.svg2010-Sep-12 07:19:27177.0Kapplication/octet-stream
20120221161132!Edifício_Pigalle.jpg2011-Jun-30 17:09:192.8Mimage/jpeg
20120222043001!Flag_of_Yokote_Akita.JPG2011-Sep-01 08:19:5128.6Kimage/jpeg
20120223115211!Zerti.JPG2012-Feb-23 11:51:1929.8Kimage/jpeg
20120223140155!Die_Gartenlaube_(1869)_085.jpg2010-Mar-29 19:00:455.3Mimage/jpeg
20120224014749!Vladikstan.JPG2008-Feb-17 19:22:432.0Mimage/jpeg
20120224032045!MO-supp-UU.svg2007-Mar-05 15:56:294.4Kapplication/octet-stream
20120224062610!737insig.png2008-Jan-16 17:24:18138.3Kimage/png
20120224101356!Symbol_of_Yamazoe,_Nara.svg2012-Jan-10 07:29:441.0Kapplication/octet-stream
20120224145357!Fukuoka_Kushida_Setsubun_2011.jpg2011-Mar-06 12:12:041.1Mimage/jpeg
20120225162516!West_slavs_9th-10th_c..png2007-Jul-12 20:06:44495.3Kimage/png
20120225163952!Murayama_Yamagata_chapter.svg2011-Apr-05 05:23:050.6Kapplication/octet-stream
20120225171638!Relief_COA_Habsbourg_Lorraine_fiacre_Vienne.jpg2012-Feb-25 13:09:354.0Mimage/jpeg
20120225200212!USA_Clay_County,_Illinois_age_pyramid.svg2006-Jun-28 14:04:138.4Kapplication/octet-stream
20120225215007!Groß_Godems_in_SWM.svg2012-Jan-02 22:00:42576.3Kapplication/octet-stream
20120226142322!Kaewkorawaram_temple_4.JPG2012-Feb-26 14:22:202.3Mimage/jpeg
20120226144742!Riyadh_02919.JPG2006-Mar-03 16:27:331.4Mimage/jpeg
20120226144926!Riyadh_02919.JPG2012-Feb-26 14:47:451.9Mimage/jpeg
20120227064907!RS-X_2012_European_Windsurfing_Championship,_Funchal,_Madeira_-_23_Feb_2012_-_DSC01671.JPG2012-Feb-24 08:05:444.5Mimage/jpeg
20120227110810!Murayama_Yamagata_chapter.svg2012-Feb-25 16:39:521.0Kapplication/octet-stream
20120227144114!UN_Security_Council_2004.svg2012-Jan-16 15:29:361.6Mapplication/octet-stream
20120228151653!RitraAureaMFUpUnAC1.jpg2012-Feb-28 15:16:18986.7Kimage/jpeg
20120229180409!WikiProject_Protected_areas_-_good_articles.png2012-Feb-20 21:05:0421.7Kimage/png
20120229214242!CPT-FSM-FSA-Banana.svg2012-Feb-29 21:40:1515.9Kapplication/octet-stream
20120301004727!Grant_county_kansas_map_1905_MSTR.png2012-Feb-29 22:18:1386.7Kimage/png
20120301134410!Yongkang_District_Map.svg2011-Sep-01 07:55:0632.8Kapplication/octet-stream
20120301230350!CPT-FSM-FSA-Banana.svg2012-Feb-29 21:42:4313.4Kapplication/octet-stream
20120302144526!Boerderij-Oudwulverbroek-Oud-Wulfseweg-17_Houten_Nederland.JPG2012-Mar-02 14:44:26875.5Kimage/jpeg
20120302210848!Stamp_GDR_1963_Michel_1115.JPG2012-Mar-02 21:07:3245.6Kimage/jpeg
20120302220015!Fina_2011_track.png2011-Dec-24 09:03:51510.3Kimage/png
20120303102558!LC-36-Atlas-5.jpg2007-May-05 08:20:5384.9Kimage/jpeg
20120303142354!Dugesia_Creta.JPG2009-Dec-16 21:53:082.8Mimage/jpeg
20120303192243!Pullman_company_Calumet_Works_circa_1900.JPG2012-Mar-03 19:22:00168.8Kimage/jpeg
20120304184837!Hualañe.svg2010-Mar-16 17:09:29173.1Kapplication/octet-stream
20120304203837!D04Segelsschiff.JPG2012-Mar-03 20:40:581.5Mimage/jpeg
20120305005031!LesserSlaveLake_in_Alberta.jpg2012-Mar-04 02:14:34647.5Kimage/jpeg
20120305092505!Mikalojus_Konstantinas_Ciurlionis_-_FAIRY_TALE_(FAIRY_TALE_OF_KINGS)_-_1909.jpg2012-Mar-04 08:51:53207.4Kimage/jpeg
20120305191256!Hand_TH2_sample_v_2.png2012-Mar-05 17:42:0916.6Kimage/png
20120305202849!Neustrelitz_in_MBS.svg2012-Jan-02 13:14:20483.0Kapplication/octet-stream
20120306024935!Jose_calderon_croppedz.jpg2007-Apr-29 16:55:50169.6Kimage/jpeg
20120306082128!Clark_St_Tunnel_emer_exit_jeh.jpg2010-Jun-22 13:10:371.2Mimage/jpeg
20120306140539!De_Zeven_Provintiën_van_de_Lage_Landen_-_Novus_XVII_Inferioris_Germaniae_Provinciarum_Typus_(W.Blaeu,_J.van_den_Ende,_1664).jpg2008-Oct-15 11:54:334.4Mimage/jpeg
20120306193055!Gravestone_Geschwister_Dillmann_at_Ehemaliger_Friedhof_Limburg_01.jpg2012-Mar-02 16:58:319.4Mimage/jpeg
20120306211435!Yamatotakeruno-mikoto,Kami-cho,Sakura-city,Japan.jpg2012-Mar-05 12:22:04247.5Kimage/jpeg
20120307153923!Beauty_and_the_Beast_First_Screen_(Commodore_64).jpg2012-Mar-07 14:45:4012.7Kimage/jpeg
20120307191704!Ron_Artest_2011.jpg2011-Nov-23 06:26:41126.8Kimage/jpeg
20120309223137!Kit_body_palmeiras1112h.png2011-Jun-06 12:22:240.4Kimage/png
20120309230913!Temporary_Thai_plate_for_use_outside_Thailand_-_English_plate.jpg2010-Nov-04 08:04:4763.9Kimage/jpeg
20120309233047!Firestorm_of_Star_Birth_in_Galaxy_Centaurus_A.jpg2012-Mar-09 07:19:43126.5Kimage/jpeg
20120310090013!Centennial_Park.jpg2012-Mar-10 08:06:23363.0Kimage/jpeg
20120310101021!Иннокентий_Анненский_-_Царь_Иксион,_1902.pdf2011-Oct-27 06:18:47992.0Kapplication/pdf
20120311015708!Ghaggar_river_in_Panchkula.jpg2010-Aug-06 15:50:11128.6Kimage/jpeg
20120311051352!Kit_right_arm_leondehuanuco2010v.png2011-Nov-11 21:58:450.4Kimage/png
20120311155347!Jackie_Chan_and_a_hostess.jpg2012-Mar-11 15:09:24379.0Kimage/jpeg
20120312054038!Albert_Einstein_at_Princeton.jpg2012-Mar-12 05:24:261.6Mimage/jpeg
20120312201710!Ammann_Simon_SUI_IMG_9657.JPG2012-Mar-12 19:00:172.5Mimage/jpeg
20120313062203!01PillarRocks&Kodaikanal&TN.jpg2012-Mar-10 07:47:33453.6Kimage/jpeg
20120313065011!01PillarRocks&Kodaikanal&TN.jpg2012-Mar-13 06:22:04461.3Kimage/jpeg
20120313080529!Postelsia_palmaeformis_2.jpg2008-Feb-19 18:23:584.8Mimage/jpeg
20120313123533!WikiProject_Protected_areas_-_good_articles.png2012-Feb-29 18:04:1020.7Kimage/png
20120313123830!WikiProject_Protected_areas_-_good_articles.png2012-Mar-13 12:35:3323.0Kimage/png
20120313160603!Zetelverdeling-FS-2007.png2011-Dec-01 11:21:2715.7Kimage/png
20120314004316!Symbiodinium_Ecology.png2012-Mar-14 00:35:39539.4Kimage/png
20120314053548!Krishna_Advising_on_the_Horse_Sacrifice.jpg2012-Mar-09 10:58:19154.1Kimage/jpeg
20120314141729!Bresadola_Davide_ITA_IMG_8632.JPG2012-Mar-12 19:28:003.8Mimage/jpeg
20120314225435!Mapa_de_Mesquita-RJ_(Vila_Emil).svg2011-Sep-22 01:08:13433.9Kapplication/octet-stream
20120315153721!Witold_Gombrowicz's_valise.jpg2012-Apr-14 06:14:2256.6Kimage/jpeg
20120315155103!Witold_Gombrowicz's_valise.jpg2012-Apr-14 06:14:236.1Mimage/jpeg
20120315201910!Nature_reserve_Arba_(012).jpg2012-Mar-15 20:02:308.0Mimage/jpeg
20120316181942!Eindhoven_wapen.svg2011-Apr-28 11:11:40329.7Kapplication/octet-stream
20120316205548!Gorillaz_-_wallpaper_03.jpg2012-Mar-16 20:55:38138.4Kimage/jpeg
20120316231646!Adriaan-Boer-pionier-der-kunstzinnige-fotografie.jpg2012-Mar-16 23:04:0851.5Kimage/jpeg
20120317083603!Liu_Xiaobo-300.jpg2010-Jun-04 17:03:4515.2Kimage/jpeg
20120317105703!Bykle_komm.svg2011-Nov-03 20:49:222.7Kapplication/octet-stream
20120317213113!Ehemalige_Gerichtsbezirke_Tirol_(1919-2002).svg2012-Mar-17 21:28:40233.6Kapplication/octet-stream
20120317232608!Colorado_30.svg2007-Apr-17 18:10:477.1Kapplication/octet-stream
20120317234339!Colorado_94.svg2007-May-10 13:54:304.8Kapplication/octet-stream
20120318041656!Leighton-Tristan_and_Isolde-1902.jpg2007-Mar-13 19:03:0338.8Kimage/jpeg
20120318041852!Leighton-Tristan_and_Isolde-1902.jpg2012-Mar-18 04:16:5771.5Kimage/jpeg
20120318042137!Leighton-Tristan_and_Isolde-1902.jpg2012-Mar-18 04:18:5271.5Kimage/jpeg
20120318161913!Adriaan-Boer-pionier-der-kunstzinnige-fotografie.jpg2012-Mar-16 23:16:4796.6Kimage/jpeg
20120318173746!AgassizAlmeida.jpg2012-Mar-18 17:37:0426.0Kimage/jpeg
20120318195545!Philadelphia_City_Hall_from_Market_Street.jpg2012-Mar-18 19:45:22965.8Kimage/jpeg
20120319000727!Bundesarchiv_Bild_183-1986-0416-418,_Berlin,_Michail_Gorbatschow_an_der_Mauer.jpg2008-Dec-04 09:57:4977.7Kimage/jpeg
20120319030823!Arrival_of_Charles_III_in_Naples.jpg2007-Feb-10 22:33:3896.7Kimage/jpeg
20120319130607!Gabiano_castello_ovest.jpg2012-Mar-19 13:04:52273.2Kimage/jpeg
20120320044723!Icon-of-saint-Michael-horseman-(Russia,1718).jpg2012-Mar-20 04:46:07428.8Kimage/jpeg
20120320192358!Blue_marlin_skeleton.jpg2009-Apr-23 21:32:3580.5Kimage/jpeg
20120320205138!Timothy_Ferriss.jpg2010-May-21 12:52:48135.0Kimage/jpeg
20120321111530!Die_Gartenlaube_(1869)_085.jpg2012-Feb-23 14:01:551.5Mimage/jpeg
20120321115749!Froschmäusekrieg_1878_04.jpg2012-Mar-21 11:28:52159.0Kimage/jpeg
20120321131646!Non-local-train-stops_of_Kintetsu.svg2007-Jun-24 16:16:36207.6Kapplication/octet-stream
20120321132110!Non-local-train-stops_of_Kintetsu.svg2012-Mar-21 13:16:46195.5Kapplication/octet-stream
20120321132928!Froschmäusekrieg_1878_04.jpg2012-Mar-21 11:57:50159.0Kimage/jpeg
20120321135538!Non-local-train-stops_of_Kintetsu.svg2012-Mar-21 13:21:10195.5Kapplication/octet-stream
20120321163639!Madonna_of_the_North.jpg2012-Mar-20 22:03:284.9Mimage/jpeg
20120322020448!Busan_Choryang_Post_office.JPG2012-Mar-22 02:00:592.3Mimage/jpeg
20120322174728!Earls_Cove_Ferry.jpg2006-Dec-22 09:21:551.7Mimage/jpeg
20120322181655!Sint_Anthonis_wapen.svg2011-Mar-31 02:06:4084.1Kapplication/octet-stream
20120323150408!Non-local-train-stops_of_Kintetsu.svg2012-Mar-21 13:55:38195.4Kapplication/octet-stream
20120323171023!Saint-Ulrich-in-the-battle.jpg2008-May-02 22:30:271.0Mimage/jpeg
20120324004412!Bandera_Oneida.PNG2006-Jan-22 15:53:5811.8Kimage/png
20120324184716!Sidi_Bouhlel_1.jpg2012-Mar-24 23:10:33283.1Kimage/jpeg
20120324231225!Clinton_County_28.svg2012-Mar-24 22:45:3419.2Kapplication/octet-stream
20120325072334!Rivenhall-04-1944.jpg2012-Jan-31 03:40:15104.8Kimage/jpeg
20120325072349!Rivenhall-04-1944.jpg2012-Mar-25 07:23:3581.5Kimage/jpeg
20120325163806!Édouard_Chavannes.jpg2007-Jul-18 08:23:023.5Kimage/jpeg
20120326005422!Jorge_Muñoz_with_Obama.png2012-Mar-26 00:18:341.2Mimage/png
20120326022904!Hudson_County_625.svg2012-Mar-26 01:40:0722.9Kapplication/octet-stream
20120326023445!Hudson_County_625.svg2012-Mar-26 02:29:0414.6Kapplication/octet-stream
20120327152744!Vaginabr.JPG2012-Mar-27 15:26:07671.2Kimage/jpeg
20120327172752!U-Bahn_Wien_Eröffnungen.gif2010-Nov-07 19:48:591.3Mimage/gif
20120327204344!Herman_Wedel-Jarlsberg_av_Nørregaard.jpg2012-Mar-27 17:19:075.7Kimage/jpeg
20120327221316!KC_with_Swords_distribution.jpg2012-Feb-23 17:13:1075.6Kimage/jpeg
20120327221324!KC_with_Swords_distribution.jpg2012-Mar-27 22:13:1676.2Kimage/jpeg
20120328145008!WikiProject_Protected_areas_-_good_articles.png2012-Mar-13 12:38:3121.9Kimage/png
20120328180328!Roman_Empire_125.png2011-May-17 01:52:473.6Mimage/png
20120328191805!Mirek_Firdousi_Gazna.jpg2009-Sep-19 18:30:41137.4Kimage/jpeg
20120328213351!Roman_Empire_125.png<